﻿<?xml version="1.0" encoding="utf-8"?><gpx creator="Garmin Desktop App" version="1.1" xsi:schemaLocation="http://www.topografix.com/GPX/1/1 http://www.topografix.com/GPX/1/1/gpx.xsd http://www.garmin.com/xmlschemas/WaypointExtension/v1 http://www8.garmin.com/xmlschemas/WaypointExtensionv1.xsd http://www.garmin.com/xmlschemas/TrackPointExtension/v1 http://www.garmin.com/xmlschemas/TrackPointExtensionv1.xsd http://www.garmin.com/xmlschemas/GpxExtensions/v3 http://www8.garmin.com/xmlschemas/GpxExtensionsv3.xsd http://www.garmin.com/xmlschemas/ActivityExtension/v1 http://www8.garmin.com/xmlschemas/ActivityExtensionv1.xsd http://www.garmin.com/xmlschemas/AdventuresExtensions/v1 http://www8.garmin.com/xmlschemas/AdventuresExtensionv1.xsd http://www.garmin.com/xmlschemas/PressureExtension/v1 http://www.garmin.com/xmlschemas/PressureExtensionv1.xsd http://www.garmin.com/xmlschemas/TripExtensions/v1 http://www.garmin.com/xmlschemas/TripExtensionsv1.xsd http://www.garmin.com/xmlschemas/TripMetaDataExtensions/v1 http://www.garmin.com/xmlschemas/TripMetaDataExtensionsv1.xsd http://www.garmin.com/xmlschemas/ViaPointTransportationModeExtensions/v1 http://www.garmin.com/xmlschemas/ViaPointTransportationModeExtensionsv1.xsd http://www.garmin.com/xmlschemas/CreationTimeExtension/v1 http://www.garmin.com/xmlschemas/CreationTimeExtensionsv1.xsd http://www.garmin.com/xmlschemas/AccelerationExtension/v1 http://www.garmin.com/xmlschemas/AccelerationExtensionv1.xsd http://www.garmin.com/xmlschemas/PowerExtension/v1 http://www.garmin.com/xmlschemas/PowerExtensionv1.xsd http://www.garmin.com/xmlschemas/VideoExtension/v1 http://www.garmin.com/xmlschemas/VideoExtensionv1.xsd" xmlns="http://www.topografix.com/GPX/1/1" xmlns:xsi="http://www.w3.org/2001/XMLSchema-instance" xmlns:wptx1="http://www.garmin.com/xmlschemas/WaypointExtension/v1" xmlns:gpxtrx="http://www.garmin.com/xmlschemas/GpxExtensions/v3" xmlns:gpxtpx="http://www.garmin.com/xmlschemas/TrackPointExtension/v1" xmlns:gpxx="http://www.garmin.com/xmlschemas/GpxExtensions/v3" xmlns:trp="http://www.garmin.com/xmlschemas/TripExtensions/v1" xmlns:adv="http://www.garmin.com/xmlschemas/AdventuresExtensions/v1" xmlns:prs="http://www.garmin.com/xmlschemas/PressureExtension/v1" xmlns:tmd="http://www.garmin.com/xmlschemas/TripMetaDataExtensions/v1" xmlns:vptm="http://www.garmin.com/xmlschemas/ViaPointTransportationModeExtensions/v1" xmlns:ctx="http://www.garmin.com/xmlschemas/CreationTimeExtension/v1" xmlns:gpxacc="http://www.garmin.com/xmlschemas/AccelerationExtension/v1" xmlns:gpxpx="http://www.garmin.com/xmlschemas/PowerExtension/v1" xmlns:vidx1="http://www.garmin.com/xmlschemas/VideoExtension/v1">

  <metadata>
    <link href="http://www.garmin.com">
      <text>Garmin International</text>
    </link>
    <time>2026-06-30T17:58:09Z</time>
    <bounds maxlat="52.572992015630007" maxlon="-9.055636022239924" minlat="52.097757970914245" minlon="-10.467135021463037" />
  </metadata>

  <trk>
    <name>Track vom: 2026-06-30 08:29</name>
    <extensions>
      <gpxx:TrackExtension>
        <gpxx:DisplayColor>DarkGray</gpxx:DisplayColor>
      </gpxx:TrackExtension>
    </extensions>
    <trkseg>
      <trkpt lat="52.111358027905226" lon="-9.505535010248423">
        <ele>101.56</ele>
        <time>2026-06-30T07:29:35Z</time>
      </trkpt>
      <trkpt lat="52.111328020691872" lon="-9.505542973056436">
        <ele>98.189999999999998</ele>
        <time>2026-06-30T07:29:53Z</time>
      </trkpt>
      <trkpt lat="52.111642006784678" lon="-9.505544984713197">
        <ele>97.709999999999994</ele>
        <time>2026-06-30T07:30:00Z</time>
      </trkpt>
      <trkpt lat="52.11173596791923" lon="-9.505540961399674">
        <ele>98.670000000000002</ele>
        <time>2026-06-30T07:30:07Z</time>
      </trkpt>
      <trkpt lat="52.11190796457231" lon="-9.505618996918201">
        <ele>99.150000000000006</ele>
        <time>2026-06-30T07:30:09Z</time>
      </trkpt>
      <trkpt lat="52.111933026462793" lon="-9.505725027993321">
        <ele>99.150000000000006</ele>
        <time>2026-06-30T07:30:10Z</time>
      </trkpt>
      <trkpt lat="52.112305015325546" lon="-9.507108964025974">
        <ele>99.150000000000006</ele>
        <time>2026-06-30T07:30:20Z</time>
      </trkpt>
      <trkpt lat="52.112590000033379" lon="-9.508017981424928">
        <ele>95.790000000000006</ele>
        <time>2026-06-30T07:30:25Z</time>
      </trkpt>
      <trkpt lat="52.112640962004662" lon="-9.508215039968491">
        <ele>94.829999999999998</ele>
        <time>2026-06-30T07:30:26Z</time>
      </trkpt>
      <trkpt lat="52.112693013623357" lon="-9.508413020521402">
        <ele>94.349999999999994</ele>
        <time>2026-06-30T07:30:27Z</time>
      </trkpt>
      <trkpt lat="52.112731989473104" lon="-9.508607983589172">
        <ele>93.390000000000001</ele>
        <time>2026-06-30T07:30:28Z</time>
      </trkpt>
      <trkpt lat="52.112753028050065" lon="-9.508820967748761">
        <ele>92.900000000000006</ele>
        <time>2026-06-30T07:30:29Z</time>
      </trkpt>
      <trkpt lat="52.112987972795963" lon="-9.511257000267506">
        <ele>92.420000000000002</ele>
        <time>2026-06-30T07:30:41Z</time>
      </trkpt>
      <trkpt lat="52.11304496973753" lon="-9.513507038354874">
        <ele>91.459999999999994</ele>
        <time>2026-06-30T07:30:52Z</time>
      </trkpt>
      <trkpt lat="52.113016974180937" lon="-9.515393972396851">
        <ele>89.540000000000006</ele>
        <time>2026-06-30T07:31:02Z</time>
      </trkpt>
      <trkpt lat="52.112975986674428" lon="-9.516214979812503">
        <ele>88.099999999999994</ele>
        <time>2026-06-30T07:31:08Z</time>
      </trkpt>
      <trkpt lat="52.112971963360906" lon="-9.516286980360746">
        <ele>88.099999999999994</ele>
        <time>2026-06-30T07:31:09Z</time>
      </trkpt>
      <trkpt lat="52.112966012209654" lon="-9.516418995335698">
        <ele>87.620000000000005</ele>
        <time>2026-06-30T07:31:16Z</time>
      </trkpt>
      <trkpt lat="52.112946985289454" lon="-9.516842029988766">
        <ele>87.140000000000001</ele>
        <time>2026-06-30T07:31:22Z</time>
      </trkpt>
      <trkpt lat="52.112940028309822" lon="-9.517014026641846">
        <ele>87.140000000000001</ele>
        <time>2026-06-30T07:31:23Z</time>
      </trkpt>
      <trkpt lat="52.11285101249814" lon="-9.517321977764368">
        <ele>86.659999999999997</ele>
        <time>2026-06-30T07:31:25Z</time>
      </trkpt>
      <trkpt lat="52.11261497810483" lon="-9.51807601377368">
        <ele>85.209999999999994</ele>
        <time>2026-06-30T07:31:29Z</time>
      </trkpt>
      <trkpt lat="52.112545995041728" lon="-9.518282962962985">
        <ele>85.209999999999994</ele>
        <time>2026-06-30T07:31:30Z</time>
      </trkpt>
      <trkpt lat="52.111978959292173" lon="-9.520065039396286">
        <ele>82.329999999999998</ele>
        <time>2026-06-30T07:31:39Z</time>
      </trkpt>
      <trkpt lat="52.111792964860797" lon="-9.520798958837986">
        <ele>81.370000000000005</ele>
        <time>2026-06-30T07:31:43Z</time>
      </trkpt>
      <trkpt lat="52.111688023433089" lon="-9.521144963800907">
        <ele>81.370000000000005</ele>
        <time>2026-06-30T07:31:45Z</time>
      </trkpt>
      <trkpt lat="52.111619040369987" lon="-9.521315032616258">
        <ele>81.370000000000005</ele>
        <time>2026-06-30T07:31:46Z</time>
      </trkpt>
      <trkpt lat="52.111440002918243" lon="-9.521595994010568">
        <ele>81.849999999999994</ele>
        <time>2026-06-30T07:31:48Z</time>
      </trkpt>
      <trkpt lat="52.11134604178369" lon="-9.521745024248958">
        <ele>81.370000000000005</ele>
        <time>2026-06-30T07:31:49Z</time>
      </trkpt>
      <trkpt lat="52.111076982691884" lon="-9.522236036136746">
        <ele>83.290000000000006</ele>
        <time>2026-06-30T07:31:52Z</time>
      </trkpt>
      <trkpt lat="52.11098100990057" lon="-9.522410966455936">
        <ele>84.730000000000004</ele>
        <time>2026-06-30T07:31:53Z</time>
      </trkpt>
      <trkpt lat="52.110232003033161" lon="-9.523788029327989">
        <ele>90.980000000000004</ele>
        <time>2026-06-30T07:32:02Z</time>
      </trkpt>
      <trkpt lat="52.109361961483955" lon="-9.525152016431093">
        <ele>87.140000000000001</ele>
        <time>2026-06-30T07:32:11Z</time>
      </trkpt>
      <trkpt lat="52.108499966561794" lon="-9.526265971362591">
        <ele>82.810000000000002</ele>
        <time>2026-06-30T07:32:19Z</time>
      </trkpt>
      <trkpt lat="52.108434000983834" lon="-9.52636999078095">
        <ele>82.810000000000002</ele>
        <time>2026-06-30T07:32:20Z</time>
      </trkpt>
      <trkpt lat="52.108383039012551" lon="-9.526569982990623">
        <ele>83.290000000000006</ele>
        <time>2026-06-30T07:32:21Z</time>
      </trkpt>
      <trkpt lat="52.108341967687011" lon="-9.526727981865406">
        <ele>83.290000000000006</ele>
        <time>2026-06-30T07:32:22Z</time>
      </trkpt>
      <trkpt lat="52.108238032087684" lon="-9.527132995426655">
        <ele>84.25</ele>
        <time>2026-06-30T07:32:25Z</time>
      </trkpt>
      <trkpt lat="52.108236020430923" lon="-9.527282025665045">
        <ele>84.25</ele>
        <time>2026-06-30T07:32:26Z</time>
      </trkpt>
      <trkpt lat="52.108266027644277" lon="-9.527415968477726">
        <ele>84.25</ele>
        <time>2026-06-30T07:32:27Z</time>
      </trkpt>
      <trkpt lat="52.108298968523741" lon="-9.527564998716116">
        <ele>83.769999999999996</ele>
        <time>2026-06-30T07:32:28Z</time>
      </trkpt>
      <trkpt lat="52.108335010707378" lon="-9.527728026732802">
        <ele>83.290000000000006</ele>
        <time>2026-06-30T07:32:29Z</time>
      </trkpt>
      <trkpt lat="52.108329981565475" lon="-9.527919972315431">
        <ele>82.810000000000002</ele>
        <time>2026-06-30T07:32:30Z</time>
      </trkpt>
      <trkpt lat="52.108306009322405" lon="-9.528100015595555">
        <ele>82.329999999999998</ele>
        <time>2026-06-30T07:32:31Z</time>
      </trkpt>
      <trkpt lat="52.108281031250954" lon="-9.528285004198551">
        <ele>81.849999999999994</ele>
        <time>2026-06-30T07:32:32Z</time>
      </trkpt>
      <trkpt lat="52.108255969360471" lon="-9.528474016115069">
        <ele>81.849999999999994</ele>
        <time>2026-06-30T07:32:33Z</time>
      </trkpt>
      <trkpt lat="52.10823099128902" lon="-9.528665039688349">
        <ele>81.370000000000005</ele>
        <time>2026-06-30T07:32:34Z</time>
      </trkpt>
      <trkpt lat="52.108205007389188" lon="-9.528857991099358">
        <ele>80.890000000000001</ele>
        <time>2026-06-30T07:32:35Z</time>
      </trkpt>
      <trkpt lat="52.108181035146117" lon="-9.529041973873973">
        <ele>80.409999999999997</ele>
        <time>2026-06-30T07:32:36Z</time>
      </trkpt>
      <trkpt lat="52.108181035146117" lon="-9.529230985790491">
        <ele>80.409999999999997</ele>
        <time>2026-06-30T07:32:37Z</time>
      </trkpt>
      <trkpt lat="52.108185980468988" lon="-9.529417986050248">
        <ele>80.409999999999997</ele>
        <time>2026-06-30T07:32:38Z</time>
      </trkpt>
      <trkpt lat="52.108192015439272" lon="-9.52961303293705">
        <ele>80.890000000000001</ele>
        <time>2026-06-30T07:32:39Z</time>
      </trkpt>
      <trkpt lat="52.108197966590524" lon="-9.52980799600482">
        <ele>81.370000000000005</ele>
        <time>2026-06-30T07:32:40Z</time>
      </trkpt>
      <trkpt lat="52.108202995732427" lon="-9.529996002092958">
        <ele>81.849999999999994</ele>
        <time>2026-06-30T07:32:41Z</time>
      </trkpt>
      <trkpt lat="52.10820903070271" lon="-9.530186019837856">
        <ele>81.849999999999994</ele>
        <time>2026-06-30T07:32:42Z</time>
      </trkpt>
      <trkpt lat="52.108213976025581" lon="-9.53036799095571">
        <ele>82.329999999999998</ele>
        <time>2026-06-30T07:32:43Z</time>
      </trkpt>
      <trkpt lat="52.108219005167484" lon="-9.530531018972397">
        <ele>82.329999999999998</ele>
        <time>2026-06-30T07:32:44Z</time>
      </trkpt>
      <trkpt lat="52.108237026259303" lon="-9.530664039775729">
        <ele>82.810000000000002</ele>
        <time>2026-06-30T07:32:45Z</time>
      </trkpt>
      <trkpt lat="52.108256975188851" lon="-9.530789013952017">
        <ele>83.290000000000006</ele>
        <time>2026-06-30T07:32:46Z</time>
      </trkpt>
      <trkpt lat="52.108276002109051" lon="-9.530908036977053">
        <ele>83.769999999999996</ele>
        <time>2026-06-30T07:32:47Z</time>
      </trkpt>
      <trkpt lat="52.10829402320087" lon="-9.531019013375044">
        <ele>84.25</ele>
        <time>2026-06-30T07:32:48Z</time>
      </trkpt>
      <trkpt lat="52.108311038464308" lon="-9.531105011701584">
        <ele>84.25</ele>
        <time>2026-06-30T07:32:49Z</time>
      </trkpt>
      <trkpt lat="52.108354959636927" lon="-9.531208025291562">
        <ele>84.730000000000004</ele>
        <time>2026-06-30T07:32:50Z</time>
      </trkpt>
      <trkpt lat="52.108401982113719" lon="-9.531320007517934">
        <ele>85.209999999999994</ele>
        <time>2026-06-30T07:32:51Z</time>
      </trkpt>
      <trkpt lat="52.108455961570144" lon="-9.531449005007744">
        <ele>85.209999999999994</ele>
        <time>2026-06-30T07:32:52Z</time>
      </trkpt>
      <trkpt lat="52.108530979603529" lon="-9.531556963920593">
        <ele>85.209999999999994</ele>
        <time>2026-06-30T07:32:53Z</time>
      </trkpt>
      <trkpt lat="52.108624018728733" lon="-9.531656038016081">
        <ele>85.209999999999994</ele>
        <time>2026-06-30T07:32:54Z</time>
      </trkpt>
      <trkpt lat="52.108716974034905" lon="-9.531755028292537">
        <ele>84.730000000000004</ele>
        <time>2026-06-30T07:32:55Z</time>
      </trkpt>
      <trkpt lat="52.108821999281645" lon="-9.53182702884078">
        <ele>84.25</ele>
        <time>2026-06-30T07:32:56Z</time>
      </trkpt>
      <trkpt lat="52.108932975679636" lon="-9.531844966113567">
        <ele>83.769999999999996</ele>
        <time>2026-06-30T07:32:57Z</time>
      </trkpt>
      <trkpt lat="52.109044035896659" lon="-9.531862987205386">
        <ele>83.290000000000006</ele>
        <time>2026-06-30T07:32:58Z</time>
      </trkpt>
      <trkpt lat="52.109157023951411" lon="-9.531881008297205">
        <ele>83.290000000000006</ele>
        <time>2026-06-30T07:32:59Z</time>
      </trkpt>
      <trkpt lat="52.109269006177783" lon="-9.531899029389024">
        <ele>82.810000000000002</ele>
        <time>2026-06-30T07:33:00Z</time>
      </trkpt>
      <trkpt lat="52.109374031424522" lon="-9.53191596083343">
        <ele>82.329999999999998</ele>
        <time>2026-06-30T07:33:01Z</time>
      </trkpt>
      <trkpt lat="52.109466986730695" lon="-9.531960971653462">
        <ele>81.849999999999994</ele>
        <time>2026-06-30T07:33:02Z</time>
      </trkpt>
      <trkpt lat="52.109553990885615" lon="-9.532079994678497">
        <ele>81.370000000000005</ele>
        <time>2026-06-30T07:33:03Z</time>
      </trkpt>
      <trkpt lat="52.109647030010819" lon="-9.532206980511546">
        <ele>80.890000000000001</ele>
        <time>2026-06-30T07:33:04Z</time>
      </trkpt>
      <trkpt lat="52.109727999195457" lon="-9.532357016578317">
        <ele>80.409999999999997</ele>
        <time>2026-06-30T07:33:05Z</time>
      </trkpt>
      <trkpt lat="52.109807962551713" lon="-9.532528007403016">
        <ele>79.930000000000007</ele>
        <time>2026-06-30T07:33:06Z</time>
      </trkpt>
      <trkpt lat="52.110517993569374" lon="-9.534056028351188">
        <ele>78</ele>
        <time>2026-06-30T07:33:14Z</time>
      </trkpt>
      <trkpt lat="52.111376971006393" lon="-9.536314029246569">
        <ele>73.680000000000007</ele>
        <time>2026-06-30T07:33:25Z</time>
      </trkpt>
      <trkpt lat="52.112245000898838" lon="-9.538779985159636">
        <ele>78.969999999999999</ele>
        <time>2026-06-30T07:33:37Z</time>
      </trkpt>
      <trkpt lat="52.112656971439719" lon="-9.540417976677418">
        <ele>81.370000000000005</ele>
        <time>2026-06-30T07:33:45Z</time>
      </trkpt>
      <trkpt lat="52.11300197057426" lon="-9.542064014822245">
        <ele>77.040000000000006</ele>
        <time>2026-06-30T07:33:54Z</time>
      </trkpt>
      <trkpt lat="52.113112024962902" lon="-9.542848980054259">
        <ele>74.640000000000001</ele>
        <time>2026-06-30T07:33:59Z</time>
      </trkpt>
      <trkpt lat="52.113071959465742" lon="-9.543032040819526">
        <ele>74.159999999999997</ele>
        <time>2026-06-30T07:34:00Z</time>
      </trkpt>
      <trkpt lat="52.112995013594627" lon="-9.543390031903982">
        <ele>73.200000000000003</ele>
        <time>2026-06-30T07:34:02Z</time>
      </trkpt>
      <trkpt lat="52.112952014431357" lon="-9.543587006628513">
        <ele>72.719999999999999</ele>
        <time>2026-06-30T07:34:03Z</time>
      </trkpt>
      <trkpt lat="52.112895017489791" lon="-9.543780041858554">
        <ele>72.239999999999995</ele>
        <time>2026-06-30T07:34:04Z</time>
      </trkpt>
      <trkpt lat="52.112530991435051" lon="-9.544991981238127">
        <ele>68.870000000000005</ele>
        <time>2026-06-30T07:34:10Z</time>
      </trkpt>
      <trkpt lat="52.112508025020361" lon="-9.545160960406065">
        <ele>68.390000000000001</ele>
        <time>2026-06-30T07:34:11Z</time>
      </trkpt>
      <trkpt lat="52.112501990050077" lon="-9.545345026999712">
        <ele>67.909999999999997</ele>
        <time>2026-06-30T07:34:12Z</time>
      </trkpt>
      <trkpt lat="52.112495033070445" lon="-9.545534960925579">
        <ele>67.430000000000007</ele>
        <time>2026-06-30T07:34:13Z</time>
      </trkpt>
      <trkpt lat="52.112491009756923" lon="-9.545730007812381">
        <ele>67.430000000000007</ele>
        <time>2026-06-30T07:34:14Z</time>
      </trkpt>
      <trkpt lat="52.11252897977829" lon="-9.546349011361599">
        <ele>67.430000000000007</ele>
        <time>2026-06-30T07:34:17Z</time>
      </trkpt>
      <trkpt lat="52.112542977556586" lon="-9.546569036319852">
        <ele>67.430000000000007</ele>
        <time>2026-06-30T07:34:18Z</time>
      </trkpt>
      <trkpt lat="52.112611960619688" lon="-9.548372989520431">
        <ele>66.950000000000003</ele>
        <time>2026-06-30T07:34:26Z</time>
      </trkpt>
      <trkpt lat="52.112642973661423" lon="-9.550329996272922">
        <ele>65.989999999999995</ele>
        <time>2026-06-30T07:34:35Z</time>
      </trkpt>
      <trkpt lat="52.112645991146564" lon="-9.55054298043251">
        <ele>66.469999999999999</ele>
        <time>2026-06-30T07:34:36Z</time>
      </trkpt>
      <trkpt lat="52.112660994753242" lon="-9.551454009488225">
        <ele>67.909999999999997</ele>
        <time>2026-06-30T07:34:40Z</time>
      </trkpt>
      <trkpt lat="52.1126579772681" lon="-9.551704963669181">
        <ele>67.909999999999997</ele>
        <time>2026-06-30T07:34:41Z</time>
      </trkpt>
      <trkpt lat="52.112655965611339" lon="-9.551948038861156">
        <ele>68.390000000000001</ele>
        <time>2026-06-30T07:34:42Z</time>
      </trkpt>
      <trkpt lat="52.112650014460087" lon="-9.552449025213718">
        <ele>68.870000000000005</ele>
        <time>2026-06-30T07:34:44Z</time>
      </trkpt>
      <trkpt lat="52.112646996974945" lon="-9.552696961909533">
        <ele>68.390000000000001</ele>
        <time>2026-06-30T07:34:45Z</time>
      </trkpt>
      <trkpt lat="52.112696031108499" lon="-9.554484989494085">
        <ele>68.390000000000001</ele>
        <time>2026-06-30T07:34:53Z</time>
      </trkpt>
      <trkpt lat="52.112729977816343" lon="-9.555129976943135">
        <ele>67.430000000000007</ele>
        <time>2026-06-30T07:34:56Z</time>
      </trkpt>
      <trkpt lat="52.112740958109498" lon="-9.55535301938653">
        <ele>66.469999999999999</ele>
        <time>2026-06-30T07:34:57Z</time>
      </trkpt>
      <trkpt lat="52.112753028050065" lon="-9.555587964132428">
        <ele>65.989999999999995</ele>
        <time>2026-06-30T07:34:58Z</time>
      </trkpt>
      <trkpt lat="52.112766019999981" lon="-9.555825004354119">
        <ele>65.510000000000005</ele>
        <time>2026-06-30T07:34:59Z</time>
      </trkpt>
      <trkpt lat="52.112778006121516" lon="-9.556057015433908">
        <ele>65.510000000000005</ele>
        <time>2026-06-30T07:35:00Z</time>
      </trkpt>
      <trkpt lat="52.112812958657742" lon="-9.556741984561086">
        <ele>64.549999999999997</ele>
        <time>2026-06-30T07:35:03Z</time>
      </trkpt>
      <trkpt lat="52.112825028598309" lon="-9.556969972327352">
        <ele>64.549999999999997</ele>
        <time>2026-06-30T07:35:04Z</time>
      </trkpt>
      <trkpt lat="52.112888982519507" lon="-9.558208985254169">
        <ele>65.030000000000001</ele>
        <time>2026-06-30T07:35:10Z</time>
      </trkpt>
      <trkpt lat="52.112902980297804" lon="-9.558415012434125">
        <ele>65.030000000000001</ele>
        <time>2026-06-30T07:35:11Z</time>
      </trkpt>
      <trkpt lat="52.113104984164238" lon="-9.560194993391633">
        <ele>62.140000000000001</ele>
        <time>2026-06-30T07:35:20Z</time>
      </trkpt>
      <trkpt lat="52.113132979720831" lon="-9.560583997517824">
        <ele>61.18</ele>
        <time>2026-06-30T07:35:26Z</time>
      </trkpt>
      <trkpt lat="52.113155024126172" lon="-9.560664966702461">
        <ele>61.18</ele>
        <time>2026-06-30T07:35:27Z</time>
      </trkpt>
      <trkpt lat="52.113132979720831" lon="-9.560637976974249">
        <ele>60.700000000000003</ele>
        <time>2026-06-30T07:35:31Z</time>
      </trkpt>
      <trkpt lat="52.113176984712481" lon="-9.560694973915815">
        <ele>60.700000000000003</ele>
        <time>2026-06-30T07:35:32Z</time>
      </trkpt>
      <trkpt lat="52.113211015239358" lon="-9.560736967250705">
        <ele>60.219999999999999</ele>
        <time>2026-06-30T07:35:33Z</time>
      </trkpt>
      <trkpt lat="52.11325996555388" lon="-9.560802010819316">
        <ele>60.219999999999999</ele>
        <time>2026-06-30T07:35:34Z</time>
      </trkpt>
      <trkpt lat="52.113321991637349" lon="-9.560880968347192">
        <ele>59.740000000000002</ele>
        <time>2026-06-30T07:35:35Z</time>
      </trkpt>
      <trkpt lat="52.113390974700451" lon="-9.560968978330493">
        <ele>59.740000000000002</ele>
        <time>2026-06-30T07:35:36Z</time>
      </trkpt>
      <trkpt lat="52.114062029868364" lon="-9.561834996566176">
        <ele>59.259999999999998</ele>
        <time>2026-06-30T07:35:43Z</time>
      </trkpt>
      <trkpt lat="52.114716991782188" lon="-9.562670001760125">
        <ele>59.740000000000002</ele>
        <time>2026-06-30T07:35:50Z</time>
      </trkpt>
      <trkpt lat="52.115698009729385" lon="-9.563830979168415">
        <ele>71.269999999999996</ele>
        <time>2026-06-30T07:36:00Z</time>
      </trkpt>
      <trkpt lat="52.115789037197828" lon="-9.563884036615491">
        <ele>72.719999999999999</ele>
        <time>2026-06-30T07:36:01Z</time>
      </trkpt>
      <trkpt lat="52.115866988897324" lon="-9.563890993595123">
        <ele>74.159999999999997</ele>
        <time>2026-06-30T07:36:02Z</time>
      </trkpt>
      <trkpt lat="52.115957010537386" lon="-9.563875989988446">
        <ele>75.599999999999994</ele>
        <time>2026-06-30T07:36:03Z</time>
      </trkpt>
      <trkpt lat="52.116050971671939" lon="-9.563859980553389">
        <ele>77.040000000000006</ele>
        <time>2026-06-30T07:36:04Z</time>
      </trkpt>
      <trkpt lat="52.116706017404795" lon="-9.563782028853893">
        <ele>80.409999999999997</ele>
        <time>2026-06-30T07:36:10Z</time>
      </trkpt>
      <trkpt lat="52.116833003237844" lon="-9.563811030238867">
        <ele>80.409999999999997</ele>
        <time>2026-06-30T07:36:11Z</time>
      </trkpt>
      <trkpt lat="52.116952026262879" lon="-9.56388202495873">
        <ele>79.930000000000007</ele>
        <time>2026-06-30T07:36:12Z</time>
      </trkpt>
      <trkpt lat="52.118547018617392" lon="-9.564843010157347">
        <ele>78</ele>
        <time>2026-06-30T07:36:24Z</time>
      </trkpt>
      <trkpt lat="52.119657034054399" lon="-9.565613977611065">
        <ele>75.599999999999994</ele>
        <time>2026-06-30T07:36:34Z</time>
      </trkpt>
      <trkpt lat="52.120721032842994" lon="-9.566681999713182">
        <ele>71.269999999999996</ele>
        <time>2026-06-30T07:36:43Z</time>
      </trkpt>
      <trkpt lat="52.122828997671604" lon="-9.568803040310741">
        <ele>64.069999999999993</ele>
        <time>2026-06-30T07:36:59Z</time>
      </trkpt>
      <trkpt lat="52.124988008290529" lon="-9.570950986817479">
        <ele>60.219999999999999</ele>
        <time>2026-06-30T07:37:15Z</time>
      </trkpt>
      <trkpt lat="52.126173041760921" lon="-9.57215596921742">
        <ele>60.219999999999999</ele>
        <time>2026-06-30T07:37:24Z</time>
      </trkpt>
      <trkpt lat="52.127810027450323" lon="-9.573934022337198">
        <ele>60.700000000000003</ele>
        <time>2026-06-30T07:37:37Z</time>
      </trkpt>
      <trkpt lat="52.12958799675107" lon="-9.575864961370826">
        <ele>63.100000000000001</ele>
        <time>2026-06-30T07:37:51Z</time>
      </trkpt>
      <trkpt lat="52.131469985470176" lon="-9.577903021126986">
        <ele>65.989999999999995</ele>
        <time>2026-06-30T07:38:06Z</time>
      </trkpt>
      <trkpt lat="52.133084004744887" lon="-9.579667998477817">
        <ele>68.390000000000001</ele>
        <time>2026-06-30T07:38:19Z</time>
      </trkpt>
      <trkpt lat="52.133694039657712" lon="-9.580345004796982">
        <ele>72.239999999999995</ele>
        <time>2026-06-30T07:38:26Z</time>
      </trkpt>
      <trkpt lat="52.134237019345164" lon="-9.580914974212647">
        <ele>75.120000000000005</ele>
        <time>2026-06-30T07:38:33Z</time>
      </trkpt>
      <trkpt lat="52.135374024510384" lon="-9.582080980762839">
        <ele>75.120000000000005</ele>
        <time>2026-06-30T07:38:42Z</time>
      </trkpt>
      <trkpt lat="52.137195998802781" lon="-9.58386599086225">
        <ele>80.409999999999997</ele>
        <time>2026-06-30T07:38:55Z</time>
      </trkpt>
      <trkpt lat="52.13897698558867" lon="-9.585545975714922">
        <ele>78</ele>
        <time>2026-06-30T07:39:08Z</time>
      </trkpt>
      <trkpt lat="52.140726037323475" lon="-9.587230989709497">
        <ele>82.329999999999998</ele>
        <time>2026-06-30T07:39:21Z</time>
      </trkpt>
      <trkpt lat="52.142320023849607" lon="-9.588718023151159">
        <ele>83.290000000000006</ele>
        <time>2026-06-30T07:39:33Z</time>
      </trkpt>
      <trkpt lat="52.144034039229155" lon="-9.590217964723706">
        <ele>80.409999999999997</ele>
        <time>2026-06-30T07:39:46Z</time>
      </trkpt>
      <trkpt lat="52.145517971366644" lon="-9.59147097542882">
        <ele>78.969999999999999</ele>
        <time>2026-06-30T07:39:58Z</time>
      </trkpt>
      <trkpt lat="52.146191960200667" lon="-9.591991994529963">
        <ele>77.040000000000006</ele>
        <time>2026-06-30T07:40:05Z</time>
      </trkpt>
      <trkpt lat="52.146242000162601" lon="-9.59202996455133">
        <ele>77.040000000000006</ele>
        <time>2026-06-30T07:40:06Z</time>
      </trkpt>
      <trkpt lat="52.146280976012349" lon="-9.59209299646318">
        <ele>76.560000000000002</ele>
        <time>2026-06-30T07:40:07Z</time>
      </trkpt>
      <trkpt lat="52.146316012367606" lon="-9.592147981747985">
        <ele>76.560000000000002</ele>
        <time>2026-06-30T07:40:08Z</time>
      </trkpt>
      <trkpt lat="52.146351970732212" lon="-9.59220296703279">
        <ele>76.079999999999998</ele>
        <time>2026-06-30T07:40:09Z</time>
      </trkpt>
      <trkpt lat="52.146412990987301" lon="-9.592234985902906">
        <ele>75.599999999999994</ele>
        <time>2026-06-30T07:40:10Z</time>
      </trkpt>
      <trkpt lat="52.146484991535544" lon="-9.592273961752653">
        <ele>75.120000000000005</ele>
        <time>2026-06-30T07:40:11Z</time>
      </trkpt>
      <trkpt lat="52.146569984033704" lon="-9.592319978401065">
        <ele>74.640000000000001</ele>
        <time>2026-06-30T07:40:12Z</time>
      </trkpt>
      <trkpt lat="52.147396020591259" lon="-9.593024980276823">
        <ele>72.719999999999999</ele>
        <time>2026-06-30T07:40:19Z</time>
      </trkpt>
      <trkpt lat="52.14892596937716" lon="-9.594253012910485">
        <ele>63.579999999999998</ele>
        <time>2026-06-30T07:40:29Z</time>
      </trkpt>
      <trkpt lat="52.150678960606456" lon="-9.595623034983873">
        <ele>51.090000000000003</ele>
        <time>2026-06-30T07:40:41Z</time>
      </trkpt>
      <trkpt lat="52.152048982679844" lon="-9.596740007400513">
        <ele>47.719999999999999</ele>
        <time>2026-06-30T07:40:51Z</time>
      </trkpt>
      <trkpt lat="52.152583999559283" lon="-9.597200006246567">
        <ele>45.799999999999997</ele>
        <time>2026-06-30T07:40:55Z</time>
      </trkpt>
      <trkpt lat="52.152689024806023" lon="-9.597360016778112">
        <ele>45.799999999999997</ele>
        <time>2026-06-30T07:40:56Z</time>
      </trkpt>
      <trkpt lat="52.152768988162279" lon="-9.597537964582443">
        <ele>46.280000000000001</ele>
        <time>2026-06-30T07:40:57Z</time>
      </trkpt>
      <trkpt lat="52.153638023883104" lon="-9.599448032677174">
        <ele>52.049999999999997</ele>
        <time>2026-06-30T07:41:08Z</time>
      </trkpt>
      <trkpt lat="52.153711030259728" lon="-9.599566971883178">
        <ele>53.009999999999998</ele>
        <time>2026-06-30T07:41:09Z</time>
      </trkpt>
      <trkpt lat="52.153774984180927" lon="-9.599669985473156">
        <ele>53.490000000000002</ele>
        <time>2026-06-30T07:41:10Z</time>
      </trkpt>
      <trkpt lat="52.153862994164228" lon="-9.599727988243103">
        <ele>53.969999999999999</ele>
        <time>2026-06-30T07:41:11Z</time>
      </trkpt>
      <trkpt lat="52.153967013582587" lon="-9.599797977134585">
        <ele>54.450000000000003</ele>
        <time>2026-06-30T07:41:12Z</time>
      </trkpt>
      <trkpt lat="52.15405996888876" lon="-9.599807029590011">
        <ele>54.93</ele>
        <time>2026-06-30T07:41:13Z</time>
      </trkpt>
      <trkpt lat="52.155177025124431" lon="-9.600031999871135">
        <ele>58.780000000000001</ele>
        <time>2026-06-30T07:41:21Z</time>
      </trkpt>
      <trkpt lat="52.156542018055916" lon="-9.600269962102175">
        <ele>64.549999999999997</ele>
        <time>2026-06-30T07:41:30Z</time>
      </trkpt>
      <trkpt lat="52.156661041080952" lon="-9.600339028984308">
        <ele>64.549999999999997</ele>
        <time>2026-06-30T07:41:31Z</time>
      </trkpt>
      <trkpt lat="52.156795989722013" lon="-9.600416980683804">
        <ele>64.549999999999997</ele>
        <time>2026-06-30T07:41:32Z</time>
      </trkpt>
      <trkpt lat="52.158122006803751" lon="-9.601431023329496">
        <ele>65.030000000000001</ele>
        <time>2026-06-30T07:41:41Z</time>
      </trkpt>
      <trkpt lat="52.159907016903162" lon="-9.602839015424252">
        <ele>55.890000000000001</ele>
        <time>2026-06-30T07:41:53Z</time>
      </trkpt>
      <trkpt lat="52.161260023713112" lon="-9.603903014212847">
        <ele>44.840000000000003</ele>
        <time>2026-06-30T07:42:02Z</time>
      </trkpt>
      <trkpt lat="52.162727024406195" lon="-9.605042031034827">
        <ele>40.990000000000002</ele>
        <time>2026-06-30T07:42:13Z</time>
      </trkpt>
      <trkpt lat="52.163612991571426" lon="-9.60577997379005">
        <ele>39.549999999999997</ele>
        <time>2026-06-30T07:42:22Z</time>
      </trkpt>
      <trkpt lat="52.163675017654896" lon="-9.60586303845048">
        <ele>39.549999999999997</ele>
        <time>2026-06-30T07:42:23Z</time>
      </trkpt>
      <trkpt lat="52.163725979626179" lon="-9.605933027341962">
        <ele>39.549999999999997</ele>
        <time>2026-06-30T07:42:24Z</time>
      </trkpt>
      <trkpt lat="52.163767972961068" lon="-9.605989018455148">
        <ele>39.549999999999997</ele>
        <time>2026-06-30T07:42:25Z</time>
      </trkpt>
      <trkpt lat="52.163802003487945" lon="-9.60603604093194">
        <ele>39.549999999999997</ele>
        <time>2026-06-30T07:42:26Z</time>
      </trkpt>
      <trkpt lat="52.163794962689281" lon="-9.606321025639772">
        <ele>40.030000000000001</ele>
        <time>2026-06-30T07:42:27Z</time>
      </trkpt>
      <trkpt lat="52.163794962689281" lon="-9.606321025639772">
        <ele>40.030000000000001</ele>
        <time>2026-06-30T07:42:28Z</time>
      </trkpt>
      <trkpt lat="52.16377199627459" lon="-9.60644499398768">
        <ele>40.030000000000001</ele>
        <time>2026-06-30T07:42:29Z</time>
      </trkpt>
      <trkpt lat="52.163751041516662" lon="-9.60659796372056">
        <ele>40.030000000000001</ele>
        <time>2026-06-30T07:42:30Z</time>
      </trkpt>
      <trkpt lat="52.16374802403152" lon="-9.606782030314207">
        <ele>40.030000000000001</ele>
        <time>2026-06-30T07:42:31Z</time>
      </trkpt>
      <trkpt lat="52.163744000717998" lon="-9.606983028352261">
        <ele>40.509999999999998</ele>
        <time>2026-06-30T07:42:32Z</time>
      </trkpt>
      <trkpt lat="52.163718016818166" lon="-9.609093004837632">
        <ele>38.590000000000003</ele>
        <time>2026-06-30T07:42:40Z</time>
      </trkpt>
      <trkpt lat="52.163693960756063" lon="-9.612563028931618">
        <ele>31.379999999999999</ele>
        <time>2026-06-30T07:42:52Z</time>
      </trkpt>
      <trkpt lat="52.163669988512993" lon="-9.616750963032246">
        <ele>28.5</ele>
        <time>2026-06-30T07:43:07Z</time>
      </trkpt>
      <trkpt lat="52.163664037361741" lon="-9.620637986809015">
        <ele>30.420000000000002</ele>
        <time>2026-06-30T07:43:21Z</time>
      </trkpt>
      <trkpt lat="52.163650039583445" lon="-9.623888991773129">
        <ele>30.420000000000002</ele>
        <time>2026-06-30T07:43:33Z</time>
      </trkpt>
      <trkpt lat="52.163621038198471" lon="-9.627258013933897">
        <ele>33.780000000000001</ele>
        <time>2026-06-30T07:43:45Z</time>
      </trkpt>
      <trkpt lat="52.16368499211967" lon="-9.631088962778449">
        <ele>29.460000000000001</ele>
        <time>2026-06-30T07:43:59Z</time>
      </trkpt>
      <trkpt lat="52.16383502818644" lon="-9.63493499904871">
        <ele>26.57</ele>
        <time>2026-06-30T07:44:13Z</time>
      </trkpt>
      <trkpt lat="52.163624977692962" lon="-9.637159975245595">
        <ele>21.77</ele>
        <time>2026-06-30T07:44:21Z</time>
      </trkpt>
      <trkpt lat="52.163180988281965" lon="-9.640300003811717">
        <ele>25.129999999999999</ele>
        <time>2026-06-30T07:44:33Z</time>
      </trkpt>
      <trkpt lat="52.162715960294008" lon="-9.643446989357472">
        <ele>24.170000000000002</ele>
        <time>2026-06-30T07:44:45Z</time>
      </trkpt>
      <trkpt lat="52.162224026396871" lon="-9.646849958226085">
        <ele>27.050000000000001</ele>
        <time>2026-06-30T07:44:58Z</time>
      </trkpt>
      <trkpt lat="52.161698983982205" lon="-9.650486027821899">
        <ele>23.690000000000001</ele>
        <time>2026-06-30T07:45:11Z</time>
      </trkpt>
      <trkpt lat="52.161206966266036" lon="-9.654008019715548">
        <ele>24.170000000000002</ele>
        <time>2026-06-30T07:45:24Z</time>
      </trkpt>
      <trkpt lat="52.160747973248363" lon="-9.657438984140754">
        <ele>25.129999999999999</ele>
        <time>2026-06-30T07:45:36Z</time>
      </trkpt>
      <trkpt lat="52.160264002159238" lon="-9.661042029038072">
        <ele>24.170000000000002</ele>
        <time>2026-06-30T07:45:49Z</time>
      </trkpt>
      <trkpt lat="52.159799979999661" lon="-9.664343995973468">
        <ele>24.649999999999999</ele>
        <time>2026-06-30T07:46:01Z</time>
      </trkpt>
      <trkpt lat="52.159240990877151" lon="-9.668231019750238">
        <ele>22.25</ele>
        <time>2026-06-30T07:46:15Z</time>
      </trkpt>
      <trkpt lat="52.158669009804726" lon="-9.672365980222821">
        <ele>26.57</ele>
        <time>2026-06-30T07:46:30Z</time>
      </trkpt>
      <trkpt lat="52.158393999561667" lon="-9.674499006941915">
        <ele>28.98</ele>
        <time>2026-06-30T07:46:38Z</time>
      </trkpt>
      <trkpt lat="52.15839902870357" lon="-9.674770999699831">
        <ele>28.98</ele>
        <time>2026-06-30T07:46:39Z</time>
      </trkpt>
      <trkpt lat="52.158418977633119" lon="-9.675040980800986">
        <ele>29.460000000000001</ele>
        <time>2026-06-30T07:46:40Z</time>
      </trkpt>
      <trkpt lat="52.158776968717575" lon="-9.678517039865255">
        <ele>28.02</ele>
        <time>2026-06-30T07:46:53Z</time>
      </trkpt>
      <trkpt lat="52.159054996445775" lon="-9.681217018514872">
        <ele>27.530000000000001</ele>
        <time>2026-06-30T07:47:03Z</time>
      </trkpt>
      <trkpt lat="52.159354984760284" lon="-9.683795040473342">
        <ele>27.050000000000001</ele>
        <time>2026-06-30T07:47:13Z</time>
      </trkpt>
      <trkpt lat="52.15945003554225" lon="-9.684255961328745">
        <ele>25.129999999999999</ele>
        <time>2026-06-30T07:47:15Z</time>
      </trkpt>
      <trkpt lat="52.15953997336328" lon="-9.684453019872308">
        <ele>24.170000000000002</ele>
        <time>2026-06-30T07:47:16Z</time>
      </trkpt>
      <trkpt lat="52.159635024145246" lon="-9.684640020132065">
        <ele>23.210000000000001</ele>
        <time>2026-06-30T07:47:17Z</time>
      </trkpt>
      <trkpt lat="52.160276994109154" lon="-9.685891019180417">
        <ele>20.809999999999999</ele>
        <time>2026-06-30T07:47:23Z</time>
      </trkpt>
      <trkpt lat="52.160385958850384" lon="-9.686114983633161">
        <ele>20.809999999999999</ele>
        <time>2026-06-30T07:47:24Z</time>
      </trkpt>
      <trkpt lat="52.161113005131483" lon="-9.687686003744602">
        <ele>21.289999999999999</ele>
        <time>2026-06-30T07:47:31Z</time>
      </trkpt>
      <trkpt lat="52.161173019558191" lon="-9.687943998724222">
        <ele>21.77</ele>
        <time>2026-06-30T07:47:32Z</time>
      </trkpt>
      <trkpt lat="52.161219036206603" lon="-9.68819797039032">
        <ele>21.77</ele>
        <time>2026-06-30T07:47:33Z</time>
      </trkpt>
      <trkpt lat="52.161310985684395" lon="-9.688696023076773">
        <ele>22.25</ele>
        <time>2026-06-30T07:47:35Z</time>
      </trkpt>
      <trkpt lat="52.161369994282722" lon="-9.688938008621335">
        <ele>22.25</ele>
        <time>2026-06-30T07:47:36Z</time>
      </trkpt>
      <trkpt lat="52.161778025329113" lon="-9.691184023395181">
        <ele>22.73</ele>
        <time>2026-06-30T07:47:45Z</time>
      </trkpt>
      <trkpt lat="52.161895036697388" lon="-9.691658020019531">
        <ele>22.73</ele>
        <time>2026-06-30T07:47:47Z</time>
      </trkpt>
      <trkpt lat="52.161981035023928" lon="-9.691878966987133">
        <ele>22.73</ele>
        <time>2026-06-30T07:47:48Z</time>
      </trkpt>
      <trkpt lat="52.162782009691" lon="-9.694009982049465">
        <ele>19.359999999999999</ele>
        <time>2026-06-30T07:47:57Z</time>
      </trkpt>
      <trkpt lat="52.163452981039882" lon="-9.696362027898431">
        <ele>13.6</ele>
        <time>2026-06-30T07:48:06Z</time>
      </trkpt>
      <trkpt lat="52.163884984329343" lon="-9.69844501465559">
        <ele>14.08</ele>
        <time>2026-06-30T07:48:15Z</time>
      </trkpt>
      <trkpt lat="52.163919014856219" lon="-9.698649030178785">
        <ele>14.08</ele>
        <time>2026-06-30T07:48:16Z</time>
      </trkpt>
      <trkpt lat="52.163912979885936" lon="-9.700396992266178">
        <ele>12.630000000000001</ele>
        <time>2026-06-30T07:48:25Z</time>
      </trkpt>
      <trkpt lat="52.163883978500962" lon="-9.700753977522254">
        <ele>12.630000000000001</ele>
        <time>2026-06-30T07:48:30Z</time>
      </trkpt>
      <trkpt lat="52.163904011249542" lon="-9.70080804079771">
        <ele>12.630000000000001</ele>
        <time>2026-06-30T07:48:31Z</time>
      </trkpt>
      <trkpt lat="52.163940975442529" lon="-9.700822960585356">
        <ele>12.630000000000001</ele>
        <time>2026-06-30T07:48:32Z</time>
      </trkpt>
      <trkpt lat="52.163996966555715" lon="-9.700846010819078">
        <ele>12.15</ele>
        <time>2026-06-30T07:48:33Z</time>
      </trkpt>
      <trkpt lat="52.164067961275578" lon="-9.70087400637567">
        <ele>12.15</ele>
        <time>2026-06-30T07:48:34Z</time>
      </trkpt>
      <trkpt lat="52.164142979308963" lon="-9.700904013589025">
        <ele>12.15</ele>
        <time>2026-06-30T07:48:35Z</time>
      </trkpt>
      <trkpt lat="52.164699034765363" lon="-9.701125966385007">
        <ele>11.67</ele>
        <time>2026-06-30T07:48:41Z</time>
      </trkpt>
      <trkpt lat="52.165573015809059" lon="-9.701896011829376">
        <ele>10.23</ele>
        <time>2026-06-30T07:48:50Z</time>
      </trkpt>
      <trkpt lat="52.166271982714534" lon="-9.702436979860067">
        <ele>8.789999999999999</ele>
        <time>2026-06-30T07:48:56Z</time>
      </trkpt>
      <trkpt lat="52.167032975703478" lon="-9.702596990391612">
        <ele>9.75</ele>
        <time>2026-06-30T07:49:02Z</time>
      </trkpt>
      <trkpt lat="52.167678968980908" lon="-9.702416025102139">
        <ele>9.27</ele>
        <time>2026-06-30T07:49:08Z</time>
      </trkpt>
      <trkpt lat="52.167775025591254" lon="-9.702324997633696">
        <ele>9.27</ele>
        <time>2026-06-30T07:49:09Z</time>
      </trkpt>
      <trkpt lat="52.167860018089414" lon="-9.702231036499143">
        <ele>8.789999999999999</ele>
        <time>2026-06-30T07:49:10Z</time>
      </trkpt>
      <trkpt lat="52.16815397143364" lon="-9.701782017946243">
        <ele>7.83</ele>
        <time>2026-06-30T07:49:14Z</time>
      </trkpt>
      <trkpt lat="52.168276011943817" lon="-9.701583031564951">
        <ele>7.35</ele>
        <time>2026-06-30T07:49:16Z</time>
      </trkpt>
      <trkpt lat="52.168324962258339" lon="-9.701504996046424">
        <ele>7.35</ele>
        <time>2026-06-30T07:49:17Z</time>
      </trkpt>
      <trkpt lat="52.168385982513428" lon="-9.701447999104857">
        <ele>6.87</ele>
        <time>2026-06-30T07:49:18Z</time>
      </trkpt>
      <trkpt lat="52.168443985283375" lon="-9.701395025476813">
        <ele>6.87</ele>
        <time>2026-06-30T07:49:19Z</time>
      </trkpt>
      <trkpt lat="52.168493019416928" lon="-9.701350014656782">
        <ele>6.87</ele>
        <time>2026-06-30T07:49:20Z</time>
      </trkpt>
      <trkpt lat="52.168530989438295" lon="-9.701314978301525">
        <ele>6.87</ele>
        <time>2026-06-30T07:49:21Z</time>
      </trkpt>
      <trkpt lat="52.168620005249977" lon="-9.701337022706866">
        <ele>6.39</ele>
        <time>2026-06-30T07:49:22Z</time>
      </trkpt>
      <trkpt lat="52.168635008856654" lon="-9.701404999941587">
        <ele>6.39</ele>
        <time>2026-06-30T07:49:23Z</time>
      </trkpt>
      <trkpt lat="52.168653029948473" lon="-9.701488986611366">
        <ele>6.39</ele>
        <time>2026-06-30T07:49:24Z</time>
      </trkpt>
      <trkpt lat="52.168674990534782" lon="-9.701588982716203">
        <ele>6.39</ele>
        <time>2026-06-30T07:49:25Z</time>
      </trkpt>
      <trkpt lat="52.168701980262995" lon="-9.70171102322638">
        <ele>6.39</ele>
        <time>2026-06-30T07:49:26Z</time>
      </trkpt>
      <trkpt lat="52.168729975819588" lon="-9.70184002071619">
        <ele>6.39</ele>
        <time>2026-06-30T07:49:27Z</time>
      </trkpt>
      <trkpt lat="52.169000040739775" lon="-9.703509025275707">
        <ele>6.39</ele>
        <time>2026-06-30T07:49:36Z</time>
      </trkpt>
      <trkpt lat="52.169305980205536" lon="-9.705588994547725">
        <ele>6.39</ele>
        <time>2026-06-30T07:49:45Z</time>
      </trkpt>
      <trkpt lat="52.169694984331727" lon="-9.707930982112885">
        <ele>8.789999999999999</ele>
        <time>2026-06-30T07:49:56Z</time>
      </trkpt>
      <trkpt lat="52.170171998441219" lon="-9.710847968235612">
        <ele>11.67</ele>
        <time>2026-06-30T07:50:08Z</time>
      </trkpt>
      <trkpt lat="52.170541975647211" lon="-9.713112004101276">
        <ele>17.920000000000002</ele>
        <time>2026-06-30T07:50:18Z</time>
      </trkpt>
      <trkpt lat="52.170959981158376" lon="-9.715720033273101">
        <ele>20.809999999999999</ele>
        <time>2026-06-30T07:50:29Z</time>
      </trkpt>
      <trkpt lat="52.171287965029478" lon="-9.717793967574835">
        <ele>26.09</ele>
        <time>2026-06-30T07:50:38Z</time>
      </trkpt>
      <trkpt lat="52.171647967770696" lon="-9.720067977905273">
        <ele>25.609999999999999</ele>
        <time>2026-06-30T07:50:47Z</time>
      </trkpt>
      <trkpt lat="52.17208500020206" lon="-9.722871975973249">
        <ele>24.170000000000002</ele>
        <time>2026-06-30T07:50:58Z</time>
      </trkpt>
      <trkpt lat="52.172624040395021" lon="-9.726402014493942">
        <ele>26.09</ele>
        <time>2026-06-30T07:51:12Z</time>
      </trkpt>
      <trkpt lat="52.173000974580646" lon="-9.728900995105505">
        <ele>23.690000000000001</ele>
        <time>2026-06-30T07:51:22Z</time>
      </trkpt>
      <trkpt lat="52.173406993970275" lon="-9.731592005118728">
        <ele>18.399999999999999</ele>
        <time>2026-06-30T07:51:32Z</time>
      </trkpt>
      <trkpt lat="52.173840003088117" lon="-9.734460962936282">
        <ele>17.920000000000002</ele>
        <time>2026-06-30T07:51:43Z</time>
      </trkpt>
      <trkpt lat="52.174109984189272" lon="-9.736253013834357">
        <ele>20.32</ele>
        <time>2026-06-30T07:51:50Z</time>
      </trkpt>
      <trkpt lat="52.174623040482402" lon="-9.739704011008143">
        <ele>17.920000000000002</ele>
        <time>2026-06-30T07:52:03Z</time>
      </trkpt>
      <trkpt lat="52.175161996856332" lon="-9.743309989571571">
        <ele>16.960000000000001</ele>
        <time>2026-06-30T07:52:17Z</time>
      </trkpt>
      <trkpt lat="52.175697013735771" lon="-9.746876992285252">
        <ele>14.56</ele>
        <time>2026-06-30T07:52:31Z</time>
      </trkpt>
      <trkpt lat="52.176093980669975" lon="-9.74951796233654">
        <ele>17.440000000000001</ele>
        <time>2026-06-30T07:52:42Z</time>
      </trkpt>
      <trkpt lat="52.176377037540078" lon="-9.751421995460987">
        <ele>19.359999999999999</ele>
        <time>2026-06-30T07:52:51Z</time>
      </trkpt>
      <trkpt lat="52.176535036414862" lon="-9.752469984814525">
        <ele>20.809999999999999</ele>
        <time>2026-06-30T07:52:57Z</time>
      </trkpt>
      <trkpt lat="52.176687000319362" lon="-9.75398501381278">
        <ele>21.77</ele>
        <time>2026-06-30T07:53:06Z</time>
      </trkpt>
      <trkpt lat="52.176550040021539" lon="-9.755949983373284">
        <ele>20.809999999999999</ele>
        <time>2026-06-30T07:53:17Z</time>
      </trkpt>
      <trkpt lat="52.176144020631909" lon="-9.75832499563694">
        <ele>18.879999999999999</ele>
        <time>2026-06-30T07:53:29Z</time>
      </trkpt>
      <trkpt lat="52.175728026777506" lon="-9.760686010122299">
        <ele>16.960000000000001</ele>
        <time>2026-06-30T07:53:39Z</time>
      </trkpt>
      <trkpt lat="52.175223017111421" lon="-9.76356603205204">
        <ele>16.48</ele>
        <time>2026-06-30T07:53:51Z</time>
      </trkpt>
      <trkpt lat="52.17483501881361" lon="-9.765813974663615">
        <ele>17.440000000000001</ele>
        <time>2026-06-30T07:54:01Z</time>
      </trkpt>
      <trkpt lat="52.174422964453697" lon="-9.768226034939289">
        <ele>18.399999999999999</ele>
        <time>2026-06-30T07:54:13Z</time>
      </trkpt>
      <trkpt lat="52.17438398860395" lon="-9.768452011048794">
        <ele>19.359999999999999</ele>
        <time>2026-06-30T07:54:15Z</time>
      </trkpt>
      <trkpt lat="52.174369990825653" lon="-9.768532980233431">
        <ele>19.359999999999999</ele>
        <time>2026-06-30T07:54:16Z</time>
      </trkpt>
      <trkpt lat="52.174359010532498" lon="-9.768599029630423">
        <ele>19.84</ele>
        <time>2026-06-30T07:54:17Z</time>
      </trkpt>
      <trkpt lat="52.174350041896105" lon="-9.768653009086847">
        <ele>19.84</ele>
        <time>2026-06-30T07:54:18Z</time>
      </trkpt>
      <trkpt lat="52.17434098944068" lon="-9.768701959401369">
        <ele>19.84</ele>
        <time>2026-06-30T07:54:19Z</time>
      </trkpt>
      <trkpt lat="52.174334032461047" lon="-9.768747976049781">
        <ele>19.84</ele>
        <time>2026-06-30T07:54:20Z</time>
      </trkpt>
      <trkpt lat="52.174326991662383" lon="-9.768788041546941">
        <ele>19.84</ele>
        <time>2026-06-30T07:54:21Z</time>
      </trkpt>
      <trkpt lat="52.174320034682751" lon="-9.768825005739927">
        <ele>19.84</ele>
        <time>2026-06-30T07:54:22Z</time>
      </trkpt>
      <trkpt lat="52.174320034682751" lon="-9.768825005739927">
        <ele>19.84</ele>
        <time>2026-06-30T07:54:23Z</time>
      </trkpt>
      <trkpt lat="52.174320034682751" lon="-9.768825005739927">
        <ele>19.84</ele>
        <time>2026-06-30T07:54:38Z</time>
      </trkpt>
      <trkpt lat="52.174320034682751" lon="-9.768825005739927">
        <ele>19.84</ele>
        <time>2026-06-30T07:55:15Z</time>
      </trkpt>
      <trkpt lat="52.174320034682751" lon="-9.768825005739927">
        <ele>19.84</ele>
        <time>2026-06-30T07:56:03Z</time>
      </trkpt>
      <trkpt lat="52.174294972792268" lon="-9.768974035978317">
        <ele>19.84</ele>
        <time>2026-06-30T07:56:16Z</time>
      </trkpt>
      <trkpt lat="52.174278041347861" lon="-9.769070008769631">
        <ele>19.84</ele>
        <time>2026-06-30T07:56:17Z</time>
      </trkpt>
      <trkpt lat="52.174132028594613" lon="-9.770002998411655">
        <ele>19.359999999999999</ele>
        <time>2026-06-30T07:56:23Z</time>
      </trkpt>
      <trkpt lat="52.173771020025015" lon="-9.772023959085345">
        <ele>20.809999999999999</ele>
        <time>2026-06-30T07:56:33Z</time>
      </trkpt>
      <trkpt lat="52.173469020053744" lon="-9.773804023861885">
        <ele>20.809999999999999</ele>
        <time>2026-06-30T07:56:41Z</time>
      </trkpt>
      <trkpt lat="52.173098037019372" lon="-9.775995975360274">
        <ele>21.289999999999999</ele>
        <time>2026-06-30T07:56:51Z</time>
      </trkpt>
      <trkpt lat="52.172574000433087" lon="-9.779027039185166">
        <ele>24.649999999999999</ele>
        <time>2026-06-30T07:57:04Z</time>
      </trkpt>
      <trkpt lat="52.17245296575129" lon="-9.779748972505331">
        <ele>24.649999999999999</ele>
        <time>2026-06-30T07:57:07Z</time>
      </trkpt>
      <trkpt lat="52.172090029343963" lon="-9.781902031973004">
        <ele>25.129999999999999</ele>
        <time>2026-06-30T07:57:16Z</time>
      </trkpt>
      <trkpt lat="52.171704964712262" lon="-9.784075962379575">
        <ele>24.170000000000002</ele>
        <time>2026-06-30T07:57:25Z</time>
      </trkpt>
      <trkpt lat="52.171281008049846" lon="-9.786616014316678">
        <ele>20.32</ele>
        <time>2026-06-30T07:57:35Z</time>
      </trkpt>
      <trkpt lat="52.170849004760385" lon="-9.789197975769639">
        <ele>19.359999999999999</ele>
        <time>2026-06-30T07:57:45Z</time>
      </trkpt>
      <trkpt lat="52.170426975935698" lon="-9.791726963594556">
        <ele>22.25</ele>
        <time>2026-06-30T07:57:55Z</time>
      </trkpt>
      <trkpt lat="52.169849965721369" lon="-9.795115012675524">
        <ele>24.649999999999999</ele>
        <time>2026-06-30T07:58:08Z</time>
      </trkpt>
      <trkpt lat="52.169435983523726" lon="-9.797657998278737">
        <ele>20.32</ele>
        <time>2026-06-30T07:58:18Z</time>
      </trkpt>
      <trkpt lat="52.168899960815907" lon="-9.800905985757709">
        <ele>16.960000000000001</ele>
        <time>2026-06-30T07:58:31Z</time>
      </trkpt>
      <trkpt lat="52.16828296892345" lon="-9.804697958752513">
        <ele>16</ele>
        <time>2026-06-30T07:58:46Z</time>
      </trkpt>
      <trkpt lat="52.167783994227648" lon="-9.807714018970728">
        <ele>19.84</ele>
        <time>2026-06-30T07:58:58Z</time>
      </trkpt>
      <trkpt lat="52.167415022850037" lon="-9.810057012364268">
        <ele>23.690000000000001</ele>
        <time>2026-06-30T07:59:07Z</time>
      </trkpt>
      <trkpt lat="52.167028030380607" lon="-9.812564961612225">
        <ele>22.73</ele>
        <time>2026-06-30T07:59:16Z</time>
      </trkpt>
      <trkpt lat="52.166463006287813" lon="-9.81633497402072">
        <ele>22.73</ele>
        <time>2026-06-30T07:59:30Z</time>
      </trkpt>
      <trkpt lat="52.165979035198689" lon="-9.819566030055285">
        <ele>19.84</ele>
        <time>2026-06-30T07:59:42Z</time>
      </trkpt>
      <trkpt lat="52.165567986667156" lon="-9.822194008156657">
        <ele>21.77</ele>
        <time>2026-06-30T07:59:52Z</time>
      </trkpt>
      <trkpt lat="52.165157021954656" lon="-9.825016027316451">
        <ele>23.690000000000001</ele>
        <time>2026-06-30T08:00:03Z</time>
      </trkpt>
      <trkpt lat="52.165046967566013" lon="-9.825797975063324">
        <ele>24.649999999999999</ele>
        <time>2026-06-30T08:00:07Z</time>
      </trkpt>
      <trkpt lat="52.165013020858169" lon="-9.825991010293365">
        <ele>24.649999999999999</ele>
        <time>2026-06-30T08:00:08Z</time>
      </trkpt>
      <trkpt lat="52.16497597284615" lon="-9.826183961704373">
        <ele>24.649999999999999</ele>
        <time>2026-06-30T08:00:09Z</time>
      </trkpt>
      <trkpt lat="52.164595015347004" lon="-9.828763995319605">
        <ele>25.609999999999999</ele>
        <time>2026-06-30T08:00:21Z</time>
      </trkpt>
      <trkpt lat="52.164177009835839" lon="-9.831560030579567">
        <ele>22.25</ele>
        <time>2026-06-30T08:00:34Z</time>
      </trkpt>
      <trkpt lat="52.1640719845891" lon="-9.832290010526776">
        <ele>22.25</ele>
        <time>2026-06-30T08:00:37Z</time>
      </trkpt>
      <trkpt lat="52.1636419929564" lon="-9.835286037996411">
        <ele>26.57</ele>
        <time>2026-06-30T08:00:49Z</time>
      </trkpt>
      <trkpt lat="52.163198003545403" lon="-9.83837703242898">
        <ele>28.02</ele>
        <time>2026-06-30T08:01:01Z</time>
      </trkpt>
      <trkpt lat="52.162658041343093" lon="-9.842199012637138">
        <ele>27.050000000000001</ele>
        <time>2026-06-30T08:01:15Z</time>
      </trkpt>
      <trkpt lat="52.162232995033264" lon="-9.845150029286742">
        <ele>23.690000000000001</ele>
        <time>2026-06-30T08:01:27Z</time>
      </trkpt>
      <trkpt lat="52.161824963986874" lon="-9.848266001790762">
        <ele>18.399999999999999</ele>
        <time>2026-06-30T08:01:39Z</time>
      </trkpt>
      <trkpt lat="52.161421962082386" lon="-9.851408964022994">
        <ele>16.960000000000001</ele>
        <time>2026-06-30T08:01:51Z</time>
      </trkpt>
      <trkpt lat="52.161014014855027" lon="-9.854481015354395">
        <ele>17.920000000000002</ele>
        <time>2026-06-30T08:02:03Z</time>
      </trkpt>
      <trkpt lat="52.160554016008973" lon="-9.85795003362">
        <ele>18.399999999999999</ele>
        <time>2026-06-30T08:02:16Z</time>
      </trkpt>
      <trkpt lat="52.160103991627693" lon="-9.861341016367078">
        <ele>16.48</ele>
        <time>2026-06-30T08:02:29Z</time>
      </trkpt>
      <trkpt lat="52.159888995811343" lon="-9.863384021446109">
        <ele>12.15</ele>
        <time>2026-06-30T08:02:37Z</time>
      </trkpt>
      <trkpt lat="52.159919003024697" lon="-9.864969039335847">
        <ele>11.19</ele>
        <time>2026-06-30T08:02:43Z</time>
      </trkpt>
      <trkpt lat="52.159905005246401" lon="-9.86521597020328">
        <ele>11.67</ele>
        <time>2026-06-30T08:02:44Z</time>
      </trkpt>
      <trkpt lat="52.159892013296485" lon="-9.865461979061365">
        <ele>11.67</ele>
        <time>2026-06-30T08:02:45Z</time>
      </trkpt>
      <trkpt lat="52.159849014133215" lon="-9.865702958777547">
        <ele>11.67</ele>
        <time>2026-06-30T08:02:46Z</time>
      </trkpt>
      <trkpt lat="52.1597979683429" lon="-9.86594301648438">
        <ele>11.67</ele>
        <time>2026-06-30T08:02:47Z</time>
      </trkpt>
      <trkpt lat="52.159162033349276" lon="-9.868637965992093">
        <ele>8.789999999999999</ele>
        <time>2026-06-30T08:02:58Z</time>
      </trkpt>
      <trkpt lat="52.158750984817743" lon="-9.871613960713148">
        <ele>12.630000000000001</ele>
        <time>2026-06-30T08:03:10Z</time>
      </trkpt>
      <trkpt lat="52.158342031762004" lon="-9.874670002609491">
        <ele>17.920000000000002</ele>
        <time>2026-06-30T08:03:22Z</time>
      </trkpt>
      <trkpt lat="52.158241029828787" lon="-9.875426972284913">
        <ele>18.879999999999999</ele>
        <time>2026-06-30T08:03:25Z</time>
      </trkpt>
      <trkpt lat="52.15786300599575" lon="-9.878257960081101">
        <ele>14.56</ele>
        <time>2026-06-30T08:03:36Z</time>
      </trkpt>
      <trkpt lat="52.157440977171063" lon="-9.88134803250432">
        <ele>11.67</ele>
        <time>2026-06-30T08:03:48Z</time>
      </trkpt>
      <trkpt lat="52.157032024115324" lon="-9.884243980050087">
        <ele>10.710000000000001</ele>
        <time>2026-06-30T08:03:59Z</time>
      </trkpt>
      <trkpt lat="52.156601026654243" lon="-9.887302033603191">
        <ele>14.56</ele>
        <time>2026-06-30T08:04:10Z</time>
      </trkpt>
      <trkpt lat="52.156245969235897" lon="-9.889724990352988">
        <ele>17.920000000000002</ele>
        <time>2026-06-30T08:04:19Z</time>
      </trkpt>
      <trkpt lat="52.155500985682011" lon="-9.893367011100054">
        <ele>19.359999999999999</ele>
        <time>2026-06-30T08:04:33Z</time>
      </trkpt>
      <trkpt lat="52.154910983517766" lon="-9.896248960867524">
        <ele>13.119999999999999</ele>
        <time>2026-06-30T08:04:44Z</time>
      </trkpt>
      <trkpt lat="52.154215034097433" lon="-9.899673974141479">
        <ele>17.440000000000001</ele>
        <time>2026-06-30T08:04:57Z</time>
      </trkpt>
      <trkpt lat="52.153514977544546" lon="-9.902961021289229">
        <ele>20.32</ele>
        <time>2026-06-30T08:05:10Z</time>
      </trkpt>
      <trkpt lat="52.152882982045412" lon="-9.905914971604943">
        <ele>17.440000000000001</ele>
        <time>2026-06-30T08:05:22Z</time>
      </trkpt>
      <trkpt lat="52.152280993759632" lon="-9.908800022676587">
        <ele>13.6</ele>
        <time>2026-06-30T08:05:33Z</time>
      </trkpt>
      <trkpt lat="52.15199701488018" lon="-9.911135975271463">
        <ele>12.630000000000001</ele>
        <time>2026-06-30T08:05:42Z</time>
      </trkpt>
      <trkpt lat="52.15165201574564" lon="-9.913514005020261">
        <ele>12.15</ele>
        <time>2026-06-30T08:05:52Z</time>
      </trkpt>
      <trkpt lat="52.151171984151006" lon="-9.915536977350712">
        <ele>12.15</ele>
        <time>2026-06-30T08:06:00Z</time>
      </trkpt>
      <trkpt lat="52.150370003655553" lon="-9.918769039213657">
        <ele>13.6</ele>
        <time>2026-06-30T08:06:12Z</time>
      </trkpt>
      <trkpt lat="52.149637006223202" lon="-9.921607989817858">
        <ele>14.56</ele>
        <time>2026-06-30T08:06:23Z</time>
      </trkpt>
      <trkpt lat="52.149153035134077" lon="-9.924074029549956">
        <ele>14.08</ele>
        <time>2026-06-30T08:06:33Z</time>
      </trkpt>
      <trkpt lat="52.149005010724068" lon="-9.925816040486097">
        <ele>15.039999999999999</ele>
        <time>2026-06-30T08:06:40Z</time>
      </trkpt>
      <trkpt lat="52.149021020159125" lon="-9.92606095969677">
        <ele>15.039999999999999</ele>
        <time>2026-06-30T08:06:41Z</time>
      </trkpt>
      <trkpt lat="52.149082040414214" lon="-9.928390039131045">
        <ele>13.6</ele>
        <time>2026-06-30T08:06:50Z</time>
      </trkpt>
      <trkpt lat="52.148828990757465" lon="-9.931097980588675">
        <ele>13.6</ele>
        <time>2026-06-30T08:07:00Z</time>
      </trkpt>
      <trkpt lat="52.148765036836267" lon="-9.931350024417043">
        <ele>13.119999999999999</ele>
        <time>2026-06-30T08:07:01Z</time>
      </trkpt>
      <trkpt lat="52.148698987439275" lon="-9.931607013568282">
        <ele>13.119999999999999</ele>
        <time>2026-06-30T08:07:02Z</time>
      </trkpt>
      <trkpt lat="52.148633021861315" lon="-9.931865008547902">
        <ele>13.119999999999999</ele>
        <time>2026-06-30T08:07:03Z</time>
      </trkpt>
      <trkpt lat="52.148564960807562" lon="-9.932111017405987">
        <ele>13.119999999999999</ele>
        <time>2026-06-30T08:07:04Z</time>
      </trkpt>
      <trkpt lat="52.148475022986531" lon="-9.932339005172253">
        <ele>13.119999999999999</ele>
        <time>2026-06-30T08:07:05Z</time>
      </trkpt>
      <trkpt lat="52.148135975003242" lon="-9.93323402479291">
        <ele>14.08</ele>
        <time>2026-06-30T08:07:09Z</time>
      </trkpt>
      <trkpt lat="52.148083001375198" lon="-9.933466035872698">
        <ele>14.08</ele>
        <time>2026-06-30T08:07:10Z</time>
      </trkpt>
      <trkpt lat="52.148038996383548" lon="-9.933699974790216">
        <ele>14.56</ele>
        <time>2026-06-30T08:07:11Z</time>
      </trkpt>
      <trkpt lat="52.148016029968858" lon="-9.93394497781992">
        <ele>15.039999999999999</ele>
        <time>2026-06-30T08:07:12Z</time>
      </trkpt>
      <trkpt lat="52.147992979735136" lon="-9.934195009991527">
        <ele>15.039999999999999</ele>
        <time>2026-06-30T08:07:13Z</time>
      </trkpt>
      <trkpt lat="52.147800028324127" lon="-9.937298996374011">
        <ele>16.48</ele>
        <time>2026-06-30T08:07:25Z</time>
      </trkpt>
      <trkpt lat="52.147725010290742" lon="-9.939477033913136">
        <ele>15.039999999999999</ele>
        <time>2026-06-30T08:07:33Z</time>
      </trkpt>
      <trkpt lat="52.147666001692414" lon="-9.942619996145368">
        <ele>17.440000000000001</ele>
        <time>2026-06-30T08:07:45Z</time>
      </trkpt>
      <trkpt lat="52.147564999759197" lon="-9.946358995512128">
        <ele>14.08</ele>
        <time>2026-06-30T08:07:59Z</time>
      </trkpt>
      <trkpt lat="52.147489981725812" lon="-9.949904037639499">
        <ele>18.399999999999999</ele>
        <time>2026-06-30T08:08:12Z</time>
      </trkpt>
      <trkpt lat="52.147543039172888" lon="-9.953508004546166">
        <ele>20.32</ele>
        <time>2026-06-30T08:08:25Z</time>
      </trkpt>
      <trkpt lat="52.147587966173887" lon="-9.956747023388743">
        <ele>19.359999999999999</ele>
        <time>2026-06-30T08:08:37Z</time>
      </trkpt>
      <trkpt lat="52.147629037499428" lon="-9.959468962624669">
        <ele>17.920000000000002</ele>
        <time>2026-06-30T08:08:48Z</time>
      </trkpt>
      <trkpt lat="52.147685028612614" lon="-9.962116973474622">
        <ele>17.440000000000001</ele>
        <time>2026-06-30T08:09:00Z</time>
      </trkpt>
      <trkpt lat="52.147653009742498" lon="-9.964444963261485">
        <ele>18.399999999999999</ele>
        <time>2026-06-30T08:09:10Z</time>
      </trkpt>
      <trkpt lat="52.147500962018967" lon="-9.965561013668776">
        <ele>18.879999999999999</ele>
        <time>2026-06-30T08:09:15Z</time>
      </trkpt>
      <trkpt lat="52.147457962855697" lon="-9.965771986171603">
        <ele>18.879999999999999</ele>
        <time>2026-06-30T08:09:16Z</time>
      </trkpt>
      <trkpt lat="52.146954964846373" lon="-9.968312960118055">
        <ele>21.77</ele>
        <time>2026-06-30T08:09:28Z</time>
      </trkpt>
      <trkpt lat="52.146521033719182" lon="-9.970993995666504">
        <ele>24.170000000000002</ele>
        <time>2026-06-30T08:09:39Z</time>
      </trkpt>
      <trkpt lat="52.146439980715513" lon="-9.971229024231434">
        <ele>23.690000000000001</ele>
        <time>2026-06-30T08:09:40Z</time>
      </trkpt>
      <trkpt lat="52.14636798016727" lon="-9.97143697924912">
        <ele>23.210000000000001</ele>
        <time>2026-06-30T08:09:41Z</time>
      </trkpt>
      <trkpt lat="52.14628298766911" lon="-9.971631020307541">
        <ele>22.73</ele>
        <time>2026-06-30T08:09:42Z</time>
      </trkpt>
      <trkpt lat="52.146179974079132" lon="-9.971809973940253">
        <ele>22.25</ele>
        <time>2026-06-30T08:09:43Z</time>
      </trkpt>
      <trkpt lat="52.146075032651424" lon="-9.971994962543249">
        <ele>21.77</ele>
        <time>2026-06-30T08:09:44Z</time>
      </trkpt>
      <trkpt lat="52.144807018339634" lon="-9.973810985684395">
        <ele>14.56</ele>
        <time>2026-06-30T08:09:55Z</time>
      </trkpt>
      <trkpt lat="52.144485991448164" lon="-9.974317001178861">
        <ele>14.08</ele>
        <time>2026-06-30T08:09:58Z</time>
      </trkpt>
      <trkpt lat="52.14439001865685" lon="-9.974497966468334">
        <ele>14.08</ele>
        <time>2026-06-30T08:09:59Z</time>
      </trkpt>
      <trkpt lat="52.144336039200425" lon="-9.974721008911729">
        <ele>14.08</ele>
        <time>2026-06-30T08:10:00Z</time>
      </trkpt>
      <trkpt lat="52.144282981753349" lon="-9.974942039698362">
        <ele>14.08</ele>
        <time>2026-06-30T08:10:01Z</time>
      </trkpt>
      <trkpt lat="52.144233025610447" lon="-9.975166004151106">
        <ele>14.08</ele>
        <time>2026-06-30T08:10:02Z</time>
      </trkpt>
      <trkpt lat="52.144190026447177" lon="-9.975402038544416">
        <ele>14.56</ele>
        <time>2026-06-30T08:10:03Z</time>
      </trkpt>
      <trkpt lat="52.143778977915645" lon="-9.97766699641943">
        <ele>16</ele>
        <time>2026-06-30T08:10:13Z</time>
      </trkpt>
      <trkpt lat="52.143343035131693" lon="-9.979745959863067">
        <ele>16.960000000000001</ele>
        <time>2026-06-30T08:10:23Z</time>
      </trkpt>
      <trkpt lat="52.143224012106657" lon="-9.980076039209962">
        <ele>16.48</ele>
        <time>2026-06-30T08:10:25Z</time>
      </trkpt>
      <trkpt lat="52.143156034871936" lon="-9.980221968144178">
        <ele>16.48</ele>
        <time>2026-06-30T08:10:26Z</time>
      </trkpt>
      <trkpt lat="52.142810029909015" lon="-9.980795038864017">
        <ele>15.039999999999999</ele>
        <time>2026-06-30T08:10:31Z</time>
      </trkpt>
      <trkpt lat="52.142771976068616" lon="-9.98086603358388">
        <ele>15.039999999999999</ele>
        <time>2026-06-30T08:10:32Z</time>
      </trkpt>
      <trkpt lat="52.142745992168784" lon="-9.980913978070021">
        <ele>14.56</ele>
        <time>2026-06-30T08:10:33Z</time>
      </trkpt>
      <trkpt lat="52.142485985532403" lon="-9.981085974723101">
        <ele>14.56</ele>
        <time>2026-06-30T08:10:42Z</time>
      </trkpt>
      <trkpt lat="52.142337039113045" lon="-9.981251014396548">
        <ele>12.15</ele>
        <time>2026-06-30T08:10:50Z</time>
      </trkpt>
      <trkpt lat="52.142337039113045" lon="-9.981251014396548">
        <ele>12.15</ele>
        <time>2026-06-30T08:10:51Z</time>
      </trkpt>
      <trkpt lat="52.142337039113045" lon="-9.981251014396548">
        <ele>12.15</ele>
        <time>2026-06-30T08:10:52Z</time>
      </trkpt>
      <trkpt lat="52.142332009971142" lon="-9.981592996045947">
        <ele>12.15</ele>
        <time>2026-06-30T08:10:59Z</time>
      </trkpt>
      <trkpt lat="52.142322035506368" lon="-9.981657033786178">
        <ele>11.19</ele>
        <time>2026-06-30T08:11:03Z</time>
      </trkpt>
      <trkpt lat="52.142207035794854" lon="-9.981847973540425">
        <ele>10.710000000000001</ele>
        <time>2026-06-30T08:11:18Z</time>
      </trkpt>
      <trkpt lat="52.142241988331079" lon="-9.981914022937417">
        <ele>10.23</ele>
        <time>2026-06-30T08:11:32Z</time>
      </trkpt>
      <trkpt lat="52.142241988331079" lon="-9.981914022937417">
        <ele>10.23</ele>
        <time>2026-06-30T08:11:53Z</time>
      </trkpt>
      <trkpt lat="52.14226596057415" lon="-9.981920979917049">
        <ele>17.920000000000002</ele>
        <time>2026-06-30T08:27:31Z</time>
      </trkpt>
      <trkpt lat="52.142273001372814" lon="-9.981900025159121">
        <ele>16.960000000000001</ele>
        <time>2026-06-30T08:28:16Z</time>
      </trkpt>
      <trkpt lat="52.142561003565788" lon="-9.981892984360457">
        <ele>17.440000000000001</ele>
        <time>2026-06-30T08:28:21Z</time>
      </trkpt>
      <trkpt lat="52.142565026879311" lon="-9.981831964105368">
        <ele>17.440000000000001</ele>
        <time>2026-06-30T08:28:22Z</time>
      </trkpt>
      <trkpt lat="52.142570978030562" lon="-9.981762981042266">
        <ele>17.440000000000001</ele>
        <time>2026-06-30T08:28:23Z</time>
      </trkpt>
      <trkpt lat="52.142576007172465" lon="-9.981691986322403">
        <ele>17.920000000000002</ele>
        <time>2026-06-30T08:28:24Z</time>
      </trkpt>
      <trkpt lat="52.142581958323717" lon="-9.981627026572824">
        <ele>17.920000000000002</ele>
        <time>2026-06-30T08:28:25Z</time>
      </trkpt>
      <trkpt lat="52.142585981637239" lon="-9.981571035459638">
        <ele>17.440000000000001</ele>
        <time>2026-06-30T08:28:26Z</time>
      </trkpt>
      <trkpt lat="52.142590004950762" lon="-9.981518983840942">
        <ele>17.440000000000001</ele>
        <time>2026-06-30T08:28:27Z</time>
      </trkpt>
      <trkpt lat="52.142337039113045" lon="-9.981251014396548">
        <ele>16.48</ele>
        <time>2026-06-30T08:28:31Z</time>
      </trkpt>
      <trkpt lat="52.142357993870974" lon="-9.981057979166508">
        <ele>16.48</ele>
        <time>2026-06-30T08:28:33Z</time>
      </trkpt>
      <trkpt lat="52.142357993870974" lon="-9.981057979166508">
        <ele>16.48</ele>
        <time>2026-06-30T08:28:34Z</time>
      </trkpt>
      <trkpt lat="52.142357993870974" lon="-9.981057979166508">
        <ele>16.48</ele>
        <time>2026-06-30T08:28:35Z</time>
      </trkpt>
      <trkpt lat="52.142415996640921" lon="-9.980982039123774">
        <ele>16.48</ele>
        <time>2026-06-30T08:28:36Z</time>
      </trkpt>
      <trkpt lat="52.142529990524054" lon="-9.981036018580198">
        <ele>16.48</ele>
        <time>2026-06-30T08:28:37Z</time>
      </trkpt>
      <trkpt lat="52.142594028264284" lon="-9.981014980003238">
        <ele>16</ele>
        <time>2026-06-30T08:28:39Z</time>
      </trkpt>
      <trkpt lat="52.142594028264284" lon="-9.981014980003238">
        <ele>16.48</ele>
        <time>2026-06-30T08:28:40Z</time>
      </trkpt>
      <trkpt lat="52.142594028264284" lon="-9.981014980003238">
        <ele>16.48</ele>
        <time>2026-06-30T08:28:41Z</time>
      </trkpt>
      <trkpt lat="52.142652031034231" lon="-9.981177002191544">
        <ele>16.48</ele>
        <time>2026-06-30T08:28:42Z</time>
      </trkpt>
      <trkpt lat="52.142638033255935" lon="-9.981247996911407">
        <ele>16.960000000000001</ele>
        <time>2026-06-30T08:28:43Z</time>
      </trkpt>
      <trkpt lat="52.142620012164116" lon="-9.98134003020823">
        <ele>16.960000000000001</ele>
        <time>2026-06-30T08:28:44Z</time>
      </trkpt>
      <trkpt lat="52.14258698746562" lon="-9.981559971347451">
        <ele>17.440000000000001</ele>
        <time>2026-06-30T08:28:46Z</time>
      </trkpt>
      <trkpt lat="52.142490008845925" lon="-9.982776017859578">
        <ele>19.84</ele>
        <time>2026-06-30T08:28:56Z</time>
      </trkpt>
      <trkpt lat="52.142498977482319" lon="-9.982989002019167">
        <ele>20.809999999999999</ele>
        <time>2026-06-30T08:28:58Z</time>
      </trkpt>
      <trkpt lat="52.142507024109364" lon="-9.983091009780765">
        <ele>21.289999999999999</ele>
        <time>2026-06-30T08:28:59Z</time>
      </trkpt>
      <trkpt lat="52.142524961382151" lon="-9.983179019764066">
        <ele>21.77</ele>
        <time>2026-06-30T08:29:00Z</time>
      </trkpt>
      <trkpt lat="52.142551029101014" lon="-9.983272980898619">
        <ele>22.25</ele>
        <time>2026-06-30T08:29:01Z</time>
      </trkpt>
      <trkpt lat="52.142572989687324" lon="-9.983354033902288">
        <ele>22.73</ele>
        <time>2026-06-30T08:29:02Z</time>
      </trkpt>
      <trkpt lat="52.142616994678974" lon="-9.983398960903287">
        <ele>23.210000000000001</ele>
        <time>2026-06-30T08:29:03Z</time>
      </trkpt>
      <trkpt lat="52.142667034640908" lon="-9.983450006693602">
        <ele>23.690000000000001</ele>
        <time>2026-06-30T08:29:04Z</time>
      </trkpt>
      <trkpt lat="52.142713973298669" lon="-9.983499040827155">
        <ele>24.170000000000002</ele>
        <time>2026-06-30T08:29:05Z</time>
      </trkpt>
      <trkpt lat="52.143333982676268" lon="-9.984162971377373">
        <ele>29.940000000000001</ele>
        <time>2026-06-30T08:29:14Z</time>
      </trkpt>
      <trkpt lat="52.143970001488924" lon="-9.985247002914548">
        <ele>36.189999999999998</ele>
        <time>2026-06-30T08:29:23Z</time>
      </trkpt>
      <trkpt lat="52.144117020070553" lon="-9.985598037019372">
        <ele>37.149999999999999</ele>
        <time>2026-06-30T08:29:26Z</time>
      </trkpt>
      <trkpt lat="52.144138980656862" lon="-9.985716976225376">
        <ele>37.630000000000003</ele>
        <time>2026-06-30T08:29:27Z</time>
      </trkpt>
      <trkpt lat="52.144138980656862" lon="-9.985845973715186">
        <ele>38.109999999999999</ele>
        <time>2026-06-30T08:29:28Z</time>
      </trkpt>
      <trkpt lat="52.144138980656862" lon="-9.985984023660421">
        <ele>38.109999999999999</ele>
        <time>2026-06-30T08:29:29Z</time>
      </trkpt>
      <trkpt lat="52.144157001748681" lon="-9.986149985343218">
        <ele>38.590000000000003</ele>
        <time>2026-06-30T08:29:30Z</time>
      </trkpt>
      <trkpt lat="52.143954997882247" lon="-9.987577004358172">
        <ele>38.590000000000003</ele>
        <time>2026-06-30T08:29:36Z</time>
      </trkpt>
      <trkpt lat="52.143414029851556" lon="-9.99139403924346">
        <ele>36.189999999999998</ele>
        <time>2026-06-30T08:29:49Z</time>
      </trkpt>
      <trkpt lat="52.142796032130718" lon="-9.995612986385822">
        <ele>34.740000000000002</ele>
        <time>2026-06-30T08:30:03Z</time>
      </trkpt>
      <trkpt lat="52.142388001084328" lon="-9.998416984453797">
        <ele>35.229999999999997</ele>
        <time>2026-06-30T08:30:13Z</time>
      </trkpt>
      <trkpt lat="52.141676964238286" lon="-10.000762995332479">
        <ele>33.780000000000001</ele>
        <time>2026-06-30T08:30:22Z</time>
      </trkpt>
      <trkpt lat="52.14091002009809" lon="-10.003775032237172">
        <ele>32.340000000000003</ele>
        <time>2026-06-30T08:30:33Z</time>
      </trkpt>
      <trkpt lat="52.140643978491426" lon="-10.007472038269043">
        <ele>32.82</ele>
        <time>2026-06-30T08:30:46Z</time>
      </trkpt>
      <trkpt lat="52.140665017068386" lon="-10.007710000500083">
        <ele>32.82</ele>
        <time>2026-06-30T08:30:47Z</time>
      </trkpt>
      <trkpt lat="52.140699969604611" lon="-10.007944023236632">
        <ele>32.82</ele>
        <time>2026-06-30T08:30:48Z</time>
      </trkpt>
      <trkpt lat="52.140749003738165" lon="-10.008409973233938">
        <ele>33.299999999999997</ele>
        <time>2026-06-30T08:30:50Z</time>
      </trkpt>
      <trkpt lat="52.140749003738165" lon="-10.008641984313726">
        <ele>33.780000000000001</ele>
        <time>2026-06-30T08:30:51Z</time>
      </trkpt>
      <trkpt lat="52.140728970989585" lon="-10.008866032585502">
        <ele>34.259999999999998</ele>
        <time>2026-06-30T08:30:52Z</time>
      </trkpt>
      <trkpt lat="52.140680020675063" lon="-10.00907801091671">
        <ele>34.740000000000002</ele>
        <time>2026-06-30T08:30:53Z</time>
      </trkpt>
      <trkpt lat="52.140629980713129" lon="-10.009290995076299">
        <ele>35.710000000000001</ele>
        <time>2026-06-30T08:30:54Z</time>
      </trkpt>
      <trkpt lat="52.140579018741846" lon="-10.00950800254941">
        <ele>36.189999999999998</ele>
        <time>2026-06-30T08:30:55Z</time>
      </trkpt>
      <trkpt lat="52.140251034870744" lon="-10.011669024825096">
        <ele>39.07</ele>
        <time>2026-06-30T08:31:04Z</time>
      </trkpt>
      <trkpt lat="52.140204012393951" lon="-10.012184008955956">
        <ele>39.549999999999997</ele>
        <time>2026-06-30T08:31:06Z</time>
      </trkpt>
      <trkpt lat="52.14015900157392" lon="-10.012436974793673">
        <ele>40.030000000000001</ele>
        <time>2026-06-30T08:31:07Z</time>
      </trkpt>
      <trkpt lat="52.140091024339199" lon="-10.012679966166615">
        <ele>40.030000000000001</ele>
        <time>2026-06-30T08:31:08Z</time>
      </trkpt>
      <trkpt lat="52.139787012711167" lon="-10.013894001021981">
        <ele>38.590000000000003</ele>
        <time>2026-06-30T08:31:13Z</time>
      </trkpt>
      <trkpt lat="52.139749964699149" lon="-10.014143027365208">
        <ele>38.109999999999999</ele>
        <time>2026-06-30T08:31:14Z</time>
      </trkpt>
      <trkpt lat="52.139725992456079" lon="-10.014912988990545">
        <ele>37.630000000000003</ele>
        <time>2026-06-30T08:31:17Z</time>
      </trkpt>
      <trkpt lat="52.139736972749233" lon="-10.015166960656643">
        <ele>37.630000000000003</ele>
        <time>2026-06-30T08:31:18Z</time>
      </trkpt>
      <trkpt lat="52.139759017154574" lon="-10.01567599363625">
        <ele>38.109999999999999</ele>
        <time>2026-06-30T08:31:20Z</time>
      </trkpt>
      <trkpt lat="52.139755999669433" lon="-10.015931976959109">
        <ele>38.109999999999999</ele>
        <time>2026-06-30T08:31:21Z</time>
      </trkpt>
      <trkpt lat="52.139618033543229" lon="-10.018603960052133">
        <ele>41.469999999999999</ele>
        <time>2026-06-30T08:31:32Z</time>
      </trkpt>
      <trkpt lat="52.139553995802999" lon="-10.019402001053095">
        <ele>41.950000000000003</ele>
        <time>2026-06-30T08:31:36Z</time>
      </trkpt>
      <trkpt lat="52.139573022723198" lon="-10.01958497799933">
        <ele>41.950000000000003</ele>
        <time>2026-06-30T08:31:37Z</time>
      </trkpt>
      <trkpt lat="52.139593977481127" lon="-10.019770972430706">
        <ele>42.439999999999998</ele>
        <time>2026-06-30T08:31:38Z</time>
      </trkpt>
      <trkpt lat="52.139623984694481" lon="-10.019955039024353">
        <ele>42.439999999999998</ele>
        <time>2026-06-30T08:31:39Z</time>
      </trkpt>
      <trkpt lat="52.139652986079454" lon="-10.020130975171924">
        <ele>42.920000000000002</ele>
        <time>2026-06-30T08:31:40Z</time>
      </trkpt>
      <trkpt lat="52.139679975807667" lon="-10.020300960168242">
        <ele>43.399999999999999</ele>
        <time>2026-06-30T08:31:41Z</time>
      </trkpt>
      <trkpt lat="52.139692967757583" lon="-10.020469017326832">
        <ele>43.880000000000003</ele>
        <time>2026-06-30T08:31:42Z</time>
      </trkpt>
      <trkpt lat="52.139678969979286" lon="-10.020634979009628">
        <ele>44.359999999999999</ele>
        <time>2026-06-30T08:31:43Z</time>
      </trkpt>
      <trkpt lat="52.139663966372609" lon="-10.020807981491089">
        <ele>44.840000000000003</ele>
        <time>2026-06-30T08:31:44Z</time>
      </trkpt>
      <trkpt lat="52.139648962765932" lon="-10.020982995629311">
        <ele>45.32</ele>
        <time>2026-06-30T08:31:45Z</time>
      </trkpt>
      <trkpt lat="52.139633959159255" lon="-10.021161027252674">
        <ele>45.799999999999997</ele>
        <time>2026-06-30T08:31:46Z</time>
      </trkpt>
      <trkpt lat="52.139591965824366" lon="-10.021749017760158">
        <ele>46.280000000000001</ele>
        <time>2026-06-30T08:31:49Z</time>
      </trkpt>
      <trkpt lat="52.139595989137888" lon="-10.021956972777843">
        <ele>46.759999999999998</ele>
        <time>2026-06-30T08:31:50Z</time>
      </trkpt>
      <trkpt lat="52.139609986916184" lon="-10.022596009075642">
        <ele>47.719999999999999</ele>
        <time>2026-06-30T08:31:53Z</time>
      </trkpt>
      <trkpt lat="52.139596994966269" lon="-10.022794995456934">
        <ele>48.200000000000003</ele>
        <time>2026-06-30T08:31:54Z</time>
      </trkpt>
      <trkpt lat="52.139564976096153" lon="-10.02298098988831">
        <ele>48.200000000000003</ele>
        <time>2026-06-30T08:31:55Z</time>
      </trkpt>
      <trkpt lat="52.13953304104507" lon="-10.023165978491306">
        <ele>48.200000000000003</ele>
        <time>2026-06-30T08:31:56Z</time>
      </trkpt>
      <trkpt lat="52.139501022174954" lon="-10.023354990407825">
        <ele>48.68</ele>
        <time>2026-06-30T08:31:57Z</time>
      </trkpt>
      <trkpt lat="52.139467997476459" lon="-10.023550037294626">
        <ele>48.68</ele>
        <time>2026-06-30T08:31:58Z</time>
      </trkpt>
      <trkpt lat="52.139437990263104" lon="-10.023752963170409">
        <ele>49.159999999999997</ele>
        <time>2026-06-30T08:31:59Z</time>
      </trkpt>
      <trkpt lat="52.139408988878131" lon="-10.023954967036843">
        <ele>49.159999999999997</ele>
        <time>2026-06-30T08:32:00Z</time>
      </trkpt>
      <trkpt lat="52.139329025521874" lon="-10.024514961987734">
        <ele>50.130000000000003</ele>
        <time>2026-06-30T08:32:03Z</time>
      </trkpt>
      <trkpt lat="52.139291977509856" lon="-10.024701962247491">
        <ele>50.130000000000003</ele>
        <time>2026-06-30T08:32:04Z</time>
      </trkpt>
      <trkpt lat="52.139236992225051" lon="-10.024886028841138">
        <ele>50.609999999999999</ele>
        <time>2026-06-30T08:32:05Z</time>
      </trkpt>
      <trkpt lat="52.138774981722236" lon="-10.026633990928531">
        <ele>54.450000000000003</ele>
        <time>2026-06-30T08:32:15Z</time>
      </trkpt>
      <trkpt lat="52.138790991157293" lon="-10.026789978146553">
        <ele>54.93</ele>
        <time>2026-06-30T08:32:16Z</time>
      </trkpt>
      <trkpt lat="52.13880599476397" lon="-10.026939008384943">
        <ele>54.93</ele>
        <time>2026-06-30T08:32:17Z</time>
      </trkpt>
      <trkpt lat="52.138824015855789" lon="-10.027085021138191">
        <ele>54.93</ele>
        <time>2026-06-30T08:32:18Z</time>
      </trkpt>
      <trkpt lat="52.138863997533917" lon="-10.027237990871072">
        <ele>55.409999999999997</ele>
        <time>2026-06-30T08:32:19Z</time>
      </trkpt>
      <trkpt lat="52.138909008353949" lon="-10.02740697003901">
        <ele>55.409999999999997</ele>
        <time>2026-06-30T08:32:20Z</time>
      </trkpt>
      <trkpt lat="52.139072036370635" lon="-10.028078025206923">
        <ele>55.890000000000001</ele>
        <time>2026-06-30T08:32:23Z</time>
      </trkpt>
      <trkpt lat="52.139130961149931" lon="-10.028351023793221">
        <ele>56.369999999999997</ele>
        <time>2026-06-30T08:32:24Z</time>
      </trkpt>
      <trkpt lat="52.139159962534904" lon="-10.028646988794208">
        <ele>57.340000000000003</ele>
        <time>2026-06-30T08:32:25Z</time>
      </trkpt>
      <trkpt lat="52.139221988618374" lon="-10.031089978292584">
        <ele>62.140000000000001</ele>
        <time>2026-06-30T08:32:33Z</time>
      </trkpt>
      <trkpt lat="52.138986960053444" lon="-10.032945983111858">
        <ele>66.469999999999999</ele>
        <time>2026-06-30T08:32:40Z</time>
      </trkpt>
      <trkpt lat="52.138308025896549" lon="-10.03535502590239">
        <ele>66.469999999999999</ele>
        <time>2026-06-30T08:32:49Z</time>
      </trkpt>
      <trkpt lat="52.137385010719299" lon="-10.037693995982409">
        <ele>61.18</ele>
        <time>2026-06-30T08:32:59Z</time>
      </trkpt>
      <trkpt lat="52.136703981086612" lon="-10.039926012977958">
        <ele>56.369999999999997</ele>
        <time>2026-06-30T08:33:08Z</time>
      </trkpt>
      <trkpt lat="52.136446991935372" lon="-10.040507968515158">
        <ele>55.409999999999997</ele>
        <time>2026-06-30T08:33:11Z</time>
      </trkpt>
      <trkpt lat="52.136388989165425" lon="-10.040711984038353">
        <ele>54.93</ele>
        <time>2026-06-30T08:33:12Z</time>
      </trkpt>
      <trkpt lat="52.136350013315678" lon="-10.040903007611632">
        <ele>54.450000000000003</ele>
        <time>2026-06-30T08:33:13Z</time>
      </trkpt>
      <trkpt lat="52.136342972517014" lon="-10.041147004812956">
        <ele>53.969999999999999</ele>
        <time>2026-06-30T08:33:14Z</time>
      </trkpt>
      <trkpt lat="52.136335009709001" lon="-10.041381027549505">
        <ele>53.009999999999998</ele>
        <time>2026-06-30T08:33:15Z</time>
      </trkpt>
      <trkpt lat="52.136326963081956" lon="-10.041619995608926">
        <ele>52.530000000000001</ele>
        <time>2026-06-30T08:33:16Z</time>
      </trkpt>
      <trkpt lat="52.136302990838885" lon="-10.042376965284348">
        <ele>51.57</ele>
        <time>2026-06-30T08:33:19Z</time>
      </trkpt>
      <trkpt lat="52.136027980595827" lon="-10.044998992234468">
        <ele>47.240000000000002</ele>
        <time>2026-06-30T08:33:28Z</time>
      </trkpt>
      <trkpt lat="52.135964026674628" lon="-10.045515988022089">
        <ele>46.280000000000001</ele>
        <time>2026-06-30T08:33:30Z</time>
      </trkpt>
      <trkpt lat="52.135983975604177" lon="-10.045743975788355">
        <ele>46.280000000000001</ele>
        <time>2026-06-30T08:33:31Z</time>
      </trkpt>
      <trkpt lat="52.136001996695995" lon="-10.045958971604705">
        <ele>45.799999999999997</ele>
        <time>2026-06-30T08:33:32Z</time>
      </trkpt>
      <trkpt lat="52.136043990030885" lon="-10.046164998784661">
        <ele>45.799999999999997</ele>
        <time>2026-06-30T08:33:33Z</time>
      </trkpt>
      <trkpt lat="52.136095035821199" lon="-10.046383012086153">
        <ele>45.32</ele>
        <time>2026-06-30T08:33:34Z</time>
      </trkpt>
      <trkpt lat="52.136600967496634" lon="-10.048749977722764">
        <ele>40.509999999999998</ele>
        <time>2026-06-30T08:33:43Z</time>
      </trkpt>
      <trkpt lat="52.1367840282619" lon="-10.049425978213549">
        <ele>38.109999999999999</ele>
        <time>2026-06-30T08:33:46Z</time>
      </trkpt>
      <trkpt lat="52.136856028810143" lon="-10.049593029543757">
        <ele>37.149999999999999</ele>
        <time>2026-06-30T08:33:47Z</time>
      </trkpt>
      <trkpt lat="52.136962981894612" lon="-10.049693025648594">
        <ele>36.189999999999998</ele>
        <time>2026-06-30T08:33:48Z</time>
      </trkpt>
      <trkpt lat="52.13708502240479" lon="-10.049791010096669">
        <ele>35.710000000000001</ele>
        <time>2026-06-30T08:33:49Z</time>
      </trkpt>
      <trkpt lat="52.1372140198946" lon="-10.049894023686647">
        <ele>35.229999999999997</ele>
        <time>2026-06-30T08:33:50Z</time>
      </trkpt>
      <trkpt lat="52.137358020991087" lon="-10.049979016184807">
        <ele>34.740000000000002</ele>
        <time>2026-06-30T08:33:51Z</time>
      </trkpt>
      <trkpt lat="52.13846099562943" lon="-10.050359973683953">
        <ele>29.940000000000001</ele>
        <time>2026-06-30T08:33:58Z</time>
      </trkpt>
      <trkpt lat="52.139504961669445" lon="-10.051289023831487">
        <ele>24.649999999999999</ele>
        <time>2026-06-30T08:34:05Z</time>
      </trkpt>
      <trkpt lat="52.139630019664764" lon="-10.051480969414115">
        <ele>24.649999999999999</ele>
        <time>2026-06-30T08:34:06Z</time>
      </trkpt>
      <trkpt lat="52.141114035621285" lon="-10.053597986698151">
        <ele>26.09</ele>
        <time>2026-06-30T08:34:18Z</time>
      </trkpt>
      <trkpt lat="52.142266966402531" lon="-10.054652011021972">
        <ele>26.09</ele>
        <time>2026-06-30T08:34:27Z</time>
      </trkpt>
      <trkpt lat="52.142409039661288" lon="-10.054716970771551">
        <ele>26.09</ele>
        <time>2026-06-30T08:34:28Z</time>
      </trkpt>
      <trkpt lat="52.142684971913695" lon="-10.054844040423632">
        <ele>25.609999999999999</ele>
        <time>2026-06-30T08:34:30Z</time>
      </trkpt>
      <trkpt lat="52.14282201603055" lon="-10.05490698851645">
        <ele>25.609999999999999</ele>
        <time>2026-06-30T08:34:31Z</time>
      </trkpt>
      <trkpt lat="52.142960987985134" lon="-10.0549700204283">
        <ele>25.129999999999999</ele>
        <time>2026-06-30T08:34:32Z</time>
      </trkpt>
      <trkpt lat="52.143090991303325" lon="-10.055077979341149">
        <ele>25.129999999999999</ele>
        <time>2026-06-30T08:34:33Z</time>
      </trkpt>
      <trkpt lat="52.143212025985122" lon="-10.055197002366185">
        <ele>24.649999999999999</ele>
        <time>2026-06-30T08:34:34Z</time>
      </trkpt>
      <trkpt lat="52.143314033746719" lon="-10.055346032604575">
        <ele>24.649999999999999</ele>
        <time>2026-06-30T08:34:35Z</time>
      </trkpt>
      <trkpt lat="52.143417969346046" lon="-10.055500008165836">
        <ele>24.170000000000002</ele>
        <time>2026-06-30T08:34:36Z</time>
      </trkpt>
      <trkpt lat="52.143631037324667" lon="-10.055826986208558">
        <ele>24.170000000000002</ele>
        <time>2026-06-30T08:34:38Z</time>
      </trkpt>
      <trkpt lat="52.143732039257884" lon="-10.055988002568483">
        <ele>23.690000000000001</ele>
        <time>2026-06-30T08:34:39Z</time>
      </trkpt>
      <trkpt lat="52.143792975693941" lon="-10.056211967021227">
        <ele>23.690000000000001</ele>
        <time>2026-06-30T08:34:40Z</time>
      </trkpt>
      <trkpt lat="52.143847960978746" lon="-10.056414976716042">
        <ele>23.210000000000001</ele>
        <time>2026-06-30T08:34:41Z</time>
      </trkpt>
      <trkpt lat="52.143860030919313" lon="-10.056637013331056">
        <ele>23.690000000000001</ele>
        <time>2026-06-30T08:34:42Z</time>
      </trkpt>
      <trkpt lat="52.143860030919313" lon="-10.056871036067605">
        <ele>24.170000000000002</ele>
        <time>2026-06-30T08:34:43Z</time>
      </trkpt>
      <trkpt lat="52.143860030919313" lon="-10.05712098442018">
        <ele>24.649999999999999</ele>
        <time>2026-06-30T08:34:44Z</time>
      </trkpt>
      <trkpt lat="52.143860030919313" lon="-10.057379985228181">
        <ele>25.129999999999999</ele>
        <time>2026-06-30T08:34:45Z</time>
      </trkpt>
      <trkpt lat="52.143886014819145" lon="-10.057640997692943">
        <ele>26.09</ele>
        <time>2026-06-30T08:34:46Z</time>
      </trkpt>
      <trkpt lat="52.14391803368926" lon="-10.057905027642846">
        <ele>26.57</ele>
        <time>2026-06-30T08:34:47Z</time>
      </trkpt>
      <trkpt lat="52.143988022580743" lon="-10.058158999308944">
        <ele>27.050000000000001</ele>
        <time>2026-06-30T08:34:48Z</time>
      </trkpt>
      <trkpt lat="52.14406899176538" lon="-10.05841095931828">
        <ele>28.02</ele>
        <time>2026-06-30T08:34:49Z</time>
      </trkpt>
      <trkpt lat="52.144642984494567" lon="-10.060354974120855">
        <ele>30.420000000000002</ele>
        <time>2026-06-30T08:34:57Z</time>
      </trkpt>
      <trkpt lat="52.144878013059497" lon="-10.061155026778579">
        <ele>31.379999999999999</ele>
        <time>2026-06-30T08:35:01Z</time>
      </trkpt>
      <trkpt lat="52.144956970587373" lon="-10.061356024816632">
        <ele>31.859999999999999</ele>
        <time>2026-06-30T08:35:02Z</time>
      </trkpt>
      <trkpt lat="52.145070964470506" lon="-10.061536990106106">
        <ele>31.859999999999999</ele>
        <time>2026-06-30T08:35:03Z</time>
      </trkpt>
      <trkpt lat="52.14520700275898" lon="-10.061679985374212">
        <ele>32.82</ele>
        <time>2026-06-30T08:35:04Z</time>
      </trkpt>
      <trkpt lat="52.145343963056803" lon="-10.06182499229908">
        <ele>33.299999999999997</ele>
        <time>2026-06-30T08:35:05Z</time>
      </trkpt>
      <trkpt lat="52.145492993295193" lon="-10.061936974525452">
        <ele>33.780000000000001</ele>
        <time>2026-06-30T08:35:06Z</time>
      </trkpt>
      <trkpt lat="52.145650992169976" lon="-10.062028001993895">
        <ele>34.259999999999998</ele>
        <time>2026-06-30T08:35:07Z</time>
      </trkpt>
      <trkpt lat="52.145816031843424" lon="-10.0620829872787">
        <ele>35.229999999999997</ele>
        <time>2026-06-30T08:35:08Z</time>
      </trkpt>
      <trkpt lat="52.145942011848092" lon="-10.062124980613589">
        <ele>35.710000000000001</ele>
        <time>2026-06-30T08:35:09Z</time>
      </trkpt>
      <trkpt lat="52.146117025986314" lon="-10.062073012813926">
        <ele>36.189999999999998</ele>
        <time>2026-06-30T08:35:10Z</time>
      </trkpt>
      <trkpt lat="52.146255997940898" lon="-10.062032025307417">
        <ele>36.670000000000002</ele>
        <time>2026-06-30T08:35:11Z</time>
      </trkpt>
      <trkpt lat="52.14638801291585" lon="-10.061992965638638">
        <ele>37.149999999999999</ele>
        <time>2026-06-30T08:35:12Z</time>
      </trkpt>
      <trkpt lat="52.146521033719182" lon="-10.061952983960509">
        <ele>37.630000000000003</ele>
        <time>2026-06-30T08:35:13Z</time>
      </trkpt>
      <trkpt lat="52.146619018167257" lon="-10.06189196370542">
        <ele>37.630000000000003</ele>
        <time>2026-06-30T08:35:14Z</time>
      </trkpt>
      <trkpt lat="52.146720020100474" lon="-10.061817029491067">
        <ele>37.630000000000003</ele>
        <time>2026-06-30T08:35:15Z</time>
      </trkpt>
      <trkpt lat="52.146815992891788" lon="-10.061715021729469">
        <ele>38.109999999999999</ele>
        <time>2026-06-30T08:35:16Z</time>
      </trkpt>
      <trkpt lat="52.146914983168244" lon="-10.061608990654349">
        <ele>38.109999999999999</ele>
        <time>2026-06-30T08:35:17Z</time>
      </trkpt>
      <trkpt lat="52.14787102304399" lon="-10.060764010995626">
        <ele>41.950000000000003</ele>
        <time>2026-06-30T08:35:26Z</time>
      </trkpt>
      <trkpt lat="52.147990968078375" lon="-10.060767028480768">
        <ele>42.920000000000002</ele>
        <time>2026-06-30T08:35:27Z</time>
      </trkpt>
      <trkpt lat="52.148104039952159" lon="-10.060785971581936">
        <ele>43.880000000000003</ele>
        <time>2026-06-30T08:35:28Z</time>
      </trkpt>
      <trkpt lat="52.148200012743473" lon="-10.060801981016994">
        <ele>44.359999999999999</ele>
        <time>2026-06-30T08:35:29Z</time>
      </trkpt>
      <trkpt lat="52.148276036605239" lon="-10.060814972966909">
        <ele>44.840000000000003</ele>
        <time>2026-06-30T08:35:30Z</time>
      </trkpt>
      <trkpt lat="52.148328004404902" lon="-10.060824025422335">
        <ele>45.32</ele>
        <time>2026-06-30T08:35:31Z</time>
      </trkpt>
      <trkpt lat="52.148364968597889" lon="-10.060829976573586">
        <ele>45.32</ele>
        <time>2026-06-30T08:35:32Z</time>
      </trkpt>
      <trkpt lat="52.148390030488372" lon="-10.060833999887109">
        <ele>45.799999999999997</ele>
        <time>2026-06-30T08:35:33Z</time>
      </trkpt>
      <trkpt lat="52.148403022438288" lon="-10.060941958799958">
        <ele>45.799999999999997</ele>
        <time>2026-06-30T08:35:34Z</time>
      </trkpt>
      <trkpt lat="52.148397993296385" lon="-10.06100800819695">
        <ele>46.280000000000001</ele>
        <time>2026-06-30T08:35:35Z</time>
      </trkpt>
      <trkpt lat="52.148391036316752" lon="-10.06111403927207">
        <ele>45.799999999999997</ele>
        <time>2026-06-30T08:35:36Z</time>
      </trkpt>
      <trkpt lat="52.148381983861327" lon="-10.061247982084751">
        <ele>45.799999999999997</ele>
        <time>2026-06-30T08:35:37Z</time>
      </trkpt>
      <trkpt lat="52.148371003568172" lon="-10.061413021758199">
        <ele>45.32</ele>
        <time>2026-06-30T08:35:38Z</time>
      </trkpt>
      <trkpt lat="52.148358011618257" lon="-10.061607984825969">
        <ele>45.32</ele>
        <time>2026-06-30T08:35:39Z</time>
      </trkpt>
      <trkpt lat="52.148345019668341" lon="-10.06180303171277">
        <ele>45.32</ele>
        <time>2026-06-30T08:35:40Z</time>
      </trkpt>
      <trkpt lat="52.14836597442627" lon="-10.062057003378868">
        <ele>44.840000000000003</ele>
        <time>2026-06-30T08:35:41Z</time>
      </trkpt>
      <trkpt lat="52.14838600717485" lon="-10.062306029722095">
        <ele>44.359999999999999</ele>
        <time>2026-06-30T08:35:42Z</time>
      </trkpt>
      <trkpt lat="52.148407967761159" lon="-10.062567964196205">
        <ele>43.880000000000003</ele>
        <time>2026-06-30T08:35:43Z</time>
      </trkpt>
      <trkpt lat="52.148421965539455" lon="-10.064742984250188">
        <ele>40.030000000000001</ele>
        <time>2026-06-30T08:35:50Z</time>
      </trkpt>
      <trkpt lat="52.147962972521782" lon="-10.068648029118776">
        <ele>36.189999999999998</ele>
        <time>2026-06-30T08:36:03Z</time>
      </trkpt>
      <trkpt lat="52.147576985880733" lon="-10.071400981396437">
        <ele>34.740000000000002</ele>
        <time>2026-06-30T08:36:13Z</time>
      </trkpt>
      <trkpt lat="52.147278003394604" lon="-10.073698963969946">
        <ele>31.859999999999999</ele>
        <time>2026-06-30T08:36:21Z</time>
      </trkpt>
      <trkpt lat="52.146567972376943" lon="-10.07707703858614">
        <ele>28.5</ele>
        <time>2026-06-30T08:36:33Z</time>
      </trkpt>
      <trkpt lat="52.145661972463131" lon="-10.079683978110552">
        <ele>26.09</ele>
        <time>2026-06-30T08:36:43Z</time>
      </trkpt>
      <trkpt lat="52.145025031641126" lon="-10.081423977389932">
        <ele>24.170000000000002</ele>
        <time>2026-06-30T08:36:50Z</time>
      </trkpt>
      <trkpt lat="52.144969962537289" lon="-10.081688007339835">
        <ele>24.170000000000002</ele>
        <time>2026-06-30T08:36:51Z</time>
      </trkpt>
      <trkpt lat="52.144939033314586" lon="-10.081963017582893">
        <ele>23.690000000000001</ele>
        <time>2026-06-30T08:36:52Z</time>
      </trkpt>
      <trkpt lat="52.14471498504281" lon="-10.08498796261847">
        <ele>31.379999999999999</ele>
        <time>2026-06-30T08:37:03Z</time>
      </trkpt>
      <trkpt lat="52.144719008356333" lon="-10.086059002205729">
        <ele>35.229999999999997</ele>
        <time>2026-06-30T08:37:08Z</time>
      </trkpt>
      <trkpt lat="52.144753960892558" lon="-10.086242984980345">
        <ele>35.710000000000001</ele>
        <time>2026-06-30T08:37:09Z</time>
      </trkpt>
      <trkpt lat="52.144819004461169" lon="-10.086410036310554">
        <ele>36.670000000000002</ele>
        <time>2026-06-30T08:37:10Z</time>
      </trkpt>
      <trkpt lat="52.144893016666174" lon="-10.086568035185337">
        <ele>37.149999999999999</ele>
        <time>2026-06-30T08:37:11Z</time>
      </trkpt>
      <trkpt lat="52.144969962537289" lon="-10.086731985211372">
        <ele>38.109999999999999</ele>
        <time>2026-06-30T08:37:12Z</time>
      </trkpt>
      <trkpt lat="52.145046992227435" lon="-10.08689702488482">
        <ele>39.07</ele>
        <time>2026-06-30T08:37:13Z</time>
      </trkpt>
      <trkpt lat="52.14510097168386" lon="-10.087093999609351">
        <ele>40.030000000000001</ele>
        <time>2026-06-30T08:37:14Z</time>
      </trkpt>
      <trkpt lat="52.145150005817413" lon="-10.087300026789308">
        <ele>40.509999999999998</ele>
        <time>2026-06-30T08:37:15Z</time>
      </trkpt>
      <trkpt lat="52.145333988592029" lon="-10.088073005899787">
        <ele>42.920000000000002</ele>
        <time>2026-06-30T08:37:19Z</time>
      </trkpt>
      <trkpt lat="52.145374976098537" lon="-10.088245002552867">
        <ele>43.880000000000003</ele>
        <time>2026-06-30T08:37:20Z</time>
      </trkpt>
      <trkpt lat="52.145448988303542" lon="-10.088375005871058">
        <ele>43.880000000000003</ele>
        <time>2026-06-30T08:37:21Z</time>
      </trkpt>
      <trkpt lat="52.145533980801702" lon="-10.088496040552855">
        <ele>44.359999999999999</ele>
        <time>2026-06-30T08:37:22Z</time>
      </trkpt>
      <trkpt lat="52.145643029361963" lon="-10.08859695866704">
        <ele>44.359999999999999</ele>
        <time>2026-06-30T08:37:23Z</time>
      </trkpt>
      <trkpt lat="52.145757023245096" lon="-10.088700978085399">
        <ele>44.840000000000003</ele>
        <time>2026-06-30T08:37:24Z</time>
      </trkpt>
      <trkpt lat="52.145989034324884" lon="-10.088913962244987">
        <ele>45.799999999999997</ele>
        <time>2026-06-30T08:37:26Z</time>
      </trkpt>
      <trkpt lat="52.146403016522527" lon="-10.089487032964826">
        <ele>47.719999999999999</ele>
        <time>2026-06-30T08:37:30Z</time>
      </trkpt>
      <trkpt lat="52.146480968222022" lon="-10.089652994647622">
        <ele>48.200000000000003</ele>
        <time>2026-06-30T08:37:31Z</time>
      </trkpt>
      <trkpt lat="52.146542994305491" lon="-10.089784003794193">
        <ele>48.68</ele>
        <time>2026-06-30T08:37:32Z</time>
      </trkpt>
      <trkpt lat="52.146585993468761" lon="-10.08996999822557">
        <ele>49.159999999999997</ele>
        <time>2026-06-30T08:37:33Z</time>
      </trkpt>
      <trkpt lat="52.146624969318509" lon="-10.090135959908366">
        <ele>49.649999999999999</ele>
        <time>2026-06-30T08:37:34Z</time>
      </trkpt>
      <trkpt lat="52.146660005673766" lon="-10.090288007631898">
        <ele>50.130000000000003</ele>
        <time>2026-06-30T08:37:35Z</time>
      </trkpt>
      <trkpt lat="52.14668900705874" lon="-10.090440977364779">
        <ele>50.609999999999999</ele>
        <time>2026-06-30T08:37:36Z</time>
      </trkpt>
      <trkpt lat="52.146655982360244" lon="-10.090564023703337">
        <ele>51.090000000000003</ele>
        <time>2026-06-30T08:37:37Z</time>
      </trkpt>
      <trkpt lat="52.146583981812" lon="-10.090682962909341">
        <ele>51.57</ele>
        <time>2026-06-30T08:37:38Z</time>
      </trkpt>
      <trkpt lat="52.146495971828699" lon="-10.09072202257812">
        <ele>52.049999999999997</ele>
        <time>2026-06-30T08:37:39Z</time>
      </trkpt>
      <trkpt lat="52.146390024572611" lon="-10.090734008699656">
        <ele>52.049999999999997</ele>
        <time>2026-06-30T08:37:40Z</time>
      </trkpt>
      <trkpt lat="52.146290028467774" lon="-10.09070098400116">
        <ele>52.530000000000001</ele>
        <time>2026-06-30T08:37:41Z</time>
      </trkpt>
      <trkpt lat="52.146177962422371" lon="-10.090664019808173">
        <ele>52.530000000000001</ele>
        <time>2026-06-30T08:37:42Z</time>
      </trkpt>
      <trkpt lat="52.146095987409353" lon="-10.090604005381465">
        <ele>53.009999999999998</ele>
        <time>2026-06-30T08:37:43Z</time>
      </trkpt>
      <trkpt lat="52.146004037931561" lon="-10.090537033975124">
        <ele>53.490000000000002</ele>
        <time>2026-06-30T08:37:44Z</time>
      </trkpt>
      <trkpt lat="52.145818965509534" lon="-10.090402001515031">
        <ele>54.450000000000003</ele>
        <time>2026-06-30T08:37:46Z</time>
      </trkpt>
      <trkpt lat="52.145705977454782" lon="-10.090320026502013">
        <ele>54.450000000000003</ele>
        <time>2026-06-30T08:37:47Z</time>
      </trkpt>
      <trkpt lat="52.1456169616431" lon="-10.090331006795168">
        <ele>54.450000000000003</ele>
        <time>2026-06-30T08:37:48Z</time>
      </trkpt>
      <trkpt lat="52.145511014387012" lon="-10.090375011786819">
        <ele>54.450000000000003</ele>
        <time>2026-06-30T08:37:49Z</time>
      </trkpt>
      <trkpt lat="52.145432978868484" lon="-10.090487999841571">
        <ele>54.93</ele>
        <time>2026-06-30T08:37:50Z</time>
      </trkpt>
      <trkpt lat="52.145341029390693" lon="-10.090621020644903">
        <ele>54.93</ele>
        <time>2026-06-30T08:37:51Z</time>
      </trkpt>
      <trkpt lat="52.145267017185688" lon="-10.090768961235881">
        <ele>55.409999999999997</ele>
        <time>2026-06-30T08:37:52Z</time>
      </trkpt>
      <trkpt lat="52.14518403634429" lon="-10.090944981202483">
        <ele>55.890000000000001</ele>
        <time>2026-06-30T08:37:53Z</time>
      </trkpt>
      <trkpt lat="52.145126033574343" lon="-10.091154025867581">
        <ele>55.890000000000001</ele>
        <time>2026-06-30T08:37:54Z</time>
      </trkpt>
      <trkpt lat="52.145064007490873" lon="-10.091378996148705">
        <ele>56.369999999999997</ele>
        <time>2026-06-30T08:37:55Z</time>
      </trkpt>
      <trkpt lat="52.144612977281213" lon="-10.093439016491175">
        <ele>60.219999999999999</ele>
        <time>2026-06-30T08:38:04Z</time>
      </trkpt>
      <trkpt lat="52.144580036401749" lon="-10.094135971739888">
        <ele>61.659999999999997</ele>
        <time>2026-06-30T08:38:07Z</time>
      </trkpt>
      <trkpt lat="52.144586993381381" lon="-10.094352979212999">
        <ele>62.140000000000001</ele>
        <time>2026-06-30T08:38:08Z</time>
      </trkpt>
      <trkpt lat="52.144604008644819" lon="-10.094837034121156">
        <ele>63.579999999999998</ele>
        <time>2026-06-30T08:38:11Z</time>
      </trkpt>
      <trkpt lat="52.144608031958342" lon="-10.09495303966105">
        <ele>64.069999999999993</ele>
        <time>2026-06-30T08:38:12Z</time>
      </trkpt>
      <trkpt lat="52.144590010866523" lon="-10.095095029100776">
        <ele>64.549999999999997</ele>
        <time>2026-06-30T08:38:13Z</time>
      </trkpt>
      <trkpt lat="52.144535025581717" lon="-10.095177004113793">
        <ele>64.549999999999997</ele>
        <time>2026-06-30T08:38:14Z</time>
      </trkpt>
      <trkpt lat="52.144463025033474" lon="-10.095270965248346">
        <ele>65.030000000000001</ele>
        <time>2026-06-30T08:38:15Z</time>
      </trkpt>
      <trkpt lat="52.144378032535315" lon="-10.095337014645338">
        <ele>65.030000000000001</ele>
        <time>2026-06-30T08:38:16Z</time>
      </trkpt>
      <trkpt lat="52.144292034208775" lon="-10.095403986051679">
        <ele>65.510000000000005</ele>
        <time>2026-06-30T08:38:17Z</time>
      </trkpt>
      <trkpt lat="52.144202012568712" lon="-10.09547296911478">
        <ele>65.510000000000005</ele>
        <time>2026-06-30T08:38:18Z</time>
      </trkpt>
      <trkpt lat="52.144096987321973" lon="-10.09555603377521">
        <ele>65.510000000000005</ele>
        <time>2026-06-30T08:38:19Z</time>
      </trkpt>
      <trkpt lat="52.144030015915632" lon="-10.095689976587892">
        <ele>65.510000000000005</ele>
        <time>2026-06-30T08:38:20Z</time>
      </trkpt>
      <trkpt lat="52.143951980397105" lon="-10.095845041796565">
        <ele>65.510000000000005</ele>
        <time>2026-06-30T08:38:21Z</time>
      </trkpt>
      <trkpt lat="52.143910992890596" lon="-10.096042016521096">
        <ele>65.989999999999995</ele>
        <time>2026-06-30T08:38:22Z</time>
      </trkpt>
      <trkpt lat="52.143868999555707" lon="-10.096253994852304">
        <ele>65.989999999999995</ele>
        <time>2026-06-30T08:38:23Z</time>
      </trkpt>
      <trkpt lat="52.143828012049198" lon="-10.096467984840274">
        <ele>66.469999999999999</ele>
        <time>2026-06-30T08:38:24Z</time>
      </trkpt>
      <trkpt lat="52.143838992342353" lon="-10.09669697843492">
        <ele>66.950000000000003</ele>
        <time>2026-06-30T08:38:25Z</time>
      </trkpt>
      <trkpt lat="52.143865982070565" lon="-10.09691096842289">
        <ele>67.430000000000007</ele>
        <time>2026-06-30T08:38:26Z</time>
      </trkpt>
      <trkpt lat="52.143890960142016" lon="-10.097110038623214">
        <ele>67.909999999999997</ele>
        <time>2026-06-30T08:38:27Z</time>
      </trkpt>
      <trkpt lat="52.143916022032499" lon="-10.097311036661267">
        <ele>67.909999999999997</ele>
        <time>2026-06-30T08:38:28Z</time>
      </trkpt>
      <trkpt lat="52.143910992890596" lon="-10.097525026649237">
        <ele>68.390000000000001</ele>
        <time>2026-06-30T08:38:29Z</time>
      </trkpt>
      <trkpt lat="52.143890960142016" lon="-10.097735999152064">
        <ele>68.390000000000001</ele>
        <time>2026-06-30T08:38:30Z</time>
      </trkpt>
      <trkpt lat="52.143838992342353" lon="-10.098788011819124">
        <ele>68.390000000000001</ele>
        <time>2026-06-30T08:38:35Z</time>
      </trkpt>
      <trkpt lat="52.143864976242185" lon="-10.098999990150332">
        <ele>68.390000000000001</ele>
        <time>2026-06-30T08:38:36Z</time>
      </trkpt>
      <trkpt lat="52.143909987062216" lon="-10.099201994016767">
        <ele>68.390000000000001</ele>
        <time>2026-06-30T08:38:37Z</time>
      </trkpt>
      <trkpt lat="52.143988022580743" lon="-10.099381031468511">
        <ele>68.390000000000001</ele>
        <time>2026-06-30T08:38:38Z</time>
      </trkpt>
      <trkpt lat="52.144088018685579" lon="-10.099500976502895">
        <ele>68.390000000000001</ele>
        <time>2026-06-30T08:38:39Z</time>
      </trkpt>
      <trkpt lat="52.144206035882235" lon="-10.099586974829435">
        <ele>68.870000000000005</ele>
        <time>2026-06-30T08:38:40Z</time>
      </trkpt>
      <trkpt lat="52.144328998401761" lon="-10.099674984812737">
        <ele>69.349999999999994</ele>
        <time>2026-06-30T08:38:41Z</time>
      </trkpt>
      <trkpt lat="52.144449027255177" lon="-10.099750002846122">
        <ele>69.829999999999998</ele>
        <time>2026-06-30T08:38:42Z</time>
      </trkpt>
      <trkpt lat="52.14458498172462" lon="-10.099794007837772">
        <ele>70.310000000000002</ele>
        <time>2026-06-30T08:38:43Z</time>
      </trkpt>
      <trkpt lat="52.144716996699572" lon="-10.099836001172662">
        <ele>70.790000000000006</ele>
        <time>2026-06-30T08:38:44Z</time>
      </trkpt>
      <trkpt lat="52.14484398253262" lon="-10.099876988679171">
        <ele>70.790000000000006</ele>
        <time>2026-06-30T08:38:45Z</time>
      </trkpt>
      <trkpt lat="52.144967028871179" lon="-10.099915964528918">
        <ele>71.269999999999996</ele>
        <time>2026-06-30T08:38:46Z</time>
      </trkpt>
      <trkpt lat="52.145074987784028" lon="-10.100006991997361">
        <ele>71.269999999999996</ele>
        <time>2026-06-30T08:38:47Z</time>
      </trkpt>
      <trkpt lat="52.145159980282187" lon="-10.100120985880494">
        <ele>71.760000000000005</ele>
        <time>2026-06-30T08:38:48Z</time>
      </trkpt>
      <trkpt lat="52.145240027457476" lon="-10.100227016955614">
        <ele>72.239999999999995</ele>
        <time>2026-06-30T08:38:49Z</time>
      </trkpt>
      <trkpt lat="52.145304987207055" lon="-10.100356014445424">
        <ele>72.719999999999999</ele>
        <time>2026-06-30T08:38:50Z</time>
      </trkpt>
      <trkpt lat="52.145355027168989" lon="-10.10049800388515">
        <ele>72.719999999999999</ele>
        <time>2026-06-30T08:38:51Z</time>
      </trkpt>
      <trkpt lat="52.14540196582675" lon="-10.100631024688482">
        <ele>73.200000000000003</ele>
        <time>2026-06-30T08:38:52Z</time>
      </trkpt>
      <trkpt lat="52.145386040210724" lon="-10.10077896527946">
        <ele>73.200000000000003</ele>
        <time>2026-06-30T08:38:53Z</time>
      </trkpt>
      <trkpt lat="52.145362989977002" lon="-10.100941993296146">
        <ele>73.200000000000003</ele>
        <time>2026-06-30T08:38:54Z</time>
      </trkpt>
      <trkpt lat="52.145301969721913" lon="-10.101002007722855">
        <ele>73.680000000000007</ele>
        <time>2026-06-30T08:38:55Z</time>
      </trkpt>
      <trkpt lat="52.145224018022418" lon="-10.10107995942235">
        <ele>74.159999999999997</ele>
        <time>2026-06-30T08:38:56Z</time>
      </trkpt>
      <trkpt lat="52.145124021917582" lon="-10.101111978292465">
        <ele>74.640000000000001</ele>
        <time>2026-06-30T08:38:57Z</time>
      </trkpt>
      <trkpt lat="52.145010028034449" lon="-10.101108960807323">
        <ele>75.120000000000005</ele>
        <time>2026-06-30T08:38:58Z</time>
      </trkpt>
      <trkpt lat="52.144884970039129" lon="-10.101106027141213">
        <ele>75.599999999999994</ele>
        <time>2026-06-30T08:38:59Z</time>
      </trkpt>
      <trkpt lat="52.1440489590168" lon="-10.101166041567922">
        <ele>78.480000000000004</ele>
        <time>2026-06-30T08:39:05Z</time>
      </trkpt>
      <trkpt lat="52.143903030082583" lon="-10.101198982447386">
        <ele>78.969999999999999</ele>
        <time>2026-06-30T08:39:06Z</time>
      </trkpt>
      <trkpt lat="52.143796999007463" lon="-10.101318005472422">
        <ele>79.930000000000007</ele>
        <time>2026-06-30T08:39:07Z</time>
      </trkpt>
      <trkpt lat="52.143685016781092" lon="-10.101451026275754">
        <ele>80.409999999999997</ele>
        <time>2026-06-30T08:39:08Z</time>
      </trkpt>
      <trkpt lat="52.143574962392449" lon="-10.101609025150537">
        <ele>80.890000000000001</ele>
        <time>2026-06-30T08:39:09Z</time>
      </trkpt>
      <trkpt lat="52.143470020964742" lon="-10.101798959076405">
        <ele>81.370000000000005</ele>
        <time>2026-06-30T08:39:10Z</time>
      </trkpt>
      <trkpt lat="52.143372958526015" lon="-10.102018984034657">
        <ele>81.849999999999994</ele>
        <time>2026-06-30T08:39:11Z</time>
      </trkpt>
      <trkpt lat="52.142552034929395" lon="-10.103881023824215">
        <ele>86.180000000000007</ele>
        <time>2026-06-30T08:39:18Z</time>
      </trkpt>
      <trkpt lat="52.142470981925726" lon="-10.104188974946737">
        <ele>86.659999999999997</ele>
        <time>2026-06-30T08:39:19Z</time>
      </trkpt>
      <trkpt lat="52.142410967499018" lon="-10.104463985189795">
        <ele>87.140000000000001</ele>
        <time>2026-06-30T08:39:20Z</time>
      </trkpt>
      <trkpt lat="52.142375009134412" lon="-10.104741007089615">
        <ele>88.099999999999994</ele>
        <time>2026-06-30T08:39:21Z</time>
      </trkpt>
      <trkpt lat="52.142337961122394" lon="-10.105020040646195">
        <ele>88.579999999999998</ele>
        <time>2026-06-30T08:39:22Z</time>
      </trkpt>
      <trkpt lat="52.142308037728071" lon="-10.105304019525647">
        <ele>89.060000000000002</ele>
        <time>2026-06-30T08:39:23Z</time>
      </trkpt>
      <trkpt lat="52.142260009422898" lon="-10.10647002607584">
        <ele>91.939999999999998</ele>
        <time>2026-06-30T08:39:27Z</time>
      </trkpt>
      <trkpt lat="52.142269983887672" lon="-10.106795998290181">
        <ele>92.420000000000002</ele>
        <time>2026-06-30T08:39:28Z</time>
      </trkpt>
      <trkpt lat="52.142412979155779" lon="-10.109291961416602">
        <ele>92.900000000000006</ele>
        <time>2026-06-30T08:39:35Z</time>
      </trkpt>
      <trkpt lat="52.142709027975798" lon="-10.112830968573689">
        <ele>88.099999999999994</ele>
        <time>2026-06-30T08:39:46Z</time>
      </trkpt>
      <trkpt lat="52.143337000161409" lon="-10.117531958967447">
        <ele>78.480000000000004</ele>
        <time>2026-06-30T08:40:01Z</time>
      </trkpt>
      <trkpt lat="52.144013000652194" lon="-10.120143005624413">
        <ele>75.599999999999994</ele>
        <time>2026-06-30T08:40:10Z</time>
      </trkpt>
      <trkpt lat="52.145169032737613" lon="-10.123590985313058">
        <ele>78.969999999999999</ele>
        <time>2026-06-30T08:40:22Z</time>
      </trkpt>
      <trkpt lat="52.145559964701533" lon="-10.126462960615754">
        <ele>89.540000000000006</ele>
        <time>2026-06-30T08:40:31Z</time>
      </trkpt>
      <trkpt lat="52.145449994131923" lon="-10.129057997837663">
        <ele>102.52</ele>
        <time>2026-06-30T08:40:39Z</time>
      </trkpt>
      <trkpt lat="52.144914977252483" lon="-10.131649011746049">
        <ele>116.45999999999999</ele>
        <time>2026-06-30T08:40:48Z</time>
      </trkpt>
      <trkpt lat="52.144767036661506" lon="-10.133072007447481">
        <ele>123.67</ele>
        <time>2026-06-30T08:40:54Z</time>
      </trkpt>
      <trkpt lat="52.144991001114249" lon="-10.135140996426344">
        <ele>128.47</ele>
        <time>2026-06-30T08:41:03Z</time>
      </trkpt>
      <trkpt lat="52.145061995834112" lon="-10.136350002139807">
        <ele>127.98999999999999</ele>
        <time>2026-06-30T08:41:08Z</time>
      </trkpt>
      <trkpt lat="52.145022014155984" lon="-10.136577989906073">
        <ele>127.98999999999999</ele>
        <time>2026-06-30T08:41:09Z</time>
      </trkpt>
      <trkpt lat="52.144980020821095" lon="-10.136803966015577">
        <ele>127.03</ele>
        <time>2026-06-30T08:41:10Z</time>
      </trkpt>
      <trkpt lat="52.144936015829444" lon="-10.137037988752127">
        <ele>126.55</ele>
        <time>2026-06-30T08:41:11Z</time>
      </trkpt>
      <trkpt lat="52.144871978089213" lon="-10.137262037023902">
        <ele>125.59</ele>
        <time>2026-06-30T08:41:12Z</time>
      </trkpt>
      <trkpt lat="52.144785979762673" lon="-10.137477032840252">
        <ele>125.11</ele>
        <time>2026-06-30T08:41:13Z</time>
      </trkpt>
      <trkpt lat="52.144168987870216" lon="-10.139463040977716">
        <ele>118.38</ele>
        <time>2026-06-30T08:41:21Z</time>
      </trkpt>
      <trkpt lat="52.144050970673561" lon="-10.141593972221017">
        <ele>111.65000000000001</ele>
        <time>2026-06-30T08:41:29Z</time>
      </trkpt>
      <trkpt lat="52.143889032304287" lon="-10.144619001075625">
        <ele>102.04000000000001</ele>
        <time>2026-06-30T08:41:41Z</time>
      </trkpt>
      <trkpt lat="52.143827006220818" lon="-10.148473000153899">
        <ele>91.939999999999998</ele>
        <time>2026-06-30T08:41:56Z</time>
      </trkpt>
      <trkpt lat="52.144006965681911" lon="-10.150668974965811">
        <ele>87.140000000000001</ele>
        <time>2026-06-30T08:42:05Z</time>
      </trkpt>
      <trkpt lat="52.144310977309942" lon="-10.152746010571718">
        <ele>81.849999999999994</ele>
        <time>2026-06-30T08:42:13Z</time>
      </trkpt>
      <trkpt lat="52.144076032564044" lon="-10.154595980420709">
        <ele>76.560000000000002</ele>
        <time>2026-06-30T08:42:20Z</time>
      </trkpt>
      <trkpt lat="52.143405983224511" lon="-10.156561033800244">
        <ele>72.719999999999999</ele>
        <time>2026-06-30T08:42:29Z</time>
      </trkpt>
      <trkpt lat="52.143153017386794" lon="-10.1572419796139">
        <ele>70.790000000000006</ele>
        <time>2026-06-30T08:42:33Z</time>
      </trkpt>
      <trkpt lat="52.143109012395144" lon="-10.157422022894025">
        <ele>70.310000000000002</ele>
        <time>2026-06-30T08:42:34Z</time>
      </trkpt>
      <trkpt lat="52.143068024888635" lon="-10.157623020932078">
        <ele>69.829999999999998</ele>
        <time>2026-06-30T08:42:35Z</time>
      </trkpt>
      <trkpt lat="52.143028965219855" lon="-10.157823013141751">
        <ele>69.829999999999998</ele>
        <time>2026-06-30T08:42:36Z</time>
      </trkpt>
      <trkpt lat="52.142999041825533" lon="-10.158028034493327">
        <ele>69.349999999999994</ele>
        <time>2026-06-30T08:42:37Z</time>
      </trkpt>
      <trkpt lat="52.142990995198488" lon="-10.158248981460929">
        <ele>68.870000000000005</ele>
        <time>2026-06-30T08:42:38Z</time>
      </trkpt>
      <trkpt lat="52.142983032390475" lon="-10.158477975055575">
        <ele>68.870000000000005</ele>
        <time>2026-06-30T08:42:39Z</time>
      </trkpt>
      <trkpt lat="52.142902985215187" lon="-10.159385986626148">
        <ele>66.950000000000003</ele>
        <time>2026-06-30T08:42:43Z</time>
      </trkpt>
      <trkpt lat="52.142872978001833" lon="-10.159607017412782">
        <ele>66.469999999999999</ele>
        <time>2026-06-30T08:42:44Z</time>
      </trkpt>
      <trkpt lat="52.142805000767112" lon="-10.159804997965693">
        <ele>65.989999999999995</ele>
        <time>2026-06-30T08:42:45Z</time>
      </trkpt>
      <trkpt lat="52.14273601770401" lon="-10.160001972690225">
        <ele>65.510000000000005</ele>
        <time>2026-06-30T08:42:46Z</time>
      </trkpt>
      <trkpt lat="52.142656976357102" lon="-10.16018302179873">
        <ele>64.549999999999997</ele>
        <time>2026-06-30T08:42:47Z</time>
      </trkpt>
      <trkpt lat="52.142565026879311" lon="-10.160354012623429">
        <ele>64.069999999999993</ele>
        <time>2026-06-30T08:42:48Z</time>
      </trkpt>
      <trkpt lat="52.142451032996178" lon="-10.160471023991704">
        <ele>63.100000000000001</ele>
        <time>2026-06-30T08:42:49Z</time>
      </trkpt>
      <trkpt lat="52.142331004142761" lon="-10.160580994561315">
        <ele>62.140000000000001</ele>
        <time>2026-06-30T08:42:50Z</time>
      </trkpt>
      <trkpt lat="52.142213992774487" lon="-10.160687025636435">
        <ele>61.18</ele>
        <time>2026-06-30T08:42:51Z</time>
      </trkpt>
      <trkpt lat="52.142099998891354" lon="-10.160791967064142">
        <ele>60.219999999999999</ele>
        <time>2026-06-30T08:42:52Z</time>
      </trkpt>
      <trkpt lat="52.141774026677012" lon="-10.161122968420386">
        <ele>58.780000000000001</ele>
        <time>2026-06-30T08:42:55Z</time>
      </trkpt>
      <trkpt lat="52.141685010865331" lon="-10.161266969516873">
        <ele>58.299999999999997</ele>
        <time>2026-06-30T08:42:56Z</time>
      </trkpt>
      <trkpt lat="52.141607981175184" lon="-10.161425974220037">
        <ele>57.82</ele>
        <time>2026-06-30T08:42:57Z</time>
      </trkpt>
      <trkpt lat="52.141541009768844" lon="-10.161605011671782">
        <ele>57.340000000000003</ele>
        <time>2026-06-30T08:42:58Z</time>
      </trkpt>
      <trkpt lat="52.141527011990547" lon="-10.161820007488132">
        <ele>56.369999999999997</ele>
        <time>2026-06-30T08:42:59Z</time>
      </trkpt>
      <trkpt lat="52.14151200838387" lon="-10.162042966112494">
        <ele>55.890000000000001</ele>
        <time>2026-06-30T08:43:00Z</time>
      </trkpt>
      <trkpt lat="52.141499016433954" lon="-10.162270031869411">
        <ele>55.409999999999997</ele>
        <time>2026-06-30T08:43:01Z</time>
      </trkpt>
      <trkpt lat="52.141446964815259" lon="-10.163239985704422">
        <ele>53.009999999999998</ele>
        <time>2026-06-30T08:43:05Z</time>
      </trkpt>
      <trkpt lat="52.141304975375533" lon="-10.163977006450295">
        <ele>50.130000000000003</ele>
        <time>2026-06-30T08:43:08Z</time>
      </trkpt>
      <trkpt lat="52.140872972086072" lon="-10.165692027658224">
        <ele>42.920000000000002</ele>
        <time>2026-06-30T08:43:16Z</time>
      </trkpt>
      <trkpt lat="52.140767024829984" lon="-10.16809101216495">
        <ele>39.549999999999997</ele>
        <time>2026-06-30T08:43:26Z</time>
      </trkpt>
      <trkpt lat="52.14073701761663" lon="-10.171159040182829">
        <ele>50.130000000000003</ele>
        <time>2026-06-30T08:43:38Z</time>
      </trkpt>
      <trkpt lat="52.140672979876399" lon="-10.174438962712884">
        <ele>48.68</ele>
        <time>2026-06-30T08:43:49Z</time>
      </trkpt>
      <trkpt lat="52.140641966834664" lon="-10.177520988509059">
        <ele>45.32</ele>
        <time>2026-06-30T08:44:00Z</time>
      </trkpt>
      <trkpt lat="52.140624029561877" lon="-10.180981960147619">
        <ele>40.990000000000002</ele>
        <time>2026-06-30T08:44:12Z</time>
      </trkpt>
      <trkpt lat="52.140577007085085" lon="-10.185507014393806">
        <ele>30.420000000000002</ele>
        <time>2026-06-30T08:44:28Z</time>
      </trkpt>
      <trkpt lat="52.140552029013634" lon="-10.189287001267076">
        <ele>23.690000000000001</ele>
        <time>2026-06-30T08:44:41Z</time>
      </trkpt>
      <trkpt lat="52.140505006536841" lon="-10.193264968693256">
        <ele>19.359999999999999</ele>
        <time>2026-06-30T08:44:54Z</time>
      </trkpt>
      <trkpt lat="52.140478016808629" lon="-10.197909967973828">
        <ele>16.48</ele>
        <time>2026-06-30T08:45:10Z</time>
      </trkpt>
      <trkpt lat="52.140430994331837" lon="-10.201990026980639">
        <ele>18.879999999999999</ele>
        <time>2026-06-30T08:45:23Z</time>
      </trkpt>
      <trkpt lat="52.14039696380496" lon="-10.205861041322351">
        <ele>24.170000000000002</ele>
        <time>2026-06-30T08:45:35Z</time>
      </trkpt>
      <trkpt lat="52.140366034582257" lon="-10.20944899879396">
        <ele>21.77</ele>
        <time>2026-06-30T08:45:46Z</time>
      </trkpt>
      <trkpt lat="52.140313982963562" lon="-10.214317962527275">
        <ele>15.52</ele>
        <time>2026-06-30T08:46:02Z</time>
      </trkpt>
      <trkpt lat="52.140248017385602" lon="-10.218819966539741">
        <ele>15.52</ele>
        <time>2026-06-30T08:46:18Z</time>
      </trkpt>
      <trkpt lat="52.140204012393951" lon="-10.22236299701035">
        <ele>18.879999999999999</ele>
        <time>2026-06-30T08:46:30Z</time>
      </trkpt>
      <trkpt lat="52.140150032937527" lon="-10.226729968562722">
        <ele>18.399999999999999</ele>
        <time>2026-06-30T08:46:45Z</time>
      </trkpt>
      <trkpt lat="52.140039978548884" lon="-10.230347011238337">
        <ele>18.879999999999999</ele>
        <time>2026-06-30T08:46:58Z</time>
      </trkpt>
      <trkpt lat="52.13966597802937" lon="-10.232187006622553">
        <ele>20.809999999999999</ele>
        <time>2026-06-30T08:47:05Z</time>
      </trkpt>
      <trkpt lat="52.138956030830741" lon="-10.233647972345352">
        <ele>25.609999999999999</ele>
        <time>2026-06-30T08:47:12Z</time>
      </trkpt>
      <trkpt lat="52.13798800483346" lon="-10.235391994938254">
        <ele>29.460000000000001</ele>
        <time>2026-06-30T08:47:21Z</time>
      </trkpt>
      <trkpt lat="52.137392973527312" lon="-10.237517980858684">
        <ele>34.740000000000002</ele>
        <time>2026-06-30T08:47:31Z</time>
      </trkpt>
      <trkpt lat="52.136765001341701" lon="-10.239230990409851">
        <ele>39.07</ele>
        <time>2026-06-30T08:47:40Z</time>
      </trkpt>
      <trkpt lat="52.135637970641255" lon="-10.240772003307939">
        <ele>43.880000000000003</ele>
        <time>2026-06-30T08:47:49Z</time>
      </trkpt>
      <trkpt lat="52.134817969053984" lon="-10.241607008501887">
        <ele>46.280000000000001</ele>
        <time>2026-06-30T08:47:55Z</time>
      </trkpt>
      <trkpt lat="52.13470296934247" lon="-10.241793002933264">
        <ele>46.759999999999998</ele>
        <time>2026-06-30T08:47:56Z</time>
      </trkpt>
      <trkpt lat="52.133872993290424" lon="-10.243040984496474">
        <ele>51.57</ele>
        <time>2026-06-30T08:48:03Z</time>
      </trkpt>
      <trkpt lat="52.133750030770898" lon="-10.243197977542877">
        <ele>52.049999999999997</ele>
        <time>2026-06-30T08:48:04Z</time>
      </trkpt>
      <trkpt lat="52.132225027307868" lon="-10.244217971339822">
        <ele>55.890000000000001</ele>
        <time>2026-06-30T08:48:14Z</time>
      </trkpt>
      <trkpt lat="52.130268020555377" lon="-10.245064040645957">
        <ele>57.340000000000003</ele>
        <time>2026-06-30T08:48:26Z</time>
      </trkpt>
      <trkpt lat="52.129764016717672" lon="-10.245452038943768">
        <ele>57.340000000000003</ele>
        <time>2026-06-30T08:48:30Z</time>
      </trkpt>
      <trkpt lat="52.129645999521017" lon="-10.245557986199856">
        <ele>56.859999999999999</ele>
        <time>2026-06-30T08:48:31Z</time>
      </trkpt>
      <trkpt lat="52.129557989537716" lon="-10.245713973417878">
        <ele>56.859999999999999</ele>
        <time>2026-06-30T08:48:32Z</time>
      </trkpt>
      <trkpt lat="52.12948196567595" lon="-10.245886975899339">
        <ele>56.369999999999997</ele>
        <time>2026-06-30T08:48:33Z</time>
      </trkpt>
      <trkpt lat="52.129428992047906" lon="-10.246077999472618">
        <ele>55.890000000000001</ele>
        <time>2026-06-30T08:48:34Z</time>
      </trkpt>
      <trkpt lat="52.129381969571114" lon="-10.246283020824194">
        <ele>55.409999999999997</ele>
        <time>2026-06-30T08:48:35Z</time>
      </trkpt>
      <trkpt lat="52.129351040348411" lon="-10.246496004983783">
        <ele>55.409999999999997</ele>
        <time>2026-06-30T08:48:36Z</time>
      </trkpt>
      <trkpt lat="52.129339976236224" lon="-10.246728016063571">
        <ele>54.93</ele>
        <time>2026-06-30T08:48:37Z</time>
      </trkpt>
      <trkpt lat="52.12933000177145" lon="-10.246962960809469">
        <ele>54.450000000000003</ele>
        <time>2026-06-30T08:48:38Z</time>
      </trkpt>
      <trkpt lat="52.129319021478295" lon="-10.247201006859541">
        <ele>53.969999999999999</ele>
        <time>2026-06-30T08:48:39Z</time>
      </trkpt>
      <trkpt lat="52.129321033135056" lon="-10.247436035424471">
        <ele>53.969999999999999</ele>
        <time>2026-06-30T08:48:40Z</time>
      </trkpt>
      <trkpt lat="52.129611968994141" lon="-10.249458001926541">
        <ele>50.130000000000003</ele>
        <time>2026-06-30T08:48:48Z</time>
      </trkpt>
      <trkpt lat="52.130294004455209" lon="-10.25216300971806">
        <ele>43.880000000000003</ele>
        <time>2026-06-30T08:48:59Z</time>
      </trkpt>
      <trkpt lat="52.131270999088883" lon="-10.254768021404743">
        <ele>40.990000000000002</ele>
        <time>2026-06-30T08:49:11Z</time>
      </trkpt>
      <trkpt lat="52.131333025172353" lon="-10.254985028877854">
        <ele>40.509999999999998</ele>
        <time>2026-06-30T08:49:12Z</time>
      </trkpt>
      <trkpt lat="52.13134903460741" lon="-10.255223996937275">
        <ele>40.030000000000001</ele>
        <time>2026-06-30T08:49:13Z</time>
      </trkpt>
      <trkpt lat="52.131364960223436" lon="-10.255476962774992">
        <ele>39.549999999999997</ele>
        <time>2026-06-30T08:49:14Z</time>
      </trkpt>
      <trkpt lat="52.131361020728946" lon="-10.255741998553276">
        <ele>39.07</ele>
        <time>2026-06-30T08:49:15Z</time>
      </trkpt>
      <trkpt lat="52.131341993808746" lon="-10.256019020453095">
        <ele>38.590000000000003</ele>
        <time>2026-06-30T08:49:16Z</time>
      </trkpt>
      <trkpt lat="52.131163040176034" lon="-10.258544990792871">
        <ele>34.259999999999998</ele>
        <time>2026-06-30T08:49:25Z</time>
      </trkpt>
      <trkpt lat="52.131354985758662" lon="-10.260487999767065">
        <ele>31.859999999999999</ele>
        <time>2026-06-30T08:49:32Z</time>
      </trkpt>
      <trkpt lat="52.131867036223412" lon="-10.262014009058475">
        <ele>29.460000000000001</ele>
        <time>2026-06-30T08:49:39Z</time>
      </trkpt>
      <trkpt lat="52.132480004802346" lon="-10.263045988976955">
        <ele>27.050000000000001</ele>
        <time>2026-06-30T08:49:47Z</time>
      </trkpt>
      <trkpt lat="52.133139995858073" lon="-10.263743028044701">
        <ele>25.609999999999999</ele>
        <time>2026-06-30T08:49:58Z</time>
      </trkpt>
      <trkpt lat="52.133797975257039" lon="-10.264286007732153">
        <ele>25.129999999999999</ele>
        <time>2026-06-30T08:50:07Z</time>
      </trkpt>
      <trkpt lat="52.134515969082713" lon="-10.264910962432623">
        <ele>23.690000000000001</ele>
        <time>2026-06-30T08:50:12Z</time>
      </trkpt>
      <trkpt lat="52.135493969544768" lon="-10.266290036961436">
        <ele>21.77</ele>
        <time>2026-06-30T08:50:21Z</time>
      </trkpt>
      <trkpt lat="52.136128982529044" lon="-10.267526032403111">
        <ele>22.25</ele>
        <time>2026-06-30T08:50:31Z</time>
      </trkpt>
      <trkpt lat="52.136589987203479" lon="-10.268394984304905">
        <ele>22.25</ele>
        <time>2026-06-30T08:50:40Z</time>
      </trkpt>
      <trkpt lat="52.137382999062538" lon="-10.2694589830935">
        <ele>18.879999999999999</ele>
        <time>2026-06-30T08:50:51Z</time>
      </trkpt>
      <trkpt lat="52.138411961495876" lon="-10.270357020199299">
        <ele>12.15</ele>
        <time>2026-06-30T08:51:03Z</time>
      </trkpt>
      <trkpt lat="52.138602985069156" lon="-10.270500015467405">
        <ele>10.710000000000001</ele>
        <time>2026-06-30T08:51:09Z</time>
      </trkpt>
      <trkpt lat="52.138602985069156" lon="-10.270500015467405">
        <ele>10.710000000000001</ele>
        <time>2026-06-30T08:51:26Z</time>
      </trkpt>
      <trkpt lat="52.138641960918903" lon="-10.270533040165901">
        <ele>11.19</ele>
        <time>2026-06-30T08:51:42Z</time>
      </trkpt>
      <trkpt lat="52.138765007257462" lon="-10.270652985200286">
        <ele>12.15</ele>
        <time>2026-06-30T08:51:46Z</time>
      </trkpt>
      <trkpt lat="52.138774981722236" lon="-10.270754992961884">
        <ele>12.630000000000001</ele>
        <time>2026-06-30T08:51:47Z</time>
      </trkpt>
      <trkpt lat="52.138774981722236" lon="-10.270852977409959">
        <ele>12.630000000000001</ele>
        <time>2026-06-30T08:51:48Z</time>
      </trkpt>
      <trkpt lat="52.138774981722236" lon="-10.270937969908118">
        <ele>12.630000000000001</ele>
        <time>2026-06-30T08:51:49Z</time>
      </trkpt>
      <trkpt lat="52.138774981722236" lon="-10.27100401930511">
        <ele>12.630000000000001</ele>
        <time>2026-06-30T08:51:50Z</time>
      </trkpt>
      <trkpt lat="52.13880599476397" lon="-10.271308030933142">
        <ele>13.119999999999999</ele>
        <time>2026-06-30T08:51:55Z</time>
      </trkpt>
      <trkpt lat="52.13899802416563" lon="-10.27218502946198">
        <ele>15.039999999999999</ele>
        <time>2026-06-30T08:52:05Z</time>
      </trkpt>
      <trkpt lat="52.139199022203684" lon="-10.272805038839579">
        <ele>16</ele>
        <time>2026-06-30T08:52:12Z</time>
      </trkpt>
      <trkpt lat="52.139239003881812" lon="-10.272879973053932">
        <ele>16</ele>
        <time>2026-06-30T08:52:13Z</time>
      </trkpt>
      <trkpt lat="52.139355009421706" lon="-10.273207034915686">
        <ele>16</ele>
        <time>2026-06-30T08:52:17Z</time>
      </trkpt>
      <trkpt lat="52.139370013028383" lon="-10.273308036848903">
        <ele>16</ele>
        <time>2026-06-30T08:52:18Z</time>
      </trkpt>
      <trkpt lat="52.139386022463441" lon="-10.27341197244823">
        <ele>16</ele>
        <time>2026-06-30T08:52:19Z</time>
      </trkpt>
      <trkpt lat="52.139402031898499" lon="-10.273522026836872">
        <ele>16</ele>
        <time>2026-06-30T08:52:20Z</time>
      </trkpt>
      <trkpt lat="52.139418041333556" lon="-10.273629985749722">
        <ele>16</ele>
        <time>2026-06-30T08:52:21Z</time>
      </trkpt>
      <trkpt lat="52.139440001919866" lon="-10.273783039301634">
        <ele>16</ele>
        <time>2026-06-30T08:52:22Z</time>
      </trkpt>
      <trkpt lat="52.139426004141569" lon="-10.273864008486271">
        <ele>16</ele>
        <time>2026-06-30T08:52:23Z</time>
      </trkpt>
      <trkpt lat="52.139309998601675" lon="-10.274534979835153">
        <ele>16</ele>
        <time>2026-06-30T08:52:30Z</time>
      </trkpt>
      <trkpt lat="52.139269011095166" lon="-10.274985004216433">
        <ele>16</ele>
        <time>2026-06-30T08:52:36Z</time>
      </trkpt>
      <trkpt lat="52.13925501331687" lon="-10.274987015873194">
        <ele>15.52</ele>
        <time>2026-06-30T08:52:37Z</time>
      </trkpt>
      <trkpt lat="52.139225006103516" lon="-10.274990033358335">
        <ele>15.52</ele>
        <time>2026-06-30T08:52:38Z</time>
      </trkpt>
      <trkpt lat="52.13919198140502" lon="-10.274994978681207">
        <ele>15.039999999999999</ele>
        <time>2026-06-30T08:52:39Z</time>
      </trkpt>
      <trkpt lat="52.139154011383653" lon="-10.274999001994729">
        <ele>15.039999999999999</ele>
        <time>2026-06-30T08:52:40Z</time>
      </trkpt>
      <trkpt lat="52.139064995571971" lon="-10.275092963129282">
        <ele>14.56</ele>
        <time>2026-06-30T08:52:42Z</time>
      </trkpt>
      <trkpt lat="52.139043034985662" lon="-10.275154989212751">
        <ele>14.56</ele>
        <time>2026-06-30T08:52:43Z</time>
      </trkpt>
      <trkpt lat="52.139023002237082" lon="-10.275209974497557">
        <ele>14.56</ele>
        <time>2026-06-30T08:52:44Z</time>
      </trkpt>
      <trkpt lat="52.139011016115546" lon="-10.275241993367672">
        <ele>14.08</ele>
        <time>2026-06-30T08:52:45Z</time>
      </trkpt>
      <trkpt lat="52.139011016115546" lon="-10.27532396838069">
        <ele>14.08</ele>
        <time>2026-06-30T08:52:46Z</time>
      </trkpt>
      <trkpt lat="52.139011016115546" lon="-10.275379959493876">
        <ele>13.6</ele>
        <time>2026-06-30T08:52:47Z</time>
      </trkpt>
      <trkpt lat="52.139011016115546" lon="-10.275436034426093">
        <ele>13.6</ele>
        <time>2026-06-30T08:52:48Z</time>
      </trkpt>
      <trkpt lat="52.13902099058032" lon="-10.275918999686837">
        <ele>13.119999999999999</ele>
        <time>2026-06-30T08:52:58Z</time>
      </trkpt>
      <trkpt lat="52.139024008065462" lon="-10.275953030213714">
        <ele>13.119999999999999</ele>
        <time>2026-06-30T08:52:59Z</time>
      </trkpt>
      <trkpt lat="52.139060972258449" lon="-10.276460973545909">
        <ele>12.15</ele>
        <time>2026-06-30T08:53:09Z</time>
      </trkpt>
      <trkpt lat="52.139070024713874" lon="-10.2765909768641">
        <ele>12.630000000000001</ele>
        <time>2026-06-30T08:53:11Z</time>
      </trkpt>
      <trkpt lat="52.139074970036745" lon="-10.276656020432711">
        <ele>12.630000000000001</ele>
        <time>2026-06-30T08:53:12Z</time>
      </trkpt>
      <trkpt lat="52.139087961986661" lon="-10.276835979893804">
        <ele>12.630000000000001</ele>
        <time>2026-06-30T08:53:16Z</time>
      </trkpt>
      <trkpt lat="52.139088967815042" lon="-10.276850983500481">
        <ele>12.15</ele>
        <time>2026-06-30T08:53:17Z</time>
      </trkpt>
      <trkpt lat="52.139090979471803" lon="-10.276872022077441">
        <ele>12.15</ele>
        <time>2026-06-30T08:53:30Z</time>
      </trkpt>
      <trkpt lat="52.139076981693506" lon="-10.276883002370596">
        <ele>11.19</ele>
        <time>2026-06-30T08:54:17Z</time>
      </trkpt>
      <trkpt lat="52.139073964208364" lon="-10.276889037340879">
        <ele>11.67</ele>
        <time>2026-06-30T08:55:05Z</time>
      </trkpt>
      <trkpt lat="52.139071030542254" lon="-10.276893982663751">
        <ele>12.630000000000001</ele>
        <time>2026-06-30T08:56:00Z</time>
      </trkpt>
      <trkpt lat="52.139072958379984" lon="-10.276893982663751">
        <ele>12.630000000000001</ele>
        <time>2026-06-30T08:56:47Z</time>
      </trkpt>
      <trkpt lat="52.139069018885493" lon="-10.276906974613667">
        <ele>13.119999999999999</ele>
        <time>2026-06-30T08:57:39Z</time>
      </trkpt>
      <trkpt lat="52.139066001400352" lon="-10.276905968785286">
        <ele>13.119999999999999</ele>
        <time>2026-06-30T08:58:31Z</time>
      </trkpt>
      <trkpt lat="52.139066001400352" lon="-10.276912003755569">
        <ele>13.119999999999999</ele>
        <time>2026-06-30T08:59:22Z</time>
      </trkpt>
      <trkpt lat="52.139067007228732" lon="-10.276915021240711">
        <ele>13.119999999999999</ele>
        <time>2026-06-30T09:00:13Z</time>
      </trkpt>
      <trkpt lat="52.139068013057113" lon="-10.27691300958395">
        <ele>13.119999999999999</ele>
        <time>2026-06-30T09:00:58Z</time>
      </trkpt>
      <trkpt lat="52.139085028320551" lon="-10.276977969333529">
        <ele>12.15</ele>
        <time>2026-06-30T09:01:17Z</time>
      </trkpt>
      <trkpt lat="52.139096008613706" lon="-10.276979980990291">
        <ele>12.15</ele>
        <time>2026-06-30T09:01:25Z</time>
      </trkpt>
      <trkpt lat="52.139101959764957" lon="-10.27701904065907">
        <ele>12.15</ele>
        <time>2026-06-30T09:01:27Z</time>
      </trkpt>
      <trkpt lat="52.13910698890686" lon="-10.277084000408649">
        <ele>12.15</ele>
        <time>2026-06-30T09:01:28Z</time>
      </trkpt>
      <trkpt lat="52.139112018048763" lon="-10.277162035927176">
        <ele>12.630000000000001</ele>
        <time>2026-06-30T09:01:29Z</time>
      </trkpt>
      <trkpt lat="52.139116963371634" lon="-10.277233030647039">
        <ele>12.630000000000001</ele>
        <time>2026-06-30T09:01:30Z</time>
      </trkpt>
      <trkpt lat="52.139226011931896" lon="-10.277603007853031">
        <ele>13.119999999999999</ele>
        <time>2026-06-30T09:01:38Z</time>
      </trkpt>
      <trkpt lat="52.139226011931896" lon="-10.277603007853031">
        <ele>12.630000000000001</ele>
        <time>2026-06-30T09:01:39Z</time>
      </trkpt>
      <trkpt lat="52.139303041622043" lon="-10.27758096344769">
        <ele>13.119999999999999</ele>
        <time>2026-06-30T09:01:40Z</time>
      </trkpt>
      <trkpt lat="52.139383004978299" lon="-10.277632009238005">
        <ele>12.630000000000001</ele>
        <time>2026-06-30T09:01:48Z</time>
      </trkpt>
      <trkpt lat="52.139388034120202" lon="-10.277685988694429">
        <ele>13.119999999999999</ele>
        <time>2026-06-30T09:01:49Z</time>
      </trkpt>
      <trkpt lat="52.139395996928215" lon="-10.277777016162872">
        <ele>13.119999999999999</ele>
        <time>2026-06-30T09:01:50Z</time>
      </trkpt>
      <trkpt lat="52.13940798304975" lon="-10.277898972854018">
        <ele>13.119999999999999</ele>
        <time>2026-06-30T09:01:51Z</time>
      </trkpt>
      <trkpt lat="52.139420974999666" lon="-10.278040040284395">
        <ele>13.119999999999999</ele>
        <time>2026-06-30T09:01:52Z</time>
      </trkpt>
      <trkpt lat="52.139523988589644" lon="-10.278865993022919">
        <ele>13.6</ele>
        <time>2026-06-30T09:01:57Z</time>
      </trkpt>
      <trkpt lat="52.139739990234375" lon="-10.280259987339377">
        <ele>14.56</ele>
        <time>2026-06-30T09:02:05Z</time>
      </trkpt>
      <trkpt lat="52.140039978548884" lon="-10.28215697966516">
        <ele>15.039999999999999</ele>
        <time>2026-06-30T09:02:16Z</time>
      </trkpt>
      <trkpt lat="52.140567032620311" lon="-10.284999031573534">
        <ele>14.08</ele>
        <time>2026-06-30T09:02:31Z</time>
      </trkpt>
      <trkpt lat="52.140958970412612" lon="-10.286352038383484">
        <ele>13.119999999999999</ele>
        <time>2026-06-30T09:02:38Z</time>
      </trkpt>
      <trkpt lat="52.141028959304094" lon="-10.286535015329719">
        <ele>12.630000000000001</ele>
        <time>2026-06-30T09:02:39Z</time>
      </trkpt>
      <trkpt lat="52.141129039227962" lon="-10.286657977849245">
        <ele>12.15</ele>
        <time>2026-06-30T09:02:40Z</time>
      </trkpt>
      <trkpt lat="52.14123398065567" lon="-10.286771971732378">
        <ele>12.15</ele>
        <time>2026-06-30T09:02:41Z</time>
      </trkpt>
      <trkpt lat="52.141344035044312" lon="-10.28686199337244">
        <ele>12.15</ele>
        <time>2026-06-30T09:02:42Z</time>
      </trkpt>
      <trkpt lat="52.14144797064364" lon="-10.28694799169898">
        <ele>12.15</ele>
        <time>2026-06-30T09:02:43Z</time>
      </trkpt>
      <trkpt lat="52.141815014183521" lon="-10.28724898584187">
        <ele>13.6</ele>
        <time>2026-06-30T09:02:49Z</time>
      </trkpt>
      <trkpt lat="52.14194200001657" lon="-10.287353005260229">
        <ele>15.039999999999999</ele>
        <time>2026-06-30T09:02:54Z</time>
      </trkpt>
      <trkpt lat="52.14198499917984" lon="-10.287388041615486">
        <ele>15.039999999999999</ele>
        <time>2026-06-30T09:02:55Z</time>
      </trkpt>
      <trkpt lat="52.142036966979504" lon="-10.287477979436517">
        <ele>15.52</ele>
        <time>2026-06-30T09:02:56Z</time>
      </trkpt>
      <trkpt lat="52.142036966979504" lon="-10.28757001273334">
        <ele>15.52</ele>
        <time>2026-06-30T09:02:57Z</time>
      </trkpt>
      <trkpt lat="52.142036966979504" lon="-10.287602031603456">
        <ele>16</ele>
        <time>2026-06-30T09:02:58Z</time>
      </trkpt>
      <trkpt lat="52.142060017213225" lon="-10.287786014378071">
        <ele>16</ele>
        <time>2026-06-30T09:02:59Z</time>
      </trkpt>
      <trkpt lat="52.142025986686349" lon="-10.287867989391088">
        <ele>16.48</ele>
        <time>2026-06-30T09:03:00Z</time>
      </trkpt>
      <trkpt lat="52.141989022493362" lon="-10.287959016859531">
        <ele>16</ele>
        <time>2026-06-30T09:03:01Z</time>
      </trkpt>
      <trkpt lat="52.141947029158473" lon="-10.288061024621129">
        <ele>16</ele>
        <time>2026-06-30T09:03:02Z</time>
      </trkpt>
      <trkpt lat="52.141399020329118" lon="-10.289275981485844">
        <ele>13.6</ele>
        <time>2026-06-30T09:03:12Z</time>
      </trkpt>
      <trkpt lat="52.141031976789236" lon="-10.289982995018363">
        <ele>16.48</ele>
        <time>2026-06-30T09:03:18Z</time>
      </trkpt>
      <trkpt lat="52.140478016808629" lon="-10.291432980448008">
        <ele>22.73</ele>
        <time>2026-06-30T09:03:27Z</time>
      </trkpt>
      <trkpt lat="52.14026503264904" lon="-10.291972020640969">
        <ele>24.170000000000002</ele>
        <time>2026-06-30T09:03:31Z</time>
      </trkpt>
      <trkpt lat="52.140239970758557" lon="-10.292033962905407">
        <ele>24.649999999999999</ele>
        <time>2026-06-30T09:03:32Z</time>
      </trkpt>
      <trkpt lat="52.140208035707474" lon="-10.292115015909076">
        <ele>25.129999999999999</ele>
        <time>2026-06-30T09:03:35Z</time>
      </trkpt>
      <trkpt lat="52.140208035707474" lon="-10.292115015909076">
        <ele>25.129999999999999</ele>
        <time>2026-06-30T09:03:54Z</time>
      </trkpt>
      <trkpt lat="52.14018096216023" lon="-10.292183998972178">
        <ele>24.649999999999999</ele>
        <time>2026-06-30T09:04:16Z</time>
      </trkpt>
      <trkpt lat="52.140134023502469" lon="-10.292304027825594">
        <ele>24.170000000000002</ele>
        <time>2026-06-30T09:04:18Z</time>
      </trkpt>
      <trkpt lat="52.14009596966207" lon="-10.292397988960147">
        <ele>24.649999999999999</ele>
        <time>2026-06-30T09:04:19Z</time>
      </trkpt>
      <trkpt lat="52.14005003683269" lon="-10.292516006156802">
        <ele>24.649999999999999</ele>
        <time>2026-06-30T09:04:20Z</time>
      </trkpt>
      <trkpt lat="52.139549972489476" lon="-10.293927015736699">
        <ele>28.02</ele>
        <time>2026-06-30T09:04:29Z</time>
      </trkpt>
      <trkpt lat="52.139455005526543" lon="-10.294300010427833">
        <ele>29.460000000000001</ele>
        <time>2026-06-30T09:04:31Z</time>
      </trkpt>
      <trkpt lat="52.139140013605356" lon="-10.296957995742559">
        <ele>25.609999999999999</ele>
        <time>2026-06-30T09:04:44Z</time>
      </trkpt>
      <trkpt lat="52.139095002785325" lon="-10.297154970467091">
        <ele>25.129999999999999</ele>
        <time>2026-06-30T09:04:45Z</time>
      </trkpt>
      <trkpt lat="52.139054015278816" lon="-10.297336019575596">
        <ele>24.649999999999999</ele>
        <time>2026-06-30T09:04:46Z</time>
      </trkpt>
      <trkpt lat="52.138991989195347" lon="-10.297499969601631">
        <ele>24.170000000000002</ele>
        <time>2026-06-30T09:04:47Z</time>
      </trkpt>
      <trkpt lat="52.138904985040426" lon="-10.297651011496782">
        <ele>23.690000000000001</ele>
        <time>2026-06-30T09:04:48Z</time>
      </trkpt>
      <trkpt lat="52.138816975057125" lon="-10.297803981229663">
        <ele>23.210000000000001</ele>
        <time>2026-06-30T09:04:49Z</time>
      </trkpt>
      <trkpt lat="52.138711027801037" lon="-10.297987964004278">
        <ele>22.73</ele>
        <time>2026-06-30T09:04:50Z</time>
      </trkpt>
      <trkpt lat="52.13861295953393" lon="-10.298103969544172">
        <ele>22.25</ele>
        <time>2026-06-30T09:04:51Z</time>
      </trkpt>
      <trkpt lat="52.137213014066219" lon="-10.299792001023889">
        <ele>12.630000000000001</ele>
        <time>2026-06-30T09:05:02Z</time>
      </trkpt>
      <trkpt lat="52.135649034753442" lon="-10.301850009709597">
        <ele>7.35</ele>
        <time>2026-06-30T09:05:14Z</time>
      </trkpt>
      <trkpt lat="52.134000984951854" lon="-10.303735015913844">
        <ele>10.710000000000001</ele>
        <time>2026-06-30T09:05:27Z</time>
      </trkpt>
      <trkpt lat="52.132975040003657" lon="-10.305333025753498">
        <ele>13.6</ele>
        <time>2026-06-30T09:05:36Z</time>
      </trkpt>
      <trkpt lat="52.132132994011045" lon="-10.307457000017166">
        <ele>13.119999999999999</ele>
        <time>2026-06-30T09:05:46Z</time>
      </trkpt>
      <trkpt lat="52.131624966859818" lon="-10.308817969635129">
        <ele>12.630000000000001</ele>
        <time>2026-06-30T09:05:52Z</time>
      </trkpt>
      <trkpt lat="52.131318021565676" lon="-10.309639982879162">
        <ele>11.67</ele>
        <time>2026-06-30T09:05:56Z</time>
      </trkpt>
      <trkpt lat="52.130634980276227" lon="-10.311153000220656">
        <ele>10.710000000000001</ele>
        <time>2026-06-30T09:06:03Z</time>
      </trkpt>
      <trkpt lat="52.129551032558084" lon="-10.313112018629909">
        <ele>9.27</ele>
        <time>2026-06-30T09:06:13Z</time>
      </trkpt>
      <trkpt lat="52.127950005233288" lon="-10.315589038655162">
        <ele>6.87</ele>
        <time>2026-06-30T09:06:26Z</time>
      </trkpt>
      <trkpt lat="52.127098990604281" lon="-10.317134996876121">
        <ele>9.75</ele>
        <time>2026-06-30T09:06:34Z</time>
      </trkpt>
      <trkpt lat="52.12679598480463" lon="-10.317878974601626">
        <ele>11.67</ele>
        <time>2026-06-30T09:06:38Z</time>
      </trkpt>
      <trkpt lat="52.126740999519825" lon="-10.31808097846806">
        <ele>12.15</ele>
        <time>2026-06-30T09:06:39Z</time>
      </trkpt>
      <trkpt lat="52.126718033105135" lon="-10.318311983719468">
        <ele>13.119999999999999</ele>
        <time>2026-06-30T09:06:40Z</time>
      </trkpt>
      <trkpt lat="52.126695988699794" lon="-10.318558998405933">
        <ele>13.6</ele>
        <time>2026-06-30T09:06:41Z</time>
      </trkpt>
      <trkpt lat="52.126674028113484" lon="-10.318813975900412">
        <ele>14.08</ele>
        <time>2026-06-30T09:06:42Z</time>
      </trkpt>
      <trkpt lat="52.126575959846377" lon="-10.319587038829923">
        <ele>15.52</ele>
        <time>2026-06-30T09:06:45Z</time>
      </trkpt>
      <trkpt lat="52.126524997875094" lon="-10.31984101049602">
        <ele>16</ele>
        <time>2026-06-30T09:06:46Z</time>
      </trkpt>
      <trkpt lat="52.126218974590302" lon="-10.321759041398764">
        <ele>20.809999999999999</ele>
        <time>2026-06-30T09:06:54Z</time>
      </trkpt>
      <trkpt lat="52.126185027882457" lon="-10.321962973102927">
        <ele>21.289999999999999</ele>
        <time>2026-06-30T09:06:55Z</time>
      </trkpt>
      <trkpt lat="52.126104980707169" lon="-10.32211602665484">
        <ele>21.77</ele>
        <time>2026-06-30T09:06:56Z</time>
      </trkpt>
      <trkpt lat="52.126013031229377" lon="-10.322262961417437">
        <ele>22.25</ele>
        <time>2026-06-30T09:06:57Z</time>
      </trkpt>
      <trkpt lat="52.125918986275792" lon="-10.322409979999065">
        <ele>22.73</ele>
        <time>2026-06-30T09:06:58Z</time>
      </trkpt>
      <trkpt lat="52.125017009675503" lon="-10.323712024837732">
        <ele>24.649999999999999</ele>
        <time>2026-06-30T09:07:06Z</time>
      </trkpt>
      <trkpt lat="52.124025011435151" lon="-10.324842995032668">
        <ele>22.73</ele>
        <time>2026-06-30T09:07:14Z</time>
      </trkpt>
      <trkpt lat="52.12393700145185" lon="-10.324968975037336">
        <ele>22.25</ele>
        <time>2026-06-30T09:07:15Z</time>
      </trkpt>
      <trkpt lat="52.123875981196761" lon="-10.325143989175558">
        <ele>21.77</ele>
        <time>2026-06-30T09:07:16Z</time>
      </trkpt>
      <trkpt lat="52.123814038932323" lon="-10.325323026627302">
        <ele>21.77</ele>
        <time>2026-06-30T09:07:17Z</time>
      </trkpt>
      <trkpt lat="52.123768022283912" lon="-10.325515978038311">
        <ele>21.289999999999999</ele>
        <time>2026-06-30T09:07:18Z</time>
      </trkpt>
      <trkpt lat="52.123745977878571" lon="-10.32572703436017">
        <ele>21.289999999999999</ele>
        <time>2026-06-30T09:07:19Z</time>
      </trkpt>
      <trkpt lat="52.123724017292261" lon="-10.32594496384263">
        <ele>21.289999999999999</ele>
        <time>2026-06-30T09:07:20Z</time>
      </trkpt>
      <trkpt lat="52.123546991497278" lon="-10.328330034390092">
        <ele>27.530000000000001</ele>
        <time>2026-06-30T09:07:30Z</time>
      </trkpt>
      <trkpt lat="52.123413970693946" lon="-10.331101007759571">
        <ele>31.859999999999999</ele>
        <time>2026-06-30T09:07:41Z</time>
      </trkpt>
      <trkpt lat="52.123428974300623" lon="-10.331322960555553">
        <ele>31.859999999999999</ele>
        <time>2026-06-30T09:07:42Z</time>
      </trkpt>
      <trkpt lat="52.123469039797783" lon="-10.331530999392271">
        <ele>31.859999999999999</ele>
        <time>2026-06-30T09:07:43Z</time>
      </trkpt>
      <trkpt lat="52.123508015647531" lon="-10.331742977723479">
        <ele>32.340000000000003</ele>
        <time>2026-06-30T09:07:44Z</time>
      </trkpt>
      <trkpt lat="52.123556965962052" lon="-10.33195998519659">
        <ele>32.340000000000003</ele>
        <time>2026-06-30T09:07:45Z</time>
      </trkpt>
      <trkpt lat="52.123627038672566" lon="-10.332161989063025">
        <ele>32.82</ele>
        <time>2026-06-30T09:07:46Z</time>
      </trkpt>
      <trkpt lat="52.124741999432445" lon="-10.335379969328642">
        <ele>36.189999999999998</ele>
        <time>2026-06-30T09:08:01Z</time>
      </trkpt>
      <trkpt lat="52.125316997990012" lon="-10.336836995556951">
        <ele>38.109999999999999</ele>
        <time>2026-06-30T09:08:08Z</time>
      </trkpt>
      <trkpt lat="52.125423029065132" lon="-10.337009998038411">
        <ele>38.590000000000003</ele>
        <time>2026-06-30T09:08:09Z</time>
      </trkpt>
      <trkpt lat="52.126504965126514" lon="-10.338987037539482">
        <ele>45.32</ele>
        <time>2026-06-30T09:08:20Z</time>
      </trkpt>
      <trkpt lat="52.127722017467022" lon="-10.341936964541674">
        <ele>47.240000000000002</ele>
        <time>2026-06-30T09:08:35Z</time>
      </trkpt>
      <trkpt lat="52.128519974648952" lon="-10.344120031222701">
        <ele>44.840000000000003</ele>
        <time>2026-06-30T09:08:46Z</time>
      </trkpt>
      <trkpt lat="52.129338970407844" lon="-10.345986010506749">
        <ele>42.920000000000002</ele>
        <time>2026-06-30T09:08:56Z</time>
      </trkpt>
      <trkpt lat="52.130230972543359" lon="-10.347597012296319">
        <ele>37.630000000000003</ele>
        <time>2026-06-30T09:09:06Z</time>
      </trkpt>
      <trkpt lat="52.130286963656545" lon="-10.347783006727695">
        <ele>37.149999999999999</ele>
        <time>2026-06-30T09:09:07Z</time>
      </trkpt>
      <trkpt lat="52.130342032760382" lon="-10.347962966188788">
        <ele>36.670000000000002</ele>
        <time>2026-06-30T09:09:08Z</time>
      </trkpt>
      <trkpt lat="52.130375979468226" lon="-10.348183996975422">
        <ele>36.189999999999998</ele>
        <time>2026-06-30T09:09:09Z</time>
      </trkpt>
      <trkpt lat="52.130411015823483" lon="-10.348405027762055">
        <ele>35.710000000000001</ele>
        <time>2026-06-30T09:09:10Z</time>
      </trkpt>
      <trkpt lat="52.130880989134312" lon="-10.351441958919168">
        <ele>31.379999999999999</ele>
        <time>2026-06-30T09:09:24Z</time>
      </trkpt>
      <trkpt lat="52.131173014640808" lon="-10.354145960882306">
        <ele>30.420000000000002</ele>
        <time>2026-06-30T09:09:38Z</time>
      </trkpt>
      <trkpt lat="52.131385998800397" lon="-10.356175974011421">
        <ele>28.02</ele>
        <time>2026-06-30T09:09:51Z</time>
      </trkpt>
      <trkpt lat="52.131582973524928" lon="-10.357675999403">
        <ele>24.170000000000002</ele>
        <time>2026-06-30T09:10:02Z</time>
      </trkpt>
      <trkpt lat="52.131597977131605" lon="-10.357723021879792">
        <ele>23.210000000000001</ele>
        <time>2026-06-30T09:10:09Z</time>
      </trkpt>
      <trkpt lat="52.131597977131605" lon="-10.357723021879792">
        <ele>22.73</ele>
        <time>2026-06-30T09:11:00Z</time>
      </trkpt>
      <trkpt lat="52.131633013486862" lon="-10.357832992449403">
        <ele>23.690000000000001</ele>
        <time>2026-06-30T09:11:09Z</time>
      </trkpt>
      <trkpt lat="52.131896959617734" lon="-10.3585359826684">
        <ele>22.25</ele>
        <time>2026-06-30T09:11:14Z</time>
      </trkpt>
      <trkpt lat="52.132572960108519" lon="-10.360019998624921">
        <ele>20.32</ele>
        <time>2026-06-30T09:11:22Z</time>
      </trkpt>
      <trkpt lat="52.133720023557544" lon="-10.362769011408091">
        <ele>16.960000000000001</ele>
        <time>2026-06-30T09:11:37Z</time>
      </trkpt>
      <trkpt lat="52.134509012103081" lon="-10.364709002897143">
        <ele>14.56</ele>
        <time>2026-06-30T09:11:48Z</time>
      </trkpt>
      <trkpt lat="52.134816963225603" lon="-10.365565968677402">
        <ele>13.6</ele>
        <time>2026-06-30T09:11:53Z</time>
      </trkpt>
      <trkpt lat="52.134849987924099" lon="-10.365708963945508">
        <ele>13.119999999999999</ele>
        <time>2026-06-30T09:11:54Z</time>
      </trkpt>
      <trkpt lat="52.134870020672679" lon="-10.365923037752509">
        <ele>13.119999999999999</ele>
        <time>2026-06-30T09:11:55Z</time>
      </trkpt>
      <trkpt lat="52.134854011237621" lon="-10.366020016372204">
        <ele>12.630000000000001</ele>
        <time>2026-06-30T09:11:56Z</time>
      </trkpt>
      <trkpt lat="52.13482802733779" lon="-10.366180026903749">
        <ele>12.630000000000001</ele>
        <time>2026-06-30T09:11:57Z</time>
      </trkpt>
      <trkpt lat="52.13459400460124" lon="-10.367661025375128">
        <ele>11.19</ele>
        <time>2026-06-30T09:12:04Z</time>
      </trkpt>
      <trkpt lat="52.13410098105669" lon="-10.370600977912545">
        <ele>10.23</ele>
        <time>2026-06-30T09:12:16Z</time>
      </trkpt>
      <trkpt lat="52.133652968332171" lon="-10.372914969921112">
        <ele>9.75</ele>
        <time>2026-06-30T09:12:26Z</time>
      </trkpt>
      <trkpt lat="52.133580967783928" lon="-10.373138012364507">
        <ele>9.75</ele>
        <time>2026-06-30T09:12:27Z</time>
      </trkpt>
      <trkpt lat="52.133489018306136" lon="-10.373331969603896">
        <ele>10.23</ele>
        <time>2026-06-30T09:12:28Z</time>
      </trkpt>
      <trkpt lat="52.133410982787609" lon="-10.373497009277344">
        <ele>10.710000000000001</ele>
        <time>2026-06-30T09:12:29Z</time>
      </trkpt>
      <trkpt lat="52.133269999176264" lon="-10.373612008988857">
        <ele>11.19</ele>
        <time>2026-06-30T09:12:30Z</time>
      </trkpt>
      <trkpt lat="52.133141001686454" lon="-10.373703958466649">
        <ele>11.67</ele>
        <time>2026-06-30T09:12:31Z</time>
      </trkpt>
      <trkpt lat="52.132998006418347" lon="-10.373761039227247">
        <ele>12.15</ele>
        <time>2026-06-30T09:12:32Z</time>
      </trkpt>
      <trkpt lat="52.131898971274495" lon="-10.374244004487991">
        <ele>16</ele>
        <time>2026-06-30T09:12:39Z</time>
      </trkpt>
      <trkpt lat="52.131761005148292" lon="-10.374365039169788">
        <ele>16.48</ele>
        <time>2026-06-30T09:12:40Z</time>
      </trkpt>
      <trkpt lat="52.13162999600172" lon="-10.37449898198247">
        <ele>16.960000000000001</ele>
        <time>2026-06-30T09:12:41Z</time>
      </trkpt>
      <trkpt lat="52.131508961319923" lon="-10.374665027484298">
        <ele>17.440000000000001</ele>
        <time>2026-06-30T09:12:42Z</time>
      </trkpt>
      <trkpt lat="52.131389016285539" lon="-10.374828977510333">
        <ele>17.920000000000002</ele>
        <time>2026-06-30T09:12:43Z</time>
      </trkpt>
      <trkpt lat="52.130555016919971" lon="-10.376238981261849">
        <ele>19.84</ele>
        <time>2026-06-30T09:12:52Z</time>
      </trkpt>
      <trkpt lat="52.129593025892973" lon="-10.377964982762933">
        <ele>21.289999999999999</ele>
        <time>2026-06-30T09:13:03Z</time>
      </trkpt>
      <trkpt lat="52.129355985671282" lon="-10.37834401242435">
        <ele>22.25</ele>
        <time>2026-06-30T09:13:06Z</time>
      </trkpt>
      <trkpt lat="52.129274010658264" lon="-10.378465969115496">
        <ele>22.73</ele>
        <time>2026-06-30T09:13:07Z</time>
      </trkpt>
      <trkpt lat="52.128223003819585" lon="-10.380019973963499">
        <ele>24.170000000000002</ele>
        <time>2026-06-30T09:13:20Z</time>
      </trkpt>
      <trkpt lat="52.127263024449348" lon="-10.381143987178802">
        <ele>26.57</ele>
        <time>2026-06-30T09:13:30Z</time>
      </trkpt>
      <trkpt lat="52.12582896463573" lon="-10.382461035624146">
        <ele>24.649999999999999</ele>
        <time>2026-06-30T09:13:41Z</time>
      </trkpt>
      <trkpt lat="52.124297004193068" lon="-10.383723014965653">
        <ele>16.960000000000001</ele>
        <time>2026-06-30T09:13:53Z</time>
      </trkpt>
      <trkpt lat="52.123025972396135" lon="-10.384739991277456">
        <ele>12.15</ele>
        <time>2026-06-30T09:14:03Z</time>
      </trkpt>
      <trkpt lat="52.122017964720726" lon="-10.38539201952517">
        <ele>10.710000000000001</ele>
        <time>2026-06-30T09:14:12Z</time>
      </trkpt>
      <trkpt lat="52.12122998200357" lon="-10.385362012311816">
        <ele>10.23</ele>
        <time>2026-06-30T09:14:20Z</time>
      </trkpt>
      <trkpt lat="52.119976971298456" lon="-10.38470696657896">
        <ele>8.789999999999999</ele>
        <time>2026-06-30T09:14:30Z</time>
      </trkpt>
      <trkpt lat="52.118785986676812" lon="-10.383937004953623">
        <ele>7.35</ele>
        <time>2026-06-30T09:14:40Z</time>
      </trkpt>
      <trkpt lat="52.117805974557996" lon="-10.383080961182714">
        <ele>5.91</ele>
        <time>2026-06-30T09:14:49Z</time>
      </trkpt>
      <trkpt lat="52.116883965209126" lon="-10.381552018225193">
        <ele>6.39</ele>
        <time>2026-06-30T09:14:58Z</time>
      </trkpt>
      <trkpt lat="52.116094976663589" lon="-10.379948979243636">
        <ele>6.39</ele>
        <time>2026-06-30T09:15:07Z</time>
      </trkpt>
      <trkpt lat="52.115537999197841" lon="-10.378564037382603">
        <ele>6.39</ele>
        <time>2026-06-30T09:15:16Z</time>
      </trkpt>
      <trkpt lat="52.115296013653278" lon="-10.377860963344574">
        <ele>6.87</ele>
        <time>2026-06-30T09:15:24Z</time>
      </trkpt>
      <trkpt lat="52.114986972883344" lon="-10.376624967902899">
        <ele>7.35</ele>
        <time>2026-06-30T09:15:35Z</time>
      </trkpt>
      <trkpt lat="52.114878008142114" lon="-10.376235041767359">
        <ele>7.35</ele>
        <time>2026-06-30T09:15:38Z</time>
      </trkpt>
      <trkpt lat="52.11482796818018" lon="-10.376105960458517">
        <ele>7.35</ele>
        <time>2026-06-30T09:15:39Z</time>
      </trkpt>
      <trkpt lat="52.114759990945458" lon="-10.375980986282229">
        <ele>7.35</ele>
        <time>2026-06-30T09:15:40Z</time>
      </trkpt>
      <trkpt lat="52.114680027589202" lon="-10.375860035419464">
        <ele>7.83</ele>
        <time>2026-06-30T09:15:41Z</time>
      </trkpt>
      <trkpt lat="52.114581037312746" lon="-10.37576699629426">
        <ele>7.83</ele>
        <time>2026-06-30T09:15:42Z</time>
      </trkpt>
      <trkpt lat="52.114485986530781" lon="-10.375678986310959">
        <ele>8.310000000000001</ele>
        <time>2026-06-30T09:15:43Z</time>
      </trkpt>
      <trkpt lat="52.113844016566873" lon="-10.374924028292298">
        <ele>11.19</ele>
        <time>2026-06-30T09:15:52Z</time>
      </trkpt>
      <trkpt lat="52.113718958571553" lon="-10.374566037207842">
        <ele>10.710000000000001</ele>
        <time>2026-06-30T09:15:55Z</time>
      </trkpt>
      <trkpt lat="52.113373959437013" lon="-10.372702991589904">
        <ele>8.789999999999999</ele>
        <time>2026-06-30T09:16:06Z</time>
      </trkpt>
      <trkpt lat="52.113269018009305" lon="-10.370898032560945">
        <ele>9.75</ele>
        <time>2026-06-30T09:16:15Z</time>
      </trkpt>
      <trkpt lat="52.113285027444363" lon="-10.370694017037749">
        <ele>9.75</ele>
        <time>2026-06-30T09:16:16Z</time>
      </trkpt>
      <trkpt lat="52.11330003105104" lon="-10.370497964322567">
        <ele>10.23</ele>
        <time>2026-06-30T09:16:17Z</time>
      </trkpt>
      <trkpt lat="52.113810991868377" lon="-10.36831196397543">
        <ele>13.119999999999999</ele>
        <time>2026-06-30T09:16:29Z</time>
      </trkpt>
      <trkpt lat="52.114470982924104" lon="-10.366191007196903">
        <ele>13.119999999999999</ele>
        <time>2026-06-30T09:16:41Z</time>
      </trkpt>
      <trkpt lat="52.114773988723755" lon="-10.365400006994605">
        <ele>13.6</ele>
        <time>2026-06-30T09:16:48Z</time>
      </trkpt>
      <trkpt lat="52.114877002313733" lon="-10.365135977044702">
        <ele>12.630000000000001</ele>
        <time>2026-06-30T09:16:56Z</time>
      </trkpt>
      <trkpt lat="52.114898962900043" lon="-10.365080991759896">
        <ele>12.15</ele>
        <time>2026-06-30T09:16:59Z</time>
      </trkpt>
      <trkpt lat="52.114898962900043" lon="-10.365080991759896">
        <ele>12.15</ele>
        <time>2026-06-30T09:17:13Z</time>
      </trkpt>
      <trkpt lat="52.114898962900043" lon="-10.365080991759896">
        <ele>14.56</ele>
        <time>2026-06-30T09:17:40Z</time>
      </trkpt>
      <trkpt lat="52.114898962900043" lon="-10.365080991759896">
        <ele>14.56</ele>
        <time>2026-06-30T09:17:41Z</time>
      </trkpt>
      <trkpt lat="52.114898962900043" lon="-10.365080991759896">
        <ele>13.6</ele>
        <time>2026-06-30T09:17:55Z</time>
      </trkpt>
      <trkpt lat="52.114929975941777" lon="-10.365009997040033">
        <ele>13.6</ele>
        <time>2026-06-30T09:18:01Z</time>
      </trkpt>
      <trkpt lat="52.114916983991861" lon="-10.365036986768246">
        <ele>13.119999999999999</ele>
        <time>2026-06-30T09:18:02Z</time>
      </trkpt>
      <trkpt lat="52.114906003698707" lon="-10.365063976496458">
        <ele>13.119999999999999</ele>
        <time>2026-06-30T09:18:03Z</time>
      </trkpt>
      <trkpt lat="52.114893011748791" lon="-10.365094989538193">
        <ele>12.630000000000001</ele>
        <time>2026-06-30T09:18:04Z</time>
      </trkpt>
      <trkpt lat="52.114878008142114" lon="-10.36513396538794">
        <ele>12.630000000000001</ele>
        <time>2026-06-30T09:18:05Z</time>
      </trkpt>
      <trkpt lat="52.114811958745122" lon="-10.365300010889769">
        <ele>11.67</ele>
        <time>2026-06-30T09:18:11Z</time>
      </trkpt>
      <trkpt lat="52.114811958745122" lon="-10.365300010889769">
        <ele>11.67</ele>
        <time>2026-06-30T09:18:12Z</time>
      </trkpt>
      <trkpt lat="52.114811958745122" lon="-10.365300010889769">
        <ele>11.19</ele>
        <time>2026-06-30T09:18:26Z</time>
      </trkpt>
      <trkpt lat="52.114811958745122" lon="-10.365300010889769">
        <ele>11.67</ele>
        <time>2026-06-30T09:19:09Z</time>
      </trkpt>
      <trkpt lat="52.114811958745122" lon="-10.365300010889769">
        <ele>11.67</ele>
        <time>2026-06-30T09:19:51Z</time>
      </trkpt>
      <trkpt lat="52.114811958745122" lon="-10.365300010889769">
        <ele>11.67</ele>
        <time>2026-06-30T09:20:30Z</time>
      </trkpt>
      <trkpt lat="52.114811958745122" lon="-10.365300010889769">
        <ele>12.15</ele>
        <time>2026-06-30T09:21:15Z</time>
      </trkpt>
      <trkpt lat="52.114811958745122" lon="-10.365300010889769">
        <ele>12.630000000000001</ele>
        <time>2026-06-30T09:22:02Z</time>
      </trkpt>
      <trkpt lat="52.114811958745122" lon="-10.365300010889769">
        <ele>12.630000000000001</ele>
        <time>2026-06-30T09:22:44Z</time>
      </trkpt>
      <trkpt lat="52.114811958745122" lon="-10.365300010889769">
        <ele>12.15</ele>
        <time>2026-06-30T09:23:09Z</time>
      </trkpt>
      <trkpt lat="52.114783963188529" lon="-10.365373017266393">
        <ele>12.15</ele>
        <time>2026-06-30T09:23:11Z</time>
      </trkpt>
      <trkpt lat="52.114768037572503" lon="-10.365414004772902">
        <ele>12.15</ele>
        <time>2026-06-30T09:23:12Z</time>
      </trkpt>
      <trkpt lat="52.114749010652304" lon="-10.365463960915804">
        <ele>11.67</ele>
        <time>2026-06-30T09:23:13Z</time>
      </trkpt>
      <trkpt lat="52.114726966246963" lon="-10.365521963685751">
        <ele>11.67</ele>
        <time>2026-06-30T09:23:14Z</time>
      </trkpt>
      <trkpt lat="52.114399988204241" lon="-10.36637700162828">
        <ele>10.23</ele>
        <time>2026-06-30T09:23:25Z</time>
      </trkpt>
      <trkpt lat="52.1140740159899" lon="-10.367396995425224">
        <ele>10.710000000000001</ele>
        <time>2026-06-30T09:23:36Z</time>
      </trkpt>
      <trkpt lat="52.113546039909124" lon="-10.369231039658189">
        <ele>14.56</ele>
        <time>2026-06-30T09:23:50Z</time>
      </trkpt>
      <trkpt lat="52.113276980817318" lon="-10.370789989829063">
        <ele>14.56</ele>
        <time>2026-06-30T09:24:03Z</time>
      </trkpt>
      <trkpt lat="52.113298019394279" lon="-10.371823981404305">
        <ele>15.039999999999999</ele>
        <time>2026-06-30T09:24:13Z</time>
      </trkpt>
      <trkpt lat="52.11334303021431" lon="-10.372342988848686">
        <ele>15.52</ele>
        <time>2026-06-30T09:24:23Z</time>
      </trkpt>
      <trkpt lat="52.113372031599283" lon="-10.372678013518453">
        <ele>15.52</ele>
        <time>2026-06-30T09:24:27Z</time>
      </trkpt>
      <trkpt lat="52.11349599994719" lon="-10.373647967353463">
        <ele>16.960000000000001</ele>
        <time>2026-06-30T09:24:35Z</time>
      </trkpt>
      <trkpt lat="52.113829012960196" lon="-10.374896032735705">
        <ele>17.920000000000002</ele>
        <time>2026-06-30T09:24:46Z</time>
      </trkpt>
      <trkpt lat="52.114538960158825" lon="-10.375727014616132">
        <ele>16</ele>
        <time>2026-06-30T09:24:57Z</time>
      </trkpt>
      <trkpt lat="52.114766025915742" lon="-10.375989032909274">
        <ele>15.52</ele>
        <time>2026-06-30T09:25:00Z</time>
      </trkpt>
      <trkpt lat="52.114824028685689" lon="-10.376093974336982">
        <ele>15.039999999999999</ele>
        <time>2026-06-30T09:25:01Z</time>
      </trkpt>
      <trkpt lat="52.114869961515069" lon="-10.376214003190398">
        <ele>15.039999999999999</ele>
        <time>2026-06-30T09:25:02Z</time>
      </trkpt>
      <trkpt lat="52.114915978163481" lon="-10.376335959881544">
        <ele>15.039999999999999</ele>
        <time>2026-06-30T09:25:03Z</time>
      </trkpt>
      <trkpt lat="52.114949002861977" lon="-10.376473003998399">
        <ele>14.56</ele>
        <time>2026-06-30T09:25:04Z</time>
      </trkpt>
      <trkpt lat="52.114983033388853" lon="-10.376610970124602">
        <ele>14.56</ele>
        <time>2026-06-30T09:25:05Z</time>
      </trkpt>
      <trkpt lat="52.11508403532207" lon="-10.377020006999373">
        <ele>13.6</ele>
        <time>2026-06-30T09:25:08Z</time>
      </trkpt>
      <trkpt lat="52.115119993686676" lon="-10.377166019752622">
        <ele>12.630000000000001</ele>
        <time>2026-06-30T09:25:09Z</time>
      </trkpt>
      <trkpt lat="52.11572902277112" lon="-10.37911900319159">
        <ele>9.27</ele>
        <time>2026-06-30T09:25:21Z</time>
      </trkpt>
      <trkpt lat="52.116809030994773" lon="-10.381404999643564">
        <ele>10.710000000000001</ele>
        <time>2026-06-30T09:25:37Z</time>
      </trkpt>
      <trkpt lat="52.117901025339961" lon="-10.383189003914595">
        <ele>10.23</ele>
        <time>2026-06-30T09:25:51Z</time>
      </trkpt>
      <trkpt lat="52.119070971384645" lon="-10.384169016033411">
        <ele>11.19</ele>
        <time>2026-06-30T09:26:03Z</time>
      </trkpt>
      <trkpt lat="52.1203269995749" lon="-10.384906958788633">
        <ele>11.67</ele>
        <time>2026-06-30T09:26:14Z</time>
      </trkpt>
      <trkpt lat="52.121577998623252" lon="-10.385396964848042">
        <ele>12.630000000000001</ele>
        <time>2026-06-30T09:26:27Z</time>
      </trkpt>
      <trkpt lat="52.12183197028935" lon="-10.38545798510313">
        <ele>14.08</ele>
        <time>2026-06-30T09:26:34Z</time>
      </trkpt>
      <trkpt lat="52.121908999979496" lon="-10.385535014793277">
        <ele>14.08</ele>
        <time>2026-06-30T09:26:35Z</time>
      </trkpt>
      <trkpt lat="52.121908999979496" lon="-10.385565022006631">
        <ele>14.08</ele>
        <time>2026-06-30T09:26:36Z</time>
      </trkpt>
      <trkpt lat="52.12189600802958" lon="-10.386472027748823">
        <ele>15.039999999999999</ele>
        <time>2026-06-30T09:26:42Z</time>
      </trkpt>
      <trkpt lat="52.121868012472987" lon="-10.387266967445612">
        <ele>15.52</ele>
        <time>2026-06-30T09:26:47Z</time>
      </trkpt>
      <trkpt lat="52.121847979724407" lon="-10.387423038482666">
        <ele>16</ele>
        <time>2026-06-30T09:26:48Z</time>
      </trkpt>
      <trkpt lat="52.121559977531433" lon="-10.389638962224126">
        <ele>18.399999999999999</ele>
        <time>2026-06-30T09:27:02Z</time>
      </trkpt>
      <trkpt lat="52.12150800973177" lon="-10.389791009947658">
        <ele>18.399999999999999</ele>
        <time>2026-06-30T09:27:03Z</time>
      </trkpt>
      <trkpt lat="52.121450006961823" lon="-10.389909027144313">
        <ele>18.879999999999999</ele>
        <time>2026-06-30T09:27:04Z</time>
      </trkpt>
      <trkpt lat="52.121329978108406" lon="-10.389964012429118">
        <ele>18.879999999999999</ele>
        <time>2026-06-30T09:27:05Z</time>
      </trkpt>
      <trkpt lat="52.121226964518428" lon="-10.389993013814092">
        <ele>18.879999999999999</ele>
        <time>2026-06-30T09:27:06Z</time>
      </trkpt>
      <trkpt lat="52.121111964806914" lon="-10.390025032684207">
        <ele>18.879999999999999</ele>
        <time>2026-06-30T09:27:07Z</time>
      </trkpt>
      <trkpt lat="52.120108986273408" lon="-10.390279004350305">
        <ele>18.399999999999999</ele>
        <time>2026-06-30T09:27:13Z</time>
      </trkpt>
      <trkpt lat="52.118289023637772" lon="-10.390686029568315">
        <ele>18.399999999999999</ele>
        <time>2026-06-30T09:27:23Z</time>
      </trkpt>
      <trkpt lat="52.115976959466934" lon="-10.391202019527555">
        <ele>19.84</ele>
        <time>2026-06-30T09:27:36Z</time>
      </trkpt>
      <trkpt lat="52.114426977932453" lon="-10.391570990905166">
        <ele>18.879999999999999</ele>
        <time>2026-06-30T09:27:45Z</time>
      </trkpt>
      <trkpt lat="52.114285994321108" lon="-10.391679033637047">
        <ele>18.879999999999999</ele>
        <time>2026-06-30T09:27:46Z</time>
      </trkpt>
      <trkpt lat="52.114148028194904" lon="-10.391783975064754">
        <ele>18.879999999999999</ele>
        <time>2026-06-30T09:27:47Z</time>
      </trkpt>
      <trkpt lat="52.114021964371204" lon="-10.391926970332861">
        <ele>18.879999999999999</ele>
        <time>2026-06-30T09:27:48Z</time>
      </trkpt>
      <trkpt lat="52.113900007680058" lon="-10.39209402166307">
        <ele>18.879999999999999</ele>
        <time>2026-06-30T09:27:49Z</time>
      </trkpt>
      <trkpt lat="52.112925024703145" lon="-10.393457002937794">
        <ele>22.73</ele>
        <time>2026-06-30T09:27:58Z</time>
      </trkpt>
      <trkpt lat="52.112688990309834" lon="-10.3937519621104">
        <ele>24.170000000000002</ele>
        <time>2026-06-30T09:28:01Z</time>
      </trkpt>
      <trkpt lat="52.112612966448069" lon="-10.393841983750463">
        <ele>24.170000000000002</ele>
        <time>2026-06-30T09:28:02Z</time>
      </trkpt>
      <trkpt lat="52.112527973949909" lon="-10.393895041197538">
        <ele>24.649999999999999</ele>
        <time>2026-06-30T09:28:03Z</time>
      </trkpt>
      <trkpt lat="52.112438036128879" lon="-10.393948014825583">
        <ele>24.649999999999999</ele>
        <time>2026-06-30T09:28:04Z</time>
      </trkpt>
      <trkpt lat="52.112348014488816" lon="-10.393966035917401">
        <ele>25.129999999999999</ele>
        <time>2026-06-30T09:28:05Z</time>
      </trkpt>
      <trkpt lat="52.11224801838398" lon="-10.393934017047286">
        <ele>25.129999999999999</ele>
        <time>2026-06-30T09:28:06Z</time>
      </trkpt>
      <trkpt lat="52.112149028107524" lon="-10.393896969035268">
        <ele>25.609999999999999</ele>
        <time>2026-06-30T09:28:07Z</time>
      </trkpt>
      <trkpt lat="52.112045008689165" lon="-10.393858999013901">
        <ele>25.609999999999999</ele>
        <time>2026-06-30T09:28:08Z</time>
      </trkpt>
      <trkpt lat="52.111936965957284" lon="-10.393819017335773">
        <ele>25.609999999999999</ele>
        <time>2026-06-30T09:28:09Z</time>
      </trkpt>
      <trkpt lat="52.111231964081526" lon="-10.393583988770843">
        <ele>25.129999999999999</ele>
        <time>2026-06-30T09:28:15Z</time>
      </trkpt>
      <trkpt lat="52.111142026260495" lon="-10.393609972670674">
        <ele>25.609999999999999</ele>
        <time>2026-06-30T09:28:16Z</time>
      </trkpt>
      <trkpt lat="52.111056027933955" lon="-10.393640985712409">
        <ele>26.09</ele>
        <time>2026-06-30T09:28:17Z</time>
      </trkpt>
      <trkpt lat="52.110879002138972" lon="-10.393703011795878">
        <ele>26.57</ele>
        <time>2026-06-30T09:28:19Z</time>
      </trkpt>
      <trkpt lat="52.110786968842149" lon="-10.393721032887697">
        <ele>27.050000000000001</ele>
        <time>2026-06-30T09:28:20Z</time>
      </trkpt>
      <trkpt lat="52.109711989760399" lon="-10.393767971545458">
        <ele>32.340000000000003</ele>
        <time>2026-06-30T09:28:31Z</time>
      </trkpt>
      <trkpt lat="52.109581986442208" lon="-10.393766965717077">
        <ele>33.780000000000001</ele>
        <time>2026-06-30T09:28:37Z</time>
      </trkpt>
      <trkpt lat="52.109341006726027" lon="-10.393765037879348">
        <ele>35.229999999999997</ele>
        <time>2026-06-30T09:28:49Z</time>
      </trkpt>
      <trkpt lat="52.109341006726027" lon="-10.393765037879348">
        <ele>35.710000000000001</ele>
        <time>2026-06-30T09:28:57Z</time>
      </trkpt>
      <trkpt lat="52.109027020633221" lon="-10.393762020394206">
        <ele>35.710000000000001</ele>
        <time>2026-06-30T09:29:04Z</time>
      </trkpt>
      <trkpt lat="52.108816970139742" lon="-10.393760008737445">
        <ele>36.189999999999998</ele>
        <time>2026-06-30T09:29:10Z</time>
      </trkpt>
      <trkpt lat="52.108538020402193" lon="-10.393756991252303">
        <ele>36.670000000000002</ele>
        <time>2026-06-30T09:29:19Z</time>
      </trkpt>
      <trkpt lat="52.107677031308413" lon="-10.393904009833932">
        <ele>39.549999999999997</ele>
        <time>2026-06-30T09:29:28Z</time>
      </trkpt>
      <trkpt lat="52.107506040483713" lon="-10.394026972353458">
        <ele>40.509999999999998</ele>
        <time>2026-06-30T09:29:30Z</time>
      </trkpt>
      <trkpt lat="52.10743797942996" lon="-10.394107019528747">
        <ele>41.469999999999999</ele>
        <time>2026-06-30T09:29:31Z</time>
      </trkpt>
      <trkpt lat="52.107377965003252" lon="-10.394215984269977">
        <ele>41.469999999999999</ele>
        <time>2026-06-30T09:29:32Z</time>
      </trkpt>
      <trkpt lat="52.107317028567195" lon="-10.394325032830238">
        <ele>41.950000000000003</ele>
        <time>2026-06-30T09:29:33Z</time>
      </trkpt>
      <trkpt lat="52.107256008312106" lon="-10.39443600922823">
        <ele>42.439999999999998</ele>
        <time>2026-06-30T09:29:34Z</time>
      </trkpt>
      <trkpt lat="52.107194988057017" lon="-10.39454497396946">
        <ele>42.920000000000002</ele>
        <time>2026-06-30T09:29:35Z</time>
      </trkpt>
      <trkpt lat="52.106739012524486" lon="-10.39576998911798">
        <ele>48.200000000000003</ele>
        <time>2026-06-30T09:29:45Z</time>
      </trkpt>
      <trkpt lat="52.106670029461384" lon="-10.395848024636507">
        <ele>48.68</ele>
        <time>2026-06-30T09:29:46Z</time>
      </trkpt>
      <trkpt lat="52.106610015034676" lon="-10.395918013527989">
        <ele>49.159999999999997</ele>
        <time>2026-06-30T09:29:47Z</time>
      </trkpt>
      <trkpt lat="52.106545977294445" lon="-10.395970987156034">
        <ele>49.159999999999997</ele>
        <time>2026-06-30T09:29:48Z</time>
      </trkpt>
      <trkpt lat="52.106476994231343" lon="-10.396019015461206">
        <ele>49.649999999999999</ele>
        <time>2026-06-30T09:29:49Z</time>
      </trkpt>
      <trkpt lat="52.106400970369577" lon="-10.39607098326087">
        <ele>50.130000000000003</ele>
        <time>2026-06-30T09:29:50Z</time>
      </trkpt>
      <trkpt lat="52.106131995096803" lon="-10.396257983520627">
        <ele>51.090000000000003</ele>
        <time>2026-06-30T09:29:53Z</time>
      </trkpt>
      <trkpt lat="52.106030993163586" lon="-10.396327972412109">
        <ele>51.090000000000003</ele>
        <time>2026-06-30T09:29:54Z</time>
      </trkpt>
      <trkpt lat="52.105953963473439" lon="-10.396442972123623">
        <ele>52.049999999999997</ele>
        <time>2026-06-30T09:29:55Z</time>
      </trkpt>
      <trkpt lat="52.105877017602324" lon="-10.396557971835136">
        <ele>52.530000000000001</ele>
        <time>2026-06-30T09:29:56Z</time>
      </trkpt>
      <trkpt lat="52.1058040112257" lon="-10.396676994860172">
        <ele>52.530000000000001</ele>
        <time>2026-06-30T09:29:57Z</time>
      </trkpt>
      <trkpt lat="52.105745002627373" lon="-10.396814960986376">
        <ele>53.009999999999998</ele>
        <time>2026-06-30T09:29:58Z</time>
      </trkpt>
      <trkpt lat="52.105685994029045" lon="-10.396954016759992">
        <ele>53.009999999999998</ele>
        <time>2026-06-30T09:29:59Z</time>
      </trkpt>
      <trkpt lat="52.105624973773956" lon="-10.397095000371337">
        <ele>53.009999999999998</ele>
        <time>2026-06-30T09:30:00Z</time>
      </trkpt>
      <trkpt lat="52.10558800958097" lon="-10.397257022559643">
        <ele>53.009999999999998</ele>
        <time>2026-06-30T09:30:01Z</time>
      </trkpt>
      <trkpt lat="52.105552973225713" lon="-10.397415021434426">
        <ele>53.009999999999998</ele>
        <time>2026-06-30T09:30:02Z</time>
      </trkpt>
      <trkpt lat="52.105519026517868" lon="-10.397567991167307">
        <ele>53.009999999999998</ele>
        <time>2026-06-30T09:30:03Z</time>
      </trkpt>
      <trkpt lat="52.10545901209116" lon="-10.398984029889107">
        <ele>54.450000000000003</ele>
        <time>2026-06-30T09:30:12Z</time>
      </trkpt>
      <trkpt lat="52.10556898266077" lon="-10.400254977867007">
        <ele>55.890000000000001</ele>
        <time>2026-06-30T09:30:18Z</time>
      </trkpt>
      <trkpt lat="52.105812979862094" lon="-10.40236696600914">
        <ele>57.82</ele>
        <time>2026-06-30T09:30:27Z</time>
      </trkpt>
      <trkpt lat="52.10584701038897" lon="-10.404378036037087">
        <ele>59.259999999999998</ele>
        <time>2026-06-30T09:30:37Z</time>
      </trkpt>
      <trkpt lat="52.105558002367616" lon="-10.406574010848999">
        <ele>60.219999999999999</ele>
        <time>2026-06-30T09:30:48Z</time>
      </trkpt>
      <trkpt lat="52.10520101711154" lon="-10.408420041203499">
        <ele>59.740000000000002</ele>
        <time>2026-06-30T09:30:56Z</time>
      </trkpt>
      <trkpt lat="52.104884013533592" lon="-10.409900033846498">
        <ele>59.740000000000002</ele>
        <time>2026-06-30T09:31:02Z</time>
      </trkpt>
      <trkpt lat="52.104356959462166" lon="-10.411339038982987">
        <ele>59.740000000000002</ele>
        <time>2026-06-30T09:31:10Z</time>
      </trkpt>
      <trkpt lat="52.103394968435168" lon="-10.413225973024964">
        <ele>60.700000000000003</ele>
        <time>2026-06-30T09:31:21Z</time>
      </trkpt>
      <trkpt lat="52.102507995441556" lon="-10.415151966735721">
        <ele>62.140000000000001</ele>
        <time>2026-06-30T09:31:32Z</time>
      </trkpt>
      <trkpt lat="52.102185962721705" lon="-10.416679987683892">
        <ele>63.100000000000001</ele>
        <time>2026-06-30T09:31:40Z</time>
      </trkpt>
      <trkpt lat="52.101730993017554" lon="-10.418442031368613">
        <ele>64.549999999999997</ele>
        <time>2026-06-30T09:31:49Z</time>
      </trkpt>
      <trkpt lat="52.10103596560657" lon="-10.419755978509784">
        <ele>64.549999999999997</ele>
        <time>2026-06-30T09:31:59Z</time>
      </trkpt>
      <trkpt lat="52.100922977551818" lon="-10.420128973200917">
        <ele>64.069999999999993</ele>
        <time>2026-06-30T09:32:02Z</time>
      </trkpt>
      <trkpt lat="52.100491980090737" lon="-10.421856986358762">
        <ele>63.579999999999998</ele>
        <time>2026-06-30T09:32:13Z</time>
      </trkpt>
      <trkpt lat="52.100034998729825" lon="-10.423616012558341">
        <ele>63.579999999999998</ele>
        <time>2026-06-30T09:32:22Z</time>
      </trkpt>
      <trkpt lat="52.099928967654705" lon="-10.42434498667717">
        <ele>63.579999999999998</ele>
        <time>2026-06-30T09:32:26Z</time>
      </trkpt>
      <trkpt lat="52.09991698153317" lon="-10.424515977501869">
        <ele>63.579999999999998</ele>
        <time>2026-06-30T09:32:27Z</time>
      </trkpt>
      <trkpt lat="52.099922010675073" lon="-10.424699960276484">
        <ele>63.579999999999998</ele>
        <time>2026-06-30T09:32:28Z</time>
      </trkpt>
      <trkpt lat="52.100029969587922" lon="-10.42591399513185">
        <ele>64.549999999999997</ele>
        <time>2026-06-30T09:32:36Z</time>
      </trkpt>
      <trkpt lat="52.100172964856029" lon="-10.426391009241343">
        <ele>65.030000000000001</ele>
        <time>2026-06-30T09:32:45Z</time>
      </trkpt>
      <trkpt lat="52.100416962057352" lon="-10.427058963105083">
        <ele>65.030000000000001</ele>
        <time>2026-06-30T09:32:53Z</time>
      </trkpt>
      <trkpt lat="52.100451998412609" lon="-10.427154013887048">
        <ele>65.030000000000001</ele>
        <time>2026-06-30T09:32:54Z</time>
      </trkpt>
      <trkpt lat="52.100593987852335" lon="-10.427661035209894">
        <ele>65.510000000000005</ele>
        <time>2026-06-30T09:32:58Z</time>
      </trkpt>
      <trkpt lat="52.100607985630631" lon="-10.42780595831573">
        <ele>65.510000000000005</ele>
        <time>2026-06-30T09:32:59Z</time>
      </trkpt>
      <trkpt lat="52.100619971752167" lon="-10.427943002432585">
        <ele>65.510000000000005</ele>
        <time>2026-06-30T09:33:00Z</time>
      </trkpt>
      <trkpt lat="52.100692978128791" lon="-10.428602993488312">
        <ele>65.989999999999995</ele>
        <time>2026-06-30T09:33:08Z</time>
      </trkpt>
      <trkpt lat="52.100697001442313" lon="-10.428634006530046">
        <ele>65.989999999999995</ele>
        <time>2026-06-30T09:33:18Z</time>
      </trkpt>
      <trkpt lat="52.100697001442313" lon="-10.428634006530046">
        <ele>65.989999999999995</ele>
        <time>2026-06-30T09:34:03Z</time>
      </trkpt>
      <trkpt lat="52.100717034190893" lon="-10.428740959614515">
        <ele>66.950000000000003</ele>
        <time>2026-06-30T09:34:35Z</time>
      </trkpt>
      <trkpt lat="52.100757015869021" lon="-10.428800974041224">
        <ele>66.469999999999999</ele>
        <time>2026-06-30T09:34:36Z</time>
      </trkpt>
      <trkpt lat="52.100803032517433" lon="-10.428870040923357">
        <ele>65.989999999999995</ele>
        <time>2026-06-30T09:34:37Z</time>
      </trkpt>
      <trkpt lat="52.100859023630619" lon="-10.428932989016175">
        <ele>65.989999999999995</ele>
        <time>2026-06-30T09:34:38Z</time>
      </trkpt>
      <trkpt lat="52.100938986986876" lon="-10.428972970694304">
        <ele>65.989999999999995</ele>
        <time>2026-06-30T09:34:39Z</time>
      </trkpt>
      <trkpt lat="52.101026996970177" lon="-10.429016975685954">
        <ele>65.510000000000005</ele>
        <time>2026-06-30T09:34:40Z</time>
      </trkpt>
      <trkpt lat="52.102055959403515" lon="-10.429551992565393">
        <ele>65.030000000000001</ele>
        <time>2026-06-30T09:34:52Z</time>
      </trkpt>
      <trkpt lat="52.102285036817193" lon="-10.429762965068221">
        <ele>65.510000000000005</ele>
        <time>2026-06-30T09:34:57Z</time>
      </trkpt>
      <trkpt lat="52.102292999625206" lon="-10.429788026958704">
        <ele>65.989999999999995</ele>
        <time>2026-06-30T09:34:58Z</time>
      </trkpt>
      <trkpt lat="52.102277996018529" lon="-10.429818034172058">
        <ele>65.989999999999995</ele>
        <time>2026-06-30T09:34:59Z</time>
      </trkpt>
      <trkpt lat="52.102262992411852" lon="-10.429848041385412">
        <ele>65.989999999999995</ele>
        <time>2026-06-30T09:35:00Z</time>
      </trkpt>
      <trkpt lat="52.102246982976794" lon="-10.429880982264876">
        <ele>65.989999999999995</ele>
        <time>2026-06-30T09:35:01Z</time>
      </trkpt>
      <trkpt lat="52.102211024612188" lon="-10.429951976984739">
        <ele>65.989999999999995</ele>
        <time>2026-06-30T09:35:02Z</time>
      </trkpt>
      <trkpt lat="52.102199038490653" lon="-10.429958011955023">
        <ele>65.989999999999995</ele>
        <time>2026-06-30T09:35:03Z</time>
      </trkpt>
      <trkpt lat="52.102143969386816" lon="-10.429983995854855">
        <ele>65.510000000000005</ele>
        <time>2026-06-30T09:35:04Z</time>
      </trkpt>
      <trkpt lat="52.101926039904356" lon="-10.430087009444833">
        <ele>65.989999999999995</ele>
        <time>2026-06-30T09:35:07Z</time>
      </trkpt>
      <trkpt lat="52.101852027699351" lon="-10.430121961981058">
        <ele>65.989999999999995</ele>
        <time>2026-06-30T09:35:08Z</time>
      </trkpt>
      <trkpt lat="52.101770974695683" lon="-10.430185999721289">
        <ele>65.510000000000005</ele>
        <time>2026-06-30T09:35:09Z</time>
      </trkpt>
      <trkpt lat="52.100895987823606" lon="-10.431142961606383">
        <ele>65.989999999999995</ele>
        <time>2026-06-30T09:35:19Z</time>
      </trkpt>
      <trkpt lat="52.100801020860672" lon="-10.431233989074826">
        <ele>65.989999999999995</ele>
        <time>2026-06-30T09:35:20Z</time>
      </trkpt>
      <trkpt lat="52.100727008655667" lon="-10.431366004049778">
        <ele>65.989999999999995</ele>
        <time>2026-06-30T09:35:21Z</time>
      </trkpt>
      <trkpt lat="52.100654002279043" lon="-10.43150195851922">
        <ele>65.989999999999995</ele>
        <time>2026-06-30T09:35:22Z</time>
      </trkpt>
      <trkpt lat="52.100597005337477" lon="-10.431653000414371">
        <ele>65.989999999999995</ele>
        <time>2026-06-30T09:35:23Z</time>
      </trkpt>
      <trkpt lat="52.100541014224291" lon="-10.431812005117536">
        <ele>66.469999999999999</ele>
        <time>2026-06-30T09:35:24Z</time>
      </trkpt>
      <trkpt lat="52.100084032863379" lon="-10.433416971936822">
        <ele>66.950000000000003</ele>
        <time>2026-06-30T09:35:34Z</time>
      </trkpt>
      <trkpt lat="52.099768035113811" lon="-10.434776013717055">
        <ele>67.430000000000007</ele>
        <time>2026-06-30T09:35:43Z</time>
      </trkpt>
      <trkpt lat="52.099752025678754" lon="-10.434966031461954">
        <ele>66.950000000000003</ele>
        <time>2026-06-30T09:35:44Z</time>
      </trkpt>
      <trkpt lat="52.099748002365232" lon="-10.435158982872963">
        <ele>66.950000000000003</ele>
        <time>2026-06-30T09:35:45Z</time>
      </trkpt>
      <trkpt lat="52.099772980436683" lon="-10.437228977680206">
        <ele>68.390000000000001</ele>
        <time>2026-06-30T09:35:55Z</time>
      </trkpt>
      <trkpt lat="52.099720006808639" lon="-10.438299011439085">
        <ele>67.909999999999997</ele>
        <time>2026-06-30T09:36:03Z</time>
      </trkpt>
      <trkpt lat="52.09974498488009" lon="-10.439840024337173">
        <ele>67.909999999999997</ele>
        <time>2026-06-30T09:36:13Z</time>
      </trkpt>
      <trkpt lat="52.0997220184654" lon="-10.441728970035911">
        <ele>68.870000000000005</ele>
        <time>2026-06-30T09:36:22Z</time>
      </trkpt>
      <trkpt lat="52.099324967712164" lon="-10.443962998688221">
        <ele>70.310000000000002</ele>
        <time>2026-06-30T09:36:34Z</time>
      </trkpt>
      <trkpt lat="52.09912396967411" lon="-10.444694990292192">
        <ele>71.760000000000005</ele>
        <time>2026-06-30T09:36:38Z</time>
      </trkpt>
      <trkpt lat="52.099064039066434" lon="-10.444871010258794">
        <ele>71.760000000000005</ele>
        <time>2026-06-30T09:36:39Z</time>
      </trkpt>
      <trkpt lat="52.098851976916194" lon="-10.445490013808012">
        <ele>71.269999999999996</ele>
        <time>2026-06-30T09:36:43Z</time>
      </trkpt>
      <trkpt lat="52.098793974146247" lon="-10.44565798714757">
        <ele>70.790000000000006</ele>
        <time>2026-06-30T09:36:44Z</time>
      </trkpt>
      <trkpt lat="52.098362976685166" lon="-10.447796965017915">
        <ele>70.790000000000006</ele>
        <time>2026-06-30T09:36:55Z</time>
      </trkpt>
      <trkpt lat="52.098137000575662" lon="-10.449531013146043">
        <ele>69.829999999999998</ele>
        <time>2026-06-30T09:37:04Z</time>
      </trkpt>
      <trkpt lat="52.09809098392725" lon="-10.449708960950375">
        <ele>70.310000000000002</ele>
        <time>2026-06-30T09:37:05Z</time>
      </trkpt>
      <trkpt lat="52.097889985889196" lon="-10.450502978637815">
        <ele>69.829999999999998</ele>
        <time>2026-06-30T09:37:11Z</time>
      </trkpt>
      <trkpt lat="52.097859978675842" lon="-10.450619990006089">
        <ele>69.829999999999998</ele>
        <time>2026-06-30T09:37:12Z</time>
      </trkpt>
      <trkpt lat="52.097857967019081" lon="-10.450759967789054">
        <ele>69.829999999999998</ele>
        <time>2026-06-30T09:37:13Z</time>
      </trkpt>
      <trkpt lat="52.097861990332603" lon="-10.450908998027444">
        <ele>69.829999999999998</ele>
        <time>2026-06-30T09:37:14Z</time>
      </trkpt>
      <trkpt lat="52.097865007817745" lon="-10.451057022437453">
        <ele>69.829999999999998</ele>
        <time>2026-06-30T09:37:15Z</time>
      </trkpt>
      <trkpt lat="52.097868025302887" lon="-10.45120001770556">
        <ele>69.829999999999998</ele>
        <time>2026-06-30T09:37:16Z</time>
      </trkpt>
      <trkpt lat="52.097871964797378" lon="-10.451344018802047">
        <ele>69.829999999999998</ele>
        <time>2026-06-30T09:37:17Z</time>
      </trkpt>
      <trkpt lat="52.097874982282519" lon="-10.451495982706547">
        <ele>69.829999999999998</ele>
        <time>2026-06-30T09:37:18Z</time>
      </trkpt>
      <trkpt lat="52.097757970914245" lon="-10.452636005356908">
        <ele>68.390000000000001</ele>
        <time>2026-06-30T09:37:25Z</time>
      </trkpt>
      <trkpt lat="52.097783032804728" lon="-10.452745975926518">
        <ele>67.909999999999997</ele>
        <time>2026-06-30T09:37:26Z</time>
      </trkpt>
      <trkpt lat="52.09781102836132" lon="-10.452866004779935">
        <ele>67.909999999999997</ele>
        <time>2026-06-30T09:37:27Z</time>
      </trkpt>
      <trkpt lat="52.097842041403055" lon="-10.453001959249377">
        <ele>67.909999999999997</ele>
        <time>2026-06-30T09:37:28Z</time>
      </trkpt>
      <trkpt lat="52.097861990332603" lon="-10.453151995316148">
        <ele>67.909999999999997</ele>
        <time>2026-06-30T09:37:29Z</time>
      </trkpt>
      <trkpt lat="52.097874982282519" lon="-10.453303959220648">
        <ele>68.390000000000001</ele>
        <time>2026-06-30T09:37:30Z</time>
      </trkpt>
      <trkpt lat="52.097885962575674" lon="-10.453445026651025">
        <ele>68.390000000000001</ele>
        <time>2026-06-30T09:37:31Z</time>
      </trkpt>
      <trkpt lat="52.097898032516241" lon="-10.453599002212286">
        <ele>68.390000000000001</ele>
        <time>2026-06-30T09:37:32Z</time>
      </trkpt>
      <trkpt lat="52.097929967567325" lon="-10.4537140019238">
        <ele>68.390000000000001</ele>
        <time>2026-06-30T09:37:33Z</time>
      </trkpt>
      <trkpt lat="52.097966009750962" lon="-10.453849034383893">
        <ele>68.390000000000001</ele>
        <time>2026-06-30T09:37:34Z</time>
      </trkpt>
      <trkpt lat="52.098096013069153" lon="-10.454369969666004">
        <ele>68.390000000000001</ele>
        <time>2026-06-30T09:37:38Z</time>
      </trkpt>
      <trkpt lat="52.098103975877166" lon="-10.454482035711408">
        <ele>68.390000000000001</ele>
        <time>2026-06-30T09:37:39Z</time>
      </trkpt>
      <trkpt lat="52.09811202250421" lon="-10.454578008502722">
        <ele>68.390000000000001</ele>
        <time>2026-06-30T09:37:40Z</time>
      </trkpt>
      <trkpt lat="52.098147980868816" lon="-10.455066002905369">
        <ele>69.829999999999998</ele>
        <time>2026-06-30T09:37:49Z</time>
      </trkpt>
      <trkpt lat="52.098147980868816" lon="-10.455066002905369">
        <ele>70.310000000000002</ele>
        <time>2026-06-30T09:38:03Z</time>
      </trkpt>
      <trkpt lat="52.098147980868816" lon="-10.455066002905369">
        <ele>70.790000000000006</ele>
        <time>2026-06-30T09:38:50Z</time>
      </trkpt>
      <trkpt lat="52.098147980868816" lon="-10.455066002905369">
        <ele>71.269999999999996</ele>
        <time>2026-06-30T09:39:42Z</time>
      </trkpt>
      <trkpt lat="52.098372029140592" lon="-10.455443020910025">
        <ele>78.480000000000004</ele>
        <time>2026-06-30T09:40:33Z</time>
      </trkpt>
      <trkpt lat="52.09875600412488" lon="-10.455771004781127">
        <ele>71.269999999999996</ele>
        <time>2026-06-30T09:40:39Z</time>
      </trkpt>
      <trkpt lat="52.098848959431052" lon="-10.455814003944397">
        <ele>70.790000000000006</ele>
        <time>2026-06-30T09:40:42Z</time>
      </trkpt>
      <trkpt lat="52.099331002682447" lon="-10.455823978409171">
        <ele>71.269999999999996</ele>
        <time>2026-06-30T09:40:47Z</time>
      </trkpt>
      <trkpt lat="52.099621016532183" lon="-10.455766981467605">
        <ele>70.790000000000006</ele>
        <time>2026-06-30T09:40:51Z</time>
      </trkpt>
      <trkpt lat="52.099645994603634" lon="-10.455762036144733">
        <ele>71.269999999999996</ele>
        <time>2026-06-30T09:40:52Z</time>
      </trkpt>
      <trkpt lat="52.099645994603634" lon="-10.455762036144733">
        <ele>75.599999999999994</ele>
        <time>2026-06-30T09:41:01Z</time>
      </trkpt>
      <trkpt lat="52.099665021523833" lon="-10.455758012831211">
        <ele>81.849999999999994</ele>
        <time>2026-06-30T09:41:29Z</time>
      </trkpt>
      <trkpt lat="52.099688993766904" lon="-10.455752983689308">
        <ele>81.849999999999994</ele>
        <time>2026-06-30T09:41:30Z</time>
      </trkpt>
      <trkpt lat="52.099731992930174" lon="-10.455745020881295">
        <ele>81.370000000000005</ele>
        <time>2026-06-30T09:41:31Z</time>
      </trkpt>
      <trkpt lat="52.099794019013643" lon="-10.45573303475976">
        <ele>81.370000000000005</ele>
        <time>2026-06-30T09:41:32Z</time>
      </trkpt>
      <trkpt lat="52.099870964884758" lon="-10.455718031153083">
        <ele>81.370000000000005</ele>
        <time>2026-06-30T09:41:33Z</time>
      </trkpt>
      <trkpt lat="52.09996098652482" lon="-10.455700010061264">
        <ele>81.849999999999994</ele>
        <time>2026-06-30T09:41:34Z</time>
      </trkpt>
      <trkpt lat="52.100059976801276" lon="-10.455680983141065">
        <ele>81.849999999999994</ele>
        <time>2026-06-30T09:41:35Z</time>
      </trkpt>
      <trkpt lat="52.100168019533157" lon="-10.455681988969445">
        <ele>81.849999999999994</ele>
        <time>2026-06-30T09:41:36Z</time>
      </trkpt>
      <trkpt lat="52.100286958739161" lon="-10.455684000626206">
        <ele>82.329999999999998</ele>
        <time>2026-06-30T09:41:37Z</time>
      </trkpt>
      <trkpt lat="52.101239981129766" lon="-10.455725993961096">
        <ele>83.769999999999996</ele>
        <time>2026-06-30T09:41:45Z</time>
      </trkpt>
      <trkpt lat="52.101382976397872" lon="-10.455787014216185">
        <ele>83.290000000000006</ele>
        <time>2026-06-30T09:41:47Z</time>
      </trkpt>
      <trkpt lat="52.101424969732761" lon="-10.455805035308003">
        <ele>83.290000000000006</ele>
        <time>2026-06-30T09:41:48Z</time>
      </trkpt>
      <trkpt lat="52.101452965289354" lon="-10.455816015601158">
        <ele>82.810000000000002</ele>
        <time>2026-06-30T09:41:49Z</time>
      </trkpt>
      <trkpt lat="52.101476015523076" lon="-10.455825990065932">
        <ele>82.329999999999998</ele>
        <time>2026-06-30T09:41:50Z</time>
      </trkpt>
      <trkpt lat="52.101496970281005" lon="-10.455834958702326">
        <ele>82.329999999999998</ele>
        <time>2026-06-30T09:41:51Z</time>
      </trkpt>
      <trkpt lat="52.101587997749448" lon="-10.455874018371105">
        <ele>80.409999999999997</ele>
        <time>2026-06-30T09:42:02Z</time>
      </trkpt>
      <trkpt lat="52.102143969386816" lon="-10.456050038337708">
        <ele>78.480000000000004</ele>
        <time>2026-06-30T09:42:10Z</time>
      </trkpt>
      <trkpt lat="52.102544037625194" lon="-10.45614299364388">
        <ele>77.040000000000006</ele>
        <time>2026-06-30T09:42:14Z</time>
      </trkpt>
      <trkpt lat="52.102657025679946" lon="-10.456112986430526">
        <ele>76.079999999999998</ele>
        <time>2026-06-30T09:42:15Z</time>
      </trkpt>
      <trkpt lat="52.10277495905757" lon="-10.456081973388791">
        <ele>76.079999999999998</ele>
        <time>2026-06-30T09:42:16Z</time>
      </trkpt>
      <trkpt lat="52.103894026950002" lon="-10.455766981467605">
        <ele>68.390000000000001</ele>
        <time>2026-06-30T09:42:26Z</time>
      </trkpt>
      <trkpt lat="52.105172015726566" lon="-10.455207992345095">
        <ele>62.619999999999997</ele>
        <time>2026-06-30T09:42:40Z</time>
      </trkpt>
      <trkpt lat="52.105895960703492" lon="-10.454925019294024">
        <ele>65.030000000000001</ele>
        <time>2026-06-30T09:42:47Z</time>
      </trkpt>
      <trkpt lat="52.106012972071767" lon="-10.454922001808882">
        <ele>65.510000000000005</ele>
        <time>2026-06-30T09:42:48Z</time>
      </trkpt>
      <trkpt lat="52.106136018410325" lon="-10.454947985708714">
        <ele>65.510000000000005</ele>
        <time>2026-06-30T09:42:49Z</time>
      </trkpt>
      <trkpt lat="52.106258980929852" lon="-10.454974975436926">
        <ele>65.510000000000005</ele>
        <time>2026-06-30T09:42:50Z</time>
      </trkpt>
      <trkpt lat="52.106380015611649" lon="-10.455000959336758">
        <ele>65.030000000000001</ele>
        <time>2026-06-30T09:42:51Z</time>
      </trkpt>
      <trkpt lat="52.107189036905766" lon="-10.455230958759785">
        <ele>61.659999999999997</ele>
        <time>2026-06-30T09:43:00Z</time>
      </trkpt>
      <trkpt lat="52.107540993019938" lon="-10.455365991219878">
        <ele>58.780000000000001</ele>
        <time>2026-06-30T09:43:08Z</time>
      </trkpt>
      <trkpt lat="52.107747020199895" lon="-10.455444026738405">
        <ele>57.82</ele>
        <time>2026-06-30T09:43:13Z</time>
      </trkpt>
      <trkpt lat="52.107777027413249" lon="-10.455508986487985">
        <ele>57.340000000000003</ele>
        <time>2026-06-30T09:43:14Z</time>
      </trkpt>
      <trkpt lat="52.107805022969842" lon="-10.455570006743073">
        <ele>56.859999999999999</ele>
        <time>2026-06-30T09:43:15Z</time>
      </trkpt>
      <trkpt lat="52.107832012698054" lon="-10.455631026998162">
        <ele>56.859999999999999</ele>
        <time>2026-06-30T09:43:16Z</time>
      </trkpt>
      <trkpt lat="52.107853973284364" lon="-10.455679977312684">
        <ele>56.369999999999997</ele>
        <time>2026-06-30T09:43:17Z</time>
      </trkpt>
      <trkpt lat="52.107861014083028" lon="-10.455742003396153">
        <ele>56.369999999999997</ele>
        <time>2026-06-30T09:43:18Z</time>
      </trkpt>
      <trkpt lat="52.107889009639621" lon="-10.455980971455574">
        <ele>55.409999999999997</ele>
        <time>2026-06-30T09:43:21Z</time>
      </trkpt>
      <trkpt lat="52.107898984104395" lon="-10.456073004752398">
        <ele>55.409999999999997</ele>
        <time>2026-06-30T09:43:22Z</time>
      </trkpt>
      <trkpt lat="52.10793100297451" lon="-10.456351032480597">
        <ele>55.409999999999997</ele>
        <time>2026-06-30T09:43:25Z</time>
      </trkpt>
      <trkpt lat="52.108054971322417" lon="-10.45696098357439">
        <ele>55.409999999999997</ele>
        <time>2026-06-30T09:43:31Z</time>
      </trkpt>
      <trkpt lat="52.108185980468988" lon="-10.457459036260843">
        <ele>54.450000000000003</ele>
        <time>2026-06-30T09:43:36Z</time>
      </trkpt>
      <trkpt lat="52.108256975188851" lon="-10.457938984036446">
        <ele>53.490000000000002</ele>
        <time>2026-06-30T09:43:40Z</time>
      </trkpt>
      <trkpt lat="52.108288994058967" lon="-10.458068987354636">
        <ele>53.009999999999998</ele>
        <time>2026-06-30T09:43:41Z</time>
      </trkpt>
      <trkpt lat="52.108329981565475" lon="-10.458208965137601">
        <ele>52.530000000000001</ele>
        <time>2026-06-30T09:43:42Z</time>
      </trkpt>
      <trkpt lat="52.108523016795516" lon="-10.45897901058197">
        <ele>50.609999999999999</ele>
        <time>2026-06-30T09:43:47Z</time>
      </trkpt>
      <trkpt lat="52.108991984277964" lon="-10.460890000686049">
        <ele>47.240000000000002</ele>
        <time>2026-06-30T09:44:00Z</time>
      </trkpt>
      <trkpt lat="52.109639989212155" lon="-10.462707029655576">
        <ele>42.439999999999998</ele>
        <time>2026-06-30T09:44:13Z</time>
      </trkpt>
      <trkpt lat="52.109921034425497" lon="-10.463381018489599">
        <ele>40.990000000000002</ele>
        <time>2026-06-30T09:44:18Z</time>
      </trkpt>
      <trkpt lat="52.110002003610134" lon="-10.463484032079577">
        <ele>40.990000000000002</ele>
        <time>2026-06-30T09:44:19Z</time>
      </trkpt>
      <trkpt lat="52.110085990279913" lon="-10.463590985164046">
        <ele>40.509999999999998</ele>
        <time>2026-06-30T09:44:20Z</time>
      </trkpt>
      <trkpt lat="52.110170982778072" lon="-10.463698022067547">
        <ele>40.509999999999998</ele>
        <time>2026-06-30T09:44:21Z</time>
      </trkpt>
      <trkpt lat="52.110267039388418" lon="-10.463784020394087">
        <ele>40.509999999999998</ele>
        <time>2026-06-30T09:44:22Z</time>
      </trkpt>
      <trkpt lat="52.110707005485892" lon="-10.464130025357008">
        <ele>40.990000000000002</ele>
        <time>2026-06-30T09:44:28Z</time>
      </trkpt>
      <trkpt lat="52.110775988548994" lon="-10.464184004813433">
        <ele>41.469999999999999</ele>
        <time>2026-06-30T09:44:31Z</time>
      </trkpt>
      <trkpt lat="52.110772971063852" lon="-10.46424200758338">
        <ele>40.990000000000002</ele>
        <time>2026-06-30T09:44:32Z</time>
      </trkpt>
      <trkpt lat="52.110757967457175" lon="-10.464271008968353">
        <ele>40.990000000000002</ele>
        <time>2026-06-30T09:44:33Z</time>
      </trkpt>
      <trkpt lat="52.110729971900582" lon="-10.464327000081539">
        <ele>41.469999999999999</ele>
        <time>2026-06-30T09:44:34Z</time>
      </trkpt>
      <trkpt lat="52.110692001879215" lon="-10.464335968717933">
        <ele>41.469999999999999</ele>
        <time>2026-06-30T09:44:35Z</time>
      </trkpt>
      <trkpt lat="52.110639028251171" lon="-10.4643480386585">
        <ele>41.469999999999999</ele>
        <time>2026-06-30T09:44:36Z</time>
      </trkpt>
      <trkpt lat="52.110524028539658" lon="-10.464375028386712">
        <ele>40.990000000000002</ele>
        <time>2026-06-30T09:44:38Z</time>
      </trkpt>
      <trkpt lat="52.110277013853192" lon="-10.464624976739287">
        <ele>40.030000000000001</ele>
        <time>2026-06-30T09:44:45Z</time>
      </trkpt>
      <trkpt lat="52.109980965033174" lon="-10.465457970276475">
        <ele>38.109999999999999</ele>
        <time>2026-06-30T09:44:55Z</time>
      </trkpt>
      <trkpt lat="52.109813997521996" lon="-10.465928027406335">
        <ele>36.189999999999998</ele>
        <time>2026-06-30T09:45:04Z</time>
      </trkpt>
      <trkpt lat="52.109537981450558" lon="-10.466702012345195">
        <ele>32.82</ele>
        <time>2026-06-30T09:45:16Z</time>
      </trkpt>
      <trkpt lat="52.109513003379107" lon="-10.466795973479748">
        <ele>31.379999999999999</ele>
        <time>2026-06-30T09:45:27Z</time>
      </trkpt>
      <trkpt lat="52.109493976458907" lon="-10.466879960149527">
        <ele>30.420000000000002</ele>
        <time>2026-06-30T09:45:40Z</time>
      </trkpt>
      <trkpt lat="52.109476961195469" lon="-10.466952966526151">
        <ele>29.460000000000001</ele>
        <time>2026-06-30T09:45:50Z</time>
      </trkpt>
      <trkpt lat="52.109476961195469" lon="-10.466952966526151">
        <ele>29.460000000000001</ele>
        <time>2026-06-30T09:46:04Z</time>
      </trkpt>
      <trkpt lat="52.109476961195469" lon="-10.466952966526151">
        <ele>29.460000000000001</ele>
        <time>2026-06-30T09:46:32Z</time>
      </trkpt>
      <trkpt lat="52.109476961195469" lon="-10.466952966526151">
        <ele>29.460000000000001</ele>
        <time>2026-06-30T09:47:18Z</time>
      </trkpt>
      <trkpt lat="52.109476961195469" lon="-10.466952966526151">
        <ele>29.460000000000001</ele>
        <time>2026-06-30T09:47:46Z</time>
      </trkpt>
      <trkpt lat="52.109476961195469" lon="-10.466952966526151">
        <ele>28.98</ele>
        <time>2026-06-30T09:48:02Z</time>
      </trkpt>
      <trkpt lat="52.109476961195469" lon="-10.466952966526151">
        <ele>29.940000000000001</ele>
        <time>2026-06-30T09:48:16Z</time>
      </trkpt>
      <trkpt lat="52.109476961195469" lon="-10.46695196069777">
        <ele>30.899999999999999</ele>
        <time>2026-06-30T09:48:25Z</time>
      </trkpt>
      <trkpt lat="52.109463969245553" lon="-10.467009963467717">
        <ele>31.379999999999999</ele>
        <time>2026-06-30T09:48:38Z</time>
      </trkpt>
      <trkpt lat="52.109415018931031" lon="-10.467135021463037">
        <ele>42.439999999999998</ele>
        <time>2026-06-30T10:02:07Z</time>
      </trkpt>
      <trkpt lat="52.109509985893965" lon="-10.466880965977907">
        <ele>24.649999999999999</ele>
        <time>2026-06-30T10:02:24Z</time>
      </trkpt>
      <trkpt lat="52.109495988115668" lon="-10.466908039525151">
        <ele>29.940000000000001</ele>
        <time>2026-06-30T10:03:11Z</time>
      </trkpt>
      <trkpt lat="52.109510991722345" lon="-10.466850036755204">
        <ele>29.940000000000001</ele>
        <time>2026-06-30T10:03:54Z</time>
      </trkpt>
      <trkpt lat="52.109507974237204" lon="-10.466849030926824">
        <ele>29.940000000000001</ele>
        <time>2026-06-30T10:04:31Z</time>
      </trkpt>
      <trkpt lat="52.1095219720155" lon="-10.466754985973239">
        <ele>30.899999999999999</ele>
        <time>2026-06-30T10:04:43Z</time>
      </trkpt>
      <trkpt lat="52.109546028077602" lon="-10.466680973768234">
        <ele>30.899999999999999</ele>
        <time>2026-06-30T10:04:44Z</time>
      </trkpt>
      <trkpt lat="52.109577041119337" lon="-10.466592963784933">
        <ele>31.379999999999999</ele>
        <time>2026-06-30T10:04:45Z</time>
      </trkpt>
      <trkpt lat="52.109807962551713" lon="-10.465943031013012">
        <ele>32.82</ele>
        <time>2026-06-30T10:04:52Z</time>
      </trkpt>
      <trkpt lat="52.110128989443183" lon="-10.465041976422071">
        <ele>35.710000000000001</ele>
        <time>2026-06-30T10:05:03Z</time>
      </trkpt>
      <trkpt lat="52.110307021066546" lon="-10.464541995897889">
        <ele>37.149999999999999</ele>
        <time>2026-06-30T10:05:08Z</time>
      </trkpt>
      <trkpt lat="52.110368041321635" lon="-10.464461026713252">
        <ele>37.149999999999999</ele>
        <time>2026-06-30T10:05:09Z</time>
      </trkpt>
      <trkpt lat="52.110434006899595" lon="-10.464406041428447">
        <ele>37.149999999999999</ele>
        <time>2026-06-30T10:05:10Z</time>
      </trkpt>
      <trkpt lat="52.110510030761361" lon="-10.464377962052822">
        <ele>37.630000000000003</ele>
        <time>2026-06-30T10:05:11Z</time>
      </trkpt>
      <trkpt lat="52.110583037137985" lon="-10.464362036436796">
        <ele>37.630000000000003</ele>
        <time>2026-06-30T10:05:12Z</time>
      </trkpt>
      <trkpt lat="52.110815970227122" lon="-10.46419900842011">
        <ele>39.07</ele>
        <time>2026-06-30T10:05:17Z</time>
      </trkpt>
      <trkpt lat="52.110914960503578" lon="-10.46419900842011">
        <ele>39.549999999999997</ele>
        <time>2026-06-30T10:05:19Z</time>
      </trkpt>
      <trkpt lat="52.111549973487854" lon="-10.4640509840101">
        <ele>42.439999999999998</ele>
        <time>2026-06-30T10:05:26Z</time>
      </trkpt>
      <trkpt lat="52.113114958629012" lon="-10.463775973767042">
        <ele>50.130000000000003</ele>
        <time>2026-06-30T10:05:39Z</time>
      </trkpt>
      <trkpt lat="52.114749010652304" lon="-10.463424017652869">
        <ele>54.450000000000003</ele>
        <time>2026-06-30T10:05:51Z</time>
      </trkpt>
      <trkpt lat="52.11487197317183" lon="-10.463354028761387">
        <ele>54.93</ele>
        <time>2026-06-30T10:05:52Z</time>
      </trkpt>
      <trkpt lat="52.116341991350055" lon="-10.462117027491331">
        <ele>61.659999999999997</ele>
        <time>2026-06-30T10:06:04Z</time>
      </trkpt>
      <trkpt lat="52.116893017664552" lon="-10.461491988971829">
        <ele>64.549999999999997</ele>
        <time>2026-06-30T10:06:09Z</time>
      </trkpt>
      <trkpt lat="52.116983039304614" lon="-10.461336001753807">
        <ele>65.510000000000005</ele>
        <time>2026-06-30T10:06:10Z</time>
      </trkpt>
      <trkpt lat="52.117592990398407" lon="-10.460494961589575">
        <ele>70.790000000000006</ele>
        <time>2026-06-30T10:06:16Z</time>
      </trkpt>
      <trkpt lat="52.117707990109921" lon="-10.460377028211951">
        <ele>70.790000000000006</ele>
        <time>2026-06-30T10:06:17Z</time>
      </trkpt>
      <trkpt lat="52.118953038007021" lon="-10.45962299220264">
        <ele>65.030000000000001</ele>
        <time>2026-06-30T10:06:26Z</time>
      </trkpt>
      <trkpt lat="52.120626987889409" lon="-10.458496967330575">
        <ele>58.780000000000001</ele>
        <time>2026-06-30T10:06:37Z</time>
      </trkpt>
      <trkpt lat="52.122353995218873" lon="-10.457133986055851">
        <ele>62.619999999999997</ele>
        <time>2026-06-30T10:06:50Z</time>
      </trkpt>
      <trkpt lat="52.124014031141996" lon="-10.455804029479623">
        <ele>65.030000000000001</ele>
        <time>2026-06-30T10:07:03Z</time>
      </trkpt>
      <trkpt lat="52.125282967463136" lon="-10.454644979909062">
        <ele>65.510000000000005</ele>
        <time>2026-06-30T10:07:14Z</time>
      </trkpt>
      <trkpt lat="52.125397967174649" lon="-10.454546995460987">
        <ele>65.030000000000001</ele>
        <time>2026-06-30T10:07:15Z</time>
      </trkpt>
      <trkpt lat="52.12610799819231" lon="-10.453925980255008">
        <ele>62.619999999999997</ele>
        <time>2026-06-30T10:07:21Z</time>
      </trkpt>
      <trkpt lat="52.126206988468766" lon="-10.453795976936817">
        <ele>62.619999999999997</ele>
        <time>2026-06-30T10:07:22Z</time>
      </trkpt>
      <trkpt lat="52.126302039250731" lon="-10.453669996932149">
        <ele>62.140000000000001</ele>
        <time>2026-06-30T10:07:23Z</time>
      </trkpt>
      <trkpt lat="52.127075018361211" lon="-10.452249012887478">
        <ele>58.299999999999997</ele>
        <time>2026-06-30T10:07:33Z</time>
      </trkpt>
      <trkpt lat="52.127206027507782" lon="-10.451907031238079">
        <ele>57.82</ele>
        <time>2026-06-30T10:07:36Z</time>
      </trkpt>
      <trkpt lat="52.127253971993923" lon="-10.45178297907114">
        <ele>57.340000000000003</ele>
        <time>2026-06-30T10:07:37Z</time>
      </trkpt>
      <trkpt lat="52.127296971157193" lon="-10.451635038480163">
        <ele>56.859999999999999</ele>
        <time>2026-06-30T10:07:38Z</time>
      </trkpt>
      <trkpt lat="52.127481959760189" lon="-10.450844960287213">
        <ele>54.450000000000003</ele>
        <time>2026-06-30T10:07:43Z</time>
      </trkpt>
      <trkpt lat="52.127516996115446" lon="-10.450698025524616">
        <ele>53.969999999999999</ele>
        <time>2026-06-30T10:07:44Z</time>
      </trkpt>
      <trkpt lat="52.127578016370535" lon="-10.450583025813103">
        <ele>53.009999999999998</ele>
        <time>2026-06-30T10:07:45Z</time>
      </trkpt>
      <trkpt lat="52.12765303440392" lon="-10.450495015829802">
        <ele>52.530000000000001</ele>
        <time>2026-06-30T10:07:46Z</time>
      </trkpt>
      <trkpt lat="52.12774196639657" lon="-10.450442964211106">
        <ele>52.049999999999997</ele>
        <time>2026-06-30T10:07:47Z</time>
      </trkpt>
      <trkpt lat="52.127832993865013" lon="-10.450393008068204">
        <ele>52.049999999999997</ele>
        <time>2026-06-30T10:07:48Z</time>
      </trkpt>
      <trkpt lat="52.127928966656327" lon="-10.450361995026469">
        <ele>51.57</ele>
        <time>2026-06-30T10:07:49Z</time>
      </trkpt>
      <trkpt lat="52.128029968589544" lon="-10.450371969491243">
        <ele>51.57</ele>
        <time>2026-06-30T10:07:50Z</time>
      </trkpt>
      <trkpt lat="52.128137005493045" lon="-10.45038303360343">
        <ele>51.090000000000003</ele>
        <time>2026-06-30T10:07:51Z</time>
      </trkpt>
      <trkpt lat="52.128247981891036" lon="-10.450395019724965">
        <ele>50.609999999999999</ele>
        <time>2026-06-30T10:07:52Z</time>
      </trkpt>
      <trkpt lat="52.129055997356772" lon="-10.450658965855837">
        <ele>48.68</ele>
        <time>2026-06-30T10:07:59Z</time>
      </trkpt>
      <trkpt lat="52.129170997068286" lon="-10.450694002211094">
        <ele>48.200000000000003</ele>
        <time>2026-06-30T10:08:00Z</time>
      </trkpt>
      <trkpt lat="52.129280967637897" lon="-10.450719986110926">
        <ele>48.200000000000003</ele>
        <time>2026-06-30T10:08:01Z</time>
      </trkpt>
      <trkpt lat="52.129394039511681" lon="-10.450691990554333">
        <ele>48.200000000000003</ele>
        <time>2026-06-30T10:08:02Z</time>
      </trkpt>
      <trkpt lat="52.129506021738052" lon="-10.45066399499774">
        <ele>48.200000000000003</ele>
        <time>2026-06-30T10:08:03Z</time>
      </trkpt>
      <trkpt lat="52.129612974822521" lon="-10.450637005269527">
        <ele>48.200000000000003</ele>
        <time>2026-06-30T10:08:04Z</time>
      </trkpt>
      <trkpt lat="52.12971699424088" lon="-10.450551006942987">
        <ele>48.68</ele>
        <time>2026-06-30T10:08:05Z</time>
      </trkpt>
      <trkpt lat="52.129820007830858" lon="-10.450466014444828">
        <ele>49.159999999999997</ele>
        <time>2026-06-30T10:08:06Z</time>
      </trkpt>
      <trkpt lat="52.129923021420836" lon="-10.450381021946669">
        <ele>49.159999999999997</ele>
        <time>2026-06-30T10:08:07Z</time>
      </trkpt>
      <trkpt lat="52.130025029182434" lon="-10.45029703527689">
        <ele>49.649999999999999</ele>
        <time>2026-06-30T10:08:08Z</time>
      </trkpt>
      <trkpt lat="52.130121001973748" lon="-10.450212964788079">
        <ele>50.130000000000003</ele>
        <time>2026-06-30T10:08:09Z</time>
      </trkpt>
      <trkpt lat="52.130381008610129" lon="-10.449918005615473">
        <ele>52.530000000000001</ele>
        <time>2026-06-30T10:08:13Z</time>
      </trkpt>
      <trkpt lat="52.130824998021126" lon="-10.449252985417843">
        <ele>55.409999999999997</ele>
        <time>2026-06-30T10:08:18Z</time>
      </trkpt>
      <trkpt lat="52.130902027711272" lon="-10.449176039546728">
        <ele>55.409999999999997</ele>
        <time>2026-06-30T10:08:19Z</time>
      </trkpt>
      <trkpt lat="52.130979979410768" lon="-10.449171010404825">
        <ele>55.409999999999997</ele>
        <time>2026-06-30T10:08:20Z</time>
      </trkpt>
      <trkpt lat="52.131062038242817" lon="-10.449190037325025">
        <ele>54.93</ele>
        <time>2026-06-30T10:08:21Z</time>
      </trkpt>
      <trkpt lat="52.131150970235467" lon="-10.449211997911334">
        <ele>54.450000000000003</ele>
        <time>2026-06-30T10:08:22Z</time>
      </trkpt>
      <trkpt lat="52.131346017122269" lon="-10.449259020388126">
        <ele>53.969999999999999</ele>
        <time>2026-06-30T10:08:24Z</time>
      </trkpt>
      <trkpt lat="52.131448024883866" lon="-10.449282992631197">
        <ele>53.969999999999999</ele>
        <time>2026-06-30T10:08:25Z</time>
      </trkpt>
      <trkpt lat="52.131552966311574" lon="-10.449259020388126">
        <ele>53.490000000000002</ele>
        <time>2026-06-30T10:08:26Z</time>
      </trkpt>
      <trkpt lat="52.1316500287503" lon="-10.449231024831533">
        <ele>53.009999999999998</ele>
        <time>2026-06-30T10:08:27Z</time>
      </trkpt>
      <trkpt lat="52.13173896074295" lon="-10.449205040931702">
        <ele>53.009999999999998</ele>
        <time>2026-06-30T10:08:28Z</time>
      </trkpt>
      <trkpt lat="52.131823031231761" lon="-10.449208980426192">
        <ele>52.530000000000001</ele>
        <time>2026-06-30T10:08:29Z</time>
      </trkpt>
      <trkpt lat="52.131901988759637" lon="-10.449219960719347">
        <ele>52.530000000000001</ele>
        <time>2026-06-30T10:08:30Z</time>
      </trkpt>
      <trkpt lat="52.131968038156629" lon="-10.449280980974436">
        <ele>52.049999999999997</ele>
        <time>2026-06-30T10:08:31Z</time>
      </trkpt>
      <trkpt lat="52.132040038704872" lon="-10.449352981522679">
        <ele>51.57</ele>
        <time>2026-06-30T10:08:32Z</time>
      </trkpt>
      <trkpt lat="52.132107010111213" lon="-10.449454989284277">
        <ele>51.090000000000003</ele>
        <time>2026-06-30T10:08:33Z</time>
      </trkpt>
      <trkpt lat="52.13216501288116" lon="-10.449591027572751">
        <ele>50.609999999999999</ele>
        <time>2026-06-30T10:08:34Z</time>
      </trkpt>
      <trkpt lat="52.132227038964629" lon="-10.449736034497619">
        <ele>50.130000000000003</ele>
        <time>2026-06-30T10:08:35Z</time>
      </trkpt>
      <trkpt lat="52.132549993693829" lon="-10.450312960892916">
        <ele>47.240000000000002</ele>
        <time>2026-06-30T10:08:39Z</time>
      </trkpt>
      <trkpt lat="52.132653007283807" lon="-10.45042997226119">
        <ele>46.280000000000001</ele>
        <time>2026-06-30T10:08:40Z</time>
      </trkpt>
      <trkpt lat="52.132759038358927" lon="-10.450552012771368">
        <ele>45.32</ele>
        <time>2026-06-30T10:08:41Z</time>
      </trkpt>
      <trkpt lat="52.133824964985251" lon="-10.451578041538596">
        <ele>36.670000000000002</ele>
        <time>2026-06-30T10:08:51Z</time>
      </trkpt>
      <trkpt lat="52.13444103486836" lon="-10.452161002904177">
        <ele>32.82</ele>
        <time>2026-06-30T10:08:58Z</time>
      </trkpt>
      <trkpt lat="52.1345080062747" lon="-10.452200984582305">
        <ele>32.340000000000003</ele>
        <time>2026-06-30T10:08:59Z</time>
      </trkpt>
      <trkpt lat="52.134590987116098" lon="-10.452226968482137">
        <ele>32.340000000000003</ele>
        <time>2026-06-30T10:09:00Z</time>
      </trkpt>
      <trkpt lat="52.134684026241302" lon="-10.452228980138898">
        <ele>31.859999999999999</ele>
        <time>2026-06-30T10:09:01Z</time>
      </trkpt>
      <trkpt lat="52.134784022346139" lon="-10.45223199762404">
        <ele>31.859999999999999</ele>
        <time>2026-06-30T10:09:02Z</time>
      </trkpt>
      <trkpt lat="52.135180989280343" lon="-10.452244989573956">
        <ele>31.379999999999999</ele>
        <time>2026-06-30T10:09:06Z</time>
      </trkpt>
      <trkpt lat="52.135260030627251" lon="-10.452253958210349">
        <ele>31.379999999999999</ele>
        <time>2026-06-30T10:09:07Z</time>
      </trkpt>
      <trkpt lat="52.135310992598534" lon="-10.45233802869916">
        <ele>31.379999999999999</ele>
        <time>2026-06-30T10:09:08Z</time>
      </trkpt>
      <trkpt lat="52.135343011468649" lon="-10.452449005097151">
        <ele>31.859999999999999</ele>
        <time>2026-06-30T10:09:09Z</time>
      </trkpt>
      <trkpt lat="52.135373018682003" lon="-10.45257699675858">
        <ele>32.340000000000003</ele>
        <time>2026-06-30T10:09:10Z</time>
      </trkpt>
      <trkpt lat="52.135712988674641" lon="-10.454141981899738">
        <ele>35.710000000000001</ele>
        <time>2026-06-30T10:09:19Z</time>
      </trkpt>
      <trkpt lat="52.135915998369455" lon="-10.456212982535362">
        <ele>41.469999999999999</ele>
        <time>2026-06-30T10:09:30Z</time>
      </trkpt>
      <trkpt lat="52.136109033599496" lon="-10.45738996937871">
        <ele>44.840000000000003</ele>
        <time>2026-06-30T10:09:36Z</time>
      </trkpt>
      <trkpt lat="52.136174999177456" lon="-10.457565989345312">
        <ele>45.32</ele>
        <time>2026-06-30T10:09:37Z</time>
      </trkpt>
      <trkpt lat="52.136243982240558" lon="-10.457748966291547">
        <ele>46.280000000000001</ele>
        <time>2026-06-30T10:09:38Z</time>
      </trkpt>
      <trkpt lat="52.136890981346369" lon="-10.459570018574595">
        <ele>51.57</ele>
        <time>2026-06-30T10:09:48Z</time>
      </trkpt>
      <trkpt lat="52.137025007978082" lon="-10.461009023711085">
        <ele>56.369999999999997</ele>
        <time>2026-06-30T10:09:56Z</time>
      </trkpt>
      <trkpt lat="52.137069012969732" lon="-10.461976965889335">
        <ele>58.299999999999997</ele>
        <time>2026-06-30T10:10:01Z</time>
      </trkpt>
      <trkpt lat="52.137100026011467" lon="-10.462196990847588">
        <ele>58.780000000000001</ele>
        <time>2026-06-30T10:10:02Z</time>
      </trkpt>
      <trkpt lat="52.137145958840847" lon="-10.462411986663938">
        <ele>59.259999999999998</ele>
        <time>2026-06-30T10:10:03Z</time>
      </trkpt>
      <trkpt lat="52.137223994359374" lon="-10.462612984701991">
        <ele>59.259999999999998</ele>
        <time>2026-06-30T10:10:04Z</time>
      </trkpt>
      <trkpt lat="52.137304041534662" lon="-10.462820017710328">
        <ele>60.219999999999999</ele>
        <time>2026-06-30T10:10:05Z</time>
      </trkpt>
      <trkpt lat="52.137388028204441" lon="-10.463035013526678">
        <ele>60.700000000000003</ele>
        <time>2026-06-30T10:10:06Z</time>
      </trkpt>
      <trkpt lat="52.137490035966039" lon="-10.463225031271577">
        <ele>61.18</ele>
        <time>2026-06-30T10:10:07Z</time>
      </trkpt>
      <trkpt lat="52.137604029849172" lon="-10.463397027924657">
        <ele>61.659999999999997</ele>
        <time>2026-06-30T10:10:08Z</time>
      </trkpt>
      <trkpt lat="52.137729004025459" lon="-10.463528959080577">
        <ele>62.140000000000001</ele>
        <time>2026-06-30T10:10:09Z</time>
      </trkpt>
      <trkpt lat="52.137855989858508" lon="-10.463628033176064">
        <ele>63.100000000000001</ele>
        <time>2026-06-30T10:10:10Z</time>
      </trkpt>
      <trkpt lat="52.137985993176699" lon="-10.463675977662206">
        <ele>63.579999999999998</ele>
        <time>2026-06-30T10:10:11Z</time>
      </trkpt>
      <trkpt lat="52.13811700232327" lon="-10.463710008189082">
        <ele>64.069999999999993</ele>
        <time>2026-06-30T10:10:12Z</time>
      </trkpt>
      <trkpt lat="52.138253040611744" lon="-10.463720988482237">
        <ele>65.030000000000001</ele>
        <time>2026-06-30T10:10:13Z</time>
      </trkpt>
      <trkpt lat="52.138391006737947" lon="-10.463732974603772">
        <ele>65.030000000000001</ele>
        <time>2026-06-30T10:10:14Z</time>
      </trkpt>
      <trkpt lat="52.140082977712154" lon="-10.46355796046555">
        <ele>67.909999999999997</ele>
        <time>2026-06-30T10:10:25Z</time>
      </trkpt>
      <trkpt lat="52.14239202439785" lon="-10.46331899240613">
        <ele>71.269999999999996</ele>
        <time>2026-06-30T10:10:39Z</time>
      </trkpt>
      <trkpt lat="52.144208969548345" lon="-10.463671032339334">
        <ele>72.719999999999999</ele>
        <time>2026-06-30T10:10:50Z</time>
      </trkpt>
      <trkpt lat="52.146100010722876" lon="-10.464704018086195">
        <ele>73.200000000000003</ele>
        <time>2026-06-30T10:11:02Z</time>
      </trkpt>
      <trkpt lat="52.147085973992944" lon="-10.465671960264444">
        <ele>73.680000000000007</ele>
        <time>2026-06-30T10:11:09Z</time>
      </trkpt>
      <trkpt lat="52.147220000624657" lon="-10.465800035744905">
        <ele>73.680000000000007</ele>
        <time>2026-06-30T10:11:10Z</time>
      </trkpt>
      <trkpt lat="52.147368025034666" lon="-10.465891985222697">
        <ele>73.680000000000007</ele>
        <time>2026-06-30T10:11:11Z</time>
      </trkpt>
      <trkpt lat="52.148834019899368" lon="-10.466636968776584">
        <ele>74.159999999999997</ele>
        <time>2026-06-30T10:11:21Z</time>
      </trkpt>
      <trkpt lat="52.148951031267643" lon="-10.466652978211641">
        <ele>74.159999999999997</ele>
        <time>2026-06-30T10:11:22Z</time>
      </trkpt>
      <trkpt lat="52.149053039029241" lon="-10.466665970161557">
        <ele>74.159999999999997</ele>
        <time>2026-06-30T10:11:23Z</time>
      </trkpt>
      <trkpt lat="52.149166027083993" lon="-10.4666499607265">
        <ele>74.640000000000001</ele>
        <time>2026-06-30T10:11:24Z</time>
      </trkpt>
      <trkpt lat="52.149694003164768" lon="-10.466458015143871">
        <ele>74.159999999999997</ele>
        <time>2026-06-30T10:11:32Z</time>
      </trkpt>
      <trkpt lat="52.149959038943052" lon="-10.466330023482442">
        <ele>74.159999999999997</ele>
        <time>2026-06-30T10:11:38Z</time>
      </trkpt>
      <trkpt lat="52.149996003136039" lon="-10.466312002390623">
        <ele>74.159999999999997</ele>
        <time>2026-06-30T10:11:39Z</time>
      </trkpt>
      <trkpt lat="52.150061968713999" lon="-10.466279983520508">
        <ele>73.680000000000007</ele>
        <time>2026-06-30T10:11:48Z</time>
      </trkpt>
      <trkpt lat="52.150061968713999" lon="-10.466279983520508">
        <ele>73.200000000000003</ele>
        <time>2026-06-30T10:12:04Z</time>
      </trkpt>
      <trkpt lat="52.150061968713999" lon="-10.466279983520508">
        <ele>73.200000000000003</ele>
        <time>2026-06-30T10:12:45Z</time>
      </trkpt>
      <trkpt lat="52.150061968713999" lon="-10.466279983520508">
        <ele>73.680000000000007</ele>
        <time>2026-06-30T10:13:44Z</time>
      </trkpt>
      <trkpt lat="52.150102034211159" lon="-10.466212006285787">
        <ele>73.680000000000007</ele>
        <time>2026-06-30T10:14:19Z</time>
      </trkpt>
      <trkpt lat="52.150115026161075" lon="-10.466189039871097">
        <ele>73.680000000000007</ele>
        <time>2026-06-30T10:14:20Z</time>
      </trkpt>
      <trkpt lat="52.150134975090623" lon="-10.46615400351584">
        <ele>73.680000000000007</ele>
        <time>2026-06-30T10:14:21Z</time>
      </trkpt>
      <trkpt lat="52.150212004780769" lon="-10.466022994369268">
        <ele>73.680000000000007</ele>
        <time>2026-06-30T10:14:22Z</time>
      </trkpt>
      <trkpt lat="52.150212004780769" lon="-10.466022994369268">
        <ele>73.680000000000007</ele>
        <time>2026-06-30T10:14:23Z</time>
      </trkpt>
      <trkpt lat="52.150259027257562" lon="-10.465013980865479">
        <ele>72.719999999999999</ele>
        <time>2026-06-30T10:14:29Z</time>
      </trkpt>
      <trkpt lat="52.150274030864239" lon="-10.462734019383788">
        <ele>66.469999999999999</ele>
        <time>2026-06-30T10:14:41Z</time>
      </trkpt>
      <trkpt lat="52.150309989228845" lon="-10.462132031098008">
        <ele>64.549999999999997</ele>
        <time>2026-06-30T10:14:44Z</time>
      </trkpt>
      <trkpt lat="52.150341002270579" lon="-10.461923992261291">
        <ele>64.069999999999993</ele>
        <time>2026-06-30T10:14:45Z</time>
      </trkpt>
      <trkpt lat="52.150820028036833" lon="-10.459769004955888">
        <ele>56.369999999999997</ele>
        <time>2026-06-30T10:14:56Z</time>
      </trkpt>
      <trkpt lat="52.151362001895905" lon="-10.457204980775714">
        <ele>47.719999999999999</ele>
        <time>2026-06-30T10:15:09Z</time>
      </trkpt>
      <trkpt lat="52.151963990181684" lon="-10.455630021169782">
        <ele>42.920000000000002</ele>
        <time>2026-06-30T10:15:18Z</time>
      </trkpt>
      <trkpt lat="52.152565978467464" lon="-10.454756962135434">
        <ele>40.509999999999998</ele>
        <time>2026-06-30T10:15:24Z</time>
      </trkpt>
      <trkpt lat="52.152695981785655" lon="-10.454679010435939">
        <ele>40.030000000000001</ele>
        <time>2026-06-30T10:15:25Z</time>
      </trkpt>
      <trkpt lat="52.154193995520473" lon="-10.453897984698415">
        <ele>34.740000000000002</ele>
        <time>2026-06-30T10:15:37Z</time>
      </trkpt>
      <trkpt lat="52.155283978208899" lon="-10.453889016062021">
        <ele>32.340000000000003</ele>
        <time>2026-06-30T10:15:46Z</time>
      </trkpt>
      <trkpt lat="52.157141994684935" lon="-10.454443981871009">
        <ele>28.5</ele>
        <time>2026-06-30T10:16:00Z</time>
      </trkpt>
      <trkpt lat="52.157986974343657" lon="-10.454928958788514">
        <ele>24.649999999999999</ele>
        <time>2026-06-30T10:16:07Z</time>
      </trkpt>
      <trkpt lat="52.15803399682045" lon="-10.454928958788514">
        <ele>24.170000000000002</ele>
        <time>2026-06-30T10:16:08Z</time>
      </trkpt>
      <trkpt lat="52.158065009862185" lon="-10.454928958788514">
        <ele>24.170000000000002</ele>
        <time>2026-06-30T10:16:09Z</time>
      </trkpt>
      <trkpt lat="52.158090993762016" lon="-10.454857964068651">
        <ele>23.690000000000001</ele>
        <time>2026-06-30T10:16:10Z</time>
      </trkpt>
      <trkpt lat="52.158128041774035" lon="-10.454756962135434">
        <ele>23.690000000000001</ele>
        <time>2026-06-30T10:16:11Z</time>
      </trkpt>
      <trkpt lat="52.158161988481879" lon="-10.454640034586191">
        <ele>23.690000000000001</ele>
        <time>2026-06-30T10:16:12Z</time>
      </trkpt>
      <trkpt lat="52.158191995695233" lon="-10.454486981034279">
        <ele>23.690000000000001</ele>
        <time>2026-06-30T10:16:13Z</time>
      </trkpt>
      <trkpt lat="52.158482009544969" lon="-10.452945968136191">
        <ele>25.129999999999999</ele>
        <time>2026-06-30T10:16:20Z</time>
      </trkpt>
      <trkpt lat="52.158889034762979" lon="-10.449951030313969">
        <ele>27.050000000000001</ele>
        <time>2026-06-30T10:16:31Z</time>
      </trkpt>
      <trkpt lat="52.159241996705532" lon="-10.447088023647666">
        <ele>26.09</ele>
        <time>2026-06-30T10:16:43Z</time>
      </trkpt>
      <trkpt lat="52.159408964216709" lon="-10.444579990580678">
        <ele>28.02</ele>
        <time>2026-06-30T10:16:53Z</time>
      </trkpt>
      <trkpt lat="52.159460010007024" lon="-10.442143036052585">
        <ele>27.530000000000001</ele>
        <time>2026-06-30T10:17:03Z</time>
      </trkpt>
      <trkpt lat="52.159398989751935" lon="-10.441987970843911">
        <ele>27.530000000000001</ele>
        <time>2026-06-30T10:17:04Z</time>
      </trkpt>
      <trkpt lat="52.159341992810369" lon="-10.441844975575805">
        <ele>28.02</ele>
        <time>2026-06-30T10:17:05Z</time>
      </trkpt>
      <trkpt lat="52.15925800614059" lon="-10.441758977249265">
        <ele>28.02</ele>
        <time>2026-06-30T10:17:06Z</time>
      </trkpt>
      <trkpt lat="52.159158010035753" lon="-10.441678008064628">
        <ele>28.5</ele>
        <time>2026-06-30T10:17:07Z</time>
      </trkpt>
      <trkpt lat="52.159051978960633" lon="-10.441591003909707">
        <ele>28.98</ele>
        <time>2026-06-30T10:17:08Z</time>
      </trkpt>
      <trkpt lat="52.15801103040576" lon="-10.440701013430953">
        <ele>35.710000000000001</ele>
        <time>2026-06-30T10:17:17Z</time>
      </trkpt>
      <trkpt lat="52.157920002937317" lon="-10.440604034811258">
        <ele>36.189999999999998</ele>
        <time>2026-06-30T10:17:18Z</time>
      </trkpt>
      <trkpt lat="52.157837022095919" lon="-10.440495992079377">
        <ele>37.149999999999999</ele>
        <time>2026-06-30T10:17:19Z</time>
      </trkpt>
      <trkpt lat="52.157783964648843" lon="-10.440360037609935">
        <ele>37.630000000000003</ele>
        <time>2026-06-30T10:17:20Z</time>
      </trkpt>
      <trkpt lat="52.157729985192418" lon="-10.44022299349308">
        <ele>38.590000000000003</ele>
        <time>2026-06-30T10:17:21Z</time>
      </trkpt>
      <trkpt lat="52.157673994079232" lon="-10.440078992396593">
        <ele>39.07</ele>
        <time>2026-06-30T10:17:22Z</time>
      </trkpt>
      <trkpt lat="52.157638035714626" lon="-10.439909007400274">
        <ele>39.07</ele>
        <time>2026-06-30T10:17:23Z</time>
      </trkpt>
      <trkpt lat="52.157582966610789" lon="-10.43955797329545">
        <ele>39.549999999999997</ele>
        <time>2026-06-30T10:17:25Z</time>
      </trkpt>
      <trkpt lat="52.157555976882577" lon="-10.43938597664237">
        <ele>39.549999999999997</ele>
        <time>2026-06-30T10:17:26Z</time>
      </trkpt>
      <trkpt lat="52.157581960782409" lon="-10.439208028838038">
        <ele>39.07</ele>
        <time>2026-06-30T10:17:27Z</time>
      </trkpt>
      <trkpt lat="52.157623032107949" lon="-10.439022034406662">
        <ele>39.07</ele>
        <time>2026-06-30T10:17:28Z</time>
      </trkpt>
      <trkpt lat="52.1576670370996" lon="-10.438821036368608">
        <ele>38.590000000000003</ele>
        <time>2026-06-30T10:17:29Z</time>
      </trkpt>
      <trkpt lat="52.15814002789557" lon="-10.436668982729316">
        <ele>32.82</ele>
        <time>2026-06-30T10:17:38Z</time>
      </trkpt>
      <trkpt lat="52.158267013728619" lon="-10.436258018016815">
        <ele>31.859999999999999</ele>
        <time>2026-06-30T10:17:40Z</time>
      </trkpt>
      <trkpt lat="52.158343959599733" lon="-10.436046039685607">
        <ele>31.379999999999999</ele>
        <time>2026-06-30T10:17:41Z</time>
      </trkpt>
      <trkpt lat="52.158846035599709" lon="-10.435197036713362">
        <ele>29.460000000000001</ele>
        <time>2026-06-30T10:17:46Z</time>
      </trkpt>
      <trkpt lat="52.158917030319571" lon="-10.434982962906361">
        <ele>29.460000000000001</ele>
        <time>2026-06-30T10:17:47Z</time>
      </trkpt>
      <trkpt lat="52.15897997841239" lon="-10.434752963483334">
        <ele>29.460000000000001</ele>
        <time>2026-06-30T10:17:48Z</time>
      </trkpt>
      <trkpt lat="52.159718004986644" lon="-10.431406991556287">
        <ele>29.460000000000001</ele>
        <time>2026-06-30T10:18:02Z</time>
      </trkpt>
      <trkpt lat="52.160377996042371" lon="-10.428829975426197">
        <ele>31.379999999999999</ele>
        <time>2026-06-30T10:18:14Z</time>
      </trkpt>
      <trkpt lat="52.161374017596245" lon="-10.426280032843351">
        <ele>32.82</ele>
        <time>2026-06-30T10:18:26Z</time>
      </trkpt>
      <trkpt lat="52.162871025502682" lon="-10.422451011836529">
        <ele>36.670000000000002</ele>
        <time>2026-06-30T10:18:43Z</time>
      </trkpt>
      <trkpt lat="52.16362003237009" lon="-10.420539015904069">
        <ele>35.710000000000001</ele>
        <time>2026-06-30T10:18:53Z</time>
      </trkpt>
      <trkpt lat="52.164374990388751" lon="-10.41839299723506">
        <ele>33.299999999999997</ele>
        <time>2026-06-30T10:19:04Z</time>
      </trkpt>
      <trkpt lat="52.164999023079872" lon="-10.416586026549339">
        <ele>30.420000000000002</ele>
        <time>2026-06-30T10:19:13Z</time>
      </trkpt>
      <trkpt lat="52.165137995034456" lon="-10.416196016594768">
        <ele>29.460000000000001</ele>
        <time>2026-06-30T10:19:15Z</time>
      </trkpt>
      <trkpt lat="52.165197003632784" lon="-10.415989989414811">
        <ele>28.98</ele>
        <time>2026-06-30T10:19:16Z</time>
      </trkpt>
      <trkpt lat="52.165257018059492" lon="-10.415769964456558">
        <ele>28.5</ele>
        <time>2026-06-30T10:19:17Z</time>
      </trkpt>
      <trkpt lat="52.165291970595717" lon="-10.415521021932364">
        <ele>28.02</ele>
        <time>2026-06-30T10:19:18Z</time>
      </trkpt>
      <trkpt lat="52.165323989465833" lon="-10.415240982547402">
        <ele>27.530000000000001</ele>
        <time>2026-06-30T10:19:19Z</time>
      </trkpt>
      <trkpt lat="52.165342010557652" lon="-10.414936970919371">
        <ele>27.050000000000001</ele>
        <time>2026-06-30T10:19:20Z</time>
      </trkpt>
      <trkpt lat="52.165492968633771" lon="-10.412602024152875">
        <ele>25.129999999999999</ele>
        <time>2026-06-30T10:19:28Z</time>
      </trkpt>
      <trkpt lat="52.165552983060479" lon="-10.412354003638029">
        <ele>25.129999999999999</ele>
        <time>2026-06-30T10:19:29Z</time>
      </trkpt>
      <trkpt lat="52.16581198386848" lon="-10.410858001559973">
        <ele>26.09</ele>
        <time>2026-06-30T10:19:36Z</time>
      </trkpt>
      <trkpt lat="52.165999989956617" lon="-10.408612992614508">
        <ele>28.98</ele>
        <time>2026-06-30T10:19:48Z</time>
      </trkpt>
      <trkpt lat="52.166034020483494" lon="-10.40786599740386">
        <ele>29.460000000000001</ele>
        <time>2026-06-30T10:19:52Z</time>
      </trkpt>
      <trkpt lat="52.166022034361959" lon="-10.407685032114387">
        <ele>29.940000000000001</ele>
        <time>2026-06-30T10:19:53Z</time>
      </trkpt>
      <trkpt lat="52.165978029370308" lon="-10.407039960846305">
        <ele>31.859999999999999</ele>
        <time>2026-06-30T10:19:57Z</time>
      </trkpt>
      <trkpt lat="52.165969982743263" lon="-10.406915992498398">
        <ele>32.340000000000003</ele>
        <time>2026-06-30T10:19:58Z</time>
      </trkpt>
      <trkpt lat="52.16596201993525" lon="-10.406796969473362">
        <ele>32.82</ele>
        <time>2026-06-30T10:19:59Z</time>
      </trkpt>
      <trkpt lat="52.165989009663463" lon="-10.406682975590229">
        <ele>33.299999999999997</ele>
        <time>2026-06-30T10:20:00Z</time>
      </trkpt>
      <trkpt lat="52.166025973856449" lon="-10.406520031392574">
        <ele>34.259999999999998</ele>
        <time>2026-06-30T10:20:01Z</time>
      </trkpt>
      <trkpt lat="52.166071990504861" lon="-10.406444007530808">
        <ele>34.259999999999998</ele>
        <time>2026-06-30T10:20:02Z</time>
      </trkpt>
      <trkpt lat="52.166776992380619" lon="-10.405341032892466">
        <ele>32.82</ele>
        <time>2026-06-30T10:20:12Z</time>
      </trkpt>
      <trkpt lat="52.167481994256377" lon="-10.404352974146605">
        <ele>32.340000000000003</ele>
        <time>2026-06-30T10:20:22Z</time>
      </trkpt>
      <trkpt lat="52.167546031996608" lon="-10.404274016618729">
        <ele>32.340000000000003</ele>
        <time>2026-06-30T10:20:23Z</time>
      </trkpt>
      <trkpt lat="52.16832596808672" lon="-10.403637997806072">
        <ele>29.460000000000001</ele>
        <time>2026-06-30T10:20:30Z</time>
      </trkpt>
      <trkpt lat="52.170545998960733" lon="-10.402033030986786">
        <ele>26.09</ele>
        <time>2026-06-30T10:20:45Z</time>
      </trkpt>
      <trkpt lat="52.171347979456186" lon="-10.401348983868957">
        <ele>25.609999999999999</ele>
        <time>2026-06-30T10:20:51Z</time>
      </trkpt>
      <trkpt lat="52.171444036066532" lon="-10.401168018579483">
        <ele>25.609999999999999</ele>
        <time>2026-06-30T10:20:52Z</time>
      </trkpt>
      <trkpt lat="52.171529028564692" lon="-10.400979006662965">
        <ele>25.609999999999999</ele>
        <time>2026-06-30T10:20:53Z</time>
      </trkpt>
      <trkpt lat="52.171574039384723" lon="-10.40075303055346">
        <ele>25.129999999999999</ele>
        <time>2026-06-30T10:20:54Z</time>
      </trkpt>
      <trkpt lat="52.171620978042483" lon="-10.400519007816911">
        <ele>24.649999999999999</ele>
        <time>2026-06-30T10:20:55Z</time>
      </trkpt>
      <trkpt lat="52.171647967770696" lon="-10.40027903392911">
        <ele>24.170000000000002</ele>
        <time>2026-06-30T10:20:56Z</time>
      </trkpt>
      <trkpt lat="52.171819964423776" lon="-10.398253966122866">
        <ele>20.809999999999999</ele>
        <time>2026-06-30T10:21:04Z</time>
      </trkpt>
      <trkpt lat="52.171819964423776" lon="-10.397987002506852">
        <ele>20.32</ele>
        <time>2026-06-30T10:21:05Z</time>
      </trkpt>
      <trkpt lat="52.171804960817099" lon="-10.397719033062458">
        <ele>19.84</ele>
        <time>2026-06-30T10:21:06Z</time>
      </trkpt>
      <trkpt lat="52.17176397331059" lon="-10.397461038082838">
        <ele>19.359999999999999</ele>
        <time>2026-06-30T10:21:07Z</time>
      </trkpt>
      <trkpt lat="52.171726003289223" lon="-10.397205976769328">
        <ele>18.879999999999999</ele>
        <time>2026-06-30T10:21:08Z</time>
      </trkpt>
      <trkpt lat="52.171608991920948" lon="-10.396753018721938">
        <ele>17.920000000000002</ele>
        <time>2026-06-30T10:21:10Z</time>
      </trkpt>
      <trkpt lat="52.171522993594408" lon="-10.396556966006756">
        <ele>17.440000000000001</ele>
        <time>2026-06-30T10:21:11Z</time>
      </trkpt>
      <trkpt lat="52.17142098583281" lon="-10.396367032080889">
        <ele>16.960000000000001</ele>
        <time>2026-06-30T10:21:12Z</time>
      </trkpt>
      <trkpt lat="52.170565025880933" lon="-10.394949987530708">
        <ele>16.48</ele>
        <time>2026-06-30T10:21:20Z</time>
      </trkpt>
      <trkpt lat="52.170480033382773" lon="-10.394748989492655">
        <ele>16.960000000000001</ele>
        <time>2026-06-30T10:21:21Z</time>
      </trkpt>
      <trkpt lat="52.170395962893963" lon="-10.394551008939743">
        <ele>16.960000000000001</ele>
        <time>2026-06-30T10:21:22Z</time>
      </trkpt>
      <trkpt lat="52.170329997316003" lon="-10.394341964274645">
        <ele>16.960000000000001</ele>
        <time>2026-06-30T10:21:23Z</time>
      </trkpt>
      <trkpt lat="52.170300995931029" lon="-10.394113976508379">
        <ele>16.48</ele>
        <time>2026-06-30T10:21:24Z</time>
      </trkpt>
      <trkpt lat="52.170271994546056" lon="-10.393881965428591">
        <ele>16.48</ele>
        <time>2026-06-30T10:21:25Z</time>
      </trkpt>
      <trkpt lat="52.170196976512671" lon="-10.393014019355178">
        <ele>16.48</ele>
        <time>2026-06-30T10:21:29Z</time>
      </trkpt>
      <trkpt lat="52.170204017311335" lon="-10.39284504018724">
        <ele>16.48</ele>
        <time>2026-06-30T10:21:30Z</time>
      </trkpt>
      <trkpt lat="52.170234024524689" lon="-10.392680000513792">
        <ele>16</ele>
        <time>2026-06-30T10:21:31Z</time>
      </trkpt>
      <trkpt lat="52.17030300758779" lon="-10.392618980258703">
        <ele>16</ele>
        <time>2026-06-30T10:21:32Z</time>
      </trkpt>
      <trkpt lat="52.170382970944047" lon="-10.39254697971046">
        <ele>16</ele>
        <time>2026-06-30T10:21:33Z</time>
      </trkpt>
      <trkpt lat="52.170478021726012" lon="-10.392462993040681">
        <ele>15.52</ele>
        <time>2026-06-30T10:21:34Z</time>
      </trkpt>
      <trkpt lat="52.170584974810481" lon="-10.392367020249367">
        <ele>15.52</ele>
        <time>2026-06-30T10:21:35Z</time>
      </trkpt>
      <trkpt lat="52.170701986178756" lon="-10.392263000831008">
        <ele>15.039999999999999</ele>
        <time>2026-06-30T10:21:36Z</time>
      </trkpt>
      <trkpt lat="52.170822015032172" lon="-10.392143977805972">
        <ele>14.56</ele>
        <time>2026-06-30T10:21:37Z</time>
      </trkpt>
      <trkpt lat="52.170913964509964" lon="-10.391959995031357">
        <ele>14.08</ele>
        <time>2026-06-30T10:21:38Z</time>
      </trkpt>
      <trkpt lat="52.171004991978407" lon="-10.391775006428361">
        <ele>13.6</ele>
        <time>2026-06-30T10:21:39Z</time>
      </trkpt>
      <trkpt lat="52.171052014455199" lon="-10.39155799895525">
        <ele>13.119999999999999</ele>
        <time>2026-06-30T10:21:40Z</time>
      </trkpt>
      <trkpt lat="52.171050002798438" lon="-10.391334034502506">
        <ele>12.630000000000001</ele>
        <time>2026-06-30T10:21:41Z</time>
      </trkpt>
      <trkpt lat="52.171022007241845" lon="-10.391121972352266">
        <ele>12.630000000000001</ele>
        <time>2026-06-30T10:21:42Z</time>
      </trkpt>
      <trkpt lat="52.170986970886588" lon="-10.390910999849439">
        <ele>12.15</ele>
        <time>2026-06-30T10:21:43Z</time>
      </trkpt>
      <trkpt lat="52.170936008915305" lon="-10.39069902151823">
        <ele>12.15</ele>
        <time>2026-06-30T10:21:44Z</time>
      </trkpt>
      <trkpt lat="52.170831989496946" lon="-10.390258971601725">
        <ele>12.15</ele>
        <time>2026-06-30T10:21:46Z</time>
      </trkpt>
      <trkpt lat="52.170785972848535" lon="-10.390035007148981">
        <ele>11.67</ele>
        <time>2026-06-30T10:21:47Z</time>
      </trkpt>
      <trkpt lat="52.170769963413477" lon="-10.38979796692729">
        <ele>11.19</ele>
        <time>2026-06-30T10:21:48Z</time>
      </trkpt>
      <trkpt lat="52.17062302865088" lon="-10.387606015428901">
        <ele>7.83</ele>
        <time>2026-06-30T10:21:57Z</time>
      </trkpt>
      <trkpt lat="52.170644989237189" lon="-10.387385990470648">
        <ele>7.35</ele>
        <time>2026-06-30T10:21:58Z</time>
      </trkpt>
      <trkpt lat="52.170681031420827" lon="-10.387015007436275">
        <ele>6.87</ele>
        <time>2026-06-30T10:22:00Z</time>
      </trkpt>
      <trkpt lat="52.170696035027504" lon="-10.386860026046634">
        <ele>6.87</ele>
        <time>2026-06-30T10:22:01Z</time>
      </trkpt>
      <trkpt lat="52.17069000005722" lon="-10.386731028556824">
        <ele>6.39</ele>
        <time>2026-06-30T10:22:02Z</time>
      </trkpt>
      <trkpt lat="52.170662004500628" lon="-10.386632038280368">
        <ele>6.39</ele>
        <time>2026-06-30T10:22:03Z</time>
      </trkpt>
      <trkpt lat="52.170622022822499" lon="-10.38655299693346">
        <ele>5.91</ele>
        <time>2026-06-30T10:22:04Z</time>
      </trkpt>
      <trkpt lat="52.170576006174088" lon="-10.386461969465017">
        <ele>5.91</ele>
        <time>2026-06-30T10:22:05Z</time>
      </trkpt>
      <trkpt lat="52.170523032546043" lon="-10.386359039694071">
        <ele>5.42</ele>
        <time>2026-06-30T10:22:06Z</time>
      </trkpt>
      <trkpt lat="52.170463018119335" lon="-10.386240016669035">
        <ele>5.42</ele>
        <time>2026-06-30T10:22:07Z</time>
      </trkpt>
      <trkpt lat="52.169746030122042" lon="-10.384822972118855">
        <ele>6.87</ele>
        <time>2026-06-30T10:22:16Z</time>
      </trkpt>
      <trkpt lat="52.168479021638632" lon="-10.382319968193769">
        <ele>9.75</ele>
        <time>2026-06-30T10:22:28Z</time>
      </trkpt>
      <trkpt lat="52.167542008683085" lon="-10.38019398227334">
        <ele>9.75</ele>
        <time>2026-06-30T10:22:38Z</time>
      </trkpt>
      <trkpt lat="52.166125969961286" lon="-10.376383988186717">
        <ele>6.39</ele>
        <time>2026-06-30T10:22:53Z</time>
      </trkpt>
      <trkpt lat="52.164775980636477" lon="-10.372585980221629">
        <ele>11.19</ele>
        <time>2026-06-30T10:23:08Z</time>
      </trkpt>
      <trkpt lat="52.164748990908265" lon="-10.37232999689877">
        <ele>11.67</ele>
        <time>2026-06-30T10:23:09Z</time>
      </trkpt>
      <trkpt lat="52.164722001180053" lon="-10.37207200191915">
        <ele>12.15</ele>
        <time>2026-06-30T10:23:10Z</time>
      </trkpt>
      <trkpt lat="52.164622005075216" lon="-10.369001040235162">
        <ele>12.630000000000001</ele>
        <time>2026-06-30T10:23:22Z</time>
      </trkpt>
      <trkpt lat="52.16458898037672" lon="-10.3648960031569">
        <ele>13.6</ele>
        <time>2026-06-30T10:23:38Z</time>
      </trkpt>
      <trkpt lat="52.164450008422136" lon="-10.362812010571361">
        <ele>7.83</ele>
        <time>2026-06-30T10:23:48Z</time>
      </trkpt>
      <trkpt lat="52.164228977635503" lon="-10.361073017120361">
        <ele>8.310000000000001</ele>
        <time>2026-06-30T10:23:57Z</time>
      </trkpt>
      <trkpt lat="52.164131999015808" lon="-10.360606983304024">
        <ele>9.75</ele>
        <time>2026-06-30T10:24:01Z</time>
      </trkpt>
      <trkpt lat="52.164118001237512" lon="-10.360538000240922">
        <ele>9.75</ele>
        <time>2026-06-30T10:24:02Z</time>
      </trkpt>
      <trkpt lat="52.164185978472233" lon="-10.360386036336422">
        <ele>10.23</ele>
        <time>2026-06-30T10:24:03Z</time>
      </trkpt>
      <trkpt lat="52.164238030090928" lon="-10.36036198027432">
        <ele>10.710000000000001</ele>
        <time>2026-06-30T10:24:04Z</time>
      </trkpt>
      <trkpt lat="52.164301984012127" lon="-10.360330967232585">
        <ele>11.19</ele>
        <time>2026-06-30T10:24:05Z</time>
      </trkpt>
      <trkpt lat="52.164379013702273" lon="-10.360294003039598">
        <ele>11.19</ele>
        <time>2026-06-30T10:24:06Z</time>
      </trkpt>
      <trkpt lat="52.165206978097558" lon="-10.359900975599885">
        <ele>10.710000000000001</ele>
        <time>2026-06-30T10:24:13Z</time>
      </trkpt>
      <trkpt lat="52.167096007615328" lon="-10.359002016484737">
        <ele>13.119999999999999</ele>
        <time>2026-06-30T10:24:25Z</time>
      </trkpt>
      <trkpt lat="52.169764973223209" lon="-10.357669964432716">
        <ele>17.920000000000002</ele>
        <time>2026-06-30T10:24:41Z</time>
      </trkpt>
      <trkpt lat="52.171750981360674" lon="-10.356577970087528">
        <ele>18.879999999999999</ele>
        <time>2026-06-30T10:24:54Z</time>
      </trkpt>
      <trkpt lat="52.172584980726242" lon="-10.356119982898235">
        <ele>16.960000000000001</ele>
        <time>2026-06-30T10:25:02Z</time>
      </trkpt>
      <trkpt lat="52.172784972935915" lon="-10.356009006500244">
        <ele>16.960000000000001</ele>
        <time>2026-06-30T10:25:09Z</time>
      </trkpt>
      <trkpt lat="52.172870971262455" lon="-10.355955027043819">
        <ele>16.960000000000001</ele>
        <time>2026-06-30T10:25:10Z</time>
      </trkpt>
      <trkpt lat="52.172870971262455" lon="-10.355914961546659">
        <ele>16.960000000000001</ele>
        <time>2026-06-30T10:25:11Z</time>
      </trkpt>
      <trkpt lat="52.172870971262455" lon="-10.355863999575377">
        <ele>17.440000000000001</ele>
        <time>2026-06-30T10:25:12Z</time>
      </trkpt>
      <trkpt lat="52.172857979312539" lon="-10.355784958228469">
        <ele>17.440000000000001</ele>
        <time>2026-06-30T10:25:13Z</time>
      </trkpt>
      <trkpt lat="52.172829983755946" lon="-10.355718992650509">
        <ele>17.440000000000001</ele>
        <time>2026-06-30T10:25:14Z</time>
      </trkpt>
      <trkpt lat="52.17279695905745" lon="-10.355639029294252">
        <ele>17.920000000000002</ele>
        <time>2026-06-30T10:25:15Z</time>
      </trkpt>
      <trkpt lat="52.172762006521225" lon="-10.355556970462203">
        <ele>18.399999999999999</ele>
        <time>2026-06-30T10:25:16Z</time>
      </trkpt>
      <trkpt lat="52.172731999307871" lon="-10.355483964085579">
        <ele>18.399999999999999</ele>
        <time>2026-06-30T10:25:17Z</time>
      </trkpt>
      <trkpt lat="52.172704003751278" lon="-10.355417998507619">
        <ele>18.879999999999999</ele>
        <time>2026-06-30T10:25:18Z</time>
      </trkpt>
      <trkpt lat="52.172682965174317" lon="-10.355367958545685">
        <ele>19.359999999999999</ele>
        <time>2026-06-30T10:25:19Z</time>
      </trkpt>
      <trkpt lat="52.17266796156764" lon="-10.355333006009459">
        <ele>19.359999999999999</ele>
        <time>2026-06-30T10:25:20Z</time>
      </trkpt>
      <trkpt lat="52.172655975446105" lon="-10.355302998796105">
        <ele>19.84</ele>
        <time>2026-06-30T10:25:21Z</time>
      </trkpt>
      <trkpt lat="52.172736022621393" lon="-10.355215994641185">
        <ele>20.32</ele>
        <time>2026-06-30T10:25:22Z</time>
      </trkpt>
      <trkpt lat="52.173026958480477" lon="-10.35458299331367">
        <ele>20.809999999999999</ele>
        <time>2026-06-30T10:25:28Z</time>
      </trkpt>
      <trkpt lat="52.173322001472116" lon="-10.354106985032558">
        <ele>21.77</ele>
        <time>2026-06-30T10:25:34Z</time>
      </trkpt>
      <trkpt lat="52.173604974523187" lon="-10.353710018098354">
        <ele>27.050000000000001</ele>
        <time>2026-06-30T10:25:43Z</time>
      </trkpt>
      <trkpt lat="52.173628024756908" lon="-10.353374993428588">
        <ele>27.530000000000001</ele>
        <time>2026-06-30T10:25:52Z</time>
      </trkpt>
      <trkpt lat="52.173629030585289" lon="-10.353367030620575">
        <ele>27.530000000000001</ele>
        <time>2026-06-30T10:26:09Z</time>
      </trkpt>
      <trkpt lat="52.173680998384953" lon="-10.353437019512057">
        <ele>29.460000000000001</ele>
        <time>2026-06-30T10:52:24Z</time>
      </trkpt>
      <trkpt lat="52.173621989786625" lon="-10.353373987600207">
        <ele>20.809999999999999</ele>
        <time>2026-06-30T10:53:05Z</time>
      </trkpt>
      <trkpt lat="52.173617966473103" lon="-10.353371975943446">
        <ele>21.289999999999999</ele>
        <time>2026-06-30T10:53:54Z</time>
      </trkpt>
      <trkpt lat="52.173614026978612" lon="-10.353353032842278">
        <ele>20.809999999999999</ele>
        <time>2026-06-30T10:54:40Z</time>
      </trkpt>
      <trkpt lat="52.17361100949347" lon="-10.353354038670659">
        <ele>20.809999999999999</ele>
        <time>2026-06-30T10:55:23Z</time>
      </trkpt>
      <trkpt lat="52.173608997836709" lon="-10.353356972336769">
        <ele>20.809999999999999</ele>
        <time>2026-06-30T10:56:08Z</time>
      </trkpt>
      <trkpt lat="52.17361000366509" lon="-10.353353032842278">
        <ele>21.289999999999999</ele>
        <time>2026-06-30T10:56:56Z</time>
      </trkpt>
      <trkpt lat="52.17361100949347" lon="-10.35335898399353">
        <ele>21.289999999999999</ele>
        <time>2026-06-30T10:57:34Z</time>
      </trkpt>
      <trkpt lat="52.173615032806993" lon="-10.35335797816515">
        <ele>21.77</ele>
        <time>2026-06-30T10:58:24Z</time>
      </trkpt>
      <trkpt lat="52.173615032806993" lon="-10.35335898399353">
        <ele>21.77</ele>
        <time>2026-06-30T10:59:06Z</time>
      </trkpt>
      <trkpt lat="52.173616960644722" lon="-10.35335797816515">
        <ele>21.77</ele>
        <time>2026-06-30T10:59:55Z</time>
      </trkpt>
      <trkpt lat="52.173616960644722" lon="-10.35335797816515">
        <ele>21.289999999999999</ele>
        <time>2026-06-30T11:00:38Z</time>
      </trkpt>
      <trkpt lat="52.173616960644722" lon="-10.35335797816515">
        <ele>21.289999999999999</ele>
        <time>2026-06-30T11:00:45Z</time>
      </trkpt>
      <trkpt lat="52.173627018928528" lon="-10.353597030043602">
        <ele>20.32</ele>
        <time>2026-06-30T11:00:52Z</time>
      </trkpt>
      <trkpt lat="52.1735870372504" lon="-10.353646986186504">
        <ele>20.32</ele>
        <time>2026-06-30T11:00:53Z</time>
      </trkpt>
      <trkpt lat="52.173359971493483" lon="-10.354017969220877">
        <ele>20.32</ele>
        <time>2026-06-30T11:00:58Z</time>
      </trkpt>
      <trkpt lat="52.173188980668783" lon="-10.3542619664222">
        <ele>20.32</ele>
        <time>2026-06-30T11:01:01Z</time>
      </trkpt>
      <trkpt lat="52.172743985429406" lon="-10.355187999084592">
        <ele>18.399999999999999</ele>
        <time>2026-06-30T11:01:12Z</time>
      </trkpt>
      <trkpt lat="52.172689000144601" lon="-10.355382040143013">
        <ele>17.920000000000002</ele>
        <time>2026-06-30T11:01:18Z</time>
      </trkpt>
      <trkpt lat="52.172710038721561" lon="-10.355433002114296">
        <ele>17.920000000000002</ele>
        <time>2026-06-30T11:01:19Z</time>
      </trkpt>
      <trkpt lat="52.172739040106535" lon="-10.355499973520637">
        <ele>17.920000000000002</ele>
        <time>2026-06-30T11:01:20Z</time>
      </trkpt>
      <trkpt lat="52.172770975157619" lon="-10.355578009039164">
        <ele>17.440000000000001</ele>
        <time>2026-06-30T11:01:21Z</time>
      </trkpt>
      <trkpt lat="52.172803999856114" lon="-10.35565503872931">
        <ele>17.440000000000001</ele>
        <time>2026-06-30T11:01:22Z</time>
      </trkpt>
      <trkpt lat="52.172831995412707" lon="-10.355722010135651">
        <ele>17.440000000000001</ele>
        <time>2026-06-30T11:01:23Z</time>
      </trkpt>
      <trkpt lat="52.172911036759615" lon="-10.356075977906585">
        <ele>16.960000000000001</ele>
        <time>2026-06-30T11:01:29Z</time>
      </trkpt>
      <trkpt lat="52.173252012580633" lon="-10.356831019744277">
        <ele>16</ele>
        <time>2026-06-30T11:01:35Z</time>
      </trkpt>
      <trkpt lat="52.174142003059387" lon="-10.358995981514454">
        <ele>12.15</ele>
        <time>2026-06-30T11:01:47Z</time>
      </trkpt>
      <trkpt lat="52.174892015755177" lon="-10.361208971589804">
        <ele>4.94</ele>
        <time>2026-06-30T11:01:58Z</time>
      </trkpt>
      <trkpt lat="52.174982037395239" lon="-10.361368982121348">
        <ele>4.46</ele>
        <time>2026-06-30T11:01:59Z</time>
      </trkpt>
      <trkpt lat="52.175069963559508" lon="-10.361525975167751">
        <ele>4.46</ele>
        <time>2026-06-30T11:02:00Z</time>
      </trkpt>
      <trkpt lat="52.175186974927783" lon="-10.361624965444207">
        <ele>3.5</ele>
        <time>2026-06-30T11:02:01Z</time>
      </trkpt>
      <trkpt lat="52.175309015437961" lon="-10.361718004569411">
        <ele>3.02</ele>
        <time>2026-06-30T11:02:02Z</time>
      </trkpt>
      <trkpt lat="52.176948012784123" lon="-10.362961040809751">
        <ele>1.1</ele>
        <time>2026-06-30T11:02:14Z</time>
      </trkpt>
      <trkpt lat="52.178846010938287" lon="-10.363675011321902">
        <ele>-1.3</ele>
        <time>2026-06-30T11:02:27Z</time>
      </trkpt>
      <trkpt lat="52.180489031597972" lon="-10.363626983016729">
        <ele>-2.27</ele>
        <time>2026-06-30T11:02:38Z</time>
      </trkpt>
      <trkpt lat="52.183102006092668" lon="-10.363466972485185">
        <ele>-1.79</ele>
        <time>2026-06-30T11:02:55Z</time>
      </trkpt>
      <trkpt lat="52.184123005717993" lon="-10.363424979150295">
        <ele>-1.3</ele>
        <time>2026-06-30T11:03:02Z</time>
      </trkpt>
      <trkpt lat="52.18424797989428" lon="-10.363468984141946">
        <ele>-1.3</ele>
        <time>2026-06-30T11:03:03Z</time>
      </trkpt>
      <trkpt lat="52.184753995388746" lon="-10.363711975514889">
        <ele>-0.34</ele>
        <time>2026-06-30T11:03:08Z</time>
      </trkpt>
      <trkpt lat="52.184973014518619" lon="-10.363840973004699">
        <ele>-0.34</ele>
        <time>2026-06-30T11:03:10Z</time>
      </trkpt>
      <trkpt lat="52.184987012296915" lon="-10.363855976611376">
        <ele>-0.34</ele>
        <time>2026-06-30T11:03:11Z</time>
      </trkpt>
      <trkpt lat="52.185671981424093" lon="-10.364612024277449">
        <ele>3.02</ele>
        <time>2026-06-30T11:03:19Z</time>
      </trkpt>
      <trkpt lat="52.186957010999322" lon="-10.366514967754483">
        <ele>3.02</ele>
        <time>2026-06-30T11:03:35Z</time>
      </trkpt>
      <trkpt lat="52.187693025916815" lon="-10.368405003100634">
        <ele>3.98</ele>
        <time>2026-06-30T11:03:46Z</time>
      </trkpt>
      <trkpt lat="52.188357040286064" lon="-10.370203005149961">
        <ele>7.83</ele>
        <time>2026-06-30T11:03:56Z</time>
      </trkpt>
      <trkpt lat="52.188443960621953" lon="-10.370363015681505">
        <ele>7.83</ele>
        <time>2026-06-30T11:03:57Z</time>
      </trkpt>
      <trkpt lat="52.189377034083009" lon="-10.371819958090782">
        <ele>7.35</ele>
        <time>2026-06-30T11:04:07Z</time>
      </trkpt>
      <trkpt lat="52.190421000123024" lon="-10.373777970671654">
        <ele>5.91</ele>
        <time>2026-06-30T11:04:22Z</time>
      </trkpt>
      <trkpt lat="52.190834982320666" lon="-10.374469980597496">
        <ele>3.5</ele>
        <time>2026-06-30T11:04:30Z</time>
      </trkpt>
      <trkpt lat="52.190939001739025" lon="-10.374509962275624">
        <ele>2.06</ele>
        <time>2026-06-30T11:04:33Z</time>
      </trkpt>
      <trkpt lat="52.190973032265902" lon="-10.374462017789483">
        <ele>2.06</ele>
        <time>2026-06-30T11:04:34Z</time>
      </trkpt>
      <trkpt lat="52.191023994237185" lon="-10.374398985877633">
        <ele>1.58</ele>
        <time>2026-06-30T11:04:35Z</time>
      </trkpt>
      <trkpt lat="52.191712986677885" lon="-10.373648973181844">
        <ele>2.06</ele>
        <time>2026-06-30T11:04:44Z</time>
      </trkpt>
      <trkpt lat="52.191835027188063" lon="-10.373434983193874">
        <ele>3.02</ele>
        <time>2026-06-30T11:04:46Z</time>
      </trkpt>
      <trkpt lat="52.191897975280881" lon="-10.373379997909069">
        <ele>3.02</ele>
        <time>2026-06-30T11:04:47Z</time>
      </trkpt>
      <trkpt lat="52.191971987485886" lon="-10.37335803732276">
        <ele>3.02</ele>
        <time>2026-06-30T11:04:48Z</time>
      </trkpt>
      <trkpt lat="52.192053962498903" lon="-10.37333800457418">
        <ele>3.5</ele>
        <time>2026-06-30T11:04:49Z</time>
      </trkpt>
      <trkpt lat="52.192144989967346" lon="-10.3733179718256">
        <ele>3.98</ele>
        <time>2026-06-30T11:04:50Z</time>
      </trkpt>
      <trkpt lat="52.193146962672472" lon="-10.37310398183763">
        <ele>7.35</ele>
        <time>2026-06-30T11:05:00Z</time>
      </trkpt>
      <trkpt lat="52.193246958777308" lon="-10.373098030686378">
        <ele>7.35</ele>
        <time>2026-06-30T11:05:01Z</time>
      </trkpt>
      <trkpt lat="52.193535966798663" lon="-10.373170031234622">
        <ele>7.83</ele>
        <time>2026-06-30T11:05:04Z</time>
      </trkpt>
      <trkpt lat="52.193641997873783" lon="-10.373197020962834">
        <ele>7.83</ele>
        <time>2026-06-30T11:05:05Z</time>
      </trkpt>
      <trkpt lat="52.193712992593646" lon="-10.373165002092719">
        <ele>8.310000000000001</ele>
        <time>2026-06-30T11:05:06Z</time>
      </trkpt>
      <trkpt lat="52.193811982870102" lon="-10.373119991272688">
        <ele>8.789999999999999</ele>
        <time>2026-06-30T11:05:07Z</time>
      </trkpt>
      <trkpt lat="52.193920025601983" lon="-10.37308101542294">
        <ele>9.27</ele>
        <time>2026-06-30T11:05:08Z</time>
      </trkpt>
      <trkpt lat="52.195014031603932" lon="-10.372868031263351">
        <ele>13.119999999999999</ele>
        <time>2026-06-30T11:05:16Z</time>
      </trkpt>
      <trkpt lat="52.196490000933409" lon="-10.372482966631651">
        <ele>19.84</ele>
        <time>2026-06-30T11:05:28Z</time>
      </trkpt>
      <trkpt lat="52.197807971388102" lon="-10.372093040496111">
        <ele>22.73</ele>
        <time>2026-06-30T11:05:39Z</time>
      </trkpt>
      <trkpt lat="52.197892963886261" lon="-10.372103014960885">
        <ele>22.73</ele>
        <time>2026-06-30T11:05:40Z</time>
      </trkpt>
      <trkpt lat="52.197963958606124" lon="-10.372138973325491">
        <ele>22.73</ele>
        <time>2026-06-30T11:05:41Z</time>
      </trkpt>
      <trkpt lat="52.198041994124651" lon="-10.372231006622314">
        <ele>22.73</ele>
        <time>2026-06-30T11:05:42Z</time>
      </trkpt>
      <trkpt lat="52.198084993287921" lon="-10.372351035475731">
        <ele>22.73</ele>
        <time>2026-06-30T11:05:43Z</time>
      </trkpt>
      <trkpt lat="52.198128998279572" lon="-10.372476009652019">
        <ele>22.73</ele>
        <time>2026-06-30T11:05:44Z</time>
      </trkpt>
      <trkpt lat="52.198148025199771" lon="-10.372532000765204">
        <ele>23.210000000000001</ele>
        <time>2026-06-30T11:05:45Z</time>
      </trkpt>
      <trkpt lat="52.198234023526311" lon="-10.372626967728138">
        <ele>23.210000000000001</ele>
        <time>2026-06-30T11:05:46Z</time>
      </trkpt>
      <trkpt lat="52.198282973840833" lon="-10.372681031003594">
        <ele>23.210000000000001</ele>
        <time>2026-06-30T11:05:47Z</time>
      </trkpt>
      <trkpt lat="52.19834198243916" lon="-10.372745990753174">
        <ele>23.210000000000001</ele>
        <time>2026-06-30T11:05:48Z</time>
      </trkpt>
      <trkpt lat="52.198369977995753" lon="-10.372745990753174">
        <ele>23.210000000000001</ele>
        <time>2026-06-30T11:05:49Z</time>
      </trkpt>
      <trkpt lat="52.198449019342661" lon="-10.372745990753174">
        <ele>23.210000000000001</ele>
        <time>2026-06-30T11:05:50Z</time>
      </trkpt>
      <trkpt lat="52.198493024334311" lon="-10.372666027396917">
        <ele>23.210000000000001</ele>
        <time>2026-06-30T11:05:51Z</time>
      </trkpt>
      <trkpt lat="52.198549015447497" lon="-10.3725650254637">
        <ele>23.210000000000001</ele>
        <time>2026-06-30T11:05:52Z</time>
      </trkpt>
      <trkpt lat="52.199312020093203" lon="-10.371175976470113">
        <ele>26.09</ele>
        <time>2026-06-30T11:06:02Z</time>
      </trkpt>
      <trkpt lat="52.200543992221355" lon="-10.368770034983754">
        <ele>30.899999999999999</ele>
        <time>2026-06-30T11:06:18Z</time>
      </trkpt>
      <trkpt lat="52.200536029413342" lon="-10.368689987808466">
        <ele>30.899999999999999</ele>
        <time>2026-06-30T11:06:19Z</time>
      </trkpt>
      <trkpt lat="52.200504010543227" lon="-10.368599966168404">
        <ele>30.899999999999999</ele>
        <time>2026-06-30T11:06:20Z</time>
      </trkpt>
      <trkpt lat="52.200451036915183" lon="-10.368367033079267">
        <ele>30.899999999999999</ele>
        <time>2026-06-30T11:06:22Z</time>
      </trkpt>
      <trkpt lat="52.200461011379957" lon="-10.368266031146049">
        <ele>31.379999999999999</ele>
        <time>2026-06-30T11:06:23Z</time>
      </trkpt>
      <trkpt lat="52.200499987229705" lon="-10.368164023384452">
        <ele>31.859999999999999</ele>
        <time>2026-06-30T11:06:24Z</time>
      </trkpt>
      <trkpt lat="52.2005520388484" lon="-10.368080958724022">
        <ele>31.859999999999999</ele>
        <time>2026-06-30T11:06:25Z</time>
      </trkpt>
      <trkpt lat="52.200610963627696" lon="-10.36798800341785">
        <ele>31.859999999999999</ele>
        <time>2026-06-30T11:06:26Z</time>
      </trkpt>
      <trkpt lat="52.201471030712128" lon="-10.366619993001223">
        <ele>34.259999999999998</ele>
        <time>2026-06-30T11:06:37Z</time>
      </trkpt>
      <trkpt lat="52.202453976497054" lon="-10.364710008725524">
        <ele>33.299999999999997</ele>
        <time>2026-06-30T11:06:50Z</time>
      </trkpt>
      <trkpt lat="52.203011959791183" lon="-10.363290030509233">
        <ele>30.420000000000002</ele>
        <time>2026-06-30T11:06:59Z</time>
      </trkpt>
      <trkpt lat="52.203165013343096" lon="-10.362907983362675">
        <ele>29.460000000000001</ele>
        <time>2026-06-30T11:07:03Z</time>
      </trkpt>
      <trkpt lat="52.203348996117711" lon="-10.36244697868824">
        <ele>28.98</ele>
        <time>2026-06-30T11:07:11Z</time>
      </trkpt>
      <trkpt lat="52.203679997473955" lon="-10.361503008753061">
        <ele>28.5</ele>
        <time>2026-06-30T11:07:18Z</time>
      </trkpt>
      <trkpt lat="52.204119963571429" lon="-10.360173974186182">
        <ele>29.460000000000001</ele>
        <time>2026-06-30T11:07:27Z</time>
      </trkpt>
      <trkpt lat="52.204176960512996" lon="-10.360003989189863">
        <ele>29.940000000000001</ele>
        <time>2026-06-30T11:07:29Z</time>
      </trkpt>
      <trkpt lat="52.204192969948053" lon="-10.359955038875341">
        <ele>29.940000000000001</ele>
        <time>2026-06-30T11:07:30Z</time>
      </trkpt>
      <trkpt lat="52.204203028231859" lon="-10.359926037490368">
        <ele>30.420000000000002</ele>
        <time>2026-06-30T11:07:31Z</time>
      </trkpt>
      <trkpt lat="52.204262036830187" lon="-10.359892006963491">
        <ele>30.420000000000002</ele>
        <time>2026-06-30T11:07:32Z</time>
      </trkpt>
      <trkpt lat="52.20429397188127" lon="-10.359907010570168">
        <ele>30.420000000000002</ele>
        <time>2026-06-30T11:07:33Z</time>
      </trkpt>
      <trkpt lat="52.204348035156727" lon="-10.359934000298381">
        <ele>30.420000000000002</ele>
        <time>2026-06-30T11:07:34Z</time>
      </trkpt>
      <trkpt lat="52.20441902987659" lon="-10.359969036653638">
        <ele>30.899999999999999</ele>
        <time>2026-06-30T11:07:35Z</time>
      </trkpt>
      <trkpt lat="52.204495975747705" lon="-10.360007006675005">
        <ele>30.420000000000002</ele>
        <time>2026-06-30T11:07:36Z</time>
      </trkpt>
      <trkpt lat="52.205729959532619" lon="-10.360627016052604">
        <ele>26.57</ele>
        <time>2026-06-30T11:07:49Z</time>
      </trkpt>
      <trkpt lat="52.206744002178311" lon="-10.3610900323838">
        <ele>23.210000000000001</ele>
        <time>2026-06-30T11:07:59Z</time>
      </trkpt>
      <trkpt lat="52.206840980798006" lon="-10.361094977706671">
        <ele>22.25</ele>
        <time>2026-06-30T11:08:00Z</time>
      </trkpt>
      <trkpt lat="52.206928990781307" lon="-10.361015014350414">
        <ele>21.77</ele>
        <time>2026-06-30T11:08:01Z</time>
      </trkpt>
      <trkpt lat="52.207022029906511" lon="-10.360931027680635">
        <ele>21.289999999999999</ele>
        <time>2026-06-30T11:08:02Z</time>
      </trkpt>
      <trkpt lat="52.207119008526206" lon="-10.360843017697334">
        <ele>20.809999999999999</ele>
        <time>2026-06-30T11:08:03Z</time>
      </trkpt>
      <trkpt lat="52.208347041159868" lon="-10.359610039740801">
        <ele>22.25</ele>
        <time>2026-06-30T11:08:14Z</time>
      </trkpt>
      <trkpt lat="52.209903979673982" lon="-10.357723021879792">
        <ele>19.84</ele>
        <time>2026-06-30T11:08:26Z</time>
      </trkpt>
      <trkpt lat="52.211250029504299" lon="-10.356055023148656">
        <ele>18.879999999999999</ele>
        <time>2026-06-30T11:08:36Z</time>
      </trkpt>
      <trkpt lat="52.211375003680587" lon="-10.355941029265523">
        <ele>18.879999999999999</ele>
        <time>2026-06-30T11:08:37Z</time>
      </trkpt>
      <trkpt lat="52.211508024483919" lon="-10.355856958776712">
        <ele>18.879999999999999</ele>
        <time>2026-06-30T11:08:38Z</time>
      </trkpt>
      <trkpt lat="52.212586021050811" lon="-10.355239966884255">
        <ele>19.359999999999999</ele>
        <time>2026-06-30T11:08:48Z</time>
      </trkpt>
      <trkpt lat="52.212847033515573" lon="-10.355061013251543">
        <ele>19.359999999999999</ele>
        <time>2026-06-30T11:08:51Z</time>
      </trkpt>
      <trkpt lat="52.212901012971997" lon="-10.354939978569746">
        <ele>19.359999999999999</ele>
        <time>2026-06-30T11:08:52Z</time>
      </trkpt>
      <trkpt lat="52.212963039055467" lon="-10.354803018271923">
        <ele>19.359999999999999</ele>
        <time>2026-06-30T11:08:53Z</time>
      </trkpt>
      <trkpt lat="52.213784968480468" lon="-10.352975009009242">
        <ele>19.84</ele>
        <time>2026-06-30T11:09:04Z</time>
      </trkpt>
      <trkpt lat="52.213946990668774" lon="-10.352729000151157">
        <ele>19.84</ele>
        <time>2026-06-30T11:09:06Z</time>
      </trkpt>
      <trkpt lat="52.21402301453054" lon="-10.352614000439644">
        <ele>19.84</ele>
        <time>2026-06-30T11:09:07Z</time>
      </trkpt>
      <trkpt lat="52.214104989543557" lon="-10.352503024041653">
        <ele>19.84</ele>
        <time>2026-06-30T11:09:08Z</time>
      </trkpt>
      <trkpt lat="52.214909987524152" lon="-10.351269962266088">
        <ele>16.48</ele>
        <time>2026-06-30T11:09:17Z</time>
      </trkpt>
      <trkpt lat="52.215077038854361" lon="-10.35077802836895">
        <ele>16</ele>
        <time>2026-06-30T11:09:20Z</time>
      </trkpt>
      <trkpt lat="52.215124983340502" lon="-10.350674008950591">
        <ele>15.52</ele>
        <time>2026-06-30T11:09:21Z</time>
      </trkpt>
      <trkpt lat="52.215166976675391" lon="-10.350615000352263">
        <ele>15.039999999999999</ele>
        <time>2026-06-30T11:09:22Z</time>
      </trkpt>
      <trkpt lat="52.215239983052015" lon="-10.350598990917206">
        <ele>14.08</ele>
        <time>2026-06-30T11:09:23Z</time>
      </trkpt>
      <trkpt lat="52.215290023013949" lon="-10.350659005343914">
        <ele>13.6</ele>
        <time>2026-06-30T11:09:24Z</time>
      </trkpt>
      <trkpt lat="52.215342996641994" lon="-10.350723965093493">
        <ele>13.119999999999999</ele>
        <time>2026-06-30T11:09:25Z</time>
      </trkpt>
      <trkpt lat="52.215402005240321" lon="-10.350795965641737">
        <ele>12.630000000000001</ele>
        <time>2026-06-30T11:09:26Z</time>
      </trkpt>
      <trkpt lat="52.215467970818281" lon="-10.350876012817025">
        <ele>12.15</ele>
        <time>2026-06-30T11:09:27Z</time>
      </trkpt>
      <trkpt lat="52.216112036257982" lon="-10.351657960563898">
        <ele>8.789999999999999</ele>
        <time>2026-06-30T11:09:35Z</time>
      </trkpt>
      <trkpt lat="52.216193005442619" lon="-10.351757034659386">
        <ele>7.83</ele>
        <time>2026-06-30T11:09:36Z</time>
      </trkpt>
      <trkpt lat="52.216262994334102" lon="-10.351842027157545">
        <ele>7.35</ele>
        <time>2026-06-30T11:09:37Z</time>
      </trkpt>
      <trkpt lat="52.216301970183849" lon="-10.351888965815306">
        <ele>6.87</ele>
        <time>2026-06-30T11:09:38Z</time>
      </trkpt>
      <trkpt lat="52.216386962682009" lon="-10.351900029927492">
        <ele>6.39</ele>
        <time>2026-06-30T11:09:39Z</time>
      </trkpt>
      <trkpt lat="52.216442031785846" lon="-10.351906986907125">
        <ele>5.42</ele>
        <time>2026-06-30T11:09:40Z</time>
      </trkpt>
      <trkpt lat="52.21649500541389" lon="-10.351845966652036">
        <ele>4.94</ele>
        <time>2026-06-30T11:09:41Z</time>
      </trkpt>
      <trkpt lat="52.216515960171819" lon="-10.351735996082425">
        <ele>4.46</ele>
        <time>2026-06-30T11:09:42Z</time>
      </trkpt>
      <trkpt lat="52.216515960171819" lon="-10.351609010249376">
        <ele>3.5</ele>
        <time>2026-06-30T11:09:43Z</time>
      </trkpt>
      <trkpt lat="52.216515960171819" lon="-10.35146601498127">
        <ele>3.5</ele>
        <time>2026-06-30T11:09:44Z</time>
      </trkpt>
      <trkpt lat="52.216516966000199" lon="-10.35024200566113">
        <ele>1.58</ele>
        <time>2026-06-30T11:09:51Z</time>
      </trkpt>
      <trkpt lat="52.21649500541389" lon="-10.350087024271488">
        <ele>1.58</ele>
        <time>2026-06-30T11:09:52Z</time>
      </trkpt>
      <trkpt lat="52.216447982937098" lon="-10.349932964891195">
        <ele>1.58</ele>
        <time>2026-06-30T11:09:53Z</time>
      </trkpt>
      <trkpt lat="52.21632300876081" lon="-10.349529040977359">
        <ele>1.58</ele>
        <time>2026-06-30T11:09:57Z</time>
      </trkpt>
      <trkpt lat="52.216512020677328" lon="-10.349313039332628">
        <ele>1.58</ele>
        <time>2026-06-30T11:09:59Z</time>
      </trkpt>
      <trkpt lat="52.216648980975151" lon="-10.349473971873522">
        <ele>0.14</ele>
        <time>2026-06-30T11:10:04Z</time>
      </trkpt>
      <trkpt lat="52.216692985966802" lon="-10.349526023492217">
        <ele>-0.34</ele>
        <time>2026-06-30T11:10:05Z</time>
      </trkpt>
      <trkpt lat="52.216751994565129" lon="-10.349596012383699">
        <ele>-0.34</ele>
        <time>2026-06-30T11:10:06Z</time>
      </trkpt>
      <trkpt lat="52.216823995113373" lon="-10.349679999053478">
        <ele>-0.82</ele>
        <time>2026-06-30T11:10:07Z</time>
      </trkpt>
      <trkpt lat="52.21690496429801" lon="-10.349761974066496">
        <ele>-0.82</ele>
        <time>2026-06-30T11:10:08Z</time>
      </trkpt>
      <trkpt lat="52.217943985015154" lon="-10.350689012557268">
        <ele>-1.3</ele>
        <time>2026-06-30T11:10:18Z</time>
      </trkpt>
      <trkpt lat="52.219098005443811" lon="-10.351972030475736">
        <ele>0.14</ele>
        <time>2026-06-30T11:10:29Z</time>
      </trkpt>
      <trkpt lat="52.219161037355661" lon="-10.352128017693758">
        <ele>0.14</ele>
        <time>2026-06-30T11:10:30Z</time>
      </trkpt>
      <trkpt lat="52.219218034297228" lon="-10.352270007133484">
        <ele>0.62</ele>
        <time>2026-06-30T11:10:31Z</time>
      </trkpt>
      <trkpt lat="52.219322975724936" lon="-10.352534037083387">
        <ele>1.58</ele>
        <time>2026-06-30T11:10:33Z</time>
      </trkpt>
      <trkpt lat="52.219391958788037" lon="-10.352635961025953">
        <ele>3.02</ele>
        <time>2026-06-30T11:10:34Z</time>
      </trkpt>
      <trkpt lat="52.219463037326932" lon="-10.352698992937803">
        <ele>3.5</ele>
        <time>2026-06-30T11:10:35Z</time>
      </trkpt>
      <trkpt lat="52.219541994854808" lon="-10.352768981829286">
        <ele>4.46</ele>
        <time>2026-06-30T11:10:36Z</time>
      </trkpt>
      <trkpt lat="52.219605026766658" lon="-10.352737968787551">
        <ele>4.94</ele>
        <time>2026-06-30T11:10:37Z</time>
      </trkpt>
      <trkpt lat="52.219651965424418" lon="-10.352646019309759">
        <ele>6.39</ele>
        <time>2026-06-30T11:10:38Z</time>
      </trkpt>
      <trkpt lat="52.219651965424418" lon="-10.352646019309759">
        <ele>7.35</ele>
        <time>2026-06-30T11:10:39Z</time>
      </trkpt>
      <trkpt lat="52.219728995114565" lon="-10.352388024330139">
        <ele>8.310000000000001</ele>
        <time>2026-06-30T11:10:40Z</time>
      </trkpt>
      <trkpt lat="52.219768976792693" lon="-10.352237988263369">
        <ele>8.789999999999999</ele>
        <time>2026-06-30T11:10:41Z</time>
      </trkpt>
      <trkpt lat="52.220211960375309" lon="-10.350739974528551">
        <ele>15.039999999999999</ele>
        <time>2026-06-30T11:10:49Z</time>
      </trkpt>
      <trkpt lat="52.221044031903148" lon="-10.349057978019118">
        <ele>20.809999999999999</ele>
        <time>2026-06-30T11:10:59Z</time>
      </trkpt>
      <trkpt lat="52.222113981842995" lon="-10.347560970112681">
        <ele>25.129999999999999</ele>
        <time>2026-06-30T11:11:09Z</time>
      </trkpt>
      <trkpt lat="52.222803980112076" lon="-10.346539970487356">
        <ele>28.5</ele>
        <time>2026-06-30T11:11:15Z</time>
      </trkpt>
      <trkpt lat="52.222924008965492" lon="-10.346405021846294">
        <ele>28.98</ele>
        <time>2026-06-30T11:11:16Z</time>
      </trkpt>
      <trkpt lat="52.223059041425586" lon="-10.34631198272109">
        <ele>28.98</ele>
        <time>2026-06-30T11:11:17Z</time>
      </trkpt>
      <trkpt lat="52.223443016409874" lon="-10.346055999398232">
        <ele>30.420000000000002</ele>
        <time>2026-06-30T11:11:20Z</time>
      </trkpt>
      <trkpt lat="52.223549969494343" lon="-10.345913004130125">
        <ele>30.899999999999999</ele>
        <time>2026-06-30T11:11:21Z</time>
      </trkpt>
      <trkpt lat="52.22451196052134" lon="-10.3446139767766">
        <ele>30.420000000000002</ele>
        <time>2026-06-30T11:11:30Z</time>
      </trkpt>
      <trkpt lat="52.224615979939699" lon="-10.344473998993635">
        <ele>29.940000000000001</ele>
        <time>2026-06-30T11:11:31Z</time>
      </trkpt>
      <trkpt lat="52.224704995751381" lon="-10.344307031482458">
        <ele>29.940000000000001</ele>
        <time>2026-06-30T11:11:32Z</time>
      </trkpt>
      <trkpt lat="52.224779007956386" lon="-10.344111984595656">
        <ele>29.940000000000001</ele>
        <time>2026-06-30T11:11:33Z</time>
      </trkpt>
      <trkpt lat="52.22575499676168" lon="-10.341525999829173">
        <ele>26.09</ele>
        <time>2026-06-30T11:11:45Z</time>
      </trkpt>
      <trkpt lat="52.226845985278487" lon="-10.338633991777897">
        <ele>24.649999999999999</ele>
        <time>2026-06-30T11:11:58Z</time>
      </trkpt>
      <trkpt lat="52.227219985798001" lon="-10.337642999365926">
        <ele>24.170000000000002</ele>
        <time>2026-06-30T11:12:03Z</time>
      </trkpt>
      <trkpt lat="52.227449985221028" lon="-10.337033970281482">
        <ele>24.170000000000002</ele>
        <time>2026-06-30T11:12:06Z</time>
      </trkpt>
      <trkpt lat="52.228461010381579" lon="-10.334924999624491">
        <ele>26.09</ele>
        <time>2026-06-30T11:12:17Z</time>
      </trkpt>
      <trkpt lat="52.229118989780545" lon="-10.333422962576151">
        <ele>27.530000000000001</ele>
        <time>2026-06-30T11:12:25Z</time>
      </trkpt>
      <trkpt lat="52.229608995839953" lon="-10.331626972183585">
        <ele>26.57</ele>
        <time>2026-06-30T11:12:32Z</time>
      </trkpt>
      <trkpt lat="52.230192963033915" lon="-10.329151041805744">
        <ele>26.09</ele>
        <time>2026-06-30T11:12:42Z</time>
      </trkpt>
      <trkpt lat="52.231029979884624" lon="-10.325598958879709">
        <ele>28.5</ele>
        <time>2026-06-30T11:12:57Z</time>
      </trkpt>
      <trkpt lat="52.231518980115652" lon="-10.323527958244085">
        <ele>30.420000000000002</ele>
        <time>2026-06-30T11:13:07Z</time>
      </trkpt>
      <trkpt lat="52.232392961159348" lon="-10.320524973794818">
        <ele>34.259999999999998</ele>
        <time>2026-06-30T11:13:22Z</time>
      </trkpt>
      <trkpt lat="52.232600999996066" lon="-10.319747971370816">
        <ele>35.229999999999997</ele>
        <time>2026-06-30T11:13:26Z</time>
      </trkpt>
      <trkpt lat="52.232628995552659" lon="-10.319523001089692">
        <ele>35.229999999999997</ele>
        <time>2026-06-30T11:13:27Z</time>
      </trkpt>
      <trkpt lat="52.232914986088872" lon="-10.316944979131222">
        <ele>34.740000000000002</ele>
        <time>2026-06-30T11:13:37Z</time>
      </trkpt>
      <trkpt lat="52.232986986637115" lon="-10.315411007031798">
        <ele>31.379999999999999</ele>
        <time>2026-06-30T11:13:43Z</time>
      </trkpt>
      <trkpt lat="52.232954967767" lon="-10.315145971253514">
        <ele>30.899999999999999</ele>
        <time>2026-06-30T11:13:44Z</time>
      </trkpt>
      <trkpt lat="52.23248097114265" lon="-10.31249301508069">
        <ele>23.210000000000001</ele>
        <time>2026-06-30T11:13:55Z</time>
      </trkpt>
      <trkpt lat="52.231981996446848" lon="-10.309797981753945">
        <ele>24.649999999999999</ele>
        <time>2026-06-30T11:14:08Z</time>
      </trkpt>
      <trkpt lat="52.231765994802117" lon="-10.308547988533974">
        <ele>27.050000000000001</ele>
        <time>2026-06-30T11:14:15Z</time>
      </trkpt>
      <trkpt lat="52.231729030609131" lon="-10.308427959680557">
        <ele>27.530000000000001</ele>
        <time>2026-06-30T11:14:16Z</time>
      </trkpt>
      <trkpt lat="52.231671027839184" lon="-10.30834598466754">
        <ele>28.02</ele>
        <time>2026-06-30T11:14:17Z</time>
      </trkpt>
      <trkpt lat="52.231604978442192" lon="-10.308296028524637">
        <ele>28.02</ele>
        <time>2026-06-30T11:14:18Z</time>
      </trkpt>
      <trkpt lat="52.231531972065568" lon="-10.308271972462535">
        <ele>28.5</ele>
        <time>2026-06-30T11:14:19Z</time>
      </trkpt>
      <trkpt lat="52.231454020366073" lon="-10.308245988562703">
        <ele>28.98</ele>
        <time>2026-06-30T11:14:20Z</time>
      </trkpt>
      <trkpt lat="52.230532011017203" lon="-10.307940971106291">
        <ele>30.899999999999999</ele>
        <time>2026-06-30T11:14:28Z</time>
      </trkpt>
      <trkpt lat="52.228735014796257" lon="-10.307346023619175">
        <ele>33.299999999999997</ele>
        <time>2026-06-30T11:14:40Z</time>
      </trkpt>
      <trkpt lat="52.226914968341589" lon="-10.307021979242563">
        <ele>35.229999999999997</ele>
        <time>2026-06-30T11:14:52Z</time>
      </trkpt>
      <trkpt lat="52.225248981267214" lon="-10.306911002844572">
        <ele>38.109999999999999</ele>
        <time>2026-06-30T11:15:03Z</time>
      </trkpt>
      <trkpt lat="52.222742037847638" lon="-10.306951990351081">
        <ele>41.950000000000003</ele>
        <time>2026-06-30T11:15:19Z</time>
      </trkpt>
      <trkpt lat="52.221031039953232" lon="-10.307585997506976">
        <ele>40.509999999999998</ele>
        <time>2026-06-30T11:15:31Z</time>
      </trkpt>
      <trkpt lat="52.219435963779688" lon="-10.308936992660165">
        <ele>40.990000000000002</ele>
        <time>2026-06-30T11:15:43Z</time>
      </trkpt>
      <trkpt lat="52.217282988131046" lon="-10.310775982216001">
        <ele>43.399999999999999</ele>
        <time>2026-06-30T11:15:59Z</time>
      </trkpt>
      <trkpt lat="52.215966023504734" lon="-10.311481989920139">
        <ele>47.240000000000002</ele>
        <time>2026-06-30T11:16:09Z</time>
      </trkpt>
      <trkpt lat="52.214556019753218" lon="-10.312329987064004">
        <ele>52.049999999999997</ele>
        <time>2026-06-30T11:16:20Z</time>
      </trkpt>
      <trkpt lat="52.213289011269808" lon="-10.313417036086321">
        <ele>54.93</ele>
        <time>2026-06-30T11:16:31Z</time>
      </trkpt>
      <trkpt lat="52.212445959448814" lon="-10.313800005242229">
        <ele>56.369999999999997</ele>
        <time>2026-06-30T11:16:38Z</time>
      </trkpt>
      <trkpt lat="52.212318973615766" lon="-10.313772009685636">
        <ele>56.859999999999999</ele>
        <time>2026-06-30T11:16:39Z</time>
      </trkpt>
      <trkpt lat="52.212190981954336" lon="-10.31373999081552">
        <ele>56.859999999999999</ele>
        <time>2026-06-30T11:16:40Z</time>
      </trkpt>
      <trkpt lat="52.212071036919951" lon="-10.313648963347077">
        <ele>56.859999999999999</ele>
        <time>2026-06-30T11:16:41Z</time>
      </trkpt>
      <trkpt lat="52.211967017501593" lon="-10.313565982505679">
        <ele>57.340000000000003</ele>
        <time>2026-06-30T11:16:42Z</time>
      </trkpt>
      <trkpt lat="52.211850006133318" lon="-10.313424998894334">
        <ele>58.299999999999997</ele>
        <time>2026-06-30T11:16:43Z</time>
      </trkpt>
      <trkpt lat="52.211739029735327" lon="-10.313290972262621">
        <ele>59.259999999999998</ele>
        <time>2026-06-30T11:16:44Z</time>
      </trkpt>
      <trkpt lat="52.210207991302013" lon="-10.311442008242011">
        <ele>63.579999999999998</ele>
        <time>2026-06-30T11:16:57Z</time>
      </trkpt>
      <trkpt lat="52.209830973297358" lon="-10.311125004664063">
        <ele>64.549999999999997</ele>
        <time>2026-06-30T11:17:00Z</time>
      </trkpt>
      <trkpt lat="52.209704993292689" lon="-10.31105300411582">
        <ele>64.549999999999997</ele>
        <time>2026-06-30T11:17:01Z</time>
      </trkpt>
      <trkpt lat="52.209581024944782" lon="-10.311024002730846">
        <ele>64.549999999999997</ele>
        <time>2026-06-30T11:17:02Z</time>
      </trkpt>
      <trkpt lat="52.209452027454972" lon="-10.311014028266072">
        <ele>64.069999999999993</ele>
        <time>2026-06-30T11:17:03Z</time>
      </trkpt>
      <trkpt lat="52.209313977509737" lon="-10.311025008559227">
        <ele>64.069999999999993</ele>
        <time>2026-06-30T11:17:04Z</time>
      </trkpt>
      <trkpt lat="52.209313977509737" lon="-10.311025008559227">
        <ele>64.069999999999993</ele>
        <time>2026-06-30T11:17:05Z</time>
      </trkpt>
      <trkpt lat="52.207712028175592" lon="-10.311006987467408">
        <ele>66.950000000000003</ele>
        <time>2026-06-30T11:17:14Z</time>
      </trkpt>
      <trkpt lat="52.206303030252457" lon="-10.310581019148231">
        <ele>71.760000000000005</ele>
        <time>2026-06-30T11:17:24Z</time>
      </trkpt>
      <trkpt lat="52.204714994877577" lon="-10.310133006423712">
        <ele>75.599999999999994</ele>
        <time>2026-06-30T11:17:37Z</time>
      </trkpt>
      <trkpt lat="52.204597983509302" lon="-10.310133006423712">
        <ele>76.560000000000002</ele>
        <time>2026-06-30T11:17:44Z</time>
      </trkpt>
      <trkpt lat="52.204545009881258" lon="-10.310110040009022">
        <ele>76.560000000000002</ele>
        <time>2026-06-30T11:17:47Z</time>
      </trkpt>
      <trkpt lat="52.204501004889607" lon="-10.310056982561946">
        <ele>76.560000000000002</ele>
        <time>2026-06-30T11:17:48Z</time>
      </trkpt>
      <trkpt lat="52.20444199629128" lon="-10.309986993670464">
        <ele>76.560000000000002</ele>
        <time>2026-06-30T11:17:49Z</time>
      </trkpt>
      <trkpt lat="52.203808994963765" lon="-10.309228012338281">
        <ele>78</ele>
        <time>2026-06-30T11:17:56Z</time>
      </trkpt>
      <trkpt lat="52.202241998165846" lon="-10.307350968942046">
        <ele>85.689999999999998</ele>
        <time>2026-06-30T11:18:08Z</time>
      </trkpt>
      <trkpt lat="52.200435027480125" lon="-10.305186007171869">
        <ele>92.420000000000002</ele>
        <time>2026-06-30T11:18:20Z</time>
      </trkpt>
      <trkpt lat="52.199834967032075" lon="-10.304466001689434">
        <ele>95.310000000000002</ele>
        <time>2026-06-30T11:18:24Z</time>
      </trkpt>
      <trkpt lat="52.19969498924911" lon="-10.304343039169908">
        <ele>95.790000000000006</ele>
        <time>2026-06-30T11:18:25Z</time>
      </trkpt>
      <trkpt lat="52.199551993981004" lon="-10.304279001429677">
        <ele>96.269999999999996</ele>
        <time>2026-06-30T11:18:26Z</time>
      </trkpt>
      <trkpt lat="52.19941696152091" lon="-10.304290987551212">
        <ele>97.230000000000004</ele>
        <time>2026-06-30T11:18:27Z</time>
      </trkpt>
      <trkpt lat="52.199286036193371" lon="-10.304300962015986">
        <ele>97.709999999999994</ele>
        <time>2026-06-30T11:18:28Z</time>
      </trkpt>
      <trkpt lat="52.199153015390038" lon="-10.304312026128173">
        <ele>98.670000000000002</ele>
        <time>2026-06-30T11:18:29Z</time>
      </trkpt>
      <trkpt lat="52.199013959616423" lon="-10.304302973672748">
        <ele>99.629999999999995</ele>
        <time>2026-06-30T11:18:30Z</time>
      </trkpt>
      <trkpt lat="52.198868030682206" lon="-10.304275983944535">
        <ele>99.629999999999995</ele>
        <time>2026-06-30T11:18:31Z</time>
      </trkpt>
      <trkpt lat="52.197552993893623" lon="-10.304271038621664">
        <ele>103</ele>
        <time>2026-06-30T11:18:39Z</time>
      </trkpt>
      <trkpt lat="52.196093033999205" lon="-10.304444963112473">
        <ele>107.81</ele>
        <time>2026-06-30T11:18:48Z</time>
      </trkpt>
      <trkpt lat="52.195945009589195" lon="-10.304402969777584">
        <ele>108.77</ele>
        <time>2026-06-30T11:18:49Z</time>
      </trkpt>
      <trkpt lat="52.194570964202285" lon="-10.304194008931518">
        <ele>113.09</ele>
        <time>2026-06-30T11:18:58Z</time>
      </trkpt>
      <trkpt lat="52.193823968991637" lon="-10.304262991994619">
        <ele>114.53</ele>
        <time>2026-06-30T11:19:03Z</time>
      </trkpt>
      <trkpt lat="52.19367996789515" lon="-10.30420096591115">
        <ele>115.5</ele>
        <time>2026-06-30T11:19:04Z</time>
      </trkpt>
      <trkpt lat="52.193539990112185" lon="-10.304140029475093">
        <ele>115.5</ele>
        <time>2026-06-30T11:19:05Z</time>
      </trkpt>
      <trkpt lat="52.193413004279137" lon="-10.304084960371256">
        <ele>116.45999999999999</ele>
        <time>2026-06-30T11:19:06Z</time>
      </trkpt>
      <trkpt lat="52.193328011780977" lon="-10.303932996466756">
        <ele>116.94</ele>
        <time>2026-06-30T11:19:07Z</time>
      </trkpt>
      <trkpt lat="52.193245030939579" lon="-10.303774997591972">
        <ele>117.42</ele>
        <time>2026-06-30T11:19:08Z</time>
      </trkpt>
      <trkpt lat="52.19318401068449" lon="-10.303592020645738">
        <ele>117.90000000000001</ele>
        <time>2026-06-30T11:19:09Z</time>
      </trkpt>
      <trkpt lat="52.193164983764291" lon="-10.30338398180902">
        <ele>118.86</ele>
        <time>2026-06-30T11:19:10Z</time>
      </trkpt>
      <trkpt lat="52.193148974329233" lon="-10.303170997649431">
        <ele>118.86</ele>
        <time>2026-06-30T11:19:11Z</time>
      </trkpt>
      <trkpt lat="52.193156015127897" lon="-10.302944015711546">
        <ele>118.38</ele>
        <time>2026-06-30T11:19:12Z</time>
      </trkpt>
      <trkpt lat="52.193161966279149" lon="-10.302703035995364">
        <ele>118.38</ele>
        <time>2026-06-30T11:19:13Z</time>
      </trkpt>
      <trkpt lat="52.193189039826393" lon="-10.301673989742994">
        <ele>115.01000000000001</ele>
        <time>2026-06-30T11:19:17Z</time>
      </trkpt>
      <trkpt lat="52.193155009299517" lon="-10.301424041390419">
        <ele>114.53</ele>
        <time>2026-06-30T11:19:18Z</time>
      </trkpt>
      <trkpt lat="52.193103041499853" lon="-10.301187001168728">
        <ele>113.56999999999999</ele>
        <time>2026-06-30T11:19:19Z</time>
      </trkpt>
      <trkpt lat="52.19303104095161" lon="-10.300957001745701">
        <ele>112.61</ele>
        <time>2026-06-30T11:19:20Z</time>
      </trkpt>
      <trkpt lat="52.192944958806038" lon="-10.300731025636196">
        <ele>111.65000000000001</ele>
        <time>2026-06-30T11:19:21Z</time>
      </trkpt>
      <trkpt lat="52.192857032641768" lon="-10.300495997071266">
        <ele>110.69</ele>
        <time>2026-06-30T11:19:22Z</time>
      </trkpt>
      <trkpt lat="52.192767011001706" lon="-10.300258034840226">
        <ele>109.73</ele>
        <time>2026-06-30T11:19:23Z</time>
      </trkpt>
      <trkpt lat="52.192662991583347" lon="-10.30003298074007">
        <ele>109.25</ele>
        <time>2026-06-30T11:19:24Z</time>
      </trkpt>
      <trkpt lat="52.191512994468212" lon="-10.298333968967199">
        <ele>101.08</ele>
        <time>2026-06-30T11:19:33Z</time>
      </trkpt>
      <trkpt lat="52.189479963853955" lon="-10.296101029962301">
        <ele>88.579999999999998</ele>
        <time>2026-06-30T11:19:47Z</time>
      </trkpt>
      <trkpt lat="52.188111031427979" lon="-10.295136021450162">
        <ele>79.450000000000003</ele>
        <time>2026-06-30T11:19:56Z</time>
      </trkpt>
      <trkpt lat="52.186599019914865" lon="-10.294966958463192">
        <ele>68.870000000000005</ele>
        <time>2026-06-30T11:20:05Z</time>
      </trkpt>
      <trkpt lat="52.184624997898936" lon="-10.295162005349994">
        <ele>63.579999999999998</ele>
        <time>2026-06-30T11:20:17Z</time>
      </trkpt>
      <trkpt lat="52.183376010507345" lon="-10.294736959040165">
        <ele>63.579999999999998</ele>
        <time>2026-06-30T11:20:25Z</time>
      </trkpt>
      <trkpt lat="52.181201996281743" lon="-10.294017037376761">
        <ele>59.740000000000002</ele>
        <time>2026-06-30T11:20:38Z</time>
      </trkpt>
      <trkpt lat="52.178760012611747" lon="-10.293169040232897">
        <ele>54.450000000000003</ele>
        <time>2026-06-30T11:20:53Z</time>
      </trkpt>
      <trkpt lat="52.17644602060318" lon="-10.292334035038948">
        <ele>52.530000000000001</ele>
        <time>2026-06-30T11:21:07Z</time>
      </trkpt>
      <trkpt lat="52.174204029142857" lon="-10.291525013744831">
        <ele>50.130000000000003</ele>
        <time>2026-06-30T11:21:21Z</time>
      </trkpt>
      <trkpt lat="52.171958014369011" lon="-10.290722027420998">
        <ele>44.359999999999999</ele>
        <time>2026-06-30T11:21:34Z</time>
      </trkpt>
      <trkpt lat="52.170607019215822" lon="-10.29023596085608">
        <ele>41.950000000000003</ele>
        <time>2026-06-30T11:21:43Z</time>
      </trkpt>
      <trkpt lat="52.169193997979164" lon="-10.289717959240079">
        <ele>44.840000000000003</ele>
        <time>2026-06-30T11:21:54Z</time>
      </trkpt>
      <trkpt lat="52.167763039469719" lon="-10.289188977330923">
        <ele>46.759999999999998</ele>
        <time>2026-06-30T11:22:06Z</time>
      </trkpt>
      <trkpt lat="52.166252033784986" lon="-10.288413986563683">
        <ele>48.200000000000003</ele>
        <time>2026-06-30T11:22:15Z</time>
      </trkpt>
      <trkpt lat="52.164235012605786" lon="-10.28737798333168">
        <ele>49.159999999999997</ele>
        <time>2026-06-30T11:22:28Z</time>
      </trkpt>
      <trkpt lat="52.161863017827272" lon="-10.286080967634916">
        <ele>50.609999999999999</ele>
        <time>2026-06-30T11:22:43Z</time>
      </trkpt>
      <trkpt lat="52.160448990762234" lon="-10.285667991265655">
        <ele>50.609999999999999</ele>
        <time>2026-06-30T11:22:52Z</time>
      </trkpt>
      <trkpt lat="52.158779986202717" lon="-10.285373032093048">
        <ele>50.609999999999999</ele>
        <time>2026-06-30T11:23:02Z</time>
      </trkpt>
      <trkpt lat="52.157769966870546" lon="-10.285234982147813">
        <ele>48.68</ele>
        <time>2026-06-30T11:23:09Z</time>
      </trkpt>
      <trkpt lat="52.157657984644175" lon="-10.285262977704406">
        <ele>48.200000000000003</ele>
        <time>2026-06-30T11:23:10Z</time>
      </trkpt>
      <trkpt lat="52.15749797411263" lon="-10.285362973809242">
        <ele>47.719999999999999</ele>
        <time>2026-06-30T11:23:11Z</time>
      </trkpt>
      <trkpt lat="52.156178997829556" lon="-10.286232009530067">
        <ele>43.880000000000003</ele>
        <time>2026-06-30T11:23:21Z</time>
      </trkpt>
      <trkpt lat="52.155041992664337" lon="-10.287532964721322">
        <ele>40.030000000000001</ele>
        <time>2026-06-30T11:23:30Z</time>
      </trkpt>
      <trkpt lat="52.153784958645701" lon="-10.289081018418074">
        <ele>37.149999999999999</ele>
        <time>2026-06-30T11:23:40Z</time>
      </trkpt>
      <trkpt lat="52.152111008763313" lon="-10.290550030767918">
        <ele>32.340000000000003</ele>
        <time>2026-06-30T11:23:52Z</time>
      </trkpt>
      <trkpt lat="52.15070997364819" lon="-10.291157970204949">
        <ele>28.02</ele>
        <time>2026-06-30T11:24:01Z</time>
      </trkpt>
      <trkpt lat="52.150271013379097" lon="-10.291167022660375">
        <ele>26.57</ele>
        <time>2026-06-30T11:24:04Z</time>
      </trkpt>
      <trkpt lat="52.150129023939371" lon="-10.291106002405286">
        <ele>26.09</ele>
        <time>2026-06-30T11:24:05Z</time>
      </trkpt>
      <trkpt lat="52.150000026449561" lon="-10.291014974936843">
        <ele>26.09</ele>
        <time>2026-06-30T11:24:06Z</time>
      </trkpt>
      <trkpt lat="52.148391958326101" lon="-10.289881993085146">
        <ele>21.289999999999999</ele>
        <time>2026-06-30T11:24:17Z</time>
      </trkpt>
      <trkpt lat="52.146815992891788" lon="-10.28911697678268">
        <ele>15.039999999999999</ele>
        <time>2026-06-30T11:24:27Z</time>
      </trkpt>
      <trkpt lat="52.145301969721913" lon="-10.288920002058148">
        <ele>13.119999999999999</ele>
        <time>2026-06-30T11:24:37Z</time>
      </trkpt>
      <trkpt lat="52.143690967932343" lon="-10.288580032065511">
        <ele>8.310000000000001</ele>
        <time>2026-06-30T11:24:49Z</time>
      </trkpt>
      <trkpt lat="52.142534013837576" lon="-10.28785097412765">
        <ele>5.91</ele>
        <time>2026-06-30T11:24:59Z</time>
      </trkpt>
      <trkpt lat="52.142296973615885" lon="-10.287661040201783">
        <ele>6.87</ele>
        <time>2026-06-30T11:25:03Z</time>
      </trkpt>
      <trkpt lat="52.142257997766137" lon="-10.287627009674907">
        <ele>6.87</ele>
        <time>2026-06-30T11:25:04Z</time>
      </trkpt>
      <trkpt lat="52.142218016088009" lon="-10.287562971934676">
        <ele>7.35</ele>
        <time>2026-06-30T11:25:05Z</time>
      </trkpt>
      <trkpt lat="52.142174011096358" lon="-10.287415031343699">
        <ele>7.35</ele>
        <time>2026-06-30T11:25:07Z</time>
      </trkpt>
      <trkpt lat="52.142202006652951" lon="-10.287277987226844">
        <ele>7.83</ele>
        <time>2026-06-30T11:25:08Z</time>
      </trkpt>
      <trkpt lat="52.142237965017557" lon="-10.287169022485614">
        <ele>8.310000000000001</ele>
        <time>2026-06-30T11:25:09Z</time>
      </trkpt>
      <trkpt lat="52.142278030514717" lon="-10.287048993632197">
        <ele>8.789999999999999</ele>
        <time>2026-06-30T11:25:10Z</time>
      </trkpt>
      <trkpt lat="52.142322035506368" lon="-10.286918990314007">
        <ele>9.27</ele>
        <time>2026-06-30T11:25:11Z</time>
      </trkpt>
      <trkpt lat="52.142832996323705" lon="-10.285318968817592">
        <ele>17.920000000000002</ele>
        <time>2026-06-30T11:25:21Z</time>
      </trkpt>
      <trkpt lat="52.143478989601135" lon="-10.282972035929561">
        <ele>28.98</ele>
        <time>2026-06-30T11:25:32Z</time>
      </trkpt>
      <trkpt lat="52.143993973731995" lon="-10.281093986704946">
        <ele>39.07</ele>
        <time>2026-06-30T11:25:42Z</time>
      </trkpt>
      <trkpt lat="52.144379960373044" lon="-10.279398998245597">
        <ele>44.840000000000003</ele>
        <time>2026-06-30T11:25:50Z</time>
      </trkpt>
      <trkpt lat="52.144392030313611" lon="-10.279156006872654">
        <ele>45.32</ele>
        <time>2026-06-30T11:25:51Z</time>
      </trkpt>
      <trkpt lat="52.144383983686566" lon="-10.278917960822582">
        <ele>45.799999999999997</ele>
        <time>2026-06-30T11:25:52Z</time>
      </trkpt>
      <trkpt lat="52.144377026706934" lon="-10.278677986934781">
        <ele>46.280000000000001</ele>
        <time>2026-06-30T11:25:53Z</time>
      </trkpt>
      <trkpt lat="52.144357999786735" lon="-10.278442036360502">
        <ele>46.280000000000001</ele>
        <time>2026-06-30T11:25:54Z</time>
      </trkpt>
      <trkpt lat="52.144102016463876" lon="-10.276125026866794">
        <ele>45.32</ele>
        <time>2026-06-30T11:26:05Z</time>
      </trkpt>
      <trkpt lat="52.143757017329335" lon="-10.274288970977068">
        <ele>38.109999999999999</ele>
        <time>2026-06-30T11:26:15Z</time>
      </trkpt>
      <trkpt lat="52.143496004864573" lon="-10.272995978593826">
        <ele>34.259999999999998</ele>
        <time>2026-06-30T11:26:23Z</time>
      </trkpt>
      <trkpt lat="52.143453005701303" lon="-10.272838985547423">
        <ele>34.259999999999998</ele>
        <time>2026-06-30T11:26:24Z</time>
      </trkpt>
      <trkpt lat="52.143344962969422" lon="-10.272495998069644">
        <ele>32.82</ele>
        <time>2026-06-30T11:26:27Z</time>
      </trkpt>
      <trkpt lat="52.143314033746719" lon="-10.272215036675334">
        <ele>31.379999999999999</ele>
        <time>2026-06-30T11:26:31Z</time>
      </trkpt>
      <trkpt lat="52.143289977684617" lon="-10.272160973399878">
        <ele>31.379999999999999</ele>
        <time>2026-06-30T11:26:32Z</time>
      </trkpt>
      <trkpt lat="52.14301697909832" lon="-10.271410038694739">
        <ele>26.57</ele>
        <time>2026-06-30T11:26:43Z</time>
      </trkpt>
      <trkpt lat="52.142800977453589" lon="-10.270804027095437">
        <ele>24.649999999999999</ele>
        <time>2026-06-30T11:26:52Z</time>
      </trkpt>
      <trkpt lat="52.142727971076965" lon="-10.270602023229003">
        <ele>24.170000000000002</ele>
        <time>2026-06-30T11:26:55Z</time>
      </trkpt>
      <trkpt lat="52.142678014934063" lon="-10.270463973283768">
        <ele>23.690000000000001</ele>
        <time>2026-06-30T11:26:57Z</time>
      </trkpt>
      <trkpt lat="52.142659993842244" lon="-10.270413011312485">
        <ele>23.690000000000001</ele>
        <time>2026-06-30T11:26:58Z</time>
      </trkpt>
      <trkpt lat="52.142637027427554" lon="-10.270349979400635">
        <ele>23.690000000000001</ele>
        <time>2026-06-30T11:26:59Z</time>
      </trkpt>
      <trkpt lat="52.142630992457271" lon="-10.270334975793958">
        <ele>23.690000000000001</ele>
        <time>2026-06-30T11:27:00Z</time>
      </trkpt>
      <trkpt lat="52.142616994678974" lon="-10.270302034914494">
        <ele>24.170000000000002</ele>
        <time>2026-06-30T11:27:01Z</time>
      </trkpt>
      <trkpt lat="52.142480034381151" lon="-10.269981008023024">
        <ele>26.57</ele>
        <time>2026-06-30T11:27:07Z</time>
      </trkpt>
      <trkpt lat="52.142393030226231" lon="-10.269774980843067">
        <ele>26.57</ele>
        <time>2026-06-30T11:27:10Z</time>
      </trkpt>
      <trkpt lat="52.142227990552783" lon="-10.269386982545257">
        <ele>29.940000000000001</ele>
        <time>2026-06-30T11:27:18Z</time>
      </trkpt>
      <trkpt lat="52.142170993611217" lon="-10.269407015293837">
        <ele>29.460000000000001</ele>
        <time>2026-06-30T11:27:19Z</time>
      </trkpt>
      <trkpt lat="52.142150038853288" lon="-10.269442973658442">
        <ele>29.460000000000001</ele>
        <time>2026-06-30T11:27:20Z</time>
      </trkpt>
      <trkpt lat="52.142126988619566" lon="-10.269482033327222">
        <ele>28.98</ele>
        <time>2026-06-30T11:27:21Z</time>
      </trkpt>
      <trkpt lat="52.142099998891354" lon="-10.269528971984982">
        <ele>28.98</ele>
        <time>2026-06-30T11:27:22Z</time>
      </trkpt>
      <trkpt lat="52.142075020819902" lon="-10.269573982805014">
        <ele>28.98</ele>
        <time>2026-06-30T11:27:23Z</time>
      </trkpt>
      <trkpt lat="52.141979970037937" lon="-10.269738016650081">
        <ele>28.5</ele>
        <time>2026-06-30T11:27:27Z</time>
      </trkpt>
      <trkpt lat="52.14196496643126" lon="-10.269765006378293">
        <ele>28.02</ele>
        <time>2026-06-30T11:27:28Z</time>
      </trkpt>
      <trkpt lat="52.141947029158473" lon="-10.269796019420028">
        <ele>27.530000000000001</ele>
        <time>2026-06-30T11:27:29Z</time>
      </trkpt>
      <trkpt lat="52.141925990581512" lon="-10.269831977784634">
        <ele>27.530000000000001</ele>
        <time>2026-06-30T11:27:30Z</time>
      </trkpt>
      <trkpt lat="52.141906963661313" lon="-10.26986500248313">
        <ele>27.050000000000001</ele>
        <time>2026-06-30T11:27:31Z</time>
      </trkpt>
      <trkpt lat="52.141889026388526" lon="-10.269897021353245">
        <ele>26.09</ele>
        <time>2026-06-30T11:27:32Z</time>
      </trkpt>
      <trkpt lat="52.141866981983185" lon="-10.269934991374612">
        <ele>25.609999999999999</ele>
        <time>2026-06-30T11:27:33Z</time>
      </trkpt>
      <trkpt lat="52.141847033053637" lon="-10.269968016073108">
        <ele>25.129999999999999</ele>
        <time>2026-06-30T11:27:34Z</time>
      </trkpt>
      <trkpt lat="52.141830017790198" lon="-10.269999029114842">
        <ele>24.649999999999999</ele>
        <time>2026-06-30T11:27:35Z</time>
      </trkpt>
      <trkpt lat="52.141805039718747" lon="-10.270042028278112">
        <ele>24.170000000000002</ele>
        <time>2026-06-30T11:27:36Z</time>
      </trkpt>
      <trkpt lat="52.141779977828264" lon="-10.270086033269763">
        <ele>23.690000000000001</ele>
        <time>2026-06-30T11:27:37Z</time>
      </trkpt>
      <trkpt lat="52.141647040843964" lon="-10.270317038521171">
        <ele>19.84</ele>
        <time>2026-06-30T11:27:44Z</time>
      </trkpt>
      <trkpt lat="52.141632037237287" lon="-10.270343022421002">
        <ele>19.359999999999999</ele>
        <time>2026-06-30T11:27:45Z</time>
      </trkpt>
      <trkpt lat="52.141616027802229" lon="-10.270371017977595">
        <ele>18.879999999999999</ele>
        <time>2026-06-30T11:27:46Z</time>
      </trkpt>
      <trkpt lat="52.141585014760494" lon="-10.270423991605639">
        <ele>16</ele>
        <time>2026-06-30T11:28:00Z</time>
      </trkpt>
      <trkpt lat="52.141585014760494" lon="-10.270423991605639">
        <ele>16.48</ele>
        <time>2026-06-30T11:28:34Z</time>
      </trkpt>
      <trkpt lat="52.141585014760494" lon="-10.270423991605639">
        <ele>16.48</ele>
        <time>2026-06-30T11:29:15Z</time>
      </trkpt>
      <trkpt lat="52.141459034755826" lon="-10.270643010735512">
        <ele>16.48</ele>
        <time>2026-06-30T11:29:34Z</time>
      </trkpt>
      <trkpt lat="52.141423998400569" lon="-10.270704030990601">
        <ele>16.48</ele>
        <time>2026-06-30T11:29:40Z</time>
      </trkpt>
      <trkpt lat="52.141411006450653" lon="-10.27072599157691">
        <ele>16.48</ele>
        <time>2026-06-30T11:29:41Z</time>
      </trkpt>
      <trkpt lat="52.141397008672357" lon="-10.270750969648361">
        <ele>16</ele>
        <time>2026-06-30T11:29:42Z</time>
      </trkpt>
      <trkpt lat="52.141392985358834" lon="-10.270758010447025">
        <ele>16</ele>
        <time>2026-06-30T11:29:43Z</time>
      </trkpt>
      <trkpt lat="52.141356021165848" lon="-10.270798997953534">
        <ele>16</ele>
        <time>2026-06-30T11:29:44Z</time>
      </trkpt>
      <trkpt lat="52.141332970932126" lon="-10.270823976024985">
        <ele>15.52</ele>
        <time>2026-06-30T11:29:45Z</time>
      </trkpt>
      <trkpt lat="52.141312016174197" lon="-10.270848032087088">
        <ele>15.52</ele>
        <time>2026-06-30T11:29:46Z</time>
      </trkpt>
      <trkpt lat="52.141292989253998" lon="-10.270868986845016">
        <ele>15.52</ele>
        <time>2026-06-30T11:29:47Z</time>
      </trkpt>
      <trkpt lat="52.141274968162179" lon="-10.270889019593596">
        <ele>15.52</ele>
        <time>2026-06-30T11:29:48Z</time>
      </trkpt>
      <trkpt lat="52.141260970383883" lon="-10.270904023200274">
        <ele>15.52</ele>
        <time>2026-06-30T11:29:49Z</time>
      </trkpt>
      <trkpt lat="52.141260970383883" lon="-10.270904023200274">
        <ele>15.52</ele>
        <time>2026-06-30T11:29:50Z</time>
      </trkpt>
      <trkpt lat="52.141234986484051" lon="-10.270933024585247">
        <ele>15.52</ele>
        <time>2026-06-30T11:29:51Z</time>
      </trkpt>
      <trkpt lat="52.141221994534135" lon="-10.270948028191924">
        <ele>15.52</ele>
        <time>2026-06-30T11:29:52Z</time>
      </trkpt>
      <trkpt lat="52.141248984262347" lon="-10.271124970167875">
        <ele>15.52</ele>
        <time>2026-06-30T11:29:53Z</time>
      </trkpt>
      <trkpt lat="52.141278991475701" lon="-10.271307025104761">
        <ele>15.52</ele>
        <time>2026-06-30T11:29:55Z</time>
      </trkpt>
      <trkpt lat="52.141300030052662" lon="-10.271566025912762">
        <ele>16.48</ele>
        <time>2026-06-30T11:30:03Z</time>
      </trkpt>
      <trkpt lat="52.141300030052662" lon="-10.271566025912762">
        <ele>16.48</ele>
        <time>2026-06-30T11:30:05Z</time>
      </trkpt>
      <trkpt lat="52.141331965103745" lon="-10.271989982575178">
        <ele>18.879999999999999</ele>
        <time>2026-06-30T11:30:14Z</time>
      </trkpt>
      <trkpt lat="52.141347974538803" lon="-10.272321989759803">
        <ele>19.359999999999999</ele>
        <time>2026-06-30T11:30:23Z</time>
      </trkpt>
      <trkpt lat="52.141347974538803" lon="-10.272321989759803">
        <ele>19.359999999999999</ele>
        <time>2026-06-30T11:30:50Z</time>
      </trkpt>
      <trkpt lat="52.141360966488719" lon="-10.272716023027897">
        <ele>19.84</ele>
        <time>2026-06-30T11:30:57Z</time>
      </trkpt>
      <trkpt lat="52.14135903865099" lon="-10.272976029664278">
        <ele>19.84</ele>
        <time>2026-06-30T11:31:05Z</time>
      </trkpt>
      <trkpt lat="52.14136297814548" lon="-10.273008970543742">
        <ele>19.84</ele>
        <time>2026-06-30T11:31:12Z</time>
      </trkpt>
      <trkpt lat="52.141406983137131" lon="-10.273074014112353">
        <ele>19.359999999999999</ele>
        <time>2026-06-30T11:31:16Z</time>
      </trkpt>
      <trkpt lat="52.141441013664007" lon="-10.273080971091986">
        <ele>19.84</ele>
        <time>2026-06-30T11:31:30Z</time>
      </trkpt>
      <trkpt lat="52.141499016433954" lon="-10.273043001070619">
        <ele>-0.34</ele>
        <time>2026-06-30T13:13:34Z</time>
      </trkpt>
      <trkpt lat="52.141452999785542" lon="-10.273049036040902">
        <ele>25.129999999999999</ele>
        <time>2026-06-30T13:14:21Z</time>
      </trkpt>
      <trkpt lat="52.141437996178865" lon="-10.273029003292322">
        <ele>24.649999999999999</ele>
        <time>2026-06-30T13:15:07Z</time>
      </trkpt>
      <trkpt lat="52.141433972865343" lon="-10.273021962493658">
        <ele>24.170000000000002</ele>
        <time>2026-06-30T13:15:39Z</time>
      </trkpt>
      <trkpt lat="52.141431961208582" lon="-10.273023974150419">
        <ele>24.170000000000002</ele>
        <time>2026-06-30T13:16:11Z</time>
      </trkpt>
      <trkpt lat="52.141431961208582" lon="-10.273023974150419">
        <ele>24.170000000000002</ele>
        <time>2026-06-30T13:16:21Z</time>
      </trkpt>
      <trkpt lat="52.14142500422895" lon="-10.272978041321039">
        <ele>24.170000000000002</ele>
        <time>2026-06-30T13:16:40Z</time>
      </trkpt>
      <trkpt lat="52.141418969258666" lon="-10.272977035492659">
        <ele>24.170000000000002</ele>
        <time>2026-06-30T13:17:06Z</time>
      </trkpt>
      <trkpt lat="52.141418969258666" lon="-10.272977035492659">
        <ele>24.170000000000002</ele>
        <time>2026-06-30T13:17:31Z</time>
      </trkpt>
      <trkpt lat="52.141402959823608" lon="-10.272796992212534">
        <ele>24.170000000000002</ele>
        <time>2026-06-30T13:18:04Z</time>
      </trkpt>
      <trkpt lat="52.141402959823608" lon="-10.272795986384153">
        <ele>23.690000000000001</ele>
        <time>2026-06-30T13:18:44Z</time>
      </trkpt>
      <trkpt lat="52.141402959823608" lon="-10.272795986384153">
        <ele>23.690000000000001</ele>
        <time>2026-06-30T13:19:01Z</time>
      </trkpt>
      <trkpt lat="52.141384016722441" lon="-10.272676041349769">
        <ele>23.210000000000001</ele>
        <time>2026-06-30T13:19:04Z</time>
      </trkpt>
      <trkpt lat="52.141317967325449" lon="-10.271725030615926">
        <ele>21.289999999999999</ele>
        <time>2026-06-30T13:19:18Z</time>
      </trkpt>
      <trkpt lat="52.141285026445985" lon="-10.271451026201248">
        <ele>20.32</ele>
        <time>2026-06-30T13:19:22Z</time>
      </trkpt>
      <trkpt lat="52.141258958727121" lon="-10.271252039819956">
        <ele>19.359999999999999</ele>
        <time>2026-06-30T13:19:26Z</time>
      </trkpt>
      <trkpt lat="52.141256025061011" lon="-10.271181967109442">
        <ele>18.879999999999999</ele>
        <time>2026-06-30T13:19:31Z</time>
      </trkpt>
      <trkpt lat="52.141078999266028" lon="-10.271033020690084">
        <ele>17.440000000000001</ele>
        <time>2026-06-30T13:19:44Z</time>
      </trkpt>
      <trkpt lat="52.140620006248355" lon="-10.27126201428473">
        <ele>10.23</ele>
        <time>2026-06-30T13:19:56Z</time>
      </trkpt>
      <trkpt lat="52.140578012913465" lon="-10.271282969042659">
        <ele>9.27</ele>
        <time>2026-06-30T13:19:57Z</time>
      </trkpt>
      <trkpt lat="52.140535013750196" lon="-10.271301995962858">
        <ele>8.310000000000001</ele>
        <time>2026-06-30T13:19:58Z</time>
      </trkpt>
      <trkpt lat="52.140493020415306" lon="-10.271316999569535">
        <ele>7.35</ele>
        <time>2026-06-30T13:19:59Z</time>
      </trkpt>
      <trkpt lat="52.140453038737178" lon="-10.271330997347832">
        <ele>6.39</ele>
        <time>2026-06-30T13:20:00Z</time>
      </trkpt>
      <trkpt lat="52.140413979068398" lon="-10.271346000954509">
        <ele>5.91</ele>
        <time>2026-06-30T13:20:01Z</time>
      </trkpt>
      <trkpt lat="52.14037399739027" lon="-10.271359998732805">
        <ele>4.94</ele>
        <time>2026-06-30T13:20:02Z</time>
      </trkpt>
      <trkpt lat="52.140242988243699" lon="-10.271402997896075">
        <ele>2.06</ele>
        <time>2026-06-30T13:20:05Z</time>
      </trkpt>
      <trkpt lat="52.140197977423668" lon="-10.271416995674372">
        <ele>1.58</ele>
        <time>2026-06-30T13:20:06Z</time>
      </trkpt>
      <trkpt lat="52.140155984088778" lon="-10.271428981795907">
        <ele>0.62</ele>
        <time>2026-06-30T13:20:07Z</time>
      </trkpt>
      <trkpt lat="52.140105022117496" lon="-10.271443985402584">
        <ele>0.14</ele>
        <time>2026-06-30T13:20:08Z</time>
      </trkpt>
      <trkpt lat="52.140076020732522" lon="-10.271452032029629">
        <ele>-0.82</ele>
        <time>2026-06-30T13:20:09Z</time>
      </trkpt>
      <trkpt lat="52.139739990234375" lon="-10.271540964022279">
        <ele>0.14</ele>
        <time>2026-06-30T13:20:18Z</time>
      </trkpt>
      <trkpt lat="52.139696991071105" lon="-10.271545993164182">
        <ele>1.1</ele>
        <time>2026-06-30T13:20:19Z</time>
      </trkpt>
      <trkpt lat="52.139693973585963" lon="-10.271511962637305">
        <ele>2.06</ele>
        <time>2026-06-30T13:20:20Z</time>
      </trkpt>
      <trkpt lat="52.139690034091473" lon="-10.271461000666022">
        <ele>3.02</ele>
        <time>2026-06-30T13:20:21Z</time>
      </trkpt>
      <trkpt lat="52.13968601077795" lon="-10.271405009552836">
        <ele>3.98</ele>
        <time>2026-06-30T13:20:22Z</time>
      </trkpt>
      <trkpt lat="52.139681987464428" lon="-10.271356981247663">
        <ele>4.94</ele>
        <time>2026-06-30T13:20:23Z</time>
      </trkpt>
      <trkpt lat="52.139670001342893" lon="-10.271279029548168">
        <ele>5.42</ele>
        <time>2026-06-30T13:20:24Z</time>
      </trkpt>
      <trkpt lat="52.139650974422693" lon="-10.271238964051008">
        <ele>5.91</ele>
        <time>2026-06-30T13:20:25Z</time>
      </trkpt>
      <trkpt lat="52.13953304104507" lon="-10.270970994606614">
        <ele>8.789999999999999</ele>
        <time>2026-06-30T13:20:31Z</time>
      </trkpt>
      <trkpt lat="52.139491969719529" lon="-10.270903017371893">
        <ele>9.27</ele>
        <time>2026-06-30T13:20:32Z</time>
      </trkpt>
      <trkpt lat="52.139446958899498" lon="-10.270882984623313">
        <ele>9.75</ele>
        <time>2026-06-30T13:20:33Z</time>
      </trkpt>
      <trkpt lat="52.139399014413357" lon="-10.270862029865384">
        <ele>10.23</ele>
        <time>2026-06-30T13:20:34Z</time>
      </trkpt>
      <trkpt lat="52.139346962794662" lon="-10.270838979631662">
        <ele>10.23</ele>
        <time>2026-06-30T13:20:35Z</time>
      </trkpt>
      <trkpt lat="52.139292983338237" lon="-10.270816013216972">
        <ele>10.23</ele>
        <time>2026-06-30T13:20:36Z</time>
      </trkpt>
      <trkpt lat="52.13897799141705" lon="-10.270678969100118">
        <ele>11.67</ele>
        <time>2026-06-30T13:20:42Z</time>
      </trkpt>
      <trkpt lat="52.138937003910542" lon="-10.270662037655711">
        <ele>11.67</ele>
        <time>2026-06-30T13:20:43Z</time>
      </trkpt>
      <trkpt lat="52.138899033889174" lon="-10.270646028220654">
        <ele>11.67</ele>
        <time>2026-06-30T13:20:44Z</time>
      </trkpt>
      <trkpt lat="52.138855028897524" lon="-10.270593976601958">
        <ele>12.15</ele>
        <time>2026-06-30T13:20:45Z</time>
      </trkpt>
      <trkpt lat="52.138841031119227" lon="-10.270508984103799">
        <ele>12.15</ele>
        <time>2026-06-30T13:20:46Z</time>
      </trkpt>
      <trkpt lat="52.138892998918891" lon="-10.270407982170582">
        <ele>12.15</ele>
        <time>2026-06-30T13:20:47Z</time>
      </trkpt>
      <trkpt lat="52.138939015567303" lon="-10.270329024642706">
        <ele>12.15</ele>
        <time>2026-06-30T13:20:48Z</time>
      </trkpt>
      <trkpt lat="52.138987965881824" lon="-10.270243026316166">
        <ele>12.15</ele>
        <time>2026-06-30T13:20:49Z</time>
      </trkpt>
      <trkpt lat="52.139145964756608" lon="-10.269971033558249">
        <ele>12.630000000000001</ele>
        <time>2026-06-30T13:20:52Z</time>
      </trkpt>
      <trkpt lat="52.139201033860445" lon="-10.269874976947904">
        <ele>12.630000000000001</ele>
        <time>2026-06-30T13:20:53Z</time>
      </trkpt>
      <trkpt lat="52.139725992456079" lon="-10.26894299313426">
        <ele>12.630000000000001</ele>
        <time>2026-06-30T13:21:02Z</time>
      </trkpt>
      <trkpt lat="52.139785001054406" lon="-10.26883696205914">
        <ele>12.630000000000001</ele>
        <time>2026-06-30T13:21:03Z</time>
      </trkpt>
      <trkpt lat="52.140438035130501" lon="-10.267666010186076">
        <ele>13.6</ele>
        <time>2026-06-30T13:21:14Z</time>
      </trkpt>
      <trkpt lat="52.140742968767881" lon="-10.267143985256553">
        <ele>13.119999999999999</ele>
        <time>2026-06-30T13:21:20Z</time>
      </trkpt>
      <trkpt lat="52.140795020386577" lon="-10.267100986093283">
        <ele>13.119999999999999</ele>
        <time>2026-06-30T13:21:21Z</time>
      </trkpt>
      <trkpt lat="52.140963999554515" lon="-10.266992021352053">
        <ele>13.6</ele>
        <time>2026-06-30T13:21:25Z</time>
      </trkpt>
      <trkpt lat="52.140986965969205" lon="-10.266931001096964">
        <ele>13.6</ele>
        <time>2026-06-30T13:21:26Z</time>
      </trkpt>
      <trkpt lat="52.141011022031307" lon="-10.266865035519004">
        <ele>13.6</ele>
        <time>2026-06-30T13:21:27Z</time>
      </trkpt>
      <trkpt lat="52.141040023416281" lon="-10.266787000000477">
        <ele>14.08</ele>
        <time>2026-06-30T13:21:28Z</time>
      </trkpt>
      <trkpt lat="52.141072964295745" lon="-10.266697984188795">
        <ele>14.08</ele>
        <time>2026-06-30T13:21:29Z</time>
      </trkpt>
      <trkpt lat="52.141110012307763" lon="-10.266597988083959">
        <ele>13.6</ele>
        <time>2026-06-30T13:21:30Z</time>
      </trkpt>
      <trkpt lat="52.141589038074017" lon="-10.265339026227593">
        <ele>14.56</ele>
        <time>2026-06-30T13:21:40Z</time>
      </trkpt>
      <trkpt lat="52.14222296141088" lon="-10.264076963067055">
        <ele>17.920000000000002</ele>
        <time>2026-06-30T13:21:49Z</time>
      </trkpt>
      <trkpt lat="52.142612971365452" lon="-10.263297026976943">
        <ele>18.399999999999999</ele>
        <time>2026-06-30T13:21:55Z</time>
      </trkpt>
      <trkpt lat="52.143167015165091" lon="-10.26152802631259">
        <ele>23.690000000000001</ele>
        <time>2026-06-30T13:22:06Z</time>
      </trkpt>
      <trkpt lat="52.1438969951123" lon="-10.259172962978482">
        <ele>29.940000000000001</ele>
        <time>2026-06-30T13:22:18Z</time>
      </trkpt>
      <trkpt lat="52.144853034988046" lon="-10.25628698989749">
        <ele>39.549999999999997</ele>
        <time>2026-06-30T13:22:31Z</time>
      </trkpt>
      <trkpt lat="52.145953997969627" lon="-10.252980999648571">
        <ele>52.530000000000001</ele>
        <time>2026-06-30T13:22:45Z</time>
      </trkpt>
      <trkpt lat="52.147000981494784" lon="-10.249410979449749">
        <ele>66.950000000000003</ele>
        <time>2026-06-30T13:23:00Z</time>
      </trkpt>
      <trkpt lat="52.147983005270362" lon="-10.246251001954079">
        <ele>79.450000000000003</ele>
        <time>2026-06-30T13:23:13Z</time>
      </trkpt>
      <trkpt lat="52.149076005443931" lon="-10.244594989344478">
        <ele>87.140000000000001</ele>
        <time>2026-06-30T13:23:22Z</time>
      </trkpt>
      <trkpt lat="52.149216989055276" lon="-10.244476972147822">
        <ele>88.099999999999994</ele>
        <time>2026-06-30T13:23:23Z</time>
      </trkpt>
      <trkpt lat="52.150740986689925" lon="-10.243553034961224">
        <ele>97.709999999999994</ele>
        <time>2026-06-30T13:23:33Z</time>
      </trkpt>
      <trkpt lat="52.151350015774369" lon="-10.243479022756219">
        <ele>101.08</ele>
        <time>2026-06-30T13:23:37Z</time>
      </trkpt>
      <trkpt lat="52.15150399133563" lon="-10.243493020534515">
        <ele>102.04000000000001</ele>
        <time>2026-06-30T13:23:38Z</time>
      </trkpt>
      <trkpt lat="52.152839982882142" lon="-10.244088973850012">
        <ele>108.77</ele>
        <time>2026-06-30T13:23:47Z</time>
      </trkpt>
      <trkpt lat="52.152947019785643" lon="-10.244229035452008">
        <ele>109.25</ele>
        <time>2026-06-30T13:23:48Z</time>
      </trkpt>
      <trkpt lat="52.153404001146555" lon="-10.244825994595885">
        <ele>111.65000000000001</ele>
        <time>2026-06-30T13:23:52Z</time>
      </trkpt>
      <trkpt lat="52.153532998636365" lon="-10.24496597237885">
        <ele>112.13</ele>
        <time>2026-06-30T13:23:53Z</time>
      </trkpt>
      <trkpt lat="52.153679011389613" lon="-10.24505197070539">
        <ele>113.09</ele>
        <time>2026-06-30T13:23:54Z</time>
      </trkpt>
      <trkpt lat="52.153826029971242" lon="-10.245136963203549">
        <ele>114.05</ele>
        <time>2026-06-30T13:23:55Z</time>
      </trkpt>
      <trkpt lat="52.153971958905458" lon="-10.245222039520741">
        <ele>114.53</ele>
        <time>2026-06-30T13:23:56Z</time>
      </trkpt>
      <trkpt lat="52.154408991336823" lon="-10.245404010638595">
        <ele>117.90000000000001</ele>
        <time>2026-06-30T13:23:59Z</time>
      </trkpt>
      <trkpt lat="52.154535977169871" lon="-10.245408033952117">
        <ele>119.34</ele>
        <time>2026-06-30T13:24:00Z</time>
      </trkpt>
      <trkpt lat="52.154666986316442" lon="-10.245396969839931">
        <ele>120.3</ele>
        <time>2026-06-30T13:24:01Z</time>
      </trkpt>
      <trkpt lat="52.15479196049273" lon="-10.245337039232254">
        <ele>122.22</ele>
        <time>2026-06-30T13:24:02Z</time>
      </trkpt>
      <trkpt lat="52.154921041801572" lon="-10.245259003713727">
        <ele>123.19</ele>
        <time>2026-06-30T13:24:03Z</time>
      </trkpt>
      <trkpt lat="52.156326016411185" lon="-10.244192993268371">
        <ele>132.80000000000001</ele>
        <time>2026-06-30T13:24:13Z</time>
      </trkpt>
      <trkpt lat="52.15779896825552" lon="-10.243412973359227">
        <ele>141.44999999999999</ele>
        <time>2026-06-30T13:24:22Z</time>
      </trkpt>
      <trkpt lat="52.159663019701838" lon="-10.242735967040062">
        <ele>155.38999999999999</ele>
        <time>2026-06-30T13:24:33Z</time>
      </trkpt>
      <trkpt lat="52.159804003313184" lon="-10.242633037269115">
        <ele>157.31</ele>
        <time>2026-06-30T13:24:34Z</time>
      </trkpt>
      <trkpt lat="52.15994699858129" lon="-10.242519965395331">
        <ele>158.75</ele>
        <time>2026-06-30T13:24:35Z</time>
      </trkpt>
      <trkpt lat="52.160411020740867" lon="-10.24219399318099">
        <ele>163.08000000000001</ele>
        <time>2026-06-30T13:24:38Z</time>
      </trkpt>
      <trkpt lat="52.160572959110141" lon="-10.242114029824734">
        <ele>164.03999999999999</ele>
        <time>2026-06-30T13:24:39Z</time>
      </trkpt>
      <trkpt lat="52.162452014163136" lon="-10.241573983803391">
        <ele>181.34999999999999</ele>
        <time>2026-06-30T13:24:50Z</time>
      </trkpt>
      <trkpt lat="52.163869980722666" lon="-10.241010971367359">
        <ele>196.25</ele>
        <time>2026-06-30T13:24:59Z</time>
      </trkpt>
      <trkpt lat="52.164338026195765" lon="-10.240875016897917">
        <ele>200.09</ele>
        <time>2026-06-30T13:25:02Z</time>
      </trkpt>
      <trkpt lat="52.164493007585406" lon="-10.240849032998085">
        <ele>201.53</ele>
        <time>2026-06-30T13:25:03Z</time>
      </trkpt>
      <trkpt lat="52.164637008681893" lon="-10.240892032161355">
        <ele>203.46000000000001</ele>
        <time>2026-06-30T13:25:04Z</time>
      </trkpt>
      <trkpt lat="52.164772041141987" lon="-10.240933019667864">
        <ele>204.90000000000001</ele>
        <time>2026-06-30T13:25:05Z</time>
      </trkpt>
      <trkpt lat="52.16491000726819" lon="-10.240975013002753">
        <ele>206.34</ele>
        <time>2026-06-30T13:25:06Z</time>
      </trkpt>
      <trkpt lat="52.165044033899903" lon="-10.240921033546329">
        <ele>207.78</ele>
        <time>2026-06-30T13:25:07Z</time>
      </trkpt>
      <trkpt lat="52.16518803499639" lon="-10.240852972492576">
        <ele>209.22</ele>
        <time>2026-06-30T13:25:08Z</time>
      </trkpt>
      <trkpt lat="52.166580017656088" lon="-10.240055015310645">
        <ele>220.75999999999999</ele>
        <time>2026-06-30T13:25:17Z</time>
      </trkpt>
      <trkpt lat="52.168447002768517" lon="-10.239259991794825">
        <ele>239.50999999999999</ele>
        <time>2026-06-30T13:25:30Z</time>
      </trkpt>
      <trkpt lat="52.168864002451301" lon="-10.239001996815205">
        <ele>243.34999999999999</ele>
        <time>2026-06-30T13:25:33Z</time>
      </trkpt>
      <trkpt lat="52.168992999941111" lon="-10.238880040124059">
        <ele>244.31</ele>
        <time>2026-06-30T13:25:34Z</time>
      </trkpt>
      <trkpt lat="52.16912099160254" lon="-10.238753976300359">
        <ele>245.75</ele>
        <time>2026-06-30T13:25:35Z</time>
      </trkpt>
      <trkpt lat="52.169214030727744" lon="-10.238563036546111">
        <ele>246.72</ele>
        <time>2026-06-30T13:25:36Z</time>
      </trkpt>
      <trkpt lat="52.169308997690678" lon="-10.238365978002548">
        <ele>247.68000000000001</ele>
        <time>2026-06-30T13:25:37Z</time>
      </trkpt>
      <trkpt lat="52.169727003201842" lon="-10.237675979733467">
        <ele>252</ele>
        <time>2026-06-30T13:25:41Z</time>
      </trkpt>
      <trkpt lat="52.169801015406847" lon="-10.237454026937485">
        <ele>252.96000000000001</ele>
        <time>2026-06-30T13:25:42Z</time>
      </trkpt>
      <trkpt lat="52.169850971549749" lon="-10.237241964787245">
        <ele>253.44</ele>
        <time>2026-06-30T13:25:43Z</time>
      </trkpt>
      <trkpt lat="52.169940993189812" lon="-10.237055970355868">
        <ele>254.41</ele>
        <time>2026-06-30T13:25:44Z</time>
      </trkpt>
      <trkpt lat="52.170048030093312" lon="-10.236882967874408">
        <ele>255.37</ele>
        <time>2026-06-30T13:25:45Z</time>
      </trkpt>
      <trkpt lat="52.170156994834542" lon="-10.236706025898457">
        <ele>256.32999999999998</ele>
        <time>2026-06-30T13:25:46Z</time>
      </trkpt>
      <trkpt lat="52.170377019792795" lon="-10.236348034814">
        <ele>258.73000000000002</ele>
        <time>2026-06-30T13:25:48Z</time>
      </trkpt>
      <trkpt lat="52.170452959835529" lon="-10.236119963228703">
        <ele>259.69</ele>
        <time>2026-06-30T13:25:49Z</time>
      </trkpt>
      <trkpt lat="52.171283019706607" lon="-10.233529033139348">
        <ele>273.14999999999998</ele>
        <time>2026-06-30T13:26:00Z</time>
      </trkpt>
      <trkpt lat="52.171395001932979" lon="-10.23334396071732">
        <ele>274.11000000000001</ele>
        <time>2026-06-30T13:26:01Z</time>
      </trkpt>
      <trkpt lat="52.171493992209435" lon="-10.233187973499298">
        <ele>275.06999999999999</ele>
        <time>2026-06-30T13:26:02Z</time>
      </trkpt>
      <trkpt lat="52.171615026891232" lon="-10.233059981837869">
        <ele>276.04000000000002</ele>
        <time>2026-06-30T13:26:03Z</time>
      </trkpt>
      <trkpt lat="52.172396974638104" lon="-10.232228999957442">
        <ele>279.39999999999998</ele>
        <time>2026-06-30T13:26:09Z</time>
      </trkpt>
      <trkpt lat="52.172523960471153" lon="-10.232069995254278">
        <ele>280.36000000000001</ele>
        <time>2026-06-30T13:26:10Z</time>
      </trkpt>
      <trkpt lat="52.172768963500857" lon="-10.23147395811975">
        <ele>281.80000000000001</ele>
        <time>2026-06-30T13:26:13Z</time>
      </trkpt>
      <trkpt lat="52.172878012061119" lon="-10.231312019750476">
        <ele>282.27999999999997</ele>
        <time>2026-06-30T13:26:14Z</time>
      </trkpt>
      <trkpt lat="52.172995023429394" lon="-10.231195008382201">
        <ele>283.25</ele>
        <time>2026-06-30T13:26:15Z</time>
      </trkpt>
      <trkpt lat="52.173127038404346" lon="-10.231131976470351">
        <ele>283.73000000000002</ele>
        <time>2026-06-30T13:26:16Z</time>
      </trkpt>
      <trkpt lat="52.173263998702168" lon="-10.23108403198421">
        <ele>284.20999999999998</ele>
        <time>2026-06-30T13:26:17Z</time>
      </trkpt>
      <trkpt lat="52.173401964828372" lon="-10.231037009507418">
        <ele>285.17000000000002</ele>
        <time>2026-06-30T13:26:18Z</time>
      </trkpt>
      <trkpt lat="52.173542026430368" lon="-10.230988981202245">
        <ele>286.13</ele>
        <time>2026-06-30T13:26:19Z</time>
      </trkpt>
      <trkpt lat="52.173674963414669" lon="-10.230887979269028">
        <ele>287.08999999999997</ele>
        <time>2026-06-30T13:26:20Z</time>
      </trkpt>
      <trkpt lat="52.173803960904479" lon="-10.230770967900753">
        <ele>288.05000000000001</ele>
        <time>2026-06-30T13:26:21Z</time>
      </trkpt>
      <trkpt lat="52.175112040713429" lon="-10.22945299744606">
        <ele>300.55000000000001</ele>
        <time>2026-06-30T13:26:31Z</time>
      </trkpt>
      <trkpt lat="52.175316978245974" lon="-10.229123001918197">
        <ele>302.94999999999999</ele>
        <time>2026-06-30T13:26:33Z</time>
      </trkpt>
      <trkpt lat="52.17539400793612" lon="-10.228917980566621">
        <ele>303.91000000000003</ele>
        <time>2026-06-30T13:26:34Z</time>
      </trkpt>
      <trkpt lat="52.176105966791511" lon="-10.226813033223152">
        <ele>314.00999999999999</ele>
        <time>2026-06-30T13:26:43Z</time>
      </trkpt>
      <trkpt lat="52.177029987797141" lon="-10.224077012389898">
        <ele>326.5</ele>
        <time>2026-06-30T13:26:54Z</time>
      </trkpt>
      <trkpt lat="52.177083967253566" lon="-10.223836032673717">
        <ele>327.47000000000003</ele>
        <time>2026-06-30T13:26:55Z</time>
      </trkpt>
      <trkpt lat="52.177126966416836" lon="-10.223598992452025">
        <ele>328.43000000000001</ele>
        <time>2026-06-30T13:26:56Z</time>
      </trkpt>
      <trkpt lat="52.177223023027182" lon="-10.222793994471431">
        <ele>331.31</ele>
        <time>2026-06-30T13:26:59Z</time>
      </trkpt>
      <trkpt lat="52.177355038002133" lon="-10.221982961520553">
        <ele>334.19999999999999</ele>
        <time>2026-06-30T13:27:02Z</time>
      </trkpt>
      <trkpt lat="52.177370963618159" lon="-10.221704011783004">
        <ele>335.16000000000003</ele>
        <time>2026-06-30T13:27:03Z</time>
      </trkpt>
      <trkpt lat="52.177438018843532" lon="-10.220376988872886">
        <ele>340.44</ele>
        <time>2026-06-30T13:27:08Z</time>
      </trkpt>
      <trkpt lat="52.177486969158053" lon="-10.220118993893266">
        <ele>341.41000000000003</ele>
        <time>2026-06-30T13:27:09Z</time>
      </trkpt>
      <trkpt lat="52.177818976342678" lon="-10.21885902620852">
        <ele>348.13</ele>
        <time>2026-06-30T13:27:14Z</time>
      </trkpt>
      <trkpt lat="52.177919978275895" lon="-10.218633972108364">
        <ele>349.10000000000002</ele>
        <time>2026-06-30T13:27:15Z</time>
      </trkpt>
      <trkpt lat="52.178040007129312" lon="-10.218444960191846">
        <ele>350.54000000000002</ele>
        <time>2026-06-30T13:27:16Z</time>
      </trkpt>
      <trkpt lat="52.178161041811109" lon="-10.218243962153792">
        <ele>351.98000000000002</ele>
        <time>2026-06-30T13:27:17Z</time>
      </trkpt>
      <trkpt lat="52.17825198546052" lon="-10.218012034893036">
        <ele>353.42000000000002</ele>
        <time>2026-06-30T13:27:18Z</time>
      </trkpt>
      <trkpt lat="52.178344018757343" lon="-10.217777006328106">
        <ele>354.86000000000001</ele>
        <time>2026-06-30T13:27:19Z</time>
      </trkpt>
      <trkpt lat="52.178525989875197" lon="-10.217311978340149">
        <ele>357.75</ele>
        <time>2026-06-30T13:27:21Z</time>
      </trkpt>
      <trkpt lat="52.179124038666487" lon="-10.216144965961576">
        <ele>364.48000000000002</ele>
        <time>2026-06-30T13:27:27Z</time>
      </trkpt>
      <trkpt lat="52.17975502833724" lon="-10.214405972510576">
        <ele>375.05000000000001</ele>
        <time>2026-06-30T13:27:35Z</time>
      </trkpt>
      <trkpt lat="52.180259032174945" lon="-10.212799999862909">
        <ele>385.14999999999998</ele>
        <time>2026-06-30T13:27:42Z</time>
      </trkpt>
      <trkpt lat="52.180651975795627" lon="-10.211101993918419">
        <ele>394.75999999999999</ele>
        <time>2026-06-30T13:27:49Z</time>
      </trkpt>
      <trkpt lat="52.180749960243702" lon="-10.210904013365507">
        <ele>396.19999999999999</ele>
        <time>2026-06-30T13:27:50Z</time>
      </trkpt>
      <trkpt lat="52.180845011025667" lon="-10.21069597452879">
        <ele>397.63999999999999</ele>
        <time>2026-06-30T13:27:51Z</time>
      </trkpt>
      <trkpt lat="52.180910976603627" lon="-10.210461029782891">
        <ele>399.07999999999998</ele>
        <time>2026-06-30T13:27:52Z</time>
      </trkpt>
      <trkpt lat="52.180977026000619" lon="-10.210226001217961">
        <ele>400.52999999999997</ele>
        <time>2026-06-30T13:27:53Z</time>
      </trkpt>
      <trkpt lat="52.181041985750198" lon="-10.209992984309793">
        <ele>401.97000000000003</ele>
        <time>2026-06-30T13:27:54Z</time>
      </trkpt>
      <trkpt lat="52.181169977411628" lon="-10.209538014605641">
        <ele>404.85000000000002</ele>
        <time>2026-06-30T13:27:56Z</time>
      </trkpt>
      <trkpt lat="52.181209037080407" lon="-10.209301980212331">
        <ele>405.81</ele>
        <time>2026-06-30T13:27:57Z</time>
      </trkpt>
      <trkpt lat="52.181641962379217" lon="-10.207611015066504">
        <ele>416.38999999999999</ele>
        <time>2026-06-30T13:28:05Z</time>
      </trkpt>
      <trkpt lat="52.181687979027629" lon="-10.20749400369823">
        <ele>417.35000000000002</ele>
        <time>2026-06-30T13:28:07Z</time>
      </trkpt>
      <trkpt lat="52.18179602175951" lon="-10.20766600035131">
        <ele>417.35000000000002</ele>
        <time>2026-06-30T13:28:12Z</time>
      </trkpt>
      <trkpt lat="52.181776994839311" lon="-10.207854006439447">
        <ele>414.47000000000003</ele>
        <time>2026-06-30T13:28:20Z</time>
      </trkpt>
      <trkpt lat="52.181718992069364" lon="-10.207893988117576">
        <ele>412.54000000000002</ele>
        <time>2026-06-30T13:28:36Z</time>
      </trkpt>
      <trkpt lat="52.181731984019279" lon="-10.207891976460814">
        <ele>412.06</ele>
        <time>2026-06-30T13:29:15Z</time>
      </trkpt>
      <trkpt lat="52.181731984019279" lon="-10.207891976460814">
        <ele>412.06</ele>
        <time>2026-06-30T13:29:17Z</time>
      </trkpt>
      <trkpt lat="52.181630982086062" lon="-10.207640016451478">
        <ele>412.06</ele>
        <time>2026-06-30T13:29:20Z</time>
      </trkpt>
      <trkpt lat="52.181743970140815" lon="-10.207351008430123">
        <ele>411.10000000000002</ele>
        <time>2026-06-30T13:29:27Z</time>
      </trkpt>
      <trkpt lat="52.181772971525788" lon="-10.207278002053499">
        <ele>411.10000000000002</ele>
        <time>2026-06-30T13:29:28Z</time>
      </trkpt>
      <trkpt lat="52.181870033964515" lon="-10.206934008747339">
        <ele>410.62</ele>
        <time>2026-06-30T13:29:31Z</time>
      </trkpt>
      <trkpt lat="52.181881014257669" lon="-10.20678699016571">
        <ele>410.62</ele>
        <time>2026-06-30T13:29:32Z</time>
      </trkpt>
      <trkpt lat="52.181868022307754" lon="-10.206632008776069">
        <ele>410.13999999999999</ele>
        <time>2026-06-30T13:29:33Z</time>
      </trkpt>
      <trkpt lat="52.181844972074032" lon="-10.20646202377975">
        <ele>409.18000000000001</ele>
        <time>2026-06-30T13:29:34Z</time>
      </trkpt>
      <trkpt lat="52.181820999830961" lon="-10.206280974671245">
        <ele>408.69999999999999</ele>
        <time>2026-06-30T13:29:35Z</time>
      </trkpt>
      <trkpt lat="52.181695019826293" lon="-10.205219993367791">
        <ele>404.85000000000002</ele>
        <time>2026-06-30T13:29:41Z</time>
      </trkpt>
      <trkpt lat="52.181701976805925" lon="-10.205084038898349">
        <ele>403.88999999999999</ele>
        <time>2026-06-30T13:29:42Z</time>
      </trkpt>
      <trkpt lat="52.181687979027629" lon="-10.204698974266648">
        <ele>401.00999999999999</ele>
        <time>2026-06-30T13:29:45Z</time>
      </trkpt>
      <trkpt lat="52.181670963764191" lon="-10.204553967341781">
        <ele>400.52999999999997</ele>
        <time>2026-06-30T13:29:46Z</time>
      </trkpt>
      <trkpt lat="52.181607009842992" lon="-10.204010987654328">
        <ele>398.12</ele>
        <time>2026-06-30T13:29:51Z</time>
      </trkpt>
      <trkpt lat="52.181569039821625" lon="-10.20369197241962">
        <ele>394.75999999999999</ele>
        <time>2026-06-30T13:29:58Z</time>
      </trkpt>
      <trkpt lat="52.181534003466368" lon="-10.203396007418633">
        <ele>392.36000000000001</ele>
        <time>2026-06-30T13:30:10Z</time>
      </trkpt>
      <trkpt lat="52.181497039273381" lon="-10.202930979430676">
        <ele>389.47000000000003</ele>
        <time>2026-06-30T13:30:19Z</time>
      </trkpt>
      <trkpt lat="52.181497039273381" lon="-10.202814973890781">
        <ele>388.99000000000001</ele>
        <time>2026-06-30T13:30:20Z</time>
      </trkpt>
      <trkpt lat="52.181508019566536" lon="-10.202694023028016">
        <ele>388.50999999999999</ele>
        <time>2026-06-30T13:30:21Z</time>
      </trkpt>
      <trkpt lat="52.181534003466368" lon="-10.202587991952896">
        <ele>388.02999999999997</ele>
        <time>2026-06-30T13:30:22Z</time>
      </trkpt>
      <trkpt lat="52.181557975709438" lon="-10.202493024989963">
        <ele>387.06999999999999</ele>
        <time>2026-06-30T13:30:23Z</time>
      </trkpt>
      <trkpt lat="52.181669035926461" lon="-10.202200999483466">
        <ele>385.14999999999998</ele>
        <time>2026-06-30T13:30:26Z</time>
      </trkpt>
      <trkpt lat="52.181672975420952" lon="-10.202133022248745">
        <ele>384.66000000000003</ele>
        <time>2026-06-30T13:30:27Z</time>
      </trkpt>
      <trkpt lat="52.181680016219616" lon="-10.202030008658767">
        <ele>383.69999999999999</ele>
        <time>2026-06-30T13:30:28Z</time>
      </trkpt>
      <trkpt lat="52.181782023981214" lon="-10.201633041724563">
        <ele>380.33999999999997</ele>
        <time>2026-06-30T13:30:32Z</time>
      </trkpt>
      <trkpt lat="52.181992996484041" lon="-10.201071035116911">
        <ele>376.97000000000003</ele>
        <time>2026-06-30T13:30:36Z</time>
      </trkpt>
      <trkpt lat="52.182043958455324" lon="-10.200966009870172">
        <ele>376.00999999999999</ele>
        <time>2026-06-30T13:30:37Z</time>
      </trkpt>
      <trkpt lat="52.182167004793882" lon="-10.200753025710583">
        <ele>375.05000000000001</ele>
        <time>2026-06-30T13:30:39Z</time>
      </trkpt>
      <trkpt lat="52.182837976142764" lon="-10.20003997720778">
        <ele>370.73000000000002</ele>
        <time>2026-06-30T13:30:47Z</time>
      </trkpt>
      <trkpt lat="52.182926991954446" lon="-10.199952973052859">
        <ele>370.24000000000001</ele>
        <time>2026-06-30T13:30:48Z</time>
      </trkpt>
      <trkpt lat="52.183021958917379" lon="-10.199861023575068">
        <ele>369.27999999999997</ele>
        <time>2026-06-30T13:30:49Z</time>
      </trkpt>
      <trkpt lat="52.183911027386785" lon="-10.199220981448889">
        <ele>361.58999999999997</ele>
        <time>2026-06-30T13:30:57Z</time>
      </trkpt>
      <trkpt lat="52.184027032926679" lon="-10.199138000607491">
        <ele>361.11000000000001</ele>
        <time>2026-06-30T13:30:58Z</time>
      </trkpt>
      <trkpt lat="52.184143960475922" lon="-10.199006991460919">
        <ele>359.67000000000002</ele>
        <time>2026-06-30T13:30:59Z</time>
      </trkpt>
      <trkpt lat="52.185312984511256" lon="-10.197083009406924">
        <ele>344.76999999999998</ele>
        <time>2026-06-30T13:31:10Z</time>
      </trkpt>
      <trkpt lat="52.185788992792368" lon="-10.196226965636015">
        <ele>339</ele>
        <time>2026-06-30T13:31:15Z</time>
      </trkpt>
      <trkpt lat="52.185850013047457" lon="-10.196053963154554">
        <ele>338.04000000000002</ele>
        <time>2026-06-30T13:31:16Z</time>
      </trkpt>
      <trkpt lat="52.186086969450116" lon="-10.195137988775969">
        <ele>335.63999999999999</ele>
        <time>2026-06-30T13:31:22Z</time>
      </trkpt>
      <trkpt lat="52.186080012470484" lon="-10.195046961307526">
        <ele>335.16000000000003</ele>
        <time>2026-06-30T13:31:23Z</time>
      </trkpt>
      <trkpt lat="52.186048999428749" lon="-10.194674972444773">
        <ele>332.26999999999998</ele>
        <time>2026-06-30T13:31:31Z</time>
      </trkpt>
      <trkpt lat="52.186025027185678" lon="-10.194390993565321">
        <ele>330.82999999999998</ele>
        <time>2026-06-30T13:31:43Z</time>
      </trkpt>
      <trkpt lat="52.185975993052125" lon="-10.193857988342643">
        <ele>329.38999999999999</ele>
        <time>2026-06-30T13:31:47Z</time>
      </trkpt>
      <trkpt lat="52.185904998332262" lon="-10.193645004183054">
        <ele>328.91000000000003</ele>
        <time>2026-06-30T13:31:49Z</time>
      </trkpt>
      <trkpt lat="52.185874991118908" lon="-10.193545008078218">
        <ele>328.91000000000003</ele>
        <time>2026-06-30T13:31:50Z</time>
      </trkpt>
      <trkpt lat="52.185874991118908" lon="-10.193406958132982">
        <ele>328.91000000000003</ele>
        <time>2026-06-30T13:31:51Z</time>
      </trkpt>
      <trkpt lat="52.185998037457466" lon="-10.192023022100329">
        <ele>324.10000000000002</ele>
        <time>2026-06-30T13:31:59Z</time>
      </trkpt>
      <trkpt lat="52.186012035235763" lon="-10.191878015175462">
        <ele>323.62</ele>
        <time>2026-06-30T13:32:00Z</time>
      </trkpt>
      <trkpt lat="52.18603097833693" lon="-10.191690009087324">
        <ele>322.66000000000003</ele>
        <time>2026-06-30T13:32:05Z</time>
      </trkpt>
      <trkpt lat="52.186119994148612" lon="-10.191289018839598">
        <ele>320.74000000000001</ele>
        <time>2026-06-30T13:32:12Z</time>
      </trkpt>
      <trkpt lat="52.186150001361966" lon="-10.191190028563142">
        <ele>320.74000000000001</ele>
        <time>2026-06-30T13:32:13Z</time>
      </trkpt>
      <trkpt lat="52.18628603965044" lon="-10.19088501110673">
        <ele>319.30000000000001</ele>
        <time>2026-06-30T13:32:16Z</time>
      </trkpt>
      <trkpt lat="52.18635099940002" lon="-10.190760958939791">
        <ele>319.30000000000001</ele>
        <time>2026-06-30T13:32:17Z</time>
      </trkpt>
      <trkpt lat="52.186525007709861" lon="-10.190632967278361">
        <ele>317.85000000000002</ele>
        <time>2026-06-30T13:32:19Z</time>
      </trkpt>
      <trkpt lat="52.186621986329556" lon="-10.190561972558498">
        <ele>317.37</ele>
        <time>2026-06-30T13:32:20Z</time>
      </trkpt>
      <trkpt lat="52.187311984598637" lon="-10.190055035054684">
        <ele>311.60000000000002</ele>
        <time>2026-06-30T13:32:27Z</time>
      </trkpt>
      <trkpt lat="52.187393959611654" lon="-10.190055035054684">
        <ele>310.63999999999999</ele>
        <time>2026-06-30T13:32:28Z</time>
      </trkpt>
      <trkpt lat="52.187508959323168" lon="-10.190074983984232">
        <ele>310.16000000000003</ele>
        <time>2026-06-30T13:32:29Z</time>
      </trkpt>
      <trkpt lat="52.187608033418655" lon="-10.190151007845998">
        <ele>309.19999999999999</ele>
        <time>2026-06-30T13:32:30Z</time>
      </trkpt>
      <trkpt lat="52.187710041180253" lon="-10.190229965373874">
        <ele>308.24000000000001</ele>
        <time>2026-06-30T13:32:31Z</time>
      </trkpt>
      <trkpt lat="52.18781397677958" lon="-10.190311018377542">
        <ele>306.80000000000001</ele>
        <time>2026-06-30T13:32:32Z</time>
      </trkpt>
      <trkpt lat="52.187915984541178" lon="-10.190388970077038">
        <ele>305.83999999999997</ele>
        <time>2026-06-30T13:32:33Z</time>
      </trkpt>
      <trkpt lat="52.188016986474395" lon="-10.19043498672545">
        <ele>304.38999999999999</ele>
        <time>2026-06-30T13:32:34Z</time>
      </trkpt>
      <trkpt lat="52.188133997842669" lon="-10.190464993938804">
        <ele>303.43000000000001</ele>
        <time>2026-06-30T13:32:35Z</time>
      </trkpt>
      <trkpt lat="52.188256038352847" lon="-10.190511010587215">
        <ele>302.47000000000003</ele>
        <time>2026-06-30T13:32:36Z</time>
      </trkpt>
      <trkpt lat="52.18837003223598" lon="-10.190580999478698">
        <ele>301.50999999999999</ele>
        <time>2026-06-30T13:32:37Z</time>
      </trkpt>
      <trkpt lat="52.188491988927126" lon="-10.190656017512083">
        <ele>300.55000000000001</ele>
        <time>2026-06-30T13:32:38Z</time>
      </trkpt>
      <trkpt lat="52.188601037487388" lon="-10.190750984475017">
        <ele>299.11000000000001</ele>
        <time>2026-06-30T13:32:39Z</time>
      </trkpt>
      <trkpt lat="52.189259016886353" lon="-10.191324977204204">
        <ele>293.33999999999997</ele>
        <time>2026-06-30T13:32:45Z</time>
      </trkpt>
      <trkpt lat="52.189355995506048" lon="-10.191385997459292">
        <ele>292.38</ele>
        <time>2026-06-30T13:32:46Z</time>
      </trkpt>
      <trkpt lat="52.189458003267646" lon="-10.191385997459292">
        <ele>291.42000000000002</ele>
        <time>2026-06-30T13:32:47Z</time>
      </trkpt>
      <trkpt lat="52.189561016857624" lon="-10.191385997459292">
        <ele>290.94</ele>
        <time>2026-06-30T13:32:48Z</time>
      </trkpt>
      <trkpt lat="52.189651960507035" lon="-10.191325983032584">
        <ele>289.97000000000003</ele>
        <time>2026-06-30T13:32:49Z</time>
      </trkpt>
      <trkpt lat="52.189754974097013" lon="-10.191253982484341">
        <ele>289.49000000000001</ele>
        <time>2026-06-30T13:32:50Z</time>
      </trkpt>
      <trkpt lat="52.189844995737076" lon="-10.191146023571491">
        <ele>288.52999999999997</ele>
        <time>2026-06-30T13:32:51Z</time>
      </trkpt>
      <trkpt lat="52.189941974356771" lon="-10.191013002768159">
        <ele>288.05000000000001</ele>
        <time>2026-06-30T13:32:52Z</time>
      </trkpt>
      <trkpt lat="52.190011963248253" lon="-10.190837988629937">
        <ele>287.08999999999997</ele>
        <time>2026-06-30T13:32:53Z</time>
      </trkpt>
      <trkpt lat="52.190083041787148" lon="-10.1906499825418">
        <ele>286.13</ele>
        <time>2026-06-30T13:32:54Z</time>
      </trkpt>
      <trkpt lat="52.191046960651875" lon="-10.189021965488791">
        <ele>277.48000000000002</ele>
        <time>2026-06-30T13:33:03Z</time>
      </trkpt>
      <trkpt lat="52.191458009183407" lon="-10.18858602270484">
        <ele>274.58999999999997</ele>
        <time>2026-06-30T13:33:06Z</time>
      </trkpt>
      <trkpt lat="52.191607961431146" lon="-10.18845803104341">
        <ele>273.14999999999998</ele>
        <time>2026-06-30T13:33:07Z</time>
      </trkpt>
      <trkpt lat="52.192770028486848" lon="-10.187758980318904">
        <ele>264.01999999999998</ele>
        <time>2026-06-30T13:33:14Z</time>
      </trkpt>
      <trkpt lat="52.192917969077826" lon="-10.187602993100882">
        <ele>262.57999999999998</ele>
        <time>2026-06-30T13:33:15Z</time>
      </trkpt>
      <trkpt lat="52.193060964345932" lon="-10.187430996447802">
        <ele>261.13999999999999</ele>
        <time>2026-06-30T13:33:16Z</time>
      </trkpt>
      <trkpt lat="52.193198008462787" lon="-10.187223041430116">
        <ele>260.17000000000002</ele>
        <time>2026-06-30T13:33:17Z</time>
      </trkpt>
      <trkpt lat="52.193327005952597" lon="-10.186989018693566">
        <ele>258.73000000000002</ele>
        <time>2026-06-30T13:33:18Z</time>
      </trkpt>
      <trkpt lat="52.194456970319152" lon="-10.185304004698992">
        <ele>246.72</ele>
        <time>2026-06-30T13:33:26Z</time>
      </trkpt>
      <trkpt lat="52.195349978283048" lon="-10.183853013440967">
        <ele>236.62</ele>
        <time>2026-06-30T13:33:34Z</time>
      </trkpt>
      <trkpt lat="52.196347005665302" lon="-10.182608971372247">
        <ele>227.49000000000001</ele>
        <time>2026-06-30T13:33:42Z</time>
      </trkpt>
      <trkpt lat="52.196497963741422" lon="-10.18250897526741">
        <ele>226.05000000000001</ele>
        <time>2026-06-30T13:33:43Z</time>
      </trkpt>
      <trkpt lat="52.19709500670433" lon="-10.182021986693144">
        <ele>220.28</ele>
        <time>2026-06-30T13:33:47Z</time>
      </trkpt>
      <trkpt lat="52.197251999750733" lon="-10.18194898031652">
        <ele>218.84</ele>
        <time>2026-06-30T13:33:48Z</time>
      </trkpt>
      <trkpt lat="52.197412010282278" lon="-10.181874968111515">
        <ele>216.91</ele>
        <time>2026-06-30T13:33:49Z</time>
      </trkpt>
      <trkpt lat="52.197574032470584" lon="-10.181801039725542">
        <ele>215.47</ele>
        <time>2026-06-30T13:33:50Z</time>
      </trkpt>
      <trkpt lat="52.197724990546703" lon="-10.181670030578971">
        <ele>214.03</ele>
        <time>2026-06-30T13:33:51Z</time>
      </trkpt>
      <trkpt lat="52.197864968329668" lon="-10.181513037532568">
        <ele>213.06999999999999</ele>
        <time>2026-06-30T13:33:52Z</time>
      </trkpt>
      <trkpt lat="52.198002012446523" lon="-10.181357972323895">
        <ele>212.11000000000001</ele>
        <time>2026-06-30T13:33:53Z</time>
      </trkpt>
      <trkpt lat="52.198978001251817" lon="-10.180473010987043">
        <ele>203.46000000000001</ele>
        <time>2026-06-30T13:34:00Z</time>
      </trkpt>
      <trkpt lat="52.199102975428104" lon="-10.180335966870189">
        <ele>202.00999999999999</ele>
        <time>2026-06-30T13:34:01Z</time>
      </trkpt>
      <trkpt lat="52.199206994846463" lon="-10.180188026279211">
        <ele>201.05000000000001</ele>
        <time>2026-06-30T13:34:02Z</time>
      </trkpt>
      <trkpt lat="52.200036970898509" lon="-10.179010033607483">
        <ele>192.40000000000001</ele>
        <time>2026-06-30T13:34:09Z</time>
      </trkpt>
      <trkpt lat="52.200170997530222" lon="-10.17885304056108">
        <ele>191.44</ele>
        <time>2026-06-30T13:34:10Z</time>
      </trkpt>
      <trkpt lat="52.200883962213993" lon="-10.178187014535069">
        <ele>184.71000000000001</ele>
        <time>2026-06-30T13:34:15Z</time>
      </trkpt>
      <trkpt lat="52.201023017987609" lon="-10.178057011216879">
        <ele>183.27000000000001</ele>
        <time>2026-06-30T13:34:16Z</time>
      </trkpt>
      <trkpt lat="52.201151009649038" lon="-10.177900018170476">
        <ele>181.83000000000001</ele>
        <time>2026-06-30T13:34:17Z</time>
      </trkpt>
      <trkpt lat="52.201641015708447" lon="-10.177214965224266">
        <ele>177.02000000000001</ele>
        <time>2026-06-30T13:34:21Z</time>
      </trkpt>
      <trkpt lat="52.201783005148172" lon="-10.177084039896727">
        <ele>175.58000000000001</ele>
        <time>2026-06-30T13:34:22Z</time>
      </trkpt>
      <trkpt lat="52.202376024797559" lon="-10.176537036895752">
        <ele>170.28999999999999</ele>
        <time>2026-06-30T13:34:26Z</time>
      </trkpt>
      <trkpt lat="52.202493036165833" lon="-10.176342995837331">
        <ele>168.84999999999999</ele>
        <time>2026-06-30T13:34:27Z</time>
      </trkpt>
      <trkpt lat="52.20360497944057" lon="-10.174711961299181">
        <ele>158.27000000000001</ele>
        <time>2026-06-30T13:34:35Z</time>
      </trkpt>
      <trkpt lat="52.20375501550734" lon="-10.174586987122893">
        <ele>156.83000000000001</ele>
        <time>2026-06-30T13:34:36Z</time>
      </trkpt>
      <trkpt lat="52.204200010746717" lon="-10.174216004088521">
        <ele>152.99000000000001</ele>
        <time>2026-06-30T13:34:39Z</time>
      </trkpt>
      <trkpt lat="52.204332025721669" lon="-10.174031015485525">
        <ele>151.53999999999999</ele>
        <time>2026-06-30T13:34:40Z</time>
      </trkpt>
      <trkpt lat="52.205870021134615" lon="-10.171716017648578">
        <ele>137.61000000000001</ele>
        <time>2026-06-30T13:34:51Z</time>
      </trkpt>
      <trkpt lat="52.20699998550117" lon="-10.1697669737041">
        <ele>127.98999999999999</ele>
        <time>2026-06-30T13:35:00Z</time>
      </trkpt>
      <trkpt lat="52.207043990492821" lon="-10.169497998431325">
        <ele>126.55</ele>
        <time>2026-06-30T13:35:01Z</time>
      </trkpt>
      <trkpt lat="52.207086989656091" lon="-10.16922902315855">
        <ele>125.11</ele>
        <time>2026-06-30T13:35:02Z</time>
      </trkpt>
      <trkpt lat="52.207168964669108" lon="-10.168720996007323">
        <ele>123.19</ele>
        <time>2026-06-30T13:35:04Z</time>
      </trkpt>
      <trkpt lat="52.207231996580958" lon="-10.168516980484128">
        <ele>121.73999999999999</ele>
        <time>2026-06-30T13:35:05Z</time>
      </trkpt>
      <trkpt lat="52.207309026271105" lon="-10.168324029073119">
        <ele>120.78</ele>
        <time>2026-06-30T13:35:06Z</time>
      </trkpt>
      <trkpt lat="52.207400975748897" lon="-10.168165024369955">
        <ele>119.34</ele>
        <time>2026-06-30T13:35:07Z</time>
      </trkpt>
      <trkpt lat="52.207516981288791" lon="-10.16804801300168">
        <ele>117.90000000000001</ele>
        <time>2026-06-30T13:35:08Z</time>
      </trkpt>
      <trkpt lat="52.207636004313827" lon="-10.16794097609818">
        <ele>116.45999999999999</ele>
        <time>2026-06-30T13:35:09Z</time>
      </trkpt>
      <trkpt lat="52.20777397044003" lon="-10.167864030227065">
        <ele>115.5</ele>
        <time>2026-06-30T13:35:10Z</time>
      </trkpt>
      <trkpt lat="52.208867976441979" lon="-10.167122986167669">
        <ele>106.36</ele>
        <time>2026-06-30T13:35:17Z</time>
      </trkpt>
      <trkpt lat="52.209042990580201" lon="-10.167043022811413">
        <ele>104.92</ele>
        <time>2026-06-30T13:35:18Z</time>
      </trkpt>
      <trkpt lat="52.209220016375184" lon="-10.166961969807744">
        <ele>103.48</ele>
        <time>2026-06-30T13:35:19Z</time>
      </trkpt>
      <trkpt lat="52.209396958351135" lon="-10.166896004229784">
        <ele>101.56</ele>
        <time>2026-06-30T13:35:20Z</time>
      </trkpt>
      <trkpt lat="52.210722975432873" lon="-10.166558967903256">
        <ele>88.579999999999998</ele>
        <time>2026-06-30T13:35:28Z</time>
      </trkpt>
      <trkpt lat="52.210872005671263" lon="-10.166390994563699">
        <ele>87.620000000000005</ele>
        <time>2026-06-30T13:35:29Z</time>
      </trkpt>
      <trkpt lat="52.210982982069254" lon="-10.16626400873065">
        <ele>86.659999999999997</ele>
        <time>2026-06-30T13:35:30Z</time>
      </trkpt>
      <trkpt lat="52.211151039227843" lon="-10.165964020416141">
        <ele>85.209999999999994</ele>
        <time>2026-06-30T13:35:32Z</time>
      </trkpt>
      <trkpt lat="52.211202001199126" lon="-10.165807027369738">
        <ele>84.730000000000004</ele>
        <time>2026-06-30T13:35:33Z</time>
      </trkpt>
      <trkpt lat="52.211245000362396" lon="-10.165642993524671">
        <ele>83.769999999999996</ele>
        <time>2026-06-30T13:35:34Z</time>
      </trkpt>
      <trkpt lat="52.211279030889273" lon="-10.165498992428184">
        <ele>83.290000000000006</ele>
        <time>2026-06-30T13:35:35Z</time>
      </trkpt>
      <trkpt lat="52.211250029504299" lon="-10.165339987725019">
        <ele>82.810000000000002</ele>
        <time>2026-06-30T13:35:36Z</time>
      </trkpt>
      <trkpt lat="52.211221028119326" lon="-10.165180983021855">
        <ele>82.810000000000002</ele>
        <time>2026-06-30T13:35:37Z</time>
      </trkpt>
      <trkpt lat="52.211194960400462" lon="-10.164841013029218">
        <ele>81.370000000000005</ele>
        <time>2026-06-30T13:35:39Z</time>
      </trkpt>
      <trkpt lat="52.211194960400462" lon="-10.164642026647925">
        <ele>80.890000000000001</ele>
        <time>2026-06-30T13:35:40Z</time>
      </trkpt>
      <trkpt lat="52.211194960400462" lon="-10.164448991417885">
        <ele>80.409999999999997</ele>
        <time>2026-06-30T13:35:41Z</time>
      </trkpt>
      <trkpt lat="52.211194960400462" lon="-10.164273977279663">
        <ele>79.930000000000007</ele>
        <time>2026-06-30T13:35:42Z</time>
      </trkpt>
      <trkpt lat="52.21123200841248" lon="-10.164098963141441">
        <ele>78.969999999999999</ele>
        <time>2026-06-30T13:35:43Z</time>
      </trkpt>
      <trkpt lat="52.211291017010808" lon="-10.163973988965154">
        <ele>78.480000000000004</ele>
        <time>2026-06-30T13:35:44Z</time>
      </trkpt>
      <trkpt lat="52.211357988417149" lon="-10.163833005353808">
        <ele>78</ele>
        <time>2026-06-30T13:35:45Z</time>
      </trkpt>
      <trkpt lat="52.21144599840045" lon="-10.163691015914083">
        <ele>77.519999999999996</ele>
        <time>2026-06-30T13:35:46Z</time>
      </trkpt>
      <trkpt lat="52.212468003854156" lon="-10.16231101937592">
        <ele>77.519999999999996</ele>
        <time>2026-06-30T13:35:55Z</time>
      </trkpt>
      <trkpt lat="52.213135035708547" lon="-10.161514990031719">
        <ele>75.120000000000005</ele>
        <time>2026-06-30T13:36:00Z</time>
      </trkpt>
      <trkpt lat="52.213277025148273" lon="-10.161426980048418">
        <ele>74.640000000000001</ele>
        <time>2026-06-30T13:36:01Z</time>
      </trkpt>
      <trkpt lat="52.21342102624476" lon="-10.161337964236736">
        <ele>73.680000000000007</ele>
        <time>2026-06-30T13:36:02Z</time>
      </trkpt>
      <trkpt lat="52.213563015684485" lon="-10.161250038072467">
        <ele>73.200000000000003</ele>
        <time>2026-06-30T13:36:03Z</time>
      </trkpt>
      <trkpt lat="52.21370299346745" lon="-10.161163033917546">
        <ele>72.239999999999995</ele>
        <time>2026-06-30T13:36:04Z</time>
      </trkpt>
      <trkpt lat="52.213840037584305" lon="-10.161033030599356">
        <ele>71.760000000000005</ele>
        <time>2026-06-30T13:36:05Z</time>
      </trkpt>
      <trkpt lat="52.213950008153915" lon="-10.160862039774656">
        <ele>70.790000000000006</ele>
        <time>2026-06-30T13:36:06Z</time>
      </trkpt>
      <trkpt lat="52.214061990380287" lon="-10.160688031464815">
        <ele>70.310000000000002</ele>
        <time>2026-06-30T13:36:07Z</time>
      </trkpt>
      <trkpt lat="52.214180007576942" lon="-10.160501031205058">
        <ele>69.349999999999994</ele>
        <time>2026-06-30T13:36:08Z</time>
      </trkpt>
      <trkpt lat="52.214259970933199" lon="-10.160274971276522">
        <ele>68.870000000000005</ele>
        <time>2026-06-30T13:36:09Z</time>
      </trkpt>
      <trkpt lat="52.214344041422009" lon="-10.160040026530623">
        <ele>67.909999999999997</ele>
        <time>2026-06-30T13:36:10Z</time>
      </trkpt>
      <trkpt lat="52.215247023850679" lon="-10.157260000705719">
        <ele>64.549999999999997</ele>
        <time>2026-06-30T13:36:21Z</time>
      </trkpt>
      <trkpt lat="52.215926963835955" lon="-10.154986996203661">
        <ele>61.659999999999997</ele>
        <time>2026-06-30T13:36:30Z</time>
      </trkpt>
      <trkpt lat="52.216879986226559" lon="-10.152009995654225">
        <ele>59.259999999999998</ele>
        <time>2026-06-30T13:36:42Z</time>
      </trkpt>
      <trkpt lat="52.21780601888895" lon="-10.149366008117795">
        <ele>54.93</ele>
        <time>2026-06-30T13:36:53Z</time>
      </trkpt>
      <trkpt lat="52.219164976850152" lon="-10.147151006385684">
        <ele>52.530000000000001</ele>
        <time>2026-06-30T13:37:04Z</time>
      </trkpt>
      <trkpt lat="52.220450006425381" lon="-10.144904991611838">
        <ele>52.049999999999997</ele>
        <time>2026-06-30T13:37:15Z</time>
      </trkpt>
      <trkpt lat="52.22152397967875" lon="-10.143279992043972">
        <ele>51.090000000000003</ele>
        <time>2026-06-30T13:37:24Z</time>
      </trkpt>
      <trkpt lat="52.222839016467333" lon="-10.140800960361958">
        <ele>53.490000000000002</ele>
        <time>2026-06-30T13:37:36Z</time>
      </trkpt>
      <trkpt lat="52.224023966118693" lon="-10.138223022222519">
        <ele>52.530000000000001</ele>
        <time>2026-06-30T13:37:47Z</time>
      </trkpt>
      <trkpt lat="52.224569963291287" lon="-10.137034971266985">
        <ele>51.57</ele>
        <time>2026-06-30T13:37:54Z</time>
      </trkpt>
      <trkpt lat="52.224926026538014" lon="-10.136258974671364">
        <ele>52.049999999999997</ele>
        <time>2026-06-30T13:38:03Z</time>
      </trkpt>
      <trkpt lat="52.225131969898939" lon="-10.135811967775226">
        <ele>53.009999999999998</ele>
        <time>2026-06-30T13:38:10Z</time>
      </trkpt>
      <trkpt lat="52.225162982940674" lon="-10.135789001360536">
        <ele>53.490000000000002</ele>
        <time>2026-06-30T13:38:11Z</time>
      </trkpt>
      <trkpt lat="52.225207993760705" lon="-10.135787995532155">
        <ele>53.490000000000002</ele>
        <time>2026-06-30T13:38:12Z</time>
      </trkpt>
      <trkpt lat="52.225268008187413" lon="-10.135785983875394">
        <ele>53.490000000000002</ele>
        <time>2026-06-30T13:38:13Z</time>
      </trkpt>
      <trkpt lat="52.225344032049179" lon="-10.135784978047013">
        <ele>53.490000000000002</ele>
        <time>2026-06-30T13:38:14Z</time>
      </trkpt>
      <trkpt lat="52.225432964041829" lon="-10.135781960561872">
        <ele>53.490000000000002</ele>
        <time>2026-06-30T13:38:15Z</time>
      </trkpt>
      <trkpt lat="52.226395038887858" lon="-10.13586301356554">
        <ele>48.68</ele>
        <time>2026-06-30T13:38:23Z</time>
      </trkpt>
      <trkpt lat="52.226783959195018" lon="-10.135982036590576">
        <ele>46.280000000000001</ele>
        <time>2026-06-30T13:38:26Z</time>
      </trkpt>
      <trkpt lat="52.226898958906531" lon="-10.136017994955182">
        <ele>45.799999999999997</ele>
        <time>2026-06-30T13:38:27Z</time>
      </trkpt>
      <trkpt lat="52.226997027173638" lon="-10.136111034080386">
        <ele>44.840000000000003</ele>
        <time>2026-06-30T13:38:28Z</time>
      </trkpt>
      <trkpt lat="52.227095011621714" lon="-10.136224022135139">
        <ele>43.880000000000003</ele>
        <time>2026-06-30T13:38:29Z</time>
      </trkpt>
      <trkpt lat="52.227199031040072" lon="-10.136343967169523">
        <ele>43.399999999999999</ele>
        <time>2026-06-30T13:38:30Z</time>
      </trkpt>
      <trkpt lat="52.227330962195992" lon="-10.136497020721436">
        <ele>42.920000000000002</ele>
        <time>2026-06-30T13:38:31Z</time>
      </trkpt>
      <trkpt lat="52.227402962744236" lon="-10.13661403208971">
        <ele>41.950000000000003</ele>
        <time>2026-06-30T13:38:32Z</time>
      </trkpt>
      <trkpt lat="52.227493990212679" lon="-10.136761972680688">
        <ele>40.990000000000002</ele>
        <time>2026-06-30T13:38:33Z</time>
      </trkpt>
      <trkpt lat="52.228046022355556" lon="-10.137546015903354">
        <ele>34.259999999999998</ele>
        <time>2026-06-30T13:38:39Z</time>
      </trkpt>
      <trkpt lat="52.229033997282386" lon="-10.138664999976754">
        <ele>24.649999999999999</ele>
        <time>2026-06-30T13:38:48Z</time>
      </trkpt>
      <trkpt lat="52.229212028905749" lon="-10.138932969421148">
        <ele>23.210000000000001</ele>
        <time>2026-06-30T13:38:50Z</time>
      </trkpt>
      <trkpt lat="52.229273971170187" lon="-10.139087028801441">
        <ele>23.210000000000001</ele>
        <time>2026-06-30T13:38:51Z</time>
      </trkpt>
      <trkpt lat="52.229333985596895" lon="-10.139243016019464">
        <ele>22.73</ele>
        <time>2026-06-30T13:38:52Z</time>
      </trkpt>
      <trkpt lat="52.229516040533781" lon="-10.139717012643814">
        <ele>21.77</ele>
        <time>2026-06-30T13:38:55Z</time>
      </trkpt>
      <trkpt lat="52.229597009718418" lon="-10.139840980991721">
        <ele>21.289999999999999</ele>
        <time>2026-06-30T13:38:56Z</time>
      </trkpt>
      <trkpt lat="52.229688037186861" lon="-10.139939971268177">
        <ele>20.809999999999999</ele>
        <time>2026-06-30T13:38:57Z</time>
      </trkpt>
      <trkpt lat="52.229786021634936" lon="-10.140041979029775">
        <ele>19.84</ele>
        <time>2026-06-30T13:38:58Z</time>
      </trkpt>
      <trkpt lat="52.229904038831592" lon="-10.140100987628102">
        <ele>19.359999999999999</ele>
        <time>2026-06-30T13:38:59Z</time>
      </trkpt>
      <trkpt lat="52.230021972209215" lon="-10.14015999622643">
        <ele>18.879999999999999</ele>
        <time>2026-06-30T13:39:00Z</time>
      </trkpt>
      <trkpt lat="52.230134960263968" lon="-10.140216993167996">
        <ele>18.399999999999999</ele>
        <time>2026-06-30T13:39:01Z</time>
      </trkpt>
      <trkpt lat="52.230613986030221" lon="-10.140404999256134">
        <ele>16</ele>
        <time>2026-06-30T13:39:06Z</time>
      </trkpt>
      <trkpt lat="52.230709958821535" lon="-10.140378009527922">
        <ele>15.52</ele>
        <time>2026-06-30T13:39:07Z</time>
      </trkpt>
      <trkpt lat="52.230812972411513" lon="-10.140348002314568">
        <ele>15.039999999999999</ele>
        <time>2026-06-30T13:39:08Z</time>
      </trkpt>
      <trkpt lat="52.231232989579439" lon="-10.140226967632771">
        <ele>13.6</ele>
        <time>2026-06-30T13:39:12Z</time>
      </trkpt>
      <trkpt lat="52.231532977893949" lon="-10.14013996347785">
        <ele>12.630000000000001</ele>
        <time>2026-06-30T13:39:15Z</time>
      </trkpt>
      <trkpt lat="52.231984008103609" lon="-10.140114985406399">
        <ele>12.15</ele>
        <time>2026-06-30T13:39:19Z</time>
      </trkpt>
      <trkpt lat="52.232924038544297" lon="-10.140296034514904">
        <ele>9.75</ele>
        <time>2026-06-30T13:39:28Z</time>
      </trkpt>
      <trkpt lat="52.233021017163992" lon="-10.140329981222749">
        <ele>9.27</ele>
        <time>2026-06-30T13:39:29Z</time>
      </trkpt>
      <trkpt lat="52.233111960813403" lon="-10.140348002314568">
        <ele>9.27</ele>
        <time>2026-06-30T13:39:30Z</time>
      </trkpt>
      <trkpt lat="52.233204999938607" lon="-10.140356970950961">
        <ele>8.789999999999999</ele>
        <time>2026-06-30T13:39:31Z</time>
      </trkpt>
      <trkpt lat="52.233310025185347" lon="-10.140348002314568">
        <ele>8.310000000000001</ele>
        <time>2026-06-30T13:39:32Z</time>
      </trkpt>
      <trkpt lat="52.233951995149255" lon="-10.140297962352633">
        <ele>6.87</ele>
        <time>2026-06-30T13:39:38Z</time>
      </trkpt>
      <trkpt lat="52.234036987647414" lon="-10.14022596180439">
        <ele>5.91</ele>
        <time>2026-06-30T13:39:43Z</time>
      </trkpt>
      <trkpt lat="52.234071018174291" lon="-10.140183968469501">
        <ele>5.91</ele>
        <time>2026-06-30T13:39:44Z</time>
      </trkpt>
      <trkpt lat="52.234116028994322" lon="-10.140124959871173">
        <ele>5.91</ele>
        <time>2026-06-30T13:39:45Z</time>
      </trkpt>
      <trkpt lat="52.234683986753225" lon="-10.139680970460176">
        <ele>5.91</ele>
        <time>2026-06-30T13:39:51Z</time>
      </trkpt>
      <trkpt lat="52.23497299477458" lon="-10.139486007392406">
        <ele>6.39</ele>
        <time>2026-06-30T13:39:54Z</time>
      </trkpt>
      <trkpt lat="52.235077014192939" lon="-10.139415012672544">
        <ele>6.39</ele>
        <time>2026-06-30T13:39:55Z</time>
      </trkpt>
      <trkpt lat="52.235182039439678" lon="-10.139397997409105">
        <ele>6.39</ele>
        <time>2026-06-30T13:39:56Z</time>
      </trkpt>
      <trkpt lat="52.235828032717109" lon="-10.139287021011114">
        <ele>5.42</ele>
        <time>2026-06-30T13:40:01Z</time>
      </trkpt>
      <trkpt lat="52.235964993014932" lon="-10.139183001592755">
        <ele>5.42</ele>
        <time>2026-06-30T13:40:02Z</time>
      </trkpt>
      <trkpt lat="52.2360909730196" lon="-10.139088034629822">
        <ele>5.42</ele>
        <time>2026-06-30T13:40:03Z</time>
      </trkpt>
      <trkpt lat="52.236217958852649" lon="-10.138991978019476">
        <ele>5.91</ele>
        <time>2026-06-30T13:40:04Z</time>
      </trkpt>
      <trkpt lat="52.236344022676349" lon="-10.138897011056542">
        <ele>5.91</ele>
        <time>2026-06-30T13:40:05Z</time>
      </trkpt>
      <trkpt lat="52.237523021176457" lon="-10.137827983126044">
        <ele>10.710000000000001</ele>
        <time>2026-06-30T13:40:15Z</time>
      </trkpt>
      <trkpt lat="52.237633997574449" lon="-10.137717006728053">
        <ele>10.710000000000001</ele>
        <time>2026-06-30T13:40:16Z</time>
      </trkpt>
      <trkpt lat="52.237756960093975" lon="-10.13762497343123">
        <ele>10.23</ele>
        <time>2026-06-30T13:40:17Z</time>
      </trkpt>
      <trkpt lat="52.237884029746056" lon="-10.137561019510031">
        <ele>9.75</ele>
        <time>2026-06-30T13:40:18Z</time>
      </trkpt>
      <trkpt lat="52.238004980608821" lon="-10.137501005083323">
        <ele>9.75</ele>
        <time>2026-06-30T13:40:19Z</time>
      </trkpt>
      <trkpt lat="52.238205978646874" lon="-10.137364966794848">
        <ele>9.27</ele>
        <time>2026-06-30T13:40:21Z</time>
      </trkpt>
      <trkpt lat="52.238297006115317" lon="-10.13728098012507">
        <ele>8.789999999999999</ele>
        <time>2026-06-30T13:40:22Z</time>
      </trkpt>
      <trkpt lat="52.238384010270238" lon="-10.137200010940433">
        <ele>8.789999999999999</ele>
        <time>2026-06-30T13:40:23Z</time>
      </trkpt>
      <trkpt lat="52.238450981676579" lon="-10.137104038149118">
        <ele>8.789999999999999</ele>
        <time>2026-06-30T13:40:24Z</time>
      </trkpt>
      <trkpt lat="52.238532034680247" lon="-10.136926006525755">
        <ele>8.789999999999999</ele>
        <time>2026-06-30T13:40:25Z</time>
      </trkpt>
      <trkpt lat="52.23855902440846" lon="-10.136802038177848">
        <ele>8.789999999999999</ele>
        <time>2026-06-30T13:40:26Z</time>
      </trkpt>
      <trkpt lat="52.238598000258207" lon="-10.136624006554484">
        <ele>8.789999999999999</ele>
        <time>2026-06-30T13:40:27Z</time>
      </trkpt>
      <trkpt lat="52.23916201852262" lon="-10.134818041697145">
        <ele>8.789999999999999</ele>
        <time>2026-06-30T13:40:36Z</time>
      </trkpt>
      <trkpt lat="52.240037005394697" lon="-10.133008975535631">
        <ele>8.789999999999999</ele>
        <time>2026-06-30T13:40:45Z</time>
      </trkpt>
      <trkpt lat="52.240523993968964" lon="-10.130767989903688">
        <ele>8.310000000000001</ele>
        <time>2026-06-30T13:40:54Z</time>
      </trkpt>
      <trkpt lat="52.24094501696527" lon="-10.128196002915502">
        <ele>9.27</ele>
        <time>2026-06-30T13:41:04Z</time>
      </trkpt>
      <trkpt lat="52.241135034710169" lon="-10.127158993855119">
        <ele>8.310000000000001</ele>
        <time>2026-06-30T13:41:10Z</time>
      </trkpt>
      <trkpt lat="52.241142997518182" lon="-10.126986997202039">
        <ele>8.310000000000001</ele>
        <time>2026-06-30T13:41:12Z</time>
      </trkpt>
      <trkpt lat="52.241181973367929" lon="-10.126808965578675">
        <ele>8.310000000000001</ele>
        <time>2026-06-30T13:41:13Z</time>
      </trkpt>
      <trkpt lat="52.241230001673102" lon="-10.126793039962649">
        <ele>8.310000000000001</ele>
        <time>2026-06-30T13:41:14Z</time>
      </trkpt>
      <trkpt lat="52.241285992786288" lon="-10.12677401304245">
        <ele>8.310000000000001</ele>
        <time>2026-06-30T13:41:15Z</time>
      </trkpt>
      <trkpt lat="52.241342989727855" lon="-10.126754986122251">
        <ele>8.310000000000001</ele>
        <time>2026-06-30T13:41:16Z</time>
      </trkpt>
      <trkpt lat="52.241449020802975" lon="-10.126681979745626">
        <ele>8.310000000000001</ele>
        <time>2026-06-30T13:41:18Z</time>
      </trkpt>
      <trkpt lat="52.241496965289116" lon="-10.126621965318918">
        <ele>8.310000000000001</ele>
        <time>2026-06-30T13:41:19Z</time>
      </trkpt>
      <trkpt lat="52.241579024121165" lon="-10.126519035547972">
        <ele>7.83</ele>
        <time>2026-06-30T13:41:20Z</time>
      </trkpt>
      <trkpt lat="52.241583969444036" lon="-10.126441000029445">
        <ele>7.83</ele>
        <time>2026-06-30T13:41:21Z</time>
      </trkpt>
      <trkpt lat="52.241591010242701" lon="-10.126346033066511">
        <ele>7.83</ele>
        <time>2026-06-30T13:41:22Z</time>
      </trkpt>
      <trkpt lat="52.241596961393952" lon="-10.126267997547984">
        <ele>7.83</ele>
        <time>2026-06-30T13:41:23Z</time>
      </trkpt>
      <trkpt lat="52.241622023284435" lon="-10.126205971464515">
        <ele>8.310000000000001</ele>
        <time>2026-06-30T13:41:24Z</time>
      </trkpt>
      <trkpt lat="52.241658987477422" lon="-10.126181999221444">
        <ele>8.310000000000001</ele>
        <time>2026-06-30T13:41:25Z</time>
      </trkpt>
      <trkpt lat="52.241705004125834" lon="-10.126154003664851">
        <ele>7.83</ele>
        <time>2026-06-30T13:41:26Z</time>
      </trkpt>
      <trkpt lat="52.241755966097116" lon="-10.126121984794736">
        <ele>7.83</ele>
        <time>2026-06-30T13:41:27Z</time>
      </trkpt>
      <trkpt lat="52.241814974695444" lon="-10.126103963702917">
        <ele>7.35</ele>
        <time>2026-06-30T13:41:28Z</time>
      </trkpt>
      <trkpt lat="52.241881024092436" lon="-10.126091977581382">
        <ele>7.35</ele>
        <time>2026-06-30T13:41:29Z</time>
      </trkpt>
      <trkpt lat="52.242027036845684" lon="-10.126066999509931">
        <ele>7.83</ele>
        <time>2026-06-30T13:41:31Z</time>
      </trkpt>
      <trkpt lat="52.242097025737166" lon="-10.126054007560015">
        <ele>7.83</ele>
        <time>2026-06-30T13:41:32Z</time>
      </trkpt>
      <trkpt lat="52.242176989093423" lon="-10.126011008396745">
        <ele>7.83</ele>
        <time>2026-06-30T13:41:33Z</time>
      </trkpt>
      <trkpt lat="52.242898000404239" lon="-10.125355962663889">
        <ele>7.83</ele>
        <time>2026-06-30T13:41:42Z</time>
      </trkpt>
      <trkpt lat="52.243040995672345" lon="-10.125225037336349">
        <ele>7.83</ele>
        <time>2026-06-30T13:41:45Z</time>
      </trkpt>
      <trkpt lat="52.24318197928369" lon="-10.125087993219495">
        <ele>8.310000000000001</ele>
        <time>2026-06-30T13:41:54Z</time>
      </trkpt>
      <trkpt lat="52.24318197928369" lon="-10.125087993219495">
        <ele>8.310000000000001</ele>
        <time>2026-06-30T13:42:16Z</time>
      </trkpt>
      <trkpt lat="52.243177033960819" lon="-10.125091010704637">
        <ele>1.58</ele>
        <time>2026-06-30T13:46:54Z</time>
      </trkpt>
      <trkpt lat="52.243237970396876" lon="-10.125159993767738">
        <ele>7.35</ele>
        <time>2026-06-30T13:47:31Z</time>
      </trkpt>
      <trkpt lat="52.243234030902386" lon="-10.125159993767738">
        <ele>7.35</ele>
        <time>2026-06-30T13:48:30Z</time>
      </trkpt>
      <trkpt lat="52.243236964568496" lon="-10.125168962404132">
        <ele>7.35</ele>
        <time>2026-06-30T13:49:20Z</time>
      </trkpt>
      <trkpt lat="52.243236964568496" lon="-10.125168962404132">
        <ele>7.35</ele>
        <time>2026-06-30T13:49:59Z</time>
      </trkpt>
      <trkpt lat="52.243236964568496" lon="-10.125168962404132">
        <ele>7.35</ele>
        <time>2026-06-30T13:50:17Z</time>
      </trkpt>
      <trkpt lat="52.243236964568496" lon="-10.125168962404132">
        <ele>7.35</ele>
        <time>2026-06-30T13:50:19Z</time>
      </trkpt>
      <trkpt lat="52.243080977350473" lon="-10.125188995152712">
        <ele>6.39</ele>
        <time>2026-06-30T13:50:25Z</time>
      </trkpt>
      <trkpt lat="52.243018029257655" lon="-10.125245992094278">
        <ele>6.39</ele>
        <time>2026-06-30T13:50:26Z</time>
      </trkpt>
      <trkpt lat="52.24238402210176" lon="-10.125823002308607">
        <ele>5.91</ele>
        <time>2026-06-30T13:50:33Z</time>
      </trkpt>
      <trkpt lat="52.242048997431993" lon="-10.126062976196408">
        <ele>6.39</ele>
        <time>2026-06-30T13:50:39Z</time>
      </trkpt>
      <trkpt lat="52.241737022995949" lon="-10.126132965087891">
        <ele>5.91</ele>
        <time>2026-06-30T13:50:52Z</time>
      </trkpt>
      <trkpt lat="52.241694023832679" lon="-10.126160038635135">
        <ele>6.39</ele>
        <time>2026-06-30T13:50:53Z</time>
      </trkpt>
      <trkpt lat="52.241648007184267" lon="-10.126189040020108">
        <ele>6.39</ele>
        <time>2026-06-30T13:50:54Z</time>
      </trkpt>
      <trkpt lat="52.241605008020997" lon="-10.126216029748321">
        <ele>6.87</ele>
        <time>2026-06-30T13:50:55Z</time>
      </trkpt>
      <trkpt lat="52.241595033556223" lon="-10.126295993104577">
        <ele>6.87</ele>
        <time>2026-06-30T13:50:56Z</time>
      </trkpt>
      <trkpt lat="52.241588998585939" lon="-10.126371011137962">
        <ele>6.39</ele>
        <time>2026-06-30T13:50:57Z</time>
      </trkpt>
      <trkpt lat="52.241583969444036" lon="-10.126444017514586">
        <ele>6.39</ele>
        <time>2026-06-30T13:50:58Z</time>
      </trkpt>
      <trkpt lat="52.241478022187948" lon="-10.12664501555264">
        <ele>5.91</ele>
        <time>2026-06-30T13:51:02Z</time>
      </trkpt>
      <trkpt lat="52.241441980004311" lon="-10.126690026372671">
        <ele>5.91</ele>
        <time>2026-06-30T13:51:03Z</time>
      </trkpt>
      <trkpt lat="52.241127993911505" lon="-10.126762026920915">
        <ele>6.39</ele>
        <time>2026-06-30T13:51:11Z</time>
      </trkpt>
      <trkpt lat="52.241043001413345" lon="-10.126600004732609">
        <ele>6.39</ele>
        <time>2026-06-30T13:51:13Z</time>
      </trkpt>
      <trkpt lat="52.240572022274137" lon="-10.126066999509931">
        <ele>6.39</ele>
        <time>2026-06-30T13:51:19Z</time>
      </trkpt>
      <trkpt lat="52.240499015897512" lon="-10.125984018668532">
        <ele>6.39</ele>
        <time>2026-06-30T13:51:20Z</time>
      </trkpt>
      <trkpt lat="52.240439001470804" lon="-10.125910006463528">
        <ele>6.39</ele>
        <time>2026-06-30T13:51:21Z</time>
      </trkpt>
      <trkpt lat="52.240394996479154" lon="-10.125777991488576">
        <ele>6.39</ele>
        <time>2026-06-30T13:51:22Z</time>
      </trkpt>
      <trkpt lat="52.240359038114548" lon="-10.12561303563416">
        <ele>6.87</ele>
        <time>2026-06-30T13:51:23Z</time>
      </trkpt>
      <trkpt lat="52.240371024236083" lon="-10.125427963212132">
        <ele>7.83</ele>
        <time>2026-06-30T13:51:24Z</time>
      </trkpt>
      <trkpt lat="52.24038502201438" lon="-10.125229982659221">
        <ele>7.83</ele>
        <time>2026-06-30T13:51:25Z</time>
      </trkpt>
      <trkpt lat="52.240570010617375" lon="-10.12312101200223">
        <ele>11.67</ele>
        <time>2026-06-30T13:51:35Z</time>
      </trkpt>
      <trkpt lat="52.240570010617375" lon="-10.122936023399234">
        <ele>11.67</ele>
        <time>2026-06-30T13:51:36Z</time>
      </trkpt>
      <trkpt lat="52.240522988140583" lon="-10.122830998152494">
        <ele>12.630000000000001</ele>
        <time>2026-06-30T13:51:37Z</time>
      </trkpt>
      <trkpt lat="52.240471020340919" lon="-10.122717004269361">
        <ele>13.119999999999999</ele>
        <time>2026-06-30T13:51:38Z</time>
      </trkpt>
      <trkpt lat="52.240411005914211" lon="-10.12258498929441">
        <ele>13.6</ele>
        <time>2026-06-30T13:51:39Z</time>
      </trkpt>
      <trkpt lat="52.2403459623456" lon="-10.122442999854684">
        <ele>14.56</ele>
        <time>2026-06-30T13:51:40Z</time>
      </trkpt>
      <trkpt lat="52.239841036498547" lon="-10.121327033266425">
        <ele>16.48</ele>
        <time>2026-06-30T13:51:46Z</time>
      </trkpt>
      <trkpt lat="52.239744979888201" lon="-10.121115976944566">
        <ele>16.960000000000001</ele>
        <time>2026-06-30T13:51:47Z</time>
      </trkpt>
      <trkpt lat="52.239639032632113" lon="-10.120636029168963">
        <ele>16.960000000000001</ele>
        <time>2026-06-30T13:51:49Z</time>
      </trkpt>
      <trkpt lat="52.239602990448475" lon="-10.120428996160626">
        <ele>16.48</ele>
        <time>2026-06-30T13:51:50Z</time>
      </trkpt>
      <trkpt lat="52.239593015983701" lon="-10.120227998122573">
        <ele>16</ele>
        <time>2026-06-30T13:51:51Z</time>
      </trkpt>
      <trkpt lat="52.239572983235121" lon="-10.119807980954647">
        <ele>16</ele>
        <time>2026-06-30T13:51:53Z</time>
      </trkpt>
      <trkpt lat="52.239563008770347" lon="-10.119593990966678">
        <ele>16.48</ele>
        <time>2026-06-30T13:51:54Z</time>
      </trkpt>
      <trkpt lat="52.239553034305573" lon="-10.119376983493567">
        <ele>16.48</ele>
        <time>2026-06-30T13:51:55Z</time>
      </trkpt>
      <trkpt lat="52.239558985456824" lon="-10.118944980204105">
        <ele>16.960000000000001</ele>
        <time>2026-06-30T13:51:57Z</time>
      </trkpt>
      <trkpt lat="52.239582035690546" lon="-10.118725039064884">
        <ele>16.960000000000001</ele>
        <time>2026-06-30T13:51:58Z</time>
      </trkpt>
      <trkpt lat="52.239607013761997" lon="-10.118493027985096">
        <ele>17.440000000000001</ele>
        <time>2026-06-30T13:51:59Z</time>
      </trkpt>
      <trkpt lat="52.239770041778684" lon="-10.11729902587831">
        <ele>19.84</ele>
        <time>2026-06-30T13:52:04Z</time>
      </trkpt>
      <trkpt lat="52.239759983494878" lon="-10.117080006748438">
        <ele>20.32</ele>
        <time>2026-06-30T13:52:05Z</time>
      </trkpt>
      <trkpt lat="52.239749003201723" lon="-10.116856964305043">
        <ele>20.809999999999999</ele>
        <time>2026-06-30T13:52:06Z</time>
      </trkpt>
      <trkpt lat="52.239726036787033" lon="-10.116391014307737">
        <ele>21.289999999999999</ele>
        <time>2026-06-30T13:52:08Z</time>
      </trkpt>
      <trkpt lat="52.239713966846466" lon="-10.116151962429285">
        <ele>21.77</ele>
        <time>2026-06-30T13:52:09Z</time>
      </trkpt>
      <trkpt lat="52.239732993766665" lon="-10.114631988108158">
        <ele>25.129999999999999</ele>
        <time>2026-06-30T13:52:16Z</time>
      </trkpt>
      <trkpt lat="52.239653030410409" lon="-10.114457979798317">
        <ele>25.609999999999999</ele>
        <time>2026-06-30T13:52:17Z</time>
      </trkpt>
      <trkpt lat="52.239605002105236" lon="-10.114353038370609">
        <ele>26.09</ele>
        <time>2026-06-30T13:52:18Z</time>
      </trkpt>
      <trkpt lat="52.239493019878864" lon="-10.114228986203671">
        <ele>26.57</ele>
        <time>2026-06-30T13:52:19Z</time>
      </trkpt>
      <trkpt lat="52.239410961046815" lon="-10.114137958735228">
        <ele>27.050000000000001</ele>
        <time>2026-06-30T13:52:20Z</time>
      </trkpt>
      <trkpt lat="52.23929101601243" lon="-10.114025976508856">
        <ele>27.530000000000001</ele>
        <time>2026-06-30T13:52:21Z</time>
      </trkpt>
      <trkpt lat="52.23918498493731" lon="-10.113927992060781">
        <ele>28.02</ele>
        <time>2026-06-30T13:52:22Z</time>
      </trkpt>
      <trkpt lat="52.23800104111433" lon="-10.112734995782375">
        <ele>27.530000000000001</ele>
        <time>2026-06-30T13:52:32Z</time>
      </trkpt>
      <trkpt lat="52.237899033352733" lon="-10.112584037706256">
        <ele>27.050000000000001</ele>
        <time>2026-06-30T13:52:33Z</time>
      </trkpt>
      <trkpt lat="52.237799959257245" lon="-10.112438024953008">
        <ele>26.57</ele>
        <time>2026-06-30T13:52:34Z</time>
      </trkpt>
      <trkpt lat="52.237708009779453" lon="-10.112295029684901">
        <ele>26.09</ele>
        <time>2026-06-30T13:52:35Z</time>
      </trkpt>
      <trkpt lat="52.237631985917687" lon="-10.112116998061538">
        <ele>25.129999999999999</ele>
        <time>2026-06-30T13:52:36Z</time>
      </trkpt>
      <trkpt lat="52.237559985369444" lon="-10.111951036378741">
        <ele>24.649999999999999</ele>
        <time>2026-06-30T13:52:37Z</time>
      </trkpt>
      <trkpt lat="52.237517992034554" lon="-10.111813992261887">
        <ele>24.649999999999999</ele>
        <time>2026-06-30T13:52:38Z</time>
      </trkpt>
      <trkpt lat="52.237501982599497" lon="-10.111649036407471">
        <ele>24.649999999999999</ele>
        <time>2026-06-30T13:52:39Z</time>
      </trkpt>
      <trkpt lat="52.237511035054922" lon="-10.111483996734023">
        <ele>25.129999999999999</ele>
        <time>2026-06-30T13:52:40Z</time>
      </trkpt>
      <trkpt lat="52.237522015348077" lon="-10.111301019787788">
        <ele>25.129999999999999</ele>
        <time>2026-06-30T13:52:41Z</time>
      </trkpt>
      <trkpt lat="52.237549005076289" lon="-10.111127011477947">
        <ele>25.609999999999999</ele>
        <time>2026-06-30T13:52:42Z</time>
      </trkpt>
      <trkpt lat="52.23774597980082" lon="-10.10991096496582">
        <ele>29.460000000000001</ele>
        <time>2026-06-30T13:52:48Z</time>
      </trkpt>
      <trkpt lat="52.237774981185794" lon="-10.109733017161489">
        <ele>30.420000000000002</ele>
        <time>2026-06-30T13:52:49Z</time>
      </trkpt>
      <trkpt lat="52.237803982570767" lon="-10.10956303216517">
        <ele>30.899999999999999</ele>
        <time>2026-06-30T13:52:50Z</time>
      </trkpt>
      <trkpt lat="52.238106988370419" lon="-10.108874039724469">
        <ele>34.259999999999998</ele>
        <time>2026-06-30T13:52:55Z</time>
      </trkpt>
      <trkpt lat="52.238144036382437" lon="-10.108757028356194">
        <ele>34.740000000000002</ele>
        <time>2026-06-30T13:52:56Z</time>
      </trkpt>
      <trkpt lat="52.238102965056896" lon="-10.108558963984251">
        <ele>35.229999999999997</ele>
        <time>2026-06-30T13:52:57Z</time>
      </trkpt>
      <trkpt lat="52.238114029169083" lon="-10.10851202532649">
        <ele>35.710000000000001</ele>
        <time>2026-06-30T13:52:58Z</time>
      </trkpt>
      <trkpt lat="52.23813297227025" lon="-10.108429966494441">
        <ele>36.189999999999998</ele>
        <time>2026-06-30T13:52:59Z</time>
      </trkpt>
      <trkpt lat="52.238154010847211" lon="-10.108344973996282">
        <ele>37.149999999999999</ele>
        <time>2026-06-30T13:53:00Z</time>
      </trkpt>
      <trkpt lat="52.238177983090281" lon="-10.108242966234684">
        <ele>37.630000000000003</ele>
        <time>2026-06-30T13:53:01Z</time>
      </trkpt>
      <trkpt lat="52.23828099668026" lon="-10.107814986258745">
        <ele>38.590000000000003</ele>
        <time>2026-06-30T13:53:04Z</time>
      </trkpt>
      <trkpt lat="52.238321984186769" lon="-10.107642989605665">
        <ele>38.590000000000003</ele>
        <time>2026-06-30T13:53:05Z</time>
      </trkpt>
      <trkpt lat="52.238355008885264" lon="-10.107452971860766">
        <ele>39.07</ele>
        <time>2026-06-30T13:53:06Z</time>
      </trkpt>
      <trkpt lat="52.238558018580079" lon="-10.105338972061872">
        <ele>38.590000000000003</ele>
        <time>2026-06-30T13:53:15Z</time>
      </trkpt>
      <trkpt lat="52.238657008856535" lon="-10.102288965135813">
        <ele>37.630000000000003</ele>
        <time>2026-06-30T13:53:26Z</time>
      </trkpt>
      <trkpt lat="52.238748958334327" lon="-10.101193031296134">
        <ele>37.630000000000003</ele>
        <time>2026-06-30T13:53:30Z</time>
      </trkpt>
      <trkpt lat="52.238802015781403" lon="-10.100932018831372">
        <ele>37.630000000000003</ele>
        <time>2026-06-30T13:53:31Z</time>
      </trkpt>
      <trkpt lat="52.239553034305573" lon="-10.097150020301342">
        <ele>38.109999999999999</ele>
        <time>2026-06-30T13:53:45Z</time>
      </trkpt>
      <trkpt lat="52.23972100764513" lon="-10.096401013433933">
        <ele>38.109999999999999</ele>
        <time>2026-06-30T13:53:48Z</time>
      </trkpt>
      <trkpt lat="52.239775992929935" lon="-10.09620001539588">
        <ele>38.109999999999999</ele>
        <time>2026-06-30T13:53:49Z</time>
      </trkpt>
      <trkpt lat="52.239886969327927" lon="-10.096048973500729">
        <ele>38.109999999999999</ele>
        <time>2026-06-30T13:53:50Z</time>
      </trkpt>
      <trkpt lat="52.239987971261144" lon="-10.095913019031286">
        <ele>38.109999999999999</ele>
        <time>2026-06-30T13:53:51Z</time>
      </trkpt>
      <trkpt lat="52.240076987072825" lon="-10.095791984349489">
        <ele>38.590000000000003</ele>
        <time>2026-06-30T13:53:52Z</time>
      </trkpt>
      <trkpt lat="52.240168014541268" lon="-10.095610013231635">
        <ele>39.07</ele>
        <time>2026-06-30T13:53:53Z</time>
      </trkpt>
      <trkpt lat="52.240247977897525" lon="-10.09545000270009">
        <ele>39.549999999999997</ele>
        <time>2026-06-30T13:53:54Z</time>
      </trkpt>
      <trkpt lat="52.240334982052445" lon="-10.095272976905107">
        <ele>39.549999999999997</ele>
        <time>2026-06-30T13:53:55Z</time>
      </trkpt>
      <trkpt lat="52.240361971780658" lon="-10.09506200440228">
        <ele>39.549999999999997</ele>
        <time>2026-06-30T13:53:56Z</time>
      </trkpt>
      <trkpt lat="52.24038896150887" lon="-10.094843991100788">
        <ele>39.549999999999997</ele>
        <time>2026-06-30T13:53:57Z</time>
      </trkpt>
      <trkpt lat="52.240710994228721" lon="-10.09231198579073">
        <ele>39.07</ele>
        <time>2026-06-30T13:54:07Z</time>
      </trkpt>
      <trkpt lat="52.24107401445508" lon="-10.088263023644686">
        <ele>39.07</ele>
        <time>2026-06-30T13:54:21Z</time>
      </trkpt>
      <trkpt lat="52.24150400608778" lon="-10.08442603982985">
        <ele>38.109999999999999</ele>
        <time>2026-06-30T13:54:34Z</time>
      </trkpt>
      <trkpt lat="52.242154022678733" lon="-10.08013098500669">
        <ele>39.549999999999997</ele>
        <time>2026-06-30T13:54:49Z</time>
      </trkpt>
      <trkpt lat="52.24268501624465" lon="-10.077388007193804">
        <ele>40.990000000000002</ele>
        <time>2026-06-30T13:54:59Z</time>
      </trkpt>
      <trkpt lat="52.243182985112071" lon="-10.074501028284431">
        <ele>40.030000000000001</ele>
        <time>2026-06-30T13:55:10Z</time>
      </trkpt>
      <trkpt lat="52.243357999250293" lon="-10.073543982580304">
        <ele>40.030000000000001</ele>
        <time>2026-06-30T13:55:14Z</time>
      </trkpt>
      <trkpt lat="52.243423964828253" lon="-10.073325969278812">
        <ele>40.030000000000001</ele>
        <time>2026-06-30T13:55:15Z</time>
      </trkpt>
      <trkpt lat="52.24378002807498" lon="-10.072174966335297">
        <ele>40.509999999999998</ele>
        <time>2026-06-30T13:55:20Z</time>
      </trkpt>
      <trkpt lat="52.243822021409869" lon="-10.071914037689567">
        <ele>40.030000000000001</ele>
        <time>2026-06-30T13:55:21Z</time>
      </trkpt>
      <trkpt lat="52.244110023602843" lon="-10.069321012124419">
        <ele>39.549999999999997</ele>
        <time>2026-06-30T13:55:30Z</time>
      </trkpt>
      <trkpt lat="52.244372963905334" lon="-10.066969972103834">
        <ele>38.590000000000003</ele>
        <time>2026-06-30T13:55:39Z</time>
      </trkpt>
      <trkpt lat="52.244271039962769" lon="-10.06532502360642">
        <ele>38.590000000000003</ele>
        <time>2026-06-30T13:55:47Z</time>
      </trkpt>
      <trkpt lat="52.244136007502675" lon="-10.063520986586809">
        <ele>37.149999999999999</ele>
        <time>2026-06-30T13:55:56Z</time>
      </trkpt>
      <trkpt lat="52.24416802637279" lon="-10.063001979142427">
        <ele>36.189999999999998</ele>
        <time>2026-06-30T13:55:59Z</time>
      </trkpt>
      <trkpt lat="52.244372963905334" lon="-10.061233984306455">
        <ele>34.259999999999998</ele>
        <time>2026-06-30T13:56:09Z</time>
      </trkpt>
      <trkpt lat="52.244489975273609" lon="-10.058965003117919">
        <ele>35.710000000000001</ele>
        <time>2026-06-30T13:56:19Z</time>
      </trkpt>
      <trkpt lat="52.244463991373777" lon="-10.056241974234581">
        <ele>36.670000000000002</ele>
        <time>2026-06-30T13:56:29Z</time>
      </trkpt>
      <trkpt lat="52.244202978909016" lon="-10.051957983523607">
        <ele>37.149999999999999</ele>
        <time>2026-06-30T13:56:43Z</time>
      </trkpt>
      <trkpt lat="52.243973985314369" lon="-10.048096021637321">
        <ele>34.259999999999998</ele>
        <time>2026-06-30T13:56:55Z</time>
      </trkpt>
      <trkpt lat="52.243702998384833" lon="-10.043809013441205">
        <ele>33.299999999999997</ele>
        <time>2026-06-30T13:57:09Z</time>
      </trkpt>
      <trkpt lat="52.243496971204877" lon="-10.040252991020679">
        <ele>29.460000000000001</ele>
        <time>2026-06-30T13:57:21Z</time>
      </trkpt>
      <trkpt lat="52.243317011743784" lon="-10.037037022411823">
        <ele>29.460000000000001</ele>
        <time>2026-06-30T13:57:32Z</time>
      </trkpt>
      <trkpt lat="52.243104027584195" lon="-10.033219987526536">
        <ele>24.170000000000002</ele>
        <time>2026-06-30T13:57:45Z</time>
      </trkpt>
      <trkpt lat="52.242888025939465" lon="-10.030350023880601">
        <ele>24.649999999999999</ele>
        <time>2026-06-30T13:57:55Z</time>
      </trkpt>
      <trkpt lat="52.242856007069349" lon="-10.029474031180143">
        <ele>25.129999999999999</ele>
        <time>2026-06-30T13:57:58Z</time>
      </trkpt>
      <trkpt lat="52.242830023169518" lon="-10.028660986572504">
        <ele>25.129999999999999</ele>
        <time>2026-06-30T13:58:01Z</time>
      </trkpt>
      <trkpt lat="52.242802027612925" lon="-10.028371978551149">
        <ele>25.129999999999999</ele>
        <time>2026-06-30T13:58:02Z</time>
      </trkpt>
      <trkpt lat="52.242762967944145" lon="-10.028124963864684">
        <ele>25.129999999999999</ele>
        <time>2026-06-30T13:58:03Z</time>
      </trkpt>
      <trkpt lat="52.242606980726123" lon="-10.025947010144591">
        <ele>25.129999999999999</ele>
        <time>2026-06-30T13:58:11Z</time>
      </trkpt>
      <trkpt lat="52.242802027612925" lon="-10.023747012019157">
        <ele>25.609999999999999</ele>
        <time>2026-06-30T13:58:19Z</time>
      </trkpt>
      <trkpt lat="52.242789035663009" lon="-10.023479964584112">
        <ele>25.609999999999999</ele>
        <time>2026-06-30T13:58:20Z</time>
      </trkpt>
      <trkpt lat="52.242769002914429" lon="-10.023203026503325">
        <ele>25.609999999999999</ele>
        <time>2026-06-30T13:58:21Z</time>
      </trkpt>
      <trkpt lat="52.242749975994229" lon="-10.022934973239899">
        <ele>26.09</ele>
        <time>2026-06-30T13:58:22Z</time>
      </trkpt>
      <trkpt lat="52.242701025679708" lon="-10.021483981981874">
        <ele>25.129999999999999</ele>
        <time>2026-06-30T13:58:28Z</time>
      </trkpt>
      <trkpt lat="52.242890959605575" lon="-10.018803030252457">
        <ele>25.609999999999999</ele>
        <time>2026-06-30T13:58:38Z</time>
      </trkpt>
      <trkpt lat="52.242963965982199" lon="-10.016859015449882">
        <ele>27.050000000000001</ele>
        <time>2026-06-30T13:58:45Z</time>
      </trkpt>
      <trkpt lat="52.242930019274354" lon="-10.016592973843217">
        <ele>27.530000000000001</ele>
        <time>2026-06-30T13:58:46Z</time>
      </trkpt>
      <trkpt lat="52.242763973772526" lon="-10.015199985355139">
        <ele>28.5</ele>
        <time>2026-06-30T13:58:51Z</time>
      </trkpt>
      <trkpt lat="52.242786018177867" lon="-10.014940984547138">
        <ele>28.98</ele>
        <time>2026-06-30T13:58:52Z</time>
      </trkpt>
      <trkpt lat="52.242807978764176" lon="-10.014685001224279">
        <ele>28.98</ele>
        <time>2026-06-30T13:58:53Z</time>
      </trkpt>
      <trkpt lat="52.242875033989549" lon="-10.013384968042374">
        <ele>29.460000000000001</ele>
        <time>2026-06-30T13:58:58Z</time>
      </trkpt>
      <trkpt lat="52.242865981534123" lon="-10.01313703134656">
        <ele>29.940000000000001</ele>
        <time>2026-06-30T13:58:59Z</time>
      </trkpt>
      <trkpt lat="52.242817031219602" lon="-10.012876018881798">
        <ele>29.940000000000001</ele>
        <time>2026-06-30T13:59:00Z</time>
      </trkpt>
      <trkpt lat="52.242765985429287" lon="-10.012619029730558">
        <ele>30.420000000000002</ele>
        <time>2026-06-30T13:59:01Z</time>
      </trkpt>
      <trkpt lat="52.24270898848772" lon="-10.012359023094177">
        <ele>29.940000000000001</ele>
        <time>2026-06-30T13:59:02Z</time>
      </trkpt>
      <trkpt lat="52.242230968549848" lon="-10.010228008031845">
        <ele>27.530000000000001</ele>
        <time>2026-06-30T13:59:10Z</time>
      </trkpt>
      <trkpt lat="52.241668039932847" lon="-10.007765991613269">
        <ele>29.940000000000001</ele>
        <time>2026-06-30T13:59:19Z</time>
      </trkpt>
      <trkpt lat="52.241022968664765" lon="-10.004557985812426">
        <ele>32.82</ele>
        <time>2026-06-30T13:59:30Z</time>
      </trkpt>
      <trkpt lat="52.240577973425388" lon="-10.002284981310368">
        <ele>28.02</ele>
        <time>2026-06-30T13:59:39Z</time>
      </trkpt>
      <trkpt lat="52.240245966240764" lon="-10.000540036708117">
        <ele>26.09</ele>
        <time>2026-06-30T13:59:47Z</time>
      </trkpt>
      <trkpt lat="52.239895015954971" lon="-9.998712027445436">
        <ele>25.129999999999999</ele>
        <time>2026-06-30T13:59:54Z</time>
      </trkpt>
      <trkpt lat="52.2392269782722" lon="-9.995157010853291">
        <ele>26.09</ele>
        <time>2026-06-30T14:00:07Z</time>
      </trkpt>
      <trkpt lat="52.238742001354694" lon="-9.992611007764936">
        <ele>24.649999999999999</ele>
        <time>2026-06-30T14:00:16Z</time>
      </trkpt>
      <trkpt lat="52.23793800920248" lon="-9.988427013158798">
        <ele>24.170000000000002</ele>
        <time>2026-06-30T14:00:30Z</time>
      </trkpt>
      <trkpt lat="52.237259997054935" lon="-9.984981967136264">
        <ele>24.649999999999999</ele>
        <time>2026-06-30T14:00:42Z</time>
      </trkpt>
      <trkpt lat="52.236793963238597" lon="-9.982774006202817">
        <ele>23.690000000000001</ele>
        <time>2026-06-30T14:00:50Z</time>
      </trkpt>
      <trkpt lat="52.23630596883595" lon="-9.98078104108572">
        <ele>24.170000000000002</ele>
        <time>2026-06-30T14:01:00Z</time>
      </trkpt>
      <trkpt lat="52.236080998554826" lon="-9.980246024206281">
        <ele>23.690000000000001</ele>
        <time>2026-06-30T14:01:03Z</time>
      </trkpt>
      <trkpt lat="52.235998017713428" lon="-9.980076961219311">
        <ele>23.690000000000001</ele>
        <time>2026-06-30T14:01:04Z</time>
      </trkpt>
      <trkpt lat="52.235756032168865" lon="-9.979555020108819">
        <ele>22.73</ele>
        <time>2026-06-30T14:01:07Z</time>
      </trkpt>
      <trkpt lat="52.235690988600254" lon="-9.979360979050398">
        <ele>22.25</ele>
        <time>2026-06-30T14:01:08Z</time>
      </trkpt>
      <trkpt lat="52.23563801497221" lon="-9.979160986840725">
        <ele>22.25</ele>
        <time>2026-06-30T14:01:09Z</time>
      </trkpt>
      <trkpt lat="52.235598033294082" lon="-9.978950014337897">
        <ele>22.25</ele>
        <time>2026-06-30T14:01:10Z</time>
      </trkpt>
      <trkpt lat="52.235570959746838" lon="-9.97874298132956">
        <ele>21.77</ele>
        <time>2026-06-30T14:01:11Z</time>
      </trkpt>
      <trkpt lat="52.235570959746838" lon="-9.978532008826733">
        <ele>21.77</ele>
        <time>2026-06-30T14:01:12Z</time>
      </trkpt>
      <trkpt lat="52.235570959746838" lon="-9.978315001353622">
        <ele>21.77</ele>
        <time>2026-06-30T14:01:13Z</time>
      </trkpt>
      <trkpt lat="52.235570959746838" lon="-9.978095982223749">
        <ele>21.77</ele>
        <time>2026-06-30T14:01:14Z</time>
      </trkpt>
      <trkpt lat="52.235669028013945" lon="-9.975608987733722">
        <ele>19.84</ele>
        <time>2026-06-30T14:01:25Z</time>
      </trkpt>
      <trkpt lat="52.235657963901758" lon="-9.975389968603849">
        <ele>19.84</ele>
        <time>2026-06-30T14:01:26Z</time>
      </trkpt>
      <trkpt lat="52.235607001930475" lon="-9.975186036899686">
        <ele>19.84</ele>
        <time>2026-06-30T14:01:27Z</time>
      </trkpt>
      <trkpt lat="52.235543970018625" lon="-9.974979003891349">
        <ele>19.359999999999999</ele>
        <time>2026-06-30T14:01:28Z</time>
      </trkpt>
      <trkpt lat="52.235468029975891" lon="-9.974795021116734">
        <ele>19.359999999999999</ele>
        <time>2026-06-30T14:01:29Z</time>
      </trkpt>
      <trkpt lat="52.235371973365545" lon="-9.974641967564821">
        <ele>18.879999999999999</ele>
        <time>2026-06-30T14:01:30Z</time>
      </trkpt>
      <trkpt lat="52.235277006402612" lon="-9.974490003660321">
        <ele>18.879999999999999</ele>
        <time>2026-06-30T14:01:31Z</time>
      </trkpt>
      <trkpt lat="52.235181033611298" lon="-9.974337033927441">
        <ele>18.399999999999999</ele>
        <time>2026-06-30T14:01:32Z</time>
      </trkpt>
      <trkpt lat="52.234311997890472" lon="-9.972798032686114">
        <ele>16.960000000000001</ele>
        <time>2026-06-30T14:01:41Z</time>
      </trkpt>
      <trkpt lat="52.233402980491519" lon="-9.970763996243477">
        <ele>18.879999999999999</ele>
        <time>2026-06-30T14:01:52Z</time>
      </trkpt>
      <trkpt lat="52.232426991686225" lon="-9.968413962051272">
        <ele>20.32</ele>
        <time>2026-06-30T14:02:03Z</time>
      </trkpt>
      <trkpt lat="52.231543036177754" lon="-9.96597901917994">
        <ele>22.73</ele>
        <time>2026-06-30T14:02:13Z</time>
      </trkpt>
      <trkpt lat="52.230685986578465" lon="-9.963336959481239">
        <ele>21.77</ele>
        <time>2026-06-30T14:02:23Z</time>
      </trkpt>
      <trkpt lat="52.229806976392865" lon="-9.96009198948741">
        <ele>18.879999999999999</ele>
        <time>2026-06-30T14:02:35Z</time>
      </trkpt>
      <trkpt lat="52.229067021980882" lon="-9.957140972837806">
        <ele>16</ele>
        <time>2026-06-30T14:02:46Z</time>
      </trkpt>
      <trkpt lat="52.22859101369977" lon="-9.954747017472982">
        <ele>13.6</ele>
        <time>2026-06-30T14:02:55Z</time>
      </trkpt>
      <trkpt lat="52.228169990703464" lon="-9.95231500826776">
        <ele>12.630000000000001</ele>
        <time>2026-06-30T14:03:04Z</time>
      </trkpt>
      <trkpt lat="52.22788299433887" lon="-9.9504030123353">
        <ele>12.15</ele>
        <time>2026-06-30T14:03:11Z</time>
      </trkpt>
      <trkpt lat="52.227459959685802" lon="-9.947561966255307">
        <ele>10.23</ele>
        <time>2026-06-30T14:03:21Z</time>
      </trkpt>
      <trkpt lat="52.226898958906531" lon="-9.943535970523953">
        <ele>9.27</ele>
        <time>2026-06-30T14:03:35Z</time>
      </trkpt>
      <trkpt lat="52.22646301612258" lon="-9.939780039712787">
        <ele>7.83</ele>
        <time>2026-06-30T14:03:48Z</time>
      </trkpt>
      <trkpt lat="52.226093960925937" lon="-9.934806972742081">
        <ele>7.35</ele>
        <time>2026-06-30T14:04:05Z</time>
      </trkpt>
      <trkpt lat="52.225829008966684" lon="-9.930580984801054">
        <ele>6.87</ele>
        <time>2026-06-30T14:04:19Z</time>
      </trkpt>
      <trkpt lat="52.225653994828463" lon="-9.927398962900043">
        <ele>10.710000000000001</ele>
        <time>2026-06-30T14:04:30Z</time>
      </trkpt>
      <trkpt lat="52.225413015112281" lon="-9.923278000205755">
        <ele>16.960000000000001</ele>
        <time>2026-06-30T14:04:44Z</time>
      </trkpt>
      <trkpt lat="52.225233977660537" lon="-9.920346010476351">
        <ele>16.48</ele>
        <time>2026-06-30T14:04:54Z</time>
      </trkpt>
      <trkpt lat="52.225045971572399" lon="-9.917643014341593">
        <ele>16</ele>
        <time>2026-06-30T14:05:03Z</time>
      </trkpt>
      <trkpt lat="52.224840028211474" lon="-9.914385974407196">
        <ele>16</ele>
        <time>2026-06-30T14:05:14Z</time>
      </trkpt>
      <trkpt lat="52.224675994366407" lon="-9.911850029602647">
        <ele>17.920000000000002</ele>
        <time>2026-06-30T14:05:24Z</time>
      </trkpt>
      <trkpt lat="52.224512966349721" lon="-9.909361023455858">
        <ele>20.32</ele>
        <time>2026-06-30T14:05:34Z</time>
      </trkpt>
      <trkpt lat="52.224395032972097" lon="-9.907135041430593">
        <ele>24.649999999999999</ele>
        <time>2026-06-30T14:05:43Z</time>
      </trkpt>
      <trkpt lat="52.224448006600142" lon="-9.904937976971269">
        <ele>23.690000000000001</ele>
        <time>2026-06-30T14:05:51Z</time>
      </trkpt>
      <trkpt lat="52.224493017420173" lon="-9.90465902723372">
        <ele>23.690000000000001</ele>
        <time>2026-06-30T14:05:52Z</time>
      </trkpt>
      <trkpt lat="52.224729973822832" lon="-9.903554962947965">
        <ele>23.690000000000001</ele>
        <time>2026-06-30T14:05:56Z</time>
      </trkpt>
      <trkpt lat="52.225636979565024" lon="-9.900333965197206">
        <ele>25.129999999999999</ele>
        <time>2026-06-30T14:06:08Z</time>
      </trkpt>
      <trkpt lat="52.225962029770017" lon="-9.898276962339878">
        <ele>27.050000000000001</ele>
        <time>2026-06-30T14:06:15Z</time>
      </trkpt>
      <trkpt lat="52.226105025038123" lon="-9.895653007552028">
        <ele>34.259999999999998</ele>
        <time>2026-06-30T14:06:24Z</time>
      </trkpt>
      <trkpt lat="52.226264029741287" lon="-9.892594031989574">
        <ele>37.149999999999999</ele>
        <time>2026-06-30T14:06:35Z</time>
      </trkpt>
      <trkpt lat="52.226804997771978" lon="-9.889457020908594">
        <ele>36.670000000000002</ele>
        <time>2026-06-30T14:06:46Z</time>
      </trkpt>
      <trkpt lat="52.227244041860104" lon="-9.886926021426916">
        <ele>38.590000000000003</ele>
        <time>2026-06-30T14:06:55Z</time>
      </trkpt>
      <trkpt lat="52.227464988827705" lon="-9.88620400428772">
        <ele>38.590000000000003</ele>
        <time>2026-06-30T14:06:58Z</time>
      </trkpt>
      <trkpt lat="52.228258000686765" lon="-9.884321009740233">
        <ele>37.149999999999999</ele>
        <time>2026-06-30T14:07:06Z</time>
      </trkpt>
      <trkpt lat="52.228338969871402" lon="-9.884091010317206">
        <ele>37.149999999999999</ele>
        <time>2026-06-30T14:07:07Z</time>
      </trkpt>
      <trkpt lat="52.228395966812968" lon="-9.883771995082498">
        <ele>37.149999999999999</ele>
        <time>2026-06-30T14:07:08Z</time>
      </trkpt>
      <trkpt lat="52.228448018431664" lon="-9.883481981232762">
        <ele>37.149999999999999</ele>
        <time>2026-06-30T14:07:09Z</time>
      </trkpt>
      <trkpt lat="52.228500992059708" lon="-9.883185010403395">
        <ele>36.670000000000002</ele>
        <time>2026-06-30T14:07:10Z</time>
      </trkpt>
      <trkpt lat="52.228980017825961" lon="-9.879537960514426">
        <ele>36.189999999999998</ele>
        <time>2026-06-30T14:07:23Z</time>
      </trkpt>
      <trkpt lat="52.229382013902068" lon="-9.877063035964966">
        <ele>35.710000000000001</ele>
        <time>2026-06-30T14:07:32Z</time>
      </trkpt>
      <trkpt lat="52.23003102466464" lon="-9.874212015420198">
        <ele>40.509999999999998</ele>
        <time>2026-06-30T14:07:43Z</time>
      </trkpt>
      <trkpt lat="52.230772990733385" lon="-9.871725020930171">
        <ele>45.32</ele>
        <time>2026-06-30T14:07:53Z</time>
      </trkpt>
      <trkpt lat="52.231184039264917" lon="-9.869756028056145">
        <ele>43.399999999999999</ele>
        <time>2026-06-30T14:08:00Z</time>
      </trkpt>
      <trkpt lat="52.23119200207293" lon="-9.869459979236126">
        <ele>43.399999999999999</ele>
        <time>2026-06-30T14:08:01Z</time>
      </trkpt>
      <trkpt lat="52.231208011507988" lon="-9.868882969021797">
        <ele>43.399999999999999</ele>
        <time>2026-06-30T14:08:03Z</time>
      </trkpt>
      <trkpt lat="52.231224020943046" lon="-9.868605025112629">
        <ele>43.399999999999999</ele>
        <time>2026-06-30T14:08:04Z</time>
      </trkpt>
      <trkpt lat="52.231289986521006" lon="-9.868353987112641">
        <ele>43.399999999999999</ele>
        <time>2026-06-30T14:08:05Z</time>
      </trkpt>
      <trkpt lat="52.231590980663896" lon="-9.866997040808201">
        <ele>41.950000000000003</ele>
        <time>2026-06-30T14:08:10Z</time>
      </trkpt>
      <trkpt lat="52.231604978442192" lon="-9.866701997816563">
        <ele>41.469999999999999</ele>
        <time>2026-06-30T14:08:11Z</time>
      </trkpt>
      <trkpt lat="52.231826009228826" lon="-9.864422036334872">
        <ele>37.149999999999999</ele>
        <time>2026-06-30T14:08:19Z</time>
      </trkpt>
      <trkpt lat="52.231866996735334" lon="-9.864223971962929">
        <ele>37.149999999999999</ele>
        <time>2026-06-30T14:08:20Z</time>
      </trkpt>
      <trkpt lat="52.231915025040507" lon="-9.864028003066778">
        <ele>36.670000000000002</ele>
        <time>2026-06-30T14:08:21Z</time>
      </trkpt>
      <trkpt lat="52.232362031936646" lon="-9.862308958545327">
        <ele>33.299999999999997</ele>
        <time>2026-06-30T14:08:28Z</time>
      </trkpt>
      <trkpt lat="52.233134005218744" lon="-9.859129032120109">
        <ele>26.09</ele>
        <time>2026-06-30T14:08:39Z</time>
      </trkpt>
      <trkpt lat="52.233678996562958" lon="-9.855579966679215">
        <ele>24.649999999999999</ele>
        <time>2026-06-30T14:08:50Z</time>
      </trkpt>
      <trkpt lat="52.234234968200326" lon="-9.852582011371851">
        <ele>24.649999999999999</ele>
        <time>2026-06-30T14:09:00Z</time>
      </trkpt>
      <trkpt lat="52.235133005306125" lon="-9.849735014140606">
        <ele>24.649999999999999</ele>
        <time>2026-06-30T14:09:10Z</time>
      </trkpt>
      <trkpt lat="52.236092984676361" lon="-9.847406018525362">
        <ele>27.530000000000001</ele>
        <time>2026-06-30T14:09:19Z</time>
      </trkpt>
      <trkpt lat="52.237539030611515" lon="-9.844681983813644">
        <ele>33.299999999999997</ele>
        <time>2026-06-30T14:09:31Z</time>
      </trkpt>
      <trkpt lat="52.238570004701614" lon="-9.841928025707603">
        <ele>34.259999999999998</ele>
        <time>2026-06-30T14:09:41Z</time>
      </trkpt>
      <trkpt lat="52.239131005480886" lon="-9.839387973770499">
        <ele>35.710000000000001</ele>
        <time>2026-06-30T14:09:49Z</time>
      </trkpt>
      <trkpt lat="52.239410961046815" lon="-9.835896994918585">
        <ele>32.82</ele>
        <time>2026-06-30T14:09:59Z</time>
      </trkpt>
      <trkpt lat="52.239213986322284" lon="-9.833031976595521">
        <ele>29.940000000000001</ele>
        <time>2026-06-30T14:10:07Z</time>
      </trkpt>
      <trkpt lat="52.238938976079226" lon="-9.830341972410679">
        <ele>25.129999999999999</ele>
        <time>2026-06-30T14:10:15Z</time>
      </trkpt>
      <trkpt lat="52.239129999652505" lon="-9.827266987413168">
        <ele>17.440000000000001</ele>
        <time>2026-06-30T14:10:25Z</time>
      </trkpt>
      <trkpt lat="52.239414984360337" lon="-9.824342960491777">
        <ele>13.6</ele>
        <time>2026-06-30T14:10:37Z</time>
      </trkpt>
      <trkpt lat="52.23978596739471" lon="-9.820784004405141">
        <ele>18.399999999999999</ele>
        <time>2026-06-30T14:10:51Z</time>
      </trkpt>
      <trkpt lat="52.240090984851122" lon="-9.817790994420648">
        <ele>21.289999999999999</ele>
        <time>2026-06-30T14:11:00Z</time>
      </trkpt>
      <trkpt lat="52.240489963442087" lon="-9.813873041421175">
        <ele>22.25</ele>
        <time>2026-06-30T14:11:10Z</time>
      </trkpt>
      <trkpt lat="52.240772014483809" lon="-9.811106007546186">
        <ele>19.359999999999999</ele>
        <time>2026-06-30T14:11:18Z</time>
      </trkpt>
      <trkpt lat="52.241178033873439" lon="-9.807030977681279">
        <ele>13.6</ele>
        <time>2026-06-30T14:11:30Z</time>
      </trkpt>
      <trkpt lat="52.241641972213984" lon="-9.802497960627079">
        <ele>10.23</ele>
        <time>2026-06-30T14:11:43Z</time>
      </trkpt>
      <trkpt lat="52.242027036845684" lon="-9.798747980967164">
        <ele>14.08</ele>
        <time>2026-06-30T14:11:54Z</time>
      </trkpt>
      <trkpt lat="52.24240698851645" lon="-9.7950420062989">
        <ele>20.809999999999999</ele>
        <time>2026-06-30T14:12:06Z</time>
      </trkpt>
      <trkpt lat="52.242829017341137" lon="-9.790921965613961">
        <ele>28.98</ele>
        <time>2026-06-30T14:12:19Z</time>
      </trkpt>
      <trkpt lat="52.243248028680682" lon="-9.786649039015174">
        <ele>38.109999999999999</ele>
        <time>2026-06-30T14:12:32Z</time>
      </trkpt>
      <trkpt lat="52.243517003953457" lon="-9.783863984048367">
        <ele>37.630000000000003</ele>
        <time>2026-06-30T14:12:41Z</time>
      </trkpt>
      <trkpt lat="52.243581041693687" lon="-9.783064015209675">
        <ele>36.189999999999998</ele>
        <time>2026-06-30T14:12:46Z</time>
      </trkpt>
      <trkpt lat="52.243594033643603" lon="-9.782884977757931">
        <ele>35.710000000000001</ele>
        <time>2026-06-30T14:12:48Z</time>
      </trkpt>
      <trkpt lat="52.243600990623236" lon="-9.782798979431391">
        <ele>35.710000000000001</ele>
        <time>2026-06-30T14:12:49Z</time>
      </trkpt>
      <trkpt lat="52.243607025593519" lon="-9.782713986933231">
        <ele>35.229999999999997</ele>
        <time>2026-06-30T14:12:50Z</time>
      </trkpt>
      <trkpt lat="52.243692018091679" lon="-9.781601959839463">
        <ele>34.259999999999998</ele>
        <time>2026-06-30T14:12:59Z</time>
      </trkpt>
      <trkpt lat="52.243839036673307" lon="-9.779677977785468">
        <ele>30.899999999999999</ele>
        <time>2026-06-30T14:13:08Z</time>
      </trkpt>
      <trkpt lat="52.244066018611193" lon="-9.77686601690948">
        <ele>26.57</ele>
        <time>2026-06-30T14:13:18Z</time>
      </trkpt>
      <trkpt lat="52.244325019419193" lon="-9.7735580150038">
        <ele>20.32</ele>
        <time>2026-06-30T14:13:29Z</time>
      </trkpt>
      <trkpt lat="52.244593994691968" lon="-9.770074998959899">
        <ele>13.119999999999999</ele>
        <time>2026-06-30T14:13:40Z</time>
      </trkpt>
      <trkpt lat="52.24487503990531" lon="-9.766558036208153">
        <ele>9.75</ele>
        <time>2026-06-30T14:13:51Z</time>
      </trkpt>
      <trkpt lat="52.245234958827496" lon="-9.761967016384006">
        <ele>6.39</ele>
        <time>2026-06-30T14:14:06Z</time>
      </trkpt>
      <trkpt lat="52.245504017919302" lon="-9.758505960926414">
        <ele>5.91</ele>
        <time>2026-06-30T14:14:17Z</time>
      </trkpt>
      <trkpt lat="52.245750026777387" lon="-9.755370039492846">
        <ele>7.83</ele>
        <time>2026-06-30T14:14:27Z</time>
      </trkpt>
      <trkpt lat="52.245906013995409" lon="-9.753373973071575">
        <ele>9.75</ele>
        <time>2026-06-30T14:14:35Z</time>
      </trkpt>
      <trkpt lat="52.246068036183715" lon="-9.751430964097381">
        <ele>10.23</ele>
        <time>2026-06-30T14:14:43Z</time>
      </trkpt>
      <trkpt lat="52.24623198620975" lon="-9.749417966231704">
        <ele>7.83</ele>
        <time>2026-06-30T14:14:51Z</time>
      </trkpt>
      <trkpt lat="52.246383028104901" lon="-9.747503958642483">
        <ele>7.35</ele>
        <time>2026-06-30T14:14:59Z</time>
      </trkpt>
      <trkpt lat="52.246454022824764" lon="-9.746923008933663">
        <ele>6.87</ele>
        <time>2026-06-30T14:15:02Z</time>
      </trkpt>
      <trkpt lat="52.246492998674512" lon="-9.746718993410468">
        <ele>6.87</ele>
        <time>2026-06-30T14:15:03Z</time>
      </trkpt>
      <trkpt lat="52.246567010879517" lon="-9.746559988707304">
        <ele>6.87</ele>
        <time>2026-06-30T14:15:04Z</time>
      </trkpt>
      <trkpt lat="52.246647980064154" lon="-9.746390003710985">
        <ele>6.87</ele>
        <time>2026-06-30T14:15:05Z</time>
      </trkpt>
      <trkpt lat="52.246755016967654" lon="-9.74624902009964">
        <ele>6.87</ele>
        <time>2026-06-30T14:15:06Z</time>
      </trkpt>
      <trkpt lat="52.246869010850787" lon="-9.74609998986125">
        <ele>6.87</ele>
        <time>2026-06-30T14:15:07Z</time>
      </trkpt>
      <trkpt lat="52.248015990480781" lon="-9.744431991130114">
        <ele>8.789999999999999</ele>
        <time>2026-06-30T14:15:16Z</time>
      </trkpt>
      <trkpt lat="52.248137025162578" lon="-9.744257982820272">
        <ele>8.789999999999999</ele>
        <time>2026-06-30T14:15:17Z</time>
      </trkpt>
      <trkpt lat="52.248264010995626" lon="-9.744091015309095">
        <ele>8.789999999999999</ele>
        <time>2026-06-30T14:15:18Z</time>
      </trkpt>
      <trkpt lat="52.249995041638613" lon="-9.742441037669778">
        <ele>9.75</ele>
        <time>2026-06-30T14:15:29Z</time>
      </trkpt>
      <trkpt lat="52.251311000436544" lon="-9.740993985906243">
        <ele>6.87</ele>
        <time>2026-06-30T14:15:38Z</time>
      </trkpt>
      <trkpt lat="52.252224963158369" lon="-9.739927975460887">
        <ele>6.39</ele>
        <time>2026-06-30T14:15:47Z</time>
      </trkpt>
      <trkpt lat="52.253327015787363" lon="-9.738608999177814">
        <ele>6.39</ele>
        <time>2026-06-30T14:15:59Z</time>
      </trkpt>
      <trkpt lat="52.254337035119534" lon="-9.737403010949493">
        <ele>7.35</ele>
        <time>2026-06-30T14:16:11Z</time>
      </trkpt>
      <trkpt lat="52.255401033908129" lon="-9.736140025779605">
        <ele>9.27</ele>
        <time>2026-06-30T14:16:22Z</time>
      </trkpt>
      <trkpt lat="52.255944013595581" lon="-9.735536025837064">
        <ele>10.23</ele>
        <time>2026-06-30T14:16:28Z</time>
      </trkpt>
      <trkpt lat="52.256100000813603" lon="-9.735394036397338">
        <ele>10.23</ele>
        <time>2026-06-30T14:16:30Z</time>
      </trkpt>
      <trkpt lat="52.256184993311763" lon="-9.735385989770293">
        <ele>10.710000000000001</ele>
        <time>2026-06-30T14:16:31Z</time>
      </trkpt>
      <trkpt lat="52.25697498768568" lon="-9.735406022518873">
        <ele>11.19</ele>
        <time>2026-06-30T14:16:42Z</time>
      </trkpt>
      <trkpt lat="52.257805969566107" lon="-9.735518004745245">
        <ele>13.6</ele>
        <time>2026-06-30T14:16:51Z</time>
      </trkpt>
      <trkpt lat="52.258017025887966" lon="-9.735518004745245">
        <ele>14.56</ele>
        <time>2026-06-30T14:16:56Z</time>
      </trkpt>
      <trkpt lat="52.258061030879617" lon="-9.735518004745245">
        <ele>14.56</ele>
        <time>2026-06-30T14:16:57Z</time>
      </trkpt>
      <trkpt lat="52.258118027821183" lon="-9.735460001975298">
        <ele>14.56</ele>
        <time>2026-06-30T14:16:58Z</time>
      </trkpt>
      <trkpt lat="52.258149962872267" lon="-9.735351959243417">
        <ele>14.56</ele>
        <time>2026-06-30T14:16:59Z</time>
      </trkpt>
      <trkpt lat="52.258188016712666" lon="-9.735222961753607">
        <ele>14.56</ele>
        <time>2026-06-30T14:17:00Z</time>
      </trkpt>
      <trkpt lat="52.258220035582781" lon="-9.735078038647771">
        <ele>13.6</ele>
        <time>2026-06-30T14:17:01Z</time>
      </trkpt>
      <trkpt lat="52.258246019482613" lon="-9.734920961782336">
        <ele>13.119999999999999</ele>
        <time>2026-06-30T14:17:02Z</time>
      </trkpt>
      <trkpt lat="52.258397983387113" lon="-9.733995012938976">
        <ele>11.67</ele>
        <time>2026-06-30T14:17:10Z</time>
      </trkpt>
      <trkpt lat="52.258568974211812" lon="-9.732978036627173">
        <ele>10.23</ele>
        <time>2026-06-30T14:17:18Z</time>
      </trkpt>
      <trkpt lat="52.258755974471569" lon="-9.731862992048264">
        <ele>7.35</ele>
        <time>2026-06-30T14:17:26Z</time>
      </trkpt>
      <trkpt lat="52.259009024128318" lon="-9.730406971648336">
        <ele>7.35</ele>
        <time>2026-06-30T14:17:34Z</time>
      </trkpt>
      <trkpt lat="52.259475979954004" lon="-9.727982003241777">
        <ele>6.87</ele>
        <time>2026-06-30T14:17:44Z</time>
      </trkpt>
      <trkpt lat="52.259592991322279" lon="-9.727470958605409">
        <ele>7.35</ele>
        <time>2026-06-30T14:17:46Z</time>
      </trkpt>
      <trkpt lat="52.259689969941974" lon="-9.727251017466188">
        <ele>7.35</ele>
        <time>2026-06-30T14:17:47Z</time>
      </trkpt>
      <trkpt lat="52.259793989360332" lon="-9.727036021649838">
        <ele>7.35</ele>
        <time>2026-06-30T14:17:48Z</time>
      </trkpt>
      <trkpt lat="52.259899014607072" lon="-9.726820020005107">
        <ele>7.83</ele>
        <time>2026-06-30T14:17:49Z</time>
      </trkpt>
      <trkpt lat="52.260004039853811" lon="-9.726606030017138">
        <ele>7.83</ele>
        <time>2026-06-30T14:17:50Z</time>
      </trkpt>
      <trkpt lat="52.261234000325203" lon="-9.724882962182164">
        <ele>7.35</ele>
        <time>2026-06-30T14:18:00Z</time>
      </trkpt>
      <trkpt lat="52.26249698549509" lon="-9.723184034228325">
        <ele>6.87</ele>
        <time>2026-06-30T14:18:11Z</time>
      </trkpt>
      <trkpt lat="52.26337599568069" lon="-9.721626006066799">
        <ele>6.39</ele>
        <time>2026-06-30T14:18:19Z</time>
      </trkpt>
      <trkpt lat="52.264031963422894" lon="-9.719281001016498">
        <ele>5.91</ele>
        <time>2026-06-30T14:18:29Z</time>
      </trkpt>
      <trkpt lat="52.264481987804174" lon="-9.717326005920768">
        <ele>5.91</ele>
        <time>2026-06-30T14:18:38Z</time>
      </trkpt>
      <trkpt lat="52.264520041644573" lon="-9.716940019279718">
        <ele>4.94</ele>
        <time>2026-06-30T14:18:42Z</time>
      </trkpt>
      <trkpt lat="52.264594975858927" lon="-9.716178020462394">
        <ele>6.87</ele>
        <time>2026-06-30T14:18:51Z</time>
      </trkpt>
      <trkpt lat="52.264753980562091" lon="-9.714566012844443">
        <ele>7.35</ele>
        <time>2026-06-30T14:19:00Z</time>
      </trkpt>
      <trkpt lat="52.264808965846896" lon="-9.714102996513248">
        <ele>7.35</ele>
        <time>2026-06-30T14:19:03Z</time>
      </trkpt>
      <trkpt lat="52.264825981110334" lon="-9.713984979316592">
        <ele>7.35</ele>
        <time>2026-06-30T14:19:04Z</time>
      </trkpt>
      <trkpt lat="52.264862023293972" lon="-9.713891018182039">
        <ele>7.35</ele>
        <time>2026-06-30T14:19:05Z</time>
      </trkpt>
      <trkpt lat="52.264913991093636" lon="-9.713897975161672">
        <ele>7.35</ele>
        <time>2026-06-30T14:19:06Z</time>
      </trkpt>
      <trkpt lat="52.264968976378441" lon="-9.713906021788716">
        <ele>7.35</ele>
        <time>2026-06-30T14:19:07Z</time>
      </trkpt>
      <trkpt lat="52.265027984976768" lon="-9.713912978768349">
        <ele>7.35</ele>
        <time>2026-06-30T14:19:08Z</time>
      </trkpt>
      <trkpt lat="52.26509403437376" lon="-9.713922031223774">
        <ele>6.87</ele>
        <time>2026-06-30T14:19:09Z</time>
      </trkpt>
      <trkpt lat="52.26535202935338" lon="-9.713990008458495">
        <ele>7.35</ele>
        <time>2026-06-30T14:19:12Z</time>
      </trkpt>
      <trkpt lat="52.265454037114978" lon="-9.713996965438128">
        <ele>7.35</ele>
        <time>2026-06-30T14:19:13Z</time>
      </trkpt>
      <trkpt lat="52.265511034056544" lon="-9.713919013738632">
        <ele>7.35</ele>
        <time>2026-06-30T14:19:14Z</time>
      </trkpt>
      <trkpt lat="52.265573982149363" lon="-9.713834021240473">
        <ele>7.35</ele>
        <time>2026-06-30T14:19:15Z</time>
      </trkpt>
      <trkpt lat="52.265642965212464" lon="-9.713739976286888">
        <ele>7.35</ele>
        <time>2026-06-30T14:19:16Z</time>
      </trkpt>
      <trkpt lat="52.26571898907423" lon="-9.713644003495574">
        <ele>7.35</ele>
        <time>2026-06-30T14:19:17Z</time>
      </trkpt>
      <trkpt lat="52.26580498740077" lon="-9.713543001562357">
        <ele>7.35</ele>
        <time>2026-06-30T14:19:18Z</time>
      </trkpt>
      <trkpt lat="52.266671005636454" lon="-9.712689975276589">
        <ele>8.789999999999999</ele>
        <time>2026-06-30T14:19:28Z</time>
      </trkpt>
      <trkpt lat="52.266718028113246" lon="-9.712637001648545">
        <ele>8.310000000000001</ele>
        <time>2026-06-30T14:19:29Z</time>
      </trkpt>
      <trkpt lat="52.266796985641122" lon="-9.712634989991784">
        <ele>8.789999999999999</ele>
        <time>2026-06-30T14:19:30Z</time>
      </trkpt>
      <trkpt lat="52.266819030046463" lon="-9.712682012468576">
        <ele>8.789999999999999</ele>
        <time>2026-06-30T14:19:31Z</time>
      </trkpt>
      <trkpt lat="52.266844008117914" lon="-9.712734986096621">
        <ele>8.789999999999999</ele>
        <time>2026-06-30T14:19:32Z</time>
      </trkpt>
      <trkpt lat="52.266875021159649" lon="-9.712798018008471">
        <ele>8.789999999999999</ele>
        <time>2026-06-30T14:19:33Z</time>
      </trkpt>
      <trkpt lat="52.267149025574327" lon="-9.713391037657857">
        <ele>8.789999999999999</ele>
        <time>2026-06-30T14:19:40Z</time>
      </trkpt>
      <trkpt lat="52.267236029729247" lon="-9.713553981855512">
        <ele>9.75</ele>
        <time>2026-06-30T14:19:42Z</time>
      </trkpt>
      <trkpt lat="52.267512967810035" lon="-9.713948015123606">
        <ele>11.67</ele>
        <time>2026-06-30T14:19:47Z</time>
      </trkpt>
      <trkpt lat="52.268020994961262" lon="-9.714639019221067">
        <ele>11.19</ele>
        <time>2026-06-30T14:19:56Z</time>
      </trkpt>
      <trkpt lat="52.268183017149568" lon="-9.71483800560236">
        <ele>10.23</ele>
        <time>2026-06-30T14:20:00Z</time>
      </trkpt>
      <trkpt lat="52.268263986334205" lon="-9.714935990050435">
        <ele>10.23</ele>
        <time>2026-06-30T14:20:02Z</time>
      </trkpt>
      <trkpt lat="52.268388038501143" lon="-9.715063981711865">
        <ele>9.75</ele>
        <time>2026-06-30T14:20:05Z</time>
      </trkpt>
      <trkpt lat="52.268571015447378" lon="-9.715363970026374">
        <ele>9.27</ele>
        <time>2026-06-30T14:20:11Z</time>
      </trkpt>
      <trkpt lat="52.268559029325843" lon="-9.715432031080127">
        <ele>9.27</ele>
        <time>2026-06-30T14:20:12Z</time>
      </trkpt>
      <trkpt lat="52.268543019890785" lon="-9.715518029406667">
        <ele>9.27</ele>
        <time>2026-06-30T14:20:13Z</time>
      </trkpt>
      <trkpt lat="52.268319977447391" lon="-9.716655034571886">
        <ele>8.789999999999999</ele>
        <time>2026-06-30T14:20:21Z</time>
      </trkpt>
      <trkpt lat="52.267928039655089" lon="-9.71911596134305">
        <ele>11.19</ele>
        <time>2026-06-30T14:20:35Z</time>
      </trkpt>
      <trkpt lat="52.267552027478814" lon="-9.721313025802374">
        <ele>14.08</ele>
        <time>2026-06-30T14:20:46Z</time>
      </trkpt>
      <trkpt lat="52.267056992277503" lon="-9.723458038643003">
        <ele>15.039999999999999</ele>
        <time>2026-06-30T14:20:57Z</time>
      </trkpt>
      <trkpt lat="52.266329023987055" lon="-9.725729031488299">
        <ele>17.440000000000001</ele>
        <time>2026-06-30T14:21:09Z</time>
      </trkpt>
      <trkpt lat="52.266270015388727" lon="-9.725903961807489">
        <ele>17.440000000000001</ele>
        <time>2026-06-30T14:21:10Z</time>
      </trkpt>
      <trkpt lat="52.266186028718948" lon="-9.726057015359402">
        <ele>17.440000000000001</ele>
        <time>2026-06-30T14:21:11Z</time>
      </trkpt>
      <trkpt lat="52.265310036018491" lon="-9.727480011060834">
        <ele>14.08</ele>
        <time>2026-06-30T14:21:21Z</time>
      </trkpt>
      <trkpt lat="52.265213979408145" lon="-9.727631974965334">
        <ele>13.6</ele>
        <time>2026-06-30T14:21:23Z</time>
      </trkpt>
      <trkpt lat="52.265190007165074" lon="-9.727670028805733">
        <ele>13.6</ele>
        <time>2026-06-30T14:21:24Z</time>
      </trkpt>
      <trkpt lat="52.265173997730017" lon="-9.727696012705565">
        <ele>13.6</ele>
        <time>2026-06-30T14:21:25Z</time>
      </trkpt>
      <trkpt lat="52.265205010771751" lon="-9.727785028517246">
        <ele>13.119999999999999</ele>
        <time>2026-06-30T14:21:26Z</time>
      </trkpt>
      <trkpt lat="52.265237029641867" lon="-9.727801959961653">
        <ele>13.119999999999999</ele>
        <time>2026-06-30T14:21:27Z</time>
      </trkpt>
      <trkpt lat="52.265272988006473" lon="-9.727821992710233">
        <ele>12.630000000000001</ele>
        <time>2026-06-30T14:21:28Z</time>
      </trkpt>
      <trkpt lat="52.265323027968407" lon="-9.727848982438445">
        <ele>12.630000000000001</ele>
        <time>2026-06-30T14:21:29Z</time>
      </trkpt>
      <trkpt lat="52.265386981889606" lon="-9.727883012965322">
        <ele>12.630000000000001</ele>
        <time>2026-06-30T14:21:30Z</time>
      </trkpt>
      <trkpt lat="52.265454959124327" lon="-9.727921988815069">
        <ele>12.630000000000001</ele>
        <time>2026-06-30T14:21:31Z</time>
      </trkpt>
      <trkpt lat="52.265531988814473" lon="-9.7279669996351">
        <ele>12.15</ele>
        <time>2026-06-30T14:21:32Z</time>
      </trkpt>
      <trkpt lat="52.266331035643816" lon="-9.728382993489504">
        <ele>14.56</ele>
        <time>2026-06-30T14:21:39Z</time>
      </trkpt>
      <trkpt lat="52.267502993345261" lon="-9.728878028690815">
        <ele>21.77</ele>
        <time>2026-06-30T14:21:48Z</time>
      </trkpt>
      <trkpt lat="52.269087005406618" lon="-9.729326963424683">
        <ele>27.530000000000001</ele>
        <time>2026-06-30T14:22:00Z</time>
      </trkpt>
      <trkpt lat="52.269463017582893" lon="-9.729311959818006">
        <ele>29.940000000000001</ele>
        <time>2026-06-30T14:22:03Z</time>
      </trkpt>
      <trkpt lat="52.269597966223955" lon="-9.729306008666754">
        <ele>30.420000000000002</ele>
        <time>2026-06-30T14:22:04Z</time>
      </trkpt>
      <trkpt lat="52.269734004512429" lon="-9.729300979524851">
        <ele>30.899999999999999</ele>
        <time>2026-06-30T14:22:05Z</time>
      </trkpt>
      <trkpt lat="52.271005036309361" lon="-9.7292760014534">
        <ele>33.299999999999997</ele>
        <time>2026-06-30T14:22:14Z</time>
      </trkpt>
      <trkpt lat="52.271381970494986" lon="-9.729303997009993">
        <ele>32.82</ele>
        <time>2026-06-30T14:22:19Z</time>
      </trkpt>
      <trkpt lat="52.271483978256583" lon="-9.729315983131528">
        <ele>32.340000000000003</ele>
        <time>2026-06-30T14:22:27Z</time>
      </trkpt>
      <trkpt lat="52.271490013226867" lon="-9.729354958981276">
        <ele>32.82</ele>
        <time>2026-06-30T14:22:28Z</time>
      </trkpt>
      <trkpt lat="52.271488001570106" lon="-9.729430982843041">
        <ele>32.82</ele>
        <time>2026-06-30T14:22:29Z</time>
      </trkpt>
      <trkpt lat="52.271484984084964" lon="-9.729537013918161">
        <ele>32.340000000000003</ele>
        <time>2026-06-30T14:22:30Z</time>
      </trkpt>
      <trkpt lat="52.271482972428203" lon="-9.729654025286436">
        <ele>32.340000000000003</ele>
        <time>2026-06-30T14:22:31Z</time>
      </trkpt>
      <trkpt lat="52.27147601544857" lon="-9.729925012215972">
        <ele>32.82</ele>
        <time>2026-06-30T14:22:33Z</time>
      </trkpt>
      <trkpt lat="52.271471992135048" lon="-9.730087034404278">
        <ele>33.299999999999997</ele>
        <time>2026-06-30T14:22:34Z</time>
      </trkpt>
      <trkpt lat="52.271463023498654" lon="-9.730463968589902">
        <ele>33.780000000000001</ele>
        <time>2026-06-30T14:22:36Z</time>
      </trkpt>
      <trkpt lat="52.271459000185132" lon="-9.730661027133465">
        <ele>34.740000000000002</ele>
        <time>2026-06-30T14:22:37Z</time>
      </trkpt>
      <trkpt lat="52.271485989913344" lon="-9.732315028086305">
        <ele>39.07</ele>
        <time>2026-06-30T14:22:44Z</time>
      </trkpt>
      <trkpt lat="52.271533012390137" lon="-9.732565982267261">
        <ele>39.07</ele>
        <time>2026-06-30T14:22:45Z</time>
      </trkpt>
      <trkpt lat="52.271800981834531" lon="-9.734223000705242">
        <ele>38.109999999999999</ele>
        <time>2026-06-30T14:22:51Z</time>
      </trkpt>
      <trkpt lat="52.271824032068253" lon="-9.734503962099552">
        <ele>37.630000000000003</ele>
        <time>2026-06-30T14:22:52Z</time>
      </trkpt>
      <trkpt lat="52.272122008726001" lon="-9.737600991502404">
        <ele>31.859999999999999</ele>
        <time>2026-06-30T14:23:02Z</time>
      </trkpt>
      <trkpt lat="52.272171964868903" lon="-9.737898968160152">
        <ele>31.379999999999999</ele>
        <time>2026-06-30T14:23:03Z</time>
      </trkpt>
      <trkpt lat="52.272482011467218" lon="-9.739204030483961">
        <ele>27.050000000000001</ele>
        <time>2026-06-30T14:23:08Z</time>
      </trkpt>
      <trkpt lat="52.272512018680573" lon="-9.739450039342046">
        <ele>26.57</ele>
        <time>2026-06-30T14:23:09Z</time>
      </trkpt>
      <trkpt lat="52.272591982036829" lon="-9.739936022087932">
        <ele>25.129999999999999</ele>
        <time>2026-06-30T14:23:11Z</time>
      </trkpt>
      <trkpt lat="52.273038988932967" lon="-9.74259995855391">
        <ele>19.359999999999999</ele>
        <time>2026-06-30T14:23:22Z</time>
      </trkpt>
      <trkpt lat="52.273262031376362" lon="-9.744553025811911">
        <ele>16.960000000000001</ele>
        <time>2026-06-30T14:23:31Z</time>
      </trkpt>
      <trkpt lat="52.273378958925605" lon="-9.745161971077323">
        <ele>15.52</ele>
        <time>2026-06-30T14:23:34Z</time>
      </trkpt>
      <trkpt lat="52.273411983624101" lon="-9.745371015742421">
        <ele>14.56</ele>
        <time>2026-06-30T14:23:35Z</time>
      </trkpt>
      <trkpt lat="52.273404020816088" lon="-9.745605960488319">
        <ele>14.08</ele>
        <time>2026-06-30T14:23:36Z</time>
      </trkpt>
      <trkpt lat="52.273379964753985" lon="-9.745838977396488">
        <ele>13.119999999999999</ele>
        <time>2026-06-30T14:23:37Z</time>
      </trkpt>
      <trkpt lat="52.273354986682534" lon="-9.746065959334374">
        <ele>12.630000000000001</ele>
        <time>2026-06-30T14:23:38Z</time>
      </trkpt>
      <trkpt lat="52.273312993347645" lon="-9.746290007606149">
        <ele>12.15</ele>
        <time>2026-06-30T14:23:39Z</time>
      </trkpt>
      <trkpt lat="52.27304401807487" lon="-9.747977033257484">
        <ele>8.310000000000001</ele>
        <time>2026-06-30T14:23:46Z</time>
      </trkpt>
      <trkpt lat="52.273039994761348" lon="-9.748216001316905">
        <ele>7.83</ele>
        <time>2026-06-30T14:23:47Z</time>
      </trkpt>
      <trkpt lat="52.273067990317941" lon="-9.748450024053454">
        <ele>7.35</ele>
        <time>2026-06-30T14:23:48Z</time>
      </trkpt>
      <trkpt lat="52.273150971159339" lon="-9.749139016494155">
        <ele>7.35</ele>
        <time>2026-06-30T14:23:51Z</time>
      </trkpt>
      <trkpt lat="52.273206040263176" lon="-9.749358035624027">
        <ele>7.35</ele>
        <time>2026-06-30T14:23:52Z</time>
      </trkpt>
      <trkpt lat="52.273277034983039" lon="-9.749540006741881">
        <ele>6.87</ele>
        <time>2026-06-30T14:23:53Z</time>
      </trkpt>
      <trkpt lat="52.273570988327265" lon="-9.750398984178901">
        <ele>7.83</ele>
        <time>2026-06-30T14:23:58Z</time>
      </trkpt>
      <trkpt lat="52.273669978603721" lon="-9.750750018283725">
        <ele>8.789999999999999</ele>
        <time>2026-06-30T14:24:00Z</time>
      </trkpt>
      <trkpt lat="52.273721024394035" lon="-9.750897036865354">
        <ele>9.27</ele>
        <time>2026-06-30T14:24:01Z</time>
      </trkpt>
      <trkpt lat="52.273786989971995" lon="-9.751022011041641">
        <ele>9.75</ele>
        <time>2026-06-30T14:24:02Z</time>
      </trkpt>
      <trkpt lat="52.273856978863478" lon="-9.751155031844974">
        <ele>9.75</ele>
        <time>2026-06-30T14:24:03Z</time>
      </trkpt>
      <trkpt lat="52.273933002725244" lon="-9.75129802711308">
        <ele>10.23</ele>
        <time>2026-06-30T14:24:04Z</time>
      </trkpt>
      <trkpt lat="52.2740129660815" lon="-9.751448985189199">
        <ele>10.23</ele>
        <time>2026-06-30T14:24:05Z</time>
      </trkpt>
      <trkpt lat="52.274094019085169" lon="-9.751616036519408">
        <ele>9.75</ele>
        <time>2026-06-30T14:24:06Z</time>
      </trkpt>
      <trkpt lat="52.274142969399691" lon="-9.751801025122404">
        <ele>9.75</ele>
        <time>2026-06-30T14:24:07Z</time>
      </trkpt>
      <trkpt lat="52.274195021018386" lon="-9.752001017332077">
        <ele>9.75</ele>
        <time>2026-06-30T14:24:08Z</time>
      </trkpt>
      <trkpt lat="52.274215975776315" lon="-9.752468978986144">
        <ele>9.27</ele>
        <time>2026-06-30T14:24:10Z</time>
      </trkpt>
      <trkpt lat="52.274340027943254" lon="-9.752887990325689">
        <ele>8.789999999999999</ele>
        <time>2026-06-30T14:24:12Z</time>
      </trkpt>
      <trkpt lat="52.274469025433064" lon="-9.753344971686602">
        <ele>9.27</ele>
        <time>2026-06-30T14:24:14Z</time>
      </trkpt>
      <trkpt lat="52.274515964090824" lon="-9.753560973331332">
        <ele>9.27</ele>
        <time>2026-06-30T14:24:15Z</time>
      </trkpt>
      <trkpt lat="52.274515964090824" lon="-9.753803964704275">
        <ele>9.75</ele>
        <time>2026-06-30T14:24:16Z</time>
      </trkpt>
      <trkpt lat="52.274581007659435" lon="-9.756180988624692">
        <ele>11.67</ele>
        <time>2026-06-30T14:24:25Z</time>
      </trkpt>
      <trkpt lat="52.274923995137215" lon="-9.759005019441247">
        <ele>16.960000000000001</ele>
        <time>2026-06-30T14:24:37Z</time>
      </trkpt>
      <trkpt lat="52.275423975661397" lon="-9.760912992060185">
        <ele>13.6</ele>
        <time>2026-06-30T14:24:46Z</time>
      </trkpt>
      <trkpt lat="52.27577299810946" lon="-9.76210699416697">
        <ele>11.67</ele>
        <time>2026-06-30T14:24:52Z</time>
      </trkpt>
      <trkpt lat="52.275857990607619" lon="-9.762296006083489">
        <ele>11.19</ele>
        <time>2026-06-30T14:24:53Z</time>
      </trkpt>
      <trkpt lat="52.276257975026965" lon="-9.762921966612339">
        <ele>9.75</ele>
        <time>2026-06-30T14:24:57Z</time>
      </trkpt>
      <trkpt lat="52.276347996667027" lon="-9.76309597492218">
        <ele>9.75</ele>
        <time>2026-06-30T14:24:58Z</time>
      </trkpt>
      <trkpt lat="52.276428965851665" lon="-9.763275012373924">
        <ele>9.75</ele>
        <time>2026-06-30T14:24:59Z</time>
      </trkpt>
      <trkpt lat="52.2765670157969" lon="-9.763580029830337">
        <ele>10.23</ele>
        <time>2026-06-30T14:25:01Z</time>
      </trkpt>
      <trkpt lat="52.276624012738466" lon="-9.763672985136509">
        <ele>10.710000000000001</ele>
        <time>2026-06-30T14:25:02Z</time>
      </trkpt>
      <trkpt lat="52.276668017730117" lon="-9.763713972643018">
        <ele>11.19</ele>
        <time>2026-06-30T14:25:03Z</time>
      </trkpt>
      <trkpt lat="52.27686901576817" lon="-9.763900972902775">
        <ele>12.630000000000001</ele>
        <time>2026-06-30T14:25:08Z</time>
      </trkpt>
      <trkpt lat="52.27693104185164" lon="-9.763955036178231">
        <ele>13.119999999999999</ele>
        <time>2026-06-30T14:25:09Z</time>
      </trkpt>
      <trkpt lat="52.276999019086361" lon="-9.764013960957527">
        <ele>13.119999999999999</ele>
        <time>2026-06-30T14:25:10Z</time>
      </trkpt>
      <trkpt lat="52.277047969400883" lon="-9.764056038111448">
        <ele>13.119999999999999</ele>
        <time>2026-06-30T14:25:11Z</time>
      </trkpt>
      <trkpt lat="52.277186019346118" lon="-9.763987977057695">
        <ele>13.119999999999999</ele>
        <time>2026-06-30T14:25:12Z</time>
      </trkpt>
      <trkpt lat="52.277284003794193" lon="-9.763938020914793">
        <ele>13.119999999999999</ele>
        <time>2026-06-30T14:25:13Z</time>
      </trkpt>
      <trkpt lat="52.277387017384171" lon="-9.763886975124478">
        <ele>13.119999999999999</ele>
        <time>2026-06-30T14:25:14Z</time>
      </trkpt>
      <trkpt lat="52.277494976297021" lon="-9.763832995668054">
        <ele>13.119999999999999</ele>
        <time>2026-06-30T14:25:15Z</time>
      </trkpt>
      <trkpt lat="52.277595978230238" lon="-9.763782033696771">
        <ele>13.6</ele>
        <time>2026-06-30T14:25:16Z</time>
      </trkpt>
      <trkpt lat="52.277688011527061" lon="-9.763736017048359">
        <ele>13.119999999999999</ele>
        <time>2026-06-30T14:25:17Z</time>
      </trkpt>
      <trkpt lat="52.277775015681982" lon="-9.76371699012816">
        <ele>12.630000000000001</ele>
        <time>2026-06-30T14:25:18Z</time>
      </trkpt>
      <trkpt lat="52.277870988473296" lon="-9.763725958764553">
        <ele>12.630000000000001</ele>
        <time>2026-06-30T14:25:19Z</time>
      </trkpt>
      <trkpt lat="52.277971990406513" lon="-9.763756971806288">
        <ele>12.15</ele>
        <time>2026-06-30T14:25:20Z</time>
      </trkpt>
      <trkpt lat="52.278051031753421" lon="-9.763836013153195">
        <ele>11.67</ele>
        <time>2026-06-30T14:25:21Z</time>
      </trkpt>
      <trkpt lat="52.278125965967774" lon="-9.76393299177289">
        <ele>10.710000000000001</ele>
        <time>2026-06-30T14:25:22Z</time>
      </trkpt>
      <trkpt lat="52.278148010373116" lon="-9.764059977605939">
        <ele>10.23</ele>
        <time>2026-06-30T14:25:23Z</time>
      </trkpt>
      <trkpt lat="52.278172988444567" lon="-9.764199033379555">
        <ele>10.23</ele>
        <time>2026-06-30T14:25:24Z</time>
      </trkpt>
      <trkpt lat="52.278185980394483" lon="-9.764364995062351">
        <ele>9.75</ele>
        <time>2026-06-30T14:25:25Z</time>
      </trkpt>
      <trkpt lat="52.278185980394483" lon="-9.76453498005867">
        <ele>9.27</ele>
        <time>2026-06-30T14:25:26Z</time>
      </trkpt>
      <trkpt lat="52.278165025636554" lon="-9.764718962833285">
        <ele>8.789999999999999</ele>
        <time>2026-06-30T14:25:27Z</time>
      </trkpt>
      <trkpt lat="52.278125965967774" lon="-9.764872016385198">
        <ele>8.789999999999999</ele>
        <time>2026-06-30T14:25:28Z</time>
      </trkpt>
      <trkpt lat="52.278076009824872" lon="-9.765022974461317">
        <ele>8.310000000000001</ele>
        <time>2026-06-30T14:25:29Z</time>
      </trkpt>
      <trkpt lat="52.278023036196828" lon="-9.765120036900044">
        <ele>8.310000000000001</ele>
        <time>2026-06-30T14:25:30Z</time>
      </trkpt>
      <trkpt lat="52.277980959042907" lon="-9.765195976942778">
        <ele>8.310000000000001</ele>
        <time>2026-06-30T14:25:31Z</time>
      </trkpt>
      <trkpt lat="52.278008032590151" lon="-9.765325980260968">
        <ele>8.310000000000001</ele>
        <time>2026-06-30T14:25:32Z</time>
      </trkpt>
      <trkpt lat="52.278039967641234" lon="-9.765421031042934">
        <ele>7.83</ele>
        <time>2026-06-30T14:25:33Z</time>
      </trkpt>
      <trkpt lat="52.278087995946407" lon="-9.765496971085668">
        <ele>7.83</ele>
        <time>2026-06-30T14:25:34Z</time>
      </trkpt>
      <trkpt lat="52.278163013979793" lon="-9.765555979683995">
        <ele>7.83</ele>
        <time>2026-06-30T14:25:35Z</time>
      </trkpt>
      <trkpt lat="52.278255969285965" lon="-9.765627980232239">
        <ele>7.35</ele>
        <time>2026-06-30T14:25:36Z</time>
      </trkpt>
      <trkpt lat="52.279131961986423" lon="-9.766313033178449">
        <ele>7.83</ele>
        <time>2026-06-30T14:25:44Z</time>
      </trkpt>
      <trkpt lat="52.279892032966018" lon="-9.766869004815817">
        <ele>8.310000000000001</ele>
        <time>2026-06-30T14:25:53Z</time>
      </trkpt>
      <trkpt lat="52.279913993552327" lon="-9.766883002594113">
        <ele>8.789999999999999</ele>
        <time>2026-06-30T14:26:01Z</time>
      </trkpt>
      <trkpt lat="52.27998498827219" lon="-9.766926001757383">
        <ele>10.23</ele>
        <time>2026-06-30T14:26:08Z</time>
      </trkpt>
      <trkpt lat="52.280008038505912" lon="-9.767079977318645">
        <ele>10.710000000000001</ele>
        <time>2026-06-30T14:26:10Z</time>
      </trkpt>
      <trkpt lat="52.279995968565345" lon="-9.767148960381746">
        <ele>10.710000000000001</ele>
        <time>2026-06-30T14:26:11Z</time>
      </trkpt>
      <trkpt lat="52.279978031292558" lon="-9.767253985628486">
        <ele>11.19</ele>
        <time>2026-06-30T14:26:12Z</time>
      </trkpt>
      <trkpt lat="52.27983201853931" lon="-9.767837030813098">
        <ele>11.19</ele>
        <time>2026-06-30T14:26:16Z</time>
      </trkpt>
      <trkpt lat="52.279773009940982" lon="-9.768025958910584">
        <ele>11.19</ele>
        <time>2026-06-30T14:26:17Z</time>
      </trkpt>
      <trkpt lat="52.279542004689574" lon="-9.768553012982011">
        <ele>11.19</ele>
        <time>2026-06-30T14:26:20Z</time>
      </trkpt>
      <trkpt lat="52.279453994706273" lon="-9.768753005191684">
        <ele>11.19</ele>
        <time>2026-06-30T14:26:21Z</time>
      </trkpt>
      <trkpt lat="52.279075970873237" lon="-9.769611982628703">
        <ele>12.15</ele>
        <time>2026-06-30T14:26:25Z</time>
      </trkpt>
      <trkpt lat="52.278973963111639" lon="-9.769838964566588">
        <ele>12.15</ele>
        <time>2026-06-30T14:26:26Z</time>
      </trkpt>
      <trkpt lat="52.278070980682969" lon="-9.771837964653969">
        <ele>13.6</ele>
        <time>2026-06-30T14:26:34Z</time>
      </trkpt>
      <trkpt lat="52.277572005987167" lon="-9.773761024698615">
        <ele>13.6</ele>
        <time>2026-06-30T14:26:41Z</time>
      </trkpt>
      <trkpt lat="52.277515009045601" lon="-9.774056989699602">
        <ele>13.6</ele>
        <time>2026-06-30T14:26:42Z</time>
      </trkpt>
      <trkpt lat="52.276843031868339" lon="-9.777211016044021">
        <ele>16</ele>
        <time>2026-06-30T14:26:53Z</time>
      </trkpt>
      <trkpt lat="52.27633198723197" lon="-9.779057968407869">
        <ele>16</ele>
        <time>2026-06-30T14:27:02Z</time>
      </trkpt>
      <trkpt lat="52.275607036426663" lon="-9.780866028741002">
        <ele>16.48</ele>
        <time>2026-06-30T14:27:13Z</time>
      </trkpt>
      <trkpt lat="52.275499999523163" lon="-9.78127003647387">
        <ele>16</ele>
        <time>2026-06-30T14:27:15Z</time>
      </trkpt>
      <trkpt lat="52.275461023673415" lon="-9.78148796595633">
        <ele>16</ele>
        <time>2026-06-30T14:27:16Z</time>
      </trkpt>
      <trkpt lat="52.275434033945203" lon="-9.781713020056486">
        <ele>16</ele>
        <time>2026-06-30T14:27:17Z</time>
      </trkpt>
      <trkpt lat="52.275422969833016" lon="-9.781946036964655">
        <ele>16.48</ele>
        <time>2026-06-30T14:27:18Z</time>
      </trkpt>
      <trkpt lat="52.275410983711481" lon="-9.782185005024076">
        <ele>16.48</ele>
        <time>2026-06-30T14:27:19Z</time>
      </trkpt>
      <trkpt lat="52.275400003418326" lon="-9.782415004447103">
        <ele>16.960000000000001</ele>
        <time>2026-06-30T14:27:20Z</time>
      </trkpt>
      <trkpt lat="52.275390028953552" lon="-9.782627988606691">
        <ele>16.960000000000001</ele>
        <time>2026-06-30T14:27:21Z</time>
      </trkpt>
      <trkpt lat="52.275379970669746" lon="-9.782836027443409">
        <ele>16.960000000000001</ele>
        <time>2026-06-30T14:27:22Z</time>
      </trkpt>
      <trkpt lat="52.275311993435025" lon="-9.785616975277662">
        <ele>19.359999999999999</ele>
        <time>2026-06-30T14:27:34Z</time>
      </trkpt>
      <trkpt lat="52.275375025346875" lon="-9.788504960015416">
        <ele>24.649999999999999</ele>
        <time>2026-06-30T14:27:48Z</time>
      </trkpt>
      <trkpt lat="52.275400003418326" lon="-9.789991993457079">
        <ele>26.09</ele>
        <time>2026-06-30T14:27:55Z</time>
      </trkpt>
      <trkpt lat="52.275417018681765" lon="-9.79014202952385">
        <ele>26.09</ele>
        <time>2026-06-30T14:27:56Z</time>
      </trkpt>
      <trkpt lat="52.275458006188273" lon="-9.790255017578602">
        <ele>26.09</ele>
        <time>2026-06-30T14:27:57Z</time>
      </trkpt>
      <trkpt lat="52.275507962331176" lon="-9.79050999507308">
        <ele>26.57</ele>
        <time>2026-06-30T14:27:59Z</time>
      </trkpt>
      <trkpt lat="52.275527995079756" lon="-9.790651984512806">
        <ele>26.57</ele>
        <time>2026-06-30T14:28:00Z</time>
      </trkpt>
      <trkpt lat="52.275547021999955" lon="-9.790791040286422">
        <ele>27.050000000000001</ele>
        <time>2026-06-30T14:28:01Z</time>
      </trkpt>
      <trkpt lat="52.275566970929503" lon="-9.790934035554528">
        <ele>27.050000000000001</ele>
        <time>2026-06-30T14:28:02Z</time>
      </trkpt>
      <trkpt lat="52.275589015334845" lon="-9.791091028600931">
        <ele>27.530000000000001</ele>
        <time>2026-06-30T14:28:03Z</time>
      </trkpt>
      <trkpt lat="52.275694040581584" lon="-9.791869958862662">
        <ele>30.420000000000002</ele>
        <time>2026-06-30T14:28:07Z</time>
      </trkpt>
      <trkpt lat="52.275722958147526" lon="-9.792089983820915">
        <ele>30.899999999999999</ele>
        <time>2026-06-30T14:28:08Z</time>
      </trkpt>
      <trkpt lat="52.275783978402615" lon="-9.792536990717053">
        <ele>32.340000000000003</ele>
        <time>2026-06-30T14:28:10Z</time>
      </trkpt>
      <trkpt lat="52.27581599727273" lon="-9.792776964604855">
        <ele>32.82</ele>
        <time>2026-06-30T14:28:11Z</time>
      </trkpt>
      <trkpt lat="52.276091007515788" lon="-9.794814018532634">
        <ele>34.259999999999998</ele>
        <time>2026-06-30T14:28:20Z</time>
      </trkpt>
      <trkpt lat="52.276367023587227" lon="-9.796342039480805">
        <ele>35.710000000000001</ele>
        <time>2026-06-30T14:28:27Z</time>
      </trkpt>
      <trkpt lat="52.276440029963851" lon="-9.796549994498491">
        <ele>35.710000000000001</ele>
        <time>2026-06-30T14:28:28Z</time>
      </trkpt>
      <trkpt lat="52.277154000476003" lon="-9.798448998481035">
        <ele>39.549999999999997</ele>
        <time>2026-06-30T14:28:37Z</time>
      </trkpt>
      <trkpt lat="52.27749296464026" lon="-9.79923103004694">
        <ele>39.07</ele>
        <time>2026-06-30T14:28:41Z</time>
      </trkpt>
      <trkpt lat="52.278446992859244" lon="-9.800492003560066">
        <ele>37.149999999999999</ele>
        <time>2026-06-30T14:28:50Z</time>
      </trkpt>
      <trkpt lat="52.278576996177435" lon="-9.800555035471916">
        <ele>37.149999999999999</ele>
        <time>2026-06-30T14:28:51Z</time>
      </trkpt>
      <trkpt lat="52.278709011152387" lon="-9.800617983564735">
        <ele>36.670000000000002</ele>
        <time>2026-06-30T14:28:52Z</time>
      </trkpt>
      <trkpt lat="52.278978992253542" lon="-9.800748992711306">
        <ele>35.710000000000001</ele>
        <time>2026-06-30T14:28:54Z</time>
      </trkpt>
      <trkpt lat="52.280268967151642" lon="-9.800841026008129">
        <ele>32.82</ele>
        <time>2026-06-30T14:29:03Z</time>
      </trkpt>
      <trkpt lat="52.2803920134902" lon="-9.800871033221483">
        <ele>32.340000000000003</ele>
        <time>2026-06-30T14:29:04Z</time>
      </trkpt>
      <trkpt lat="52.28052101098001" lon="-9.800915038213134">
        <ele>32.340000000000003</ele>
        <time>2026-06-30T14:29:05Z</time>
      </trkpt>
      <trkpt lat="52.280635004863143" lon="-9.80101503431797">
        <ele>31.859999999999999</ele>
        <time>2026-06-30T14:29:06Z</time>
      </trkpt>
      <trkpt lat="52.280750004574656" lon="-9.801115030422807">
        <ele>31.859999999999999</ele>
        <time>2026-06-30T14:29:07Z</time>
      </trkpt>
      <trkpt lat="52.280857041478157" lon="-9.801221983507276">
        <ele>31.859999999999999</ele>
        <time>2026-06-30T14:29:08Z</time>
      </trkpt>
      <trkpt lat="52.280925018712878" lon="-9.801372019574046">
        <ele>32.340000000000003</ele>
        <time>2026-06-30T14:29:09Z</time>
      </trkpt>
      <trkpt lat="52.280960977077484" lon="-9.801547033712268">
        <ele>32.82</ele>
        <time>2026-06-30T14:29:10Z</time>
      </trkpt>
      <trkpt lat="52.280972963199019" lon="-9.801734033972025">
        <ele>33.299999999999997</ele>
        <time>2026-06-30T14:29:11Z</time>
      </trkpt>
      <trkpt lat="52.280970029532909" lon="-9.801910975947976">
        <ele>33.780000000000001</ele>
        <time>2026-06-30T14:29:12Z</time>
      </trkpt>
      <trkpt lat="52.280965000391006" lon="-9.802104011178017">
        <ele>34.740000000000002</ele>
        <time>2026-06-30T14:29:13Z</time>
      </trkpt>
      <trkpt lat="52.28101403452456" lon="-9.804200995713472">
        <ele>43.399999999999999</ele>
        <time>2026-06-30T14:29:24Z</time>
      </trkpt>
      <trkpt lat="52.281210003420711" lon="-9.806031016632915">
        <ele>47.719999999999999</ele>
        <time>2026-06-30T14:29:34Z</time>
      </trkpt>
      <trkpt lat="52.281271023675799" lon="-9.806592017412186">
        <ele>49.159999999999997</ele>
        <time>2026-06-30T14:29:37Z</time>
      </trkpt>
      <trkpt lat="52.281302958726883" lon="-9.806892005726695">
        <ele>50.609999999999999</ele>
        <time>2026-06-30T14:29:39Z</time>
      </trkpt>
      <trkpt lat="52.281345035880804" lon="-9.807066014036536">
        <ele>50.609999999999999</ele>
        <time>2026-06-30T14:29:40Z</time>
      </trkpt>
      <trkpt lat="52.281399015337229" lon="-9.807126028463244">
        <ele>51.090000000000003</ele>
        <time>2026-06-30T14:29:41Z</time>
      </trkpt>
      <trkpt lat="52.281451988965273" lon="-9.807185959070921">
        <ele>51.57</ele>
        <time>2026-06-30T14:29:42Z</time>
      </trkpt>
      <trkpt lat="52.281508985906839" lon="-9.807257959619165">
        <ele>52.049999999999997</ele>
        <time>2026-06-30T14:29:43Z</time>
      </trkpt>
      <trkpt lat="52.281567994505167" lon="-9.807352004572749">
        <ele>52.049999999999997</ele>
        <time>2026-06-30T14:29:44Z</time>
      </trkpt>
      <trkpt lat="52.281635971739888" lon="-9.80745904147625">
        <ele>52.530000000000001</ele>
        <time>2026-06-30T14:29:45Z</time>
      </trkpt>
      <trkpt lat="52.28243401274085" lon="-9.808494038879871">
        <ele>54.450000000000003</ele>
        <time>2026-06-30T14:29:53Z</time>
      </trkpt>
      <trkpt lat="52.282551024109125" lon="-9.808625970035791">
        <ele>54.450000000000003</ele>
        <time>2026-06-30T14:29:54Z</time>
      </trkpt>
      <trkpt lat="52.282656971365213" lon="-9.808790003880858">
        <ele>54.450000000000003</ele>
        <time>2026-06-30T14:29:55Z</time>
      </trkpt>
      <trkpt lat="52.282751016318798" lon="-9.808980021625757">
        <ele>54.93</ele>
        <time>2026-06-30T14:29:56Z</time>
      </trkpt>
      <trkpt lat="52.282942961901426" lon="-9.809344969689846">
        <ele>54.93</ele>
        <time>2026-06-30T14:29:58Z</time>
      </trkpt>
      <trkpt lat="52.28305502794683" lon="-9.809499029070139">
        <ele>54.450000000000003</ele>
        <time>2026-06-30T14:29:59Z</time>
      </trkpt>
      <trkpt lat="52.284337962046266" lon="-9.811056973412633">
        <ele>51.090000000000003</ele>
        <time>2026-06-30T14:30:09Z</time>
      </trkpt>
      <trkpt lat="52.285111024975777" lon="-9.812031034380198">
        <ele>48.68</ele>
        <time>2026-06-30T14:30:15Z</time>
      </trkpt>
      <trkpt lat="52.285209009423852" lon="-9.812241001054645">
        <ele>48.68</ele>
        <time>2026-06-30T14:30:16Z</time>
      </trkpt>
      <trkpt lat="52.285890961065888" lon="-9.813749995082617">
        <ele>45.32</ele>
        <time>2026-06-30T14:30:23Z</time>
      </trkpt>
      <trkpt lat="52.285976959392428" lon="-9.813981000334024">
        <ele>44.359999999999999</ele>
        <time>2026-06-30T14:30:24Z</time>
      </trkpt>
      <trkpt lat="52.286005960777402" lon="-9.81489697471261">
        <ele>42.439999999999998</ele>
        <time>2026-06-30T14:30:27Z</time>
      </trkpt>
      <trkpt lat="52.286089025437832" lon="-9.815136026591063">
        <ele>41.950000000000003</ele>
        <time>2026-06-30T14:30:28Z</time>
      </trkpt>
      <trkpt lat="52.286175023764372" lon="-9.815379017964006">
        <ele>40.990000000000002</ele>
        <time>2026-06-30T14:30:29Z</time>
      </trkpt>
      <trkpt lat="52.28703198954463" lon="-9.817411964759231">
        <ele>33.299999999999997</ele>
        <time>2026-06-30T14:30:38Z</time>
      </trkpt>
      <trkpt lat="52.287112958729267" lon="-9.817604999989271">
        <ele>32.82</ele>
        <time>2026-06-30T14:30:39Z</time>
      </trkpt>
      <trkpt lat="52.287190994247794" lon="-9.817788982763887">
        <ele>31.859999999999999</ele>
        <time>2026-06-30T14:30:40Z</time>
      </trkpt>
      <trkpt lat="52.287281015887856" lon="-9.817975983023644">
        <ele>31.379999999999999</ele>
        <time>2026-06-30T14:30:41Z</time>
      </trkpt>
      <trkpt lat="52.287409007549286" lon="-9.818101041018963">
        <ele>30.899999999999999</ele>
        <time>2026-06-30T14:30:42Z</time>
      </trkpt>
      <trkpt lat="52.287543034180999" lon="-9.818230960518122">
        <ele>30.420000000000002</ele>
        <time>2026-06-30T14:30:43Z</time>
      </trkpt>
      <trkpt lat="52.288507958874106" lon="-9.819463016465306">
        <ele>28.02</ele>
        <time>2026-06-30T14:30:50Z</time>
      </trkpt>
      <trkpt lat="52.289670025929809" lon="-9.821311980485916">
        <ele>33.780000000000001</ele>
        <time>2026-06-30T14:31:00Z</time>
      </trkpt>
      <trkpt lat="52.290334040299058" lon="-9.822310013696551">
        <ele>38.590000000000003</ele>
        <time>2026-06-30T14:31:07Z</time>
      </trkpt>
      <trkpt lat="52.290673004463315" lon="-9.822784010320902">
        <ele>38.590000000000003</ele>
        <time>2026-06-30T14:31:13Z</time>
      </trkpt>
      <trkpt lat="52.290732013061643" lon="-9.8227150272578">
        <ele>38.109999999999999</ele>
        <time>2026-06-30T14:31:14Z</time>
      </trkpt>
      <trkpt lat="52.29076998308301" lon="-9.822669010609388">
        <ele>38.109999999999999</ele>
        <time>2026-06-30T14:31:15Z</time>
      </trkpt>
      <trkpt lat="52.290820023044944" lon="-9.82260899618268">
        <ele>38.109999999999999</ele>
        <time>2026-06-30T14:31:16Z</time>
      </trkpt>
      <trkpt lat="52.290884982794523" lon="-9.822528026998043">
        <ele>38.109999999999999</ele>
        <time>2026-06-30T14:31:17Z</time>
      </trkpt>
      <trkpt lat="52.291528964415193" lon="-9.821585984900594">
        <ele>42.920000000000002</ele>
        <time>2026-06-30T14:31:24Z</time>
      </trkpt>
      <trkpt lat="52.292490033432841" lon="-9.819991998374462">
        <ele>49.649999999999999</ele>
        <time>2026-06-30T14:31:33Z</time>
      </trkpt>
      <trkpt lat="52.293718988075852" lon="-9.817665014415979">
        <ele>47.719999999999999</ele>
        <time>2026-06-30T14:31:44Z</time>
      </trkpt>
      <trkpt lat="52.294872002676129" lon="-9.815421011298895">
        <ele>42.920000000000002</ele>
        <time>2026-06-30T14:31:54Z</time>
      </trkpt>
      <trkpt lat="52.295311968773603" lon="-9.81465800665319">
        <ele>39.07</ele>
        <time>2026-06-30T14:31:58Z</time>
      </trkpt>
      <trkpt lat="52.295416994020343" lon="-9.814561028033495">
        <ele>38.109999999999999</ele>
        <time>2026-06-30T14:31:59Z</time>
      </trkpt>
      <trkpt lat="52.295570969581604" lon="-9.814321976155043">
        <ele>36.670000000000002</ele>
        <time>2026-06-30T14:32:01Z</time>
      </trkpt>
      <trkpt lat="52.295640958473086" lon="-9.814181998372078">
        <ele>35.710000000000001</ele>
        <time>2026-06-30T14:32:02Z</time>
      </trkpt>
      <trkpt lat="52.295719999819994" lon="-9.814023999497294">
        <ele>35.229999999999997</ele>
        <time>2026-06-30T14:32:03Z</time>
      </trkpt>
      <trkpt lat="52.296502031385899" lon="-9.812460020184517">
        <ele>30.899999999999999</ele>
        <time>2026-06-30T14:32:11Z</time>
      </trkpt>
      <trkpt lat="52.297543985769153" lon="-9.810422966256738">
        <ele>27.050000000000001</ele>
        <time>2026-06-30T14:32:20Z</time>
      </trkpt>
      <trkpt lat="52.297656973823905" lon="-9.810308972373605">
        <ele>26.57</ele>
        <time>2026-06-30T14:32:21Z</time>
      </trkpt>
      <trkpt lat="52.297753030434251" lon="-9.810276031494141">
        <ele>26.09</ele>
        <time>2026-06-30T14:32:22Z</time>
      </trkpt>
      <trkpt lat="52.297861995175481" lon="-9.810276031494141">
        <ele>26.09</ele>
        <time>2026-06-30T14:32:23Z</time>
      </trkpt>
      <trkpt lat="52.297941958531737" lon="-9.810291035100818">
        <ele>25.609999999999999</ele>
        <time>2026-06-30T14:32:24Z</time>
      </trkpt>
      <trkpt lat="52.298033991828561" lon="-9.81038298457861">
        <ele>25.609999999999999</ele>
        <time>2026-06-30T14:32:25Z</time>
      </trkpt>
      <trkpt lat="52.298124013468623" lon="-9.810474012047052">
        <ele>25.129999999999999</ele>
        <time>2026-06-30T14:32:26Z</time>
      </trkpt>
      <trkpt lat="52.298141028732061" lon="-9.810491027310491">
        <ele>25.129999999999999</ele>
        <time>2026-06-30T14:32:27Z</time>
      </trkpt>
      <trkpt lat="52.298315959051251" lon="-9.810455990955234">
        <ele>25.129999999999999</ele>
        <time>2026-06-30T14:32:28Z</time>
      </trkpt>
      <trkpt lat="52.298377985134721" lon="-9.810424977913499">
        <ele>24.649999999999999</ele>
        <time>2026-06-30T14:32:29Z</time>
      </trkpt>
      <trkpt lat="52.298448979854584" lon="-9.810350965708494">
        <ele>24.170000000000002</ele>
        <time>2026-06-30T14:32:30Z</time>
      </trkpt>
      <trkpt lat="52.298530032858253" lon="-9.810265973210335">
        <ele>23.690000000000001</ele>
        <time>2026-06-30T14:32:31Z</time>
      </trkpt>
      <trkpt lat="52.299313992261887" lon="-9.809449994936585">
        <ele>24.649999999999999</ele>
        <time>2026-06-30T14:32:38Z</time>
      </trkpt>
      <trkpt lat="52.299969960004091" lon="-9.808730995282531">
        <ele>27.050000000000001</ele>
        <time>2026-06-30T14:32:43Z</time>
      </trkpt>
      <trkpt lat="52.300257040187716" lon="-9.808548018336296">
        <ele>28.98</ele>
        <time>2026-06-30T14:32:45Z</time>
      </trkpt>
      <trkpt lat="52.300900015980005" lon="-9.808253981173039">
        <ele>31.379999999999999</ele>
        <time>2026-06-30T14:32:50Z</time>
      </trkpt>
      <trkpt lat="52.300963969901204" lon="-9.808173011988401">
        <ele>31.859999999999999</ele>
        <time>2026-06-30T14:32:51Z</time>
      </trkpt>
      <trkpt lat="52.300991965457797" lon="-9.808065975084901">
        <ele>31.859999999999999</ele>
        <time>2026-06-30T14:32:52Z</time>
      </trkpt>
      <trkpt lat="52.301059020683169" lon="-9.807808985933662">
        <ele>32.340000000000003</ele>
        <time>2026-06-30T14:32:54Z</time>
      </trkpt>
      <trkpt lat="52.301076035946608" lon="-9.807524001225829">
        <ele>31.859999999999999</ele>
        <time>2026-06-30T14:32:56Z</time>
      </trkpt>
      <trkpt lat="52.301134038716555" lon="-9.807331971824169">
        <ele>31.859999999999999</ele>
        <time>2026-06-30T14:32:57Z</time>
      </trkpt>
      <trkpt lat="52.301201010122895" lon="-9.807190988212824">
        <ele>31.859999999999999</ele>
        <time>2026-06-30T14:32:58Z</time>
      </trkpt>
      <trkpt lat="52.301272004842758" lon="-9.807042041793466">
        <ele>31.379999999999999</ele>
        <time>2026-06-30T14:32:59Z</time>
      </trkpt>
      <trkpt lat="52.301359008997679" lon="-9.806892005726695">
        <ele>31.379999999999999</ele>
        <time>2026-06-30T14:33:00Z</time>
      </trkpt>
      <trkpt lat="52.30222100391984" lon="-9.80550698004663">
        <ele>27.530000000000001</ele>
        <time>2026-06-30T14:33:08Z</time>
      </trkpt>
      <trkpt lat="52.303384998813272" lon="-9.803847027942538">
        <ele>22.25</ele>
        <time>2026-06-30T14:33:17Z</time>
      </trkpt>
      <trkpt lat="52.304100980982184" lon="-9.802799038589001">
        <ele>17.920000000000002</ele>
        <time>2026-06-30T14:33:25Z</time>
      </trkpt>
      <trkpt lat="52.304223021492362" lon="-9.802554035559297">
        <ele>14.56</ele>
        <time>2026-06-30T14:33:31Z</time>
      </trkpt>
      <trkpt lat="52.304274989292026" lon="-9.802545988932252">
        <ele>14.08</ele>
        <time>2026-06-30T14:33:36Z</time>
      </trkpt>
      <trkpt lat="52.304320000112057" lon="-9.802564010024071">
        <ele>13.6</ele>
        <time>2026-06-30T14:33:37Z</time>
      </trkpt>
      <trkpt lat="52.304990971460938" lon="-9.802831979468465">
        <ele>12.630000000000001</ele>
        <time>2026-06-30T14:33:44Z</time>
      </trkpt>
      <trkpt lat="52.30585397221148" lon="-9.803168009966612">
        <ele>15.039999999999999</ele>
        <time>2026-06-30T14:33:50Z</time>
      </trkpt>
      <trkpt lat="52.306024041026831" lon="-9.803168009966612">
        <ele>15.039999999999999</ele>
        <time>2026-06-30T14:33:51Z</time>
      </trkpt>
      <trkpt lat="52.306186985224485" lon="-9.8031219933182">
        <ele>15.039999999999999</ele>
        <time>2026-06-30T14:33:52Z</time>
      </trkpt>
      <trkpt lat="52.306355964392424" lon="-9.803049992769957">
        <ele>15.52</ele>
        <time>2026-06-30T14:33:53Z</time>
      </trkpt>
      <trkpt lat="52.306529972702265" lon="-9.802968017756939">
        <ele>15.52</ele>
        <time>2026-06-30T14:33:54Z</time>
      </trkpt>
      <trkpt lat="52.307724980637431" lon="-9.802181962877512">
        <ele>21.77</ele>
        <time>2026-06-30T14:34:01Z</time>
      </trkpt>
      <trkpt lat="52.309220982715487" lon="-9.801127016544342">
        <ele>28.02</ele>
        <time>2026-06-30T14:34:11Z</time>
      </trkpt>
      <trkpt lat="52.31066501699388" lon="-9.800182040780783">
        <ele>30.899999999999999</ele>
        <time>2026-06-30T14:34:20Z</time>
      </trkpt>
      <trkpt lat="52.31189195998013" lon="-9.799129022285342">
        <ele>29.940000000000001</ele>
        <time>2026-06-30T14:34:28Z</time>
      </trkpt>
      <trkpt lat="52.312845988199115" lon="-9.798096958547831">
        <ele>26.09</ele>
        <time>2026-06-30T14:34:35Z</time>
      </trkpt>
      <trkpt lat="52.312939027324319" lon="-9.797950023785234">
        <ele>25.609999999999999</ele>
        <time>2026-06-30T14:34:36Z</time>
      </trkpt>
      <trkpt lat="52.313625002279878" lon="-9.796192003414035">
        <ele>23.690000000000001</ele>
        <time>2026-06-30T14:34:44Z</time>
      </trkpt>
      <trkpt lat="52.31474700383842" lon="-9.793193964287639">
        <ele>24.649999999999999</ele>
        <time>2026-06-30T14:34:56Z</time>
      </trkpt>
      <trkpt lat="52.314848005771637" lon="-9.792977962642908">
        <ele>25.129999999999999</ele>
        <time>2026-06-30T14:34:57Z</time>
      </trkpt>
      <trkpt lat="52.314954958856106" lon="-9.792767995968461">
        <ele>25.129999999999999</ele>
        <time>2026-06-30T14:34:58Z</time>
      </trkpt>
      <trkpt lat="52.315063001587987" lon="-9.792554005980492">
        <ele>25.609999999999999</ele>
        <time>2026-06-30T14:34:59Z</time>
      </trkpt>
      <trkpt lat="52.316297991201282" lon="-9.789870958775282">
        <ele>30.420000000000002</ele>
        <time>2026-06-30T14:35:11Z</time>
      </trkpt>
      <trkpt lat="52.316667968407273" lon="-9.78909001685679">
        <ele>31.379999999999999</ele>
        <time>2026-06-30T14:35:15Z</time>
      </trkpt>
      <trkpt lat="52.316784979775548" lon="-9.788929000496864">
        <ele>31.379999999999999</ele>
        <time>2026-06-30T14:35:16Z</time>
      </trkpt>
      <trkpt lat="52.31816497631371" lon="-9.787168968468905">
        <ele>34.259999999999998</ele>
        <time>2026-06-30T14:35:27Z</time>
      </trkpt>
      <trkpt lat="52.319059995934367" lon="-9.786222986876965">
        <ele>32.82</ele>
        <time>2026-06-30T14:35:34Z</time>
      </trkpt>
      <trkpt lat="52.319186981767416" lon="-9.786160038784146">
        <ele>32.82</ele>
        <time>2026-06-30T14:35:35Z</time>
      </trkpt>
      <trkpt lat="52.319312961772084" lon="-9.786097006872296">
        <ele>32.340000000000003</ele>
        <time>2026-06-30T14:35:36Z</time>
      </trkpt>
      <trkpt lat="52.319961972534657" lon="-9.785975972190499">
        <ele>30.420000000000002</ele>
        <time>2026-06-30T14:35:41Z</time>
      </trkpt>
      <trkpt lat="52.320091975852847" lon="-9.785905983299017">
        <ele>29.940000000000001</ele>
        <time>2026-06-30T14:35:42Z</time>
      </trkpt>
      <trkpt lat="52.321633994579315" lon="-9.785066032782197">
        <ele>26.09</ele>
        <time>2026-06-30T14:35:53Z</time>
      </trkpt>
      <trkpt lat="52.32304098084569" lon="-9.784285007044673">
        <ele>24.170000000000002</ele>
        <time>2026-06-30T14:36:03Z</time>
      </trkpt>
      <trkpt lat="52.32405100017786" lon="-9.783838000148535">
        <ele>23.210000000000001</ele>
        <time>2026-06-30T14:36:10Z</time>
      </trkpt>
      <trkpt lat="52.324169017374516" lon="-9.783818973228335">
        <ele>23.210000000000001</ele>
        <time>2026-06-30T14:36:11Z</time>
      </trkpt>
      <trkpt lat="52.324253004044294" lon="-9.783886028453708">
        <ele>22.73</ele>
        <time>2026-06-30T14:36:12Z</time>
      </trkpt>
      <trkpt lat="52.324345037341118" lon="-9.783959034830332">
        <ele>22.73</ele>
        <time>2026-06-30T14:36:13Z</time>
      </trkpt>
      <trkpt lat="52.32443698681891" lon="-9.784032963216305">
        <ele>21.77</ele>
        <time>2026-06-30T14:36:14Z</time>
      </trkpt>
      <trkpt lat="52.324528014287353" lon="-9.784123990684748">
        <ele>21.289999999999999</ele>
        <time>2026-06-30T14:36:15Z</time>
      </trkpt>
      <trkpt lat="52.324619963765144" lon="-9.784242007881403">
        <ele>20.809999999999999</ele>
        <time>2026-06-30T14:36:16Z</time>
      </trkpt>
      <trkpt lat="52.324732029810548" lon="-9.784307973459363">
        <ele>20.32</ele>
        <time>2026-06-30T14:36:17Z</time>
      </trkpt>
      <trkpt lat="52.324857003986835" lon="-9.784361030906439">
        <ele>19.84</ele>
        <time>2026-06-30T14:36:18Z</time>
      </trkpt>
      <trkpt lat="52.324989018961787" lon="-9.784416016191244">
        <ele>19.84</ele>
        <time>2026-06-30T14:36:19Z</time>
      </trkpt>
      <trkpt lat="52.325667031109333" lon="-9.784590024501085">
        <ele>21.77</ele>
        <time>2026-06-30T14:36:24Z</time>
      </trkpt>
      <trkpt lat="52.325769038870931" lon="-9.784548031166196">
        <ele>21.77</ele>
        <time>2026-06-30T14:36:25Z</time>
      </trkpt>
      <trkpt lat="52.325860988348722" lon="-9.784506959840655">
        <ele>21.77</ele>
        <time>2026-06-30T14:36:26Z</time>
      </trkpt>
      <trkpt lat="52.325932988896966" lon="-9.784403024241328">
        <ele>21.77</ele>
        <time>2026-06-30T14:36:27Z</time>
      </trkpt>
      <trkpt lat="52.326002977788448" lon="-9.784284001216292">
        <ele>21.77</ele>
        <time>2026-06-30T14:36:28Z</time>
      </trkpt>
      <trkpt lat="52.326059974730015" lon="-9.784129019826651">
        <ele>21.77</ele>
        <time>2026-06-30T14:36:29Z</time>
      </trkpt>
      <trkpt lat="52.326119989156723" lon="-9.783966997638345">
        <ele>21.77</ele>
        <time>2026-06-30T14:36:30Z</time>
      </trkpt>
      <trkpt lat="52.326183021068573" lon="-9.783793995156884">
        <ele>21.77</ele>
        <time>2026-06-30T14:36:31Z</time>
      </trkpt>
      <trkpt lat="52.326508993282914" lon="-9.78290400467813">
        <ele>22.25</ele>
        <time>2026-06-30T14:36:36Z</time>
      </trkpt>
      <trkpt lat="52.326561966910958" lon="-9.782738965004683">
        <ele>22.25</ele>
        <time>2026-06-30T14:36:37Z</time>
      </trkpt>
      <trkpt lat="52.326819961890578" lon="-9.781308006495237">
        <ele>23.210000000000001</ele>
        <time>2026-06-30T14:36:46Z</time>
      </trkpt>
      <trkpt lat="52.326839994639158" lon="-9.781174985691905">
        <ele>23.210000000000001</ele>
        <time>2026-06-30T14:36:47Z</time>
      </trkpt>
      <trkpt lat="52.326876036822796" lon="-9.780938029289246">
        <ele>23.210000000000001</ele>
        <time>2026-06-30T14:36:49Z</time>
      </trkpt>
      <trkpt lat="52.326888022944331" lon="-9.780858987942338">
        <ele>23.210000000000001</ele>
        <time>2026-06-30T14:36:50Z</time>
      </trkpt>
      <trkpt lat="52.326893974095583" lon="-9.780814982950687">
        <ele>22.73</ele>
        <time>2026-06-30T14:36:51Z</time>
      </trkpt>
      <trkpt lat="52.326937979087234" lon="-9.780814982950687">
        <ele>22.73</ele>
        <time>2026-06-30T14:36:52Z</time>
      </trkpt>
      <trkpt lat="52.326960023492575" lon="-9.780814982950687">
        <ele>22.73</ele>
        <time>2026-06-30T14:36:53Z</time>
      </trkpt>
      <trkpt lat="52.326985001564026" lon="-9.780814982950687">
        <ele>22.25</ele>
        <time>2026-06-30T14:36:54Z</time>
      </trkpt>
      <trkpt lat="52.327026994898915" lon="-9.780823029577732">
        <ele>22.25</ele>
        <time>2026-06-30T14:36:55Z</time>
      </trkpt>
      <trkpt lat="52.32705800794065" lon="-9.78088597767055">
        <ele>22.25</ele>
        <time>2026-06-30T14:36:56Z</time>
      </trkpt>
      <trkpt lat="52.327097989618778" lon="-9.7809680365026">
        <ele>21.77</ele>
        <time>2026-06-30T14:36:57Z</time>
      </trkpt>
      <trkpt lat="52.327543990686536" lon="-9.781886022537947">
        <ele>20.32</ele>
        <time>2026-06-30T14:37:07Z</time>
      </trkpt>
      <trkpt lat="52.328078001737595" lon="-9.782986985519528">
        <ele>22.25</ele>
        <time>2026-06-30T14:37:18Z</time>
      </trkpt>
      <trkpt lat="52.328117983415723" lon="-9.783068038523197">
        <ele>22.25</ele>
        <time>2026-06-30T14:37:19Z</time>
      </trkpt>
      <trkpt lat="52.328183026984334" lon="-9.78316099382937">
        <ele>22.25</ele>
        <time>2026-06-30T14:37:20Z</time>
      </trkpt>
      <trkpt lat="52.328251004219055" lon="-9.783256966620684">
        <ele>21.77</ele>
        <time>2026-06-30T14:37:21Z</time>
      </trkpt>
      <trkpt lat="52.328327028080821" lon="-9.783364003524184">
        <ele>21.77</ele>
        <time>2026-06-30T14:37:22Z</time>
      </trkpt>
      <trkpt lat="52.328410008922219" lon="-9.783480009064078">
        <ele>21.289999999999999</ele>
        <time>2026-06-30T14:37:23Z</time>
      </trkpt>
      <trkpt lat="52.328504975885153" lon="-9.783599032089114">
        <ele>20.809999999999999</ele>
        <time>2026-06-30T14:37:24Z</time>
      </trkpt>
      <trkpt lat="52.328622993081808" lon="-9.783682012930512">
        <ele>20.32</ele>
        <time>2026-06-30T14:37:25Z</time>
      </trkpt>
      <trkpt lat="52.328747967258096" lon="-9.783770022913814">
        <ele>19.84</ele>
        <time>2026-06-30T14:37:26Z</time>
      </trkpt>
      <trkpt lat="52.32888501137495" lon="-9.783857027068734">
        <ele>19.359999999999999</ele>
        <time>2026-06-30T14:37:27Z</time>
      </trkpt>
      <trkpt lat="52.329791011288762" lon="-9.784291964024305">
        <ele>16</ele>
        <time>2026-06-30T14:37:33Z</time>
      </trkpt>
      <trkpt lat="52.329929983243346" lon="-9.784391960129142">
        <ele>15.52</ele>
        <time>2026-06-30T14:37:34Z</time>
      </trkpt>
      <trkpt lat="52.330068033188581" lon="-9.784521963447332">
        <ele>15.039999999999999</ele>
        <time>2026-06-30T14:37:35Z</time>
      </trkpt>
      <trkpt lat="52.330189989879727" lon="-9.784701000899077">
        <ele>15.039999999999999</ele>
        <time>2026-06-30T14:37:36Z</time>
      </trkpt>
      <trkpt lat="52.330313958227634" lon="-9.784883977845311">
        <ele>14.56</ele>
        <time>2026-06-30T14:37:37Z</time>
      </trkpt>
      <trkpt lat="52.330438010394573" lon="-9.785081958398223">
        <ele>14.56</ele>
        <time>2026-06-30T14:37:38Z</time>
      </trkpt>
      <trkpt lat="52.331695966422558" lon="-9.787410032004118">
        <ele>13.119999999999999</ele>
        <time>2026-06-30T14:37:48Z</time>
      </trkpt>
      <trkpt lat="52.332857027649879" lon="-9.789965003728867">
        <ele>11.19</ele>
        <time>2026-06-30T14:37:58Z</time>
      </trkpt>
      <trkpt lat="52.334088999778032" lon="-9.792810995131731">
        <ele>10.710000000000001</ele>
        <time>2026-06-30T14:38:09Z</time>
      </trkpt>
      <trkpt lat="52.33524695970118" lon="-9.79547300375998">
        <ele>8.789999999999999</ele>
        <time>2026-06-30T14:38:20Z</time>
      </trkpt>
      <trkpt lat="52.336745979264379" lon="-9.798990972340107">
        <ele>10.23</ele>
        <time>2026-06-30T14:38:35Z</time>
      </trkpt>
      <trkpt lat="52.337944004684687" lon="-9.801749037578702">
        <ele>10.23</ele>
        <time>2026-06-30T14:38:47Z</time>
      </trkpt>
      <trkpt lat="52.339247977361083" lon="-9.80475302785635">
        <ele>7.83</ele>
        <time>2026-06-30T14:39:00Z</time>
      </trkpt>
      <trkpt lat="52.340105026960373" lon="-9.806652031838894">
        <ele>7.83</ele>
        <time>2026-06-30T14:39:09Z</time>
      </trkpt>
      <trkpt lat="52.341407993808389" lon="-9.808885976672173">
        <ele>10.23</ele>
        <time>2026-06-30T14:39:20Z</time>
      </trkpt>
      <trkpt lat="52.342923022806644" lon="-9.811300970613957">
        <ele>11.67</ele>
        <time>2026-06-30T14:39:32Z</time>
      </trkpt>
      <trkpt lat="52.344019962474704" lon="-9.813053039833903">
        <ele>12.15</ele>
        <time>2026-06-30T14:39:42Z</time>
      </trkpt>
      <trkpt lat="52.345284037292004" lon="-9.815066959708929">
        <ele>7.35</ele>
        <time>2026-06-30T14:39:52Z</time>
      </trkpt>
      <trkpt lat="52.346469992771745" lon="-9.817090015858412">
        <ele>4.46</ele>
        <time>2026-06-30T14:40:01Z</time>
      </trkpt>
      <trkpt lat="52.347125960513949" lon="-9.819044005125761">
        <ele>5.42</ele>
        <time>2026-06-30T14:40:09Z</time>
      </trkpt>
      <trkpt lat="52.34747095964849" lon="-9.819969031959772">
        <ele>6.87</ele>
        <time>2026-06-30T14:40:13Z</time>
      </trkpt>
      <trkpt lat="52.347586965188384" lon="-9.820166006684303">
        <ele>7.35</ele>
        <time>2026-06-30T14:40:14Z</time>
      </trkpt>
      <trkpt lat="52.347729960456491" lon="-9.820317970588803">
        <ele>7.35</ele>
        <time>2026-06-30T14:40:15Z</time>
      </trkpt>
      <trkpt lat="52.347879996523261" lon="-9.820468006655574">
        <ele>7.83</ele>
        <time>2026-06-30T14:40:16Z</time>
      </trkpt>
      <trkpt lat="52.348045958206058" lon="-9.820612007752061">
        <ele>8.310000000000001</ele>
        <time>2026-06-30T14:40:17Z</time>
      </trkpt>
      <trkpt lat="52.348247040063143" lon="-9.820688031613827">
        <ele>8.789999999999999</ele>
        <time>2026-06-30T14:40:18Z</time>
      </trkpt>
      <trkpt lat="52.348467987030745" lon="-9.820769000798464">
        <ele>8.789999999999999</ele>
        <time>2026-06-30T14:40:19Z</time>
      </trkpt>
      <trkpt lat="52.348699998110533" lon="-9.820769000798464">
        <ele>8.789999999999999</ele>
        <time>2026-06-30T14:40:20Z</time>
      </trkpt>
      <trkpt lat="52.348923962563276" lon="-9.820769000798464">
        <ele>8.310000000000001</ele>
        <time>2026-06-30T14:40:21Z</time>
      </trkpt>
      <trkpt lat="52.35054099932313" lon="-9.82067596167326">
        <ele>8.789999999999999</ele>
        <time>2026-06-30T14:40:29Z</time>
      </trkpt>
      <trkpt lat="52.350725987926126" lon="-9.820706974714994">
        <ele>8.789999999999999</ele>
        <time>2026-06-30T14:40:30Z</time>
      </trkpt>
      <trkpt lat="52.350909970700741" lon="-9.820786016061902">
        <ele>8.789999999999999</ele>
        <time>2026-06-30T14:40:31Z</time>
      </trkpt>
      <trkpt lat="52.35107702203095" lon="-9.820929011330009">
        <ele>9.27</ele>
        <time>2026-06-30T14:40:32Z</time>
      </trkpt>
      <trkpt lat="52.351246001198888" lon="-9.821076029911637">
        <ele>9.27</ele>
        <time>2026-06-30T14:40:33Z</time>
      </trkpt>
      <trkpt lat="52.351413974538445" lon="-9.821247020736337">
        <ele>9.27</ele>
        <time>2026-06-30T14:40:34Z</time>
      </trkpt>
      <trkpt lat="52.353134024888277" lon="-9.823085004463792">
        <ele>9.75</ele>
        <time>2026-06-30T14:40:44Z</time>
      </trkpt>
      <trkpt lat="52.353330999612808" lon="-9.823172008618712">
        <ele>9.75</ele>
        <time>2026-06-30T14:40:45Z</time>
      </trkpt>
      <trkpt lat="52.35352898016572" lon="-9.823245014995337">
        <ele>10.23</ele>
        <time>2026-06-30T14:40:46Z</time>
      </trkpt>
      <trkpt lat="52.355320025235415" lon="-9.823635024949908">
        <ele>11.67</ele>
        <time>2026-06-30T14:40:55Z</time>
      </trkpt>
      <trkpt lat="52.357369987294078" lon="-9.824044983834028">
        <ele>12.15</ele>
        <time>2026-06-30T14:41:06Z</time>
      </trkpt>
      <trkpt lat="52.359438976272941" lon="-9.823652962222695">
        <ele>11.19</ele>
        <time>2026-06-30T14:41:17Z</time>
      </trkpt>
      <trkpt lat="52.361549036577344" lon="-9.823401002213359">
        <ele>9.27</ele>
        <time>2026-06-30T14:41:28Z</time>
      </trkpt>
      <trkpt lat="52.362769022583961" lon="-9.823514996096492">
        <ele>8.310000000000001</ele>
        <time>2026-06-30T14:41:34Z</time>
      </trkpt>
      <trkpt lat="52.362964991480112" lon="-9.823473002761602">
        <ele>8.310000000000001</ele>
        <time>2026-06-30T14:41:35Z</time>
      </trkpt>
      <trkpt lat="52.363149980083108" lon="-9.82335900887847">
        <ele>7.83</ele>
        <time>2026-06-30T14:41:36Z</time>
      </trkpt>
      <trkpt lat="52.363320970907807" lon="-9.82321098446846">
        <ele>7.35</ele>
        <time>2026-06-30T14:41:37Z</time>
      </trkpt>
      <trkpt lat="52.363481987267733" lon="-9.823022978380323">
        <ele>6.87</ele>
        <time>2026-06-30T14:41:38Z</time>
      </trkpt>
      <trkpt lat="52.363618025556207" lon="-9.822789961472154">
        <ele>6.87</ele>
        <time>2026-06-30T14:41:39Z</time>
      </trkpt>
      <trkpt lat="52.363740988075733" lon="-9.822538001462817">
        <ele>6.87</ele>
        <time>2026-06-30T14:41:40Z</time>
      </trkpt>
      <trkpt lat="52.363836960867047" lon="-9.82224497012794">
        <ele>6.87</ele>
        <time>2026-06-30T14:41:41Z</time>
      </trkpt>
      <trkpt lat="52.363934023305774" lon="-9.821946993470192">
        <ele>6.39</ele>
        <time>2026-06-30T14:41:42Z</time>
      </trkpt>
      <trkpt lat="52.36403301358223" lon="-9.821645999327302">
        <ele>6.39</ele>
        <time>2026-06-30T14:41:43Z</time>
      </trkpt>
      <trkpt lat="52.364256978034973" lon="-9.821072006598115">
        <ele>5.91</ele>
        <time>2026-06-30T14:41:45Z</time>
      </trkpt>
      <trkpt lat="52.364379018545151" lon="-9.820800013840199">
        <ele>5.91</ele>
        <time>2026-06-30T14:41:46Z</time>
      </trkpt>
      <trkpt lat="52.364535005763173" lon="-9.820578983053565">
        <ele>5.91</ele>
        <time>2026-06-30T14:41:47Z</time>
      </trkpt>
      <trkpt lat="52.364709014073014" lon="-9.820390976965427">
        <ele>6.39</ele>
        <time>2026-06-30T14:41:48Z</time>
      </trkpt>
      <trkpt lat="52.364900037646294" lon="-9.820240018889308">
        <ele>6.39</ele>
        <time>2026-06-30T14:41:49Z</time>
      </trkpt>
      <trkpt lat="52.365095000714064" lon="-9.820085959509015">
        <ele>6.39</ele>
        <time>2026-06-30T14:41:50Z</time>
      </trkpt>
      <trkpt lat="52.36721402965486" lon="-9.818534972146154">
        <ele>8.310000000000001</ele>
        <time>2026-06-30T14:42:01Z</time>
      </trkpt>
      <trkpt lat="52.36813603900373" lon="-9.818069022148848">
        <ele>7.83</ele>
        <time>2026-06-30T14:42:06Z</time>
      </trkpt>
      <trkpt lat="52.368328990414739" lon="-9.818074973300099">
        <ele>7.83</ele>
        <time>2026-06-30T14:42:07Z</time>
      </trkpt>
      <trkpt lat="52.368519008159637" lon="-9.818081008270383">
        <ele>7.83</ele>
        <time>2026-06-30T14:42:08Z</time>
      </trkpt>
      <trkpt lat="52.370465034618974" lon="-9.818403040990233">
        <ele>9.75</ele>
        <time>2026-06-30T14:42:19Z</time>
      </trkpt>
      <trkpt lat="52.373108016327024" lon="-9.818872008472681">
        <ele>8.789999999999999</ele>
        <time>2026-06-30T14:42:33Z</time>
      </trkpt>
      <trkpt lat="52.375888964161277" lon="-9.819367965683341">
        <ele>7.35</ele>
        <time>2026-06-30T14:42:47Z</time>
      </trkpt>
      <trkpt lat="52.377450009807944" lon="-9.819695027545095">
        <ele>9.27</ele>
        <time>2026-06-30T14:42:56Z</time>
      </trkpt>
      <trkpt lat="52.377622006461024" lon="-9.819770967587829">
        <ele>9.75</ele>
        <time>2026-06-30T14:42:57Z</time>
      </trkpt>
      <trkpt lat="52.377786040306091" lon="-9.819906000047922">
        <ele>9.75</ele>
        <time>2026-06-30T14:42:58Z</time>
      </trkpt>
      <trkpt lat="52.379932980984449" lon="-9.821669971570373">
        <ele>8.789999999999999</ele>
        <time>2026-06-30T14:43:11Z</time>
      </trkpt>
      <trkpt lat="52.38201797939837" lon="-9.823380969464779">
        <ele>8.789999999999999</ele>
        <time>2026-06-30T14:43:24Z</time>
      </trkpt>
      <trkpt lat="52.383802989497781" lon="-9.824521997943521">
        <ele>8.789999999999999</ele>
        <time>2026-06-30T14:43:35Z</time>
      </trkpt>
      <trkpt lat="52.386451000347733" lon="-9.825801998376846">
        <ele>10.23</ele>
        <time>2026-06-30T14:43:52Z</time>
      </trkpt>
      <trkpt lat="52.3881830368191" lon="-9.826588975265622">
        <ele>11.19</ele>
        <time>2026-06-30T14:44:04Z</time>
      </trkpt>
      <trkpt lat="52.389332028105855" lon="-9.827122986316681">
        <ele>12.15</ele>
        <time>2026-06-30T14:44:15Z</time>
      </trkpt>
      <trkpt lat="52.390577998012304" lon="-9.827664960175753">
        <ele>15.039999999999999</ele>
        <time>2026-06-30T14:44:25Z</time>
      </trkpt>
      <trkpt lat="52.390695009380579" lon="-9.827695973217487">
        <ele>15.039999999999999</ele>
        <time>2026-06-30T14:44:26Z</time>
      </trkpt>
      <trkpt lat="52.390797017142177" lon="-9.827668983489275">
        <ele>15.039999999999999</ele>
        <time>2026-06-30T14:44:27Z</time>
      </trkpt>
      <trkpt lat="52.390887038782239" lon="-9.82763797044754">
        <ele>15.039999999999999</ele>
        <time>2026-06-30T14:44:28Z</time>
      </trkpt>
      <trkpt lat="52.390969013795257" lon="-9.827608969062567">
        <ele>15.039999999999999</ele>
        <time>2026-06-30T14:44:29Z</time>
      </trkpt>
      <trkpt lat="52.391421971842647" lon="-9.827334964647889">
        <ele>17.440000000000001</ele>
        <time>2026-06-30T14:44:35Z</time>
      </trkpt>
      <trkpt lat="52.392440959811211" lon="-9.826643038541079">
        <ele>21.289999999999999</ele>
        <time>2026-06-30T14:44:45Z</time>
      </trkpt>
      <trkpt lat="52.392564006149769" lon="-9.826624011620879">
        <ele>21.289999999999999</ele>
        <time>2026-06-30T14:44:46Z</time>
      </trkpt>
      <trkpt lat="52.392684035003185" lon="-9.82660498470068">
        <ele>21.77</ele>
        <time>2026-06-30T14:44:47Z</time>
      </trkpt>
      <trkpt lat="52.392813032492995" lon="-9.826632980257273">
        <ele>22.25</ele>
        <time>2026-06-30T14:44:48Z</time>
      </trkpt>
      <trkpt lat="52.392942029982805" lon="-9.826660975813866">
        <ele>22.73</ele>
        <time>2026-06-30T14:44:49Z</time>
      </trkpt>
      <trkpt lat="52.393065998330712" lon="-9.826714033260942">
        <ele>23.210000000000001</ele>
        <time>2026-06-30T14:44:50Z</time>
      </trkpt>
      <trkpt lat="52.393190972507" lon="-9.826779998838902">
        <ele>23.690000000000001</ele>
        <time>2026-06-30T14:44:51Z</time>
      </trkpt>
      <trkpt lat="52.394502991810441" lon="-9.827489024028182">
        <ele>28.02</ele>
        <time>2026-06-30T14:45:01Z</time>
      </trkpt>
      <trkpt lat="52.394636012613773" lon="-9.827563958242536">
        <ele>28.5</ele>
        <time>2026-06-30T14:45:02Z</time>
      </trkpt>
      <trkpt lat="52.394771967083216" lon="-9.827640987932682">
        <ele>29.460000000000001</ele>
        <time>2026-06-30T14:45:03Z</time>
      </trkpt>
      <trkpt lat="52.394911022856832" lon="-9.827719023451209">
        <ele>29.940000000000001</ele>
        <time>2026-06-30T14:45:04Z</time>
      </trkpt>
      <trkpt lat="52.395046977326274" lon="-9.827794963493943">
        <ele>30.420000000000002</ele>
        <time>2026-06-30T14:45:05Z</time>
      </trkpt>
      <trkpt lat="52.396259000524879" lon="-9.828459983691573">
        <ele>35.710000000000001</ele>
        <time>2026-06-30T14:45:14Z</time>
      </trkpt>
      <trkpt lat="52.397845024242997" lon="-9.829317033290863">
        <ele>43.399999999999999</ele>
        <time>2026-06-30T14:45:26Z</time>
      </trkpt>
      <trkpt lat="52.398065971210599" lon="-9.829350979998708">
        <ele>44.840000000000003</ele>
        <time>2026-06-30T14:45:28Z</time>
      </trkpt>
      <trkpt lat="52.398188011720777" lon="-9.82933103106916">
        <ele>45.32</ele>
        <time>2026-06-30T14:45:29Z</time>
      </trkpt>
      <trkpt lat="52.398318015038967" lon="-9.829302029684186">
        <ele>46.280000000000001</ele>
        <time>2026-06-30T14:45:30Z</time>
      </trkpt>
      <trkpt lat="52.398443995043635" lon="-9.829222988337278">
        <ele>46.759999999999998</ele>
        <time>2026-06-30T14:45:31Z</time>
      </trkpt>
      <trkpt lat="52.398572992533445" lon="-9.829142019152641">
        <ele>47.240000000000002</ele>
        <time>2026-06-30T14:45:32Z</time>
      </trkpt>
      <trkpt lat="52.398699978366494" lon="-9.829018972814083">
        <ele>47.240000000000002</ele>
        <time>2026-06-30T14:45:33Z</time>
      </trkpt>
      <trkpt lat="52.398807015269995" lon="-9.828857034444809">
        <ele>47.719999999999999</ele>
        <time>2026-06-30T14:45:34Z</time>
      </trkpt>
      <trkpt lat="52.398887984454632" lon="-9.828651007264853">
        <ele>48.200000000000003</ele>
        <time>2026-06-30T14:45:35Z</time>
      </trkpt>
      <trkpt lat="52.398967025801539" lon="-9.828435005620122">
        <ele>48.200000000000003</ele>
        <time>2026-06-30T14:45:36Z</time>
      </trkpt>
      <trkpt lat="52.399621987715364" lon="-9.826402980834246">
        <ele>46.759999999999998</ele>
        <time>2026-06-30T14:45:45Z</time>
      </trkpt>
      <trkpt lat="52.400487000122666" lon="-9.823335036635399">
        <ele>49.159999999999997</ele>
        <time>2026-06-30T14:45:57Z</time>
      </trkpt>
      <trkpt lat="52.401286968961358" lon="-9.820373961701989">
        <ele>51.57</ele>
        <time>2026-06-30T14:46:08Z</time>
      </trkpt>
      <trkpt lat="52.401974033564329" lon="-9.81773198582232">
        <ele>49.649999999999999</ele>
        <time>2026-06-30T14:46:18Z</time>
      </trkpt>
      <trkpt lat="52.402912974357605" lon="-9.814113015308976">
        <ele>44.840000000000003</ele>
        <time>2026-06-30T14:46:31Z</time>
      </trkpt>
      <trkpt lat="52.403185972943902" lon="-9.813045999035239">
        <ele>44.359999999999999</ele>
        <time>2026-06-30T14:46:35Z</time>
      </trkpt>
      <trkpt lat="52.403175998479128" lon="-9.812839971855283">
        <ele>43.880000000000003</ele>
        <time>2026-06-30T14:46:36Z</time>
      </trkpt>
      <trkpt lat="52.403141967952251" lon="-9.812637967988849">
        <ele>42.920000000000002</ele>
        <time>2026-06-30T14:46:37Z</time>
      </trkpt>
      <trkpt lat="52.403077008202672" lon="-9.812421966344118">
        <ele>42.439999999999998</ele>
        <time>2026-06-30T14:46:38Z</time>
      </trkpt>
      <trkpt lat="52.40300701931119" lon="-9.812190039083362">
        <ele>41.469999999999999</ele>
        <time>2026-06-30T14:46:39Z</time>
      </trkpt>
      <trkpt lat="52.40253796800971" lon="-9.810968963429332">
        <ele>36.189999999999998</ele>
        <time>2026-06-30T14:46:44Z</time>
      </trkpt>
      <trkpt lat="52.402168996632099" lon="-9.810290029272437">
        <ele>32.340000000000003</ele>
        <time>2026-06-30T14:46:47Z</time>
      </trkpt>
      <trkpt lat="52.402055002748966" lon="-9.810052989050746">
        <ele>30.899999999999999</ele>
        <time>2026-06-30T14:46:48Z</time>
      </trkpt>
      <trkpt lat="52.401979984715581" lon="-9.809797005727887">
        <ele>29.940000000000001</ele>
        <time>2026-06-30T14:46:49Z</time>
      </trkpt>
      <trkpt lat="52.401920976117253" lon="-9.809520989656448">
        <ele>29.460000000000001</ele>
        <time>2026-06-30T14:46:50Z</time>
      </trkpt>
      <trkpt lat="52.401860961690545" lon="-9.809237010776997">
        <ele>28.5</ele>
        <time>2026-06-30T14:46:51Z</time>
      </trkpt>
      <trkpt lat="52.401298033073545" lon="-9.806974986568093">
        <ele>27.530000000000001</ele>
        <time>2026-06-30T14:46:59Z</time>
      </trkpt>
      <trkpt lat="52.400908023118973" lon="-9.804899040609598">
        <ele>29.940000000000001</ele>
        <time>2026-06-30T14:47:07Z</time>
      </trkpt>
      <trkpt lat="52.400915985926986" lon="-9.804673986509442">
        <ele>30.420000000000002</ele>
        <time>2026-06-30T14:47:08Z</time>
      </trkpt>
      <trkpt lat="52.400933001190424" lon="-9.804449016228318">
        <ele>30.899999999999999</ele>
        <time>2026-06-30T14:47:09Z</time>
      </trkpt>
      <trkpt lat="52.400955967605114" lon="-9.804222034290433">
        <ele>31.379999999999999</ele>
        <time>2026-06-30T14:47:10Z</time>
      </trkpt>
      <trkpt lat="52.400995027273893" lon="-9.803991029039025">
        <ele>31.859999999999999</ele>
        <time>2026-06-30T14:47:11Z</time>
      </trkpt>
      <trkpt lat="52.40131001919508" lon="-9.802357982844114">
        <ele>37.149999999999999</ele>
        <time>2026-06-30T14:47:18Z</time>
      </trkpt>
      <trkpt lat="52.40139601752162" lon="-9.802149021998048">
        <ele>38.109999999999999</ele>
        <time>2026-06-30T14:47:19Z</time>
      </trkpt>
      <trkpt lat="52.40148302167654" lon="-9.801955986768007">
        <ele>38.590000000000003</ele>
        <time>2026-06-30T14:47:20Z</time>
      </trkpt>
      <trkpt lat="52.401595003902912" lon="-9.801778038963676">
        <ele>39.07</ele>
        <time>2026-06-30T14:47:21Z</time>
      </trkpt>
      <trkpt lat="52.401708997786045" lon="-9.801597995683551">
        <ele>40.030000000000001</ele>
        <time>2026-06-30T14:47:22Z</time>
      </trkpt>
      <trkpt lat="52.403033003211021" lon="-9.799472009763122">
        <ele>46.280000000000001</ele>
        <time>2026-06-30T14:47:33Z</time>
      </trkpt>
      <trkpt lat="52.403083965182304" lon="-9.799236981198192">
        <ele>46.759999999999998</ele>
        <time>2026-06-30T14:47:34Z</time>
      </trkpt>
      <trkpt lat="52.403136016801" lon="-9.798994995653629">
        <ele>47.240000000000002</ele>
        <time>2026-06-30T14:47:35Z</time>
      </trkpt>
      <trkpt lat="52.403616970404983" lon="-9.796833973377943">
        <ele>51.57</ele>
        <time>2026-06-30T14:47:43Z</time>
      </trkpt>
      <trkpt lat="52.403690982609987" lon="-9.796587964519858">
        <ele>52.049999999999997</ele>
        <time>2026-06-30T14:47:44Z</time>
      </trkpt>
      <trkpt lat="52.403805982321501" lon="-9.796385960653424">
        <ele>52.530000000000001</ele>
        <time>2026-06-30T14:47:45Z</time>
      </trkpt>
      <trkpt lat="52.403925005346537" lon="-9.796178005635738">
        <ele>52.530000000000001</ele>
        <time>2026-06-30T14:47:46Z</time>
      </trkpt>
      <trkpt lat="52.404667977243662" lon="-9.794486034661531">
        <ele>53.009999999999998</ele>
        <time>2026-06-30T14:47:53Z</time>
      </trkpt>
      <trkpt lat="52.404782976955175" lon="-9.794260980561376">
        <ele>53.009999999999998</ele>
        <time>2026-06-30T14:47:54Z</time>
      </trkpt>
      <trkpt lat="52.405702974647284" lon="-9.792773025110364">
        <ele>51.57</ele>
        <time>2026-06-30T14:48:02Z</time>
      </trkpt>
      <trkpt lat="52.405786961317062" lon="-9.792573032900691">
        <ele>51.57</ele>
        <time>2026-06-30T14:48:03Z</time>
      </trkpt>
      <trkpt lat="52.406457010656595" lon="-9.7905089892447">
        <ele>47.240000000000002</ele>
        <time>2026-06-30T14:48:12Z</time>
      </trkpt>
      <trkpt lat="52.406499003991485" lon="-9.790270021185279">
        <ele>46.759999999999998</ele>
        <time>2026-06-30T14:48:13Z</time>
      </trkpt>
      <trkpt lat="52.406528005376458" lon="-9.790017977356911">
        <ele>46.280000000000001</ele>
        <time>2026-06-30T14:48:14Z</time>
      </trkpt>
      <trkpt lat="52.406631018966436" lon="-9.787328979000449">
        <ele>43.399999999999999</ele>
        <time>2026-06-30T14:48:23Z</time>
      </trkpt>
      <trkpt lat="52.406513001769781" lon="-9.784936029464006">
        <ele>43.399999999999999</ele>
        <time>2026-06-30T14:48:31Z</time>
      </trkpt>
      <trkpt lat="52.406511995941401" lon="-9.784649033099413">
        <ele>42.439999999999998</ele>
        <time>2026-06-30T14:48:32Z</time>
      </trkpt>
      <trkpt lat="52.406526999548078" lon="-9.784354995936155">
        <ele>41.469999999999999</ele>
        <time>2026-06-30T14:48:33Z</time>
      </trkpt>
      <trkpt lat="52.406590031459928" lon="-9.783165017142892">
        <ele>40.030000000000001</ele>
        <time>2026-06-30T14:48:37Z</time>
      </trkpt>
      <trkpt lat="52.406692039221525" lon="-9.782632011920214">
        <ele>41.469999999999999</ele>
        <time>2026-06-30T14:48:39Z</time>
      </trkpt>
      <trkpt lat="52.406778037548065" lon="-9.78238801471889">
        <ele>41.950000000000003</ele>
        <time>2026-06-30T14:48:40Z</time>
      </trkpt>
      <trkpt lat="52.40687602199614" lon="-9.78215198032558">
        <ele>42.439999999999998</ele>
        <time>2026-06-30T14:48:41Z</time>
      </trkpt>
      <trkpt lat="52.407934991642833" lon="-9.780019037425518">
        <ele>43.399999999999999</ele>
        <time>2026-06-30T14:48:50Z</time>
      </trkpt>
      <trkpt lat="52.408405970782042" lon="-9.779184032231569">
        <ele>44.359999999999999</ele>
        <time>2026-06-30T14:48:54Z</time>
      </trkpt>
      <trkpt lat="52.408470008522272" lon="-9.779028967022896">
        <ele>44.359999999999999</ele>
        <time>2026-06-30T14:48:55Z</time>
      </trkpt>
      <trkpt lat="52.408475959673524" lon="-9.778858982026577">
        <ele>44.359999999999999</ele>
        <time>2026-06-30T14:48:56Z</time>
      </trkpt>
      <trkpt lat="52.408475959673524" lon="-9.778676005080342">
        <ele>44.359999999999999</ele>
        <time>2026-06-30T14:48:57Z</time>
      </trkpt>
      <trkpt lat="52.408475959673524" lon="-9.77849998511374">
        <ele>44.359999999999999</ele>
        <time>2026-06-30T14:48:58Z</time>
      </trkpt>
      <trkpt lat="52.408475959673524" lon="-9.778322037309408">
        <ele>44.359999999999999</ele>
        <time>2026-06-30T14:48:59Z</time>
      </trkpt>
      <trkpt lat="52.408460034057498" lon="-9.778126990422607">
        <ele>44.359999999999999</ele>
        <time>2026-06-30T14:49:00Z</time>
      </trkpt>
      <trkpt lat="52.408101037144661" lon="-9.776703994721174">
        <ele>43.399999999999999</ele>
        <time>2026-06-30T14:49:06Z</time>
      </trkpt>
      <trkpt lat="52.407768024131656" lon="-9.775700010359287">
        <ele>41.950000000000003</ele>
        <time>2026-06-30T14:49:10Z</time>
      </trkpt>
      <trkpt lat="52.407707003876567" lon="-9.775475962087512">
        <ele>41.469999999999999</ele>
        <time>2026-06-30T14:49:11Z</time>
      </trkpt>
      <trkpt lat="52.407690994441509" lon="-9.775253003463149">
        <ele>40.990000000000002</ele>
        <time>2026-06-30T14:49:12Z</time>
      </trkpt>
      <trkpt lat="52.407703986391425" lon="-9.775034990161657">
        <ele>40.990000000000002</ele>
        <time>2026-06-30T14:49:13Z</time>
      </trkpt>
      <trkpt lat="52.407717984169722" lon="-9.774823011830449">
        <ele>40.509999999999998</ele>
        <time>2026-06-30T14:49:14Z</time>
      </trkpt>
      <trkpt lat="52.407731981948018" lon="-9.774614972993732">
        <ele>40.509999999999998</ele>
        <time>2026-06-30T14:49:15Z</time>
      </trkpt>
      <trkpt lat="52.407747991383076" lon="-9.774406012147665">
        <ele>40.030000000000001</ele>
        <time>2026-06-30T14:49:16Z</time>
      </trkpt>
      <trkpt lat="52.407797025516629" lon="-9.773745015263557">
        <ele>38.590000000000003</ele>
        <time>2026-06-30T14:49:19Z</time>
      </trkpt>
      <trkpt lat="52.407828038558364" lon="-9.773527001962066">
        <ele>38.109999999999999</ele>
        <time>2026-06-30T14:49:20Z</time>
      </trkpt>
      <trkpt lat="52.407916970551014" lon="-9.773341007530689">
        <ele>38.109999999999999</ele>
        <time>2026-06-30T14:49:21Z</time>
      </trkpt>
      <trkpt lat="52.408009003847837" lon="-9.773146966472268">
        <ele>38.109999999999999</ele>
        <time>2026-06-30T14:49:22Z</time>
      </trkpt>
      <trkpt lat="52.408117968589067" lon="-9.772976981475949">
        <ele>37.630000000000003</ele>
        <time>2026-06-30T14:49:23Z</time>
      </trkpt>
      <trkpt lat="52.408234979957342" lon="-9.772806996479631">
        <ele>38.109999999999999</ele>
        <time>2026-06-30T14:49:24Z</time>
      </trkpt>
      <trkpt lat="52.408360037952662" lon="-9.772647991776466">
        <ele>38.109999999999999</ele>
        <time>2026-06-30T14:49:25Z</time>
      </trkpt>
      <trkpt lat="52.408489035442472" lon="-9.772488987073302">
        <ele>38.109999999999999</ele>
        <time>2026-06-30T14:49:26Z</time>
      </trkpt>
      <trkpt lat="52.408606968820095" lon="-9.772313972935081">
        <ele>38.109999999999999</ele>
        <time>2026-06-30T14:49:27Z</time>
      </trkpt>
      <trkpt lat="52.408734038472176" lon="-9.772103000432253">
        <ele>38.109999999999999</ele>
        <time>2026-06-30T14:49:28Z</time>
      </trkpt>
      <trkpt lat="52.408820036798716" lon="-9.771911976858974">
        <ele>38.109999999999999</ele>
        <time>2026-06-30T14:49:29Z</time>
      </trkpt>
      <trkpt lat="52.409186996519566" lon="-9.771029027178884">
        <ele>38.109999999999999</ele>
        <time>2026-06-30T14:49:34Z</time>
      </trkpt>
      <trkpt lat="52.409214992076159" lon="-9.77093598805368">
        <ele>37.630000000000003</ele>
        <time>2026-06-30T14:49:35Z</time>
      </trkpt>
      <trkpt lat="52.409336026757956" lon="-9.7704410366714">
        <ele>36.670000000000002</ele>
        <time>2026-06-30T14:49:41Z</time>
      </trkpt>
      <trkpt lat="52.40954197011888" lon="-9.769240999594331">
        <ele>31.859999999999999</ele>
        <time>2026-06-30T14:49:49Z</time>
      </trkpt>
      <trkpt lat="52.40956099703908" lon="-9.769049976021051">
        <ele>30.899999999999999</ele>
        <time>2026-06-30T14:49:50Z</time>
      </trkpt>
      <trkpt lat="52.409567032009363" lon="-9.768855012953281">
        <ele>29.460000000000001</ele>
        <time>2026-06-30T14:49:51Z</time>
      </trkpt>
      <trkpt lat="52.409559991210699" lon="-9.76866097189486">
        <ele>28.5</ele>
        <time>2026-06-30T14:49:52Z</time>
      </trkpt>
      <trkpt lat="52.409527972340584" lon="-9.768304992467165">
        <ele>27.050000000000001</ele>
        <time>2026-06-30T14:49:54Z</time>
      </trkpt>
      <trkpt lat="52.409491008147597" lon="-9.768155962228775">
        <ele>26.57</ele>
        <time>2026-06-30T14:49:55Z</time>
      </trkpt>
      <trkpt lat="52.409450020641088" lon="-9.768029982224107">
        <ele>25.609999999999999</ele>
        <time>2026-06-30T14:49:56Z</time>
      </trkpt>
      <trkpt lat="52.409373996779323" lon="-9.767927974462509">
        <ele>25.129999999999999</ele>
        <time>2026-06-30T14:49:57Z</time>
      </trkpt>
      <trkpt lat="52.409286992624402" lon="-9.767853040248156">
        <ele>24.649999999999999</ele>
        <time>2026-06-30T14:49:58Z</time>
      </trkpt>
      <trkpt lat="52.409179033711553" lon="-9.767801994457841">
        <ele>24.170000000000002</ele>
        <time>2026-06-30T14:49:59Z</time>
      </trkpt>
      <trkpt lat="52.409062022343278" lon="-9.767747009173036">
        <ele>23.690000000000001</ele>
        <time>2026-06-30T14:50:00Z</time>
      </trkpt>
      <trkpt lat="52.407959969714284" lon="-9.767384994775057">
        <ele>16.960000000000001</ele>
        <time>2026-06-30T14:50:08Z</time>
      </trkpt>
      <trkpt lat="52.40758596919477" lon="-9.767258008942008">
        <ele>15.52</ele>
        <time>2026-06-30T14:50:11Z</time>
      </trkpt>
      <trkpt lat="52.407479016110301" lon="-9.767173016443849">
        <ele>15.52</ele>
        <time>2026-06-30T14:50:12Z</time>
      </trkpt>
      <trkpt lat="52.40739201195538" lon="-9.767043013125658">
        <ele>15.039999999999999</ele>
        <time>2026-06-30T14:50:13Z</time>
      </trkpt>
      <trkpt lat="52.407302996143699" lon="-9.766891971230507">
        <ele>15.039999999999999</ele>
        <time>2026-06-30T14:50:14Z</time>
      </trkpt>
      <trkpt lat="52.407235018908978" lon="-9.766707988455892">
        <ele>15.52</ele>
        <time>2026-06-30T14:50:15Z</time>
      </trkpt>
      <trkpt lat="52.407165030017495" lon="-9.766517970710993">
        <ele>16</ele>
        <time>2026-06-30T14:50:16Z</time>
      </trkpt>
      <trkpt lat="52.407100992277265" lon="-9.766316972672939">
        <ele>16</ele>
        <time>2026-06-30T14:50:17Z</time>
      </trkpt>
      <trkpt lat="52.407084982842207" lon="-9.766101976856589">
        <ele>16.960000000000001</ele>
        <time>2026-06-30T14:50:18Z</time>
      </trkpt>
      <trkpt lat="52.40706997923553" lon="-9.765882035717368">
        <ele>17.920000000000002</ele>
        <time>2026-06-30T14:50:19Z</time>
      </trkpt>
      <trkpt lat="52.407043995335698" lon="-9.765419019386172">
        <ele>19.359999999999999</ele>
        <time>2026-06-30T14:50:21Z</time>
      </trkpt>
      <trkpt lat="52.407081965357065" lon="-9.765192959457636">
        <ele>20.32</ele>
        <time>2026-06-30T14:50:22Z</time>
      </trkpt>
      <trkpt lat="52.407120019197464" lon="-9.76496497169137">
        <ele>20.809999999999999</ele>
        <time>2026-06-30T14:50:23Z</time>
      </trkpt>
      <trkpt lat="52.407514974474907" lon="-9.762613009661436">
        <ele>24.170000000000002</ele>
        <time>2026-06-30T14:50:32Z</time>
      </trkpt>
      <trkpt lat="52.408125009387732" lon="-9.758402025327086">
        <ele>25.129999999999999</ele>
        <time>2026-06-30T14:50:46Z</time>
      </trkpt>
      <trkpt lat="52.40859498269856" lon="-9.755174992606044">
        <ele>26.09</ele>
        <time>2026-06-30T14:50:57Z</time>
      </trkpt>
      <trkpt lat="52.40915497764945" lon="-9.752447018399835">
        <ele>26.09</ele>
        <time>2026-06-30T14:51:06Z</time>
      </trkpt>
      <trkpt lat="52.409672979265451" lon="-9.750648010522127">
        <ele>28.5</ele>
        <time>2026-06-30T14:51:13Z</time>
      </trkpt>
      <trkpt lat="52.410367000848055" lon="-9.748644987121224">
        <ele>31.379999999999999</ele>
        <time>2026-06-30T14:51:21Z</time>
      </trkpt>
      <trkpt lat="52.410472026094794" lon="-9.748440971598029">
        <ele>30.899999999999999</ele>
        <time>2026-06-30T14:51:22Z</time>
      </trkpt>
      <trkpt lat="52.410695990547538" lon="-9.74805599078536">
        <ele>30.420000000000002</ele>
        <time>2026-06-30T14:51:24Z</time>
      </trkpt>
      <trkpt lat="52.410801015794277" lon="-9.747875025495887">
        <ele>29.940000000000001</ele>
        <time>2026-06-30T14:51:25Z</time>
      </trkpt>
      <trkpt lat="52.410875027999282" lon="-9.747662963345647">
        <ele>29.460000000000001</ele>
        <time>2026-06-30T14:51:26Z</time>
      </trkpt>
      <trkpt lat="52.410932024940848" lon="-9.747440004721284">
        <ele>29.460000000000001</ele>
        <time>2026-06-30T14:51:27Z</time>
      </trkpt>
      <trkpt lat="52.410989021882415" lon="-9.74721604026854">
        <ele>29.460000000000001</ele>
        <time>2026-06-30T14:51:28Z</time>
      </trkpt>
      <trkpt lat="52.411519009619951" lon="-9.745284011587501">
        <ele>29.460000000000001</ele>
        <time>2026-06-30T14:51:36Z</time>
      </trkpt>
      <trkpt lat="52.412594994530082" lon="-9.742352021858096">
        <ele>34.740000000000002</ele>
        <time>2026-06-30T14:51:47Z</time>
      </trkpt>
      <trkpt lat="52.412833040580153" lon="-9.741466976702213">
        <ele>35.229999999999997</ele>
        <time>2026-06-30T14:51:50Z</time>
      </trkpt>
      <trkpt lat="52.412891965359449" lon="-9.741165982559323">
        <ele>35.229999999999997</ele>
        <time>2026-06-30T14:51:51Z</time>
      </trkpt>
      <trkpt lat="52.412929013371468" lon="-9.740853002294898">
        <ele>35.229999999999997</ele>
        <time>2026-06-30T14:51:52Z</time>
      </trkpt>
      <trkpt lat="52.413198994472623" lon="-9.738277997821569">
        <ele>37.149999999999999</ele>
        <time>2026-06-30T14:52:01Z</time>
      </trkpt>
      <trkpt lat="52.413333021104336" lon="-9.737235959619284">
        <ele>38.109999999999999</ele>
        <time>2026-06-30T14:52:06Z</time>
      </trkpt>
      <trkpt lat="52.413380965590477" lon="-9.737046025693417">
        <ele>37.630000000000003</ele>
        <time>2026-06-30T14:52:07Z</time>
      </trkpt>
      <trkpt lat="52.413876000791788" lon="-9.735183985903859">
        <ele>29.460000000000001</ele>
        <time>2026-06-30T14:52:17Z</time>
      </trkpt>
      <trkpt lat="52.413915982469916" lon="-9.73503403365612">
        <ele>28.02</ele>
        <time>2026-06-30T14:52:18Z</time>
      </trkpt>
      <trkpt lat="52.413954958319664" lon="-9.734890032559633">
        <ele>27.050000000000001</ele>
        <time>2026-06-30T14:52:19Z</time>
      </trkpt>
      <trkpt lat="52.414394002407789" lon="-9.733249023556709">
        <ele>22.25</ele>
        <time>2026-06-30T14:52:31Z</time>
      </trkpt>
      <trkpt lat="52.414490981027484" lon="-9.732922967523336">
        <ele>22.25</ele>
        <time>2026-06-30T14:52:33Z</time>
      </trkpt>
      <trkpt lat="52.414599023759365" lon="-9.732599006965756">
        <ele>22.73</ele>
        <time>2026-06-30T14:52:35Z</time>
      </trkpt>
      <trkpt lat="52.415092969313264" lon="-9.731096969917417">
        <ele>23.210000000000001</ele>
        <time>2026-06-30T14:52:44Z</time>
      </trkpt>
      <trkpt lat="52.41564298979938" lon="-9.729777993634343">
        <ele>23.210000000000001</ele>
        <time>2026-06-30T14:52:51Z</time>
      </trkpt>
      <trkpt lat="52.41568598896265" lon="-9.729546988382936">
        <ele>23.690000000000001</ele>
        <time>2026-06-30T14:52:52Z</time>
      </trkpt>
      <trkpt lat="52.415730999782681" lon="-9.729311959818006">
        <ele>24.170000000000002</ele>
        <time>2026-06-30T14:52:53Z</time>
      </trkpt>
      <trkpt lat="52.416068958118558" lon="-9.726916998624802">
        <ele>23.690000000000001</ele>
        <time>2026-06-30T14:53:02Z</time>
      </trkpt>
      <trkpt lat="52.41617800667882" lon="-9.726157011464238">
        <ele>22.25</ele>
        <time>2026-06-30T14:53:05Z</time>
      </trkpt>
      <trkpt lat="52.41624397225678" lon="-9.725959030911326">
        <ele>21.77</ele>
        <time>2026-06-30T14:53:06Z</time>
      </trkpt>
      <trkpt lat="52.416337011381984" lon="-9.72579600289464">
        <ele>21.289999999999999</ele>
        <time>2026-06-30T14:53:07Z</time>
      </trkpt>
      <trkpt lat="52.416968001052737" lon="-9.724695961922407">
        <ele>21.289999999999999</ele>
        <time>2026-06-30T14:53:13Z</time>
      </trkpt>
      <trkpt lat="52.417061040177941" lon="-9.72448498941958">
        <ele>22.25</ele>
        <time>2026-06-30T14:53:14Z</time>
      </trkpt>
      <trkpt lat="52.41712398827076" lon="-9.724238980561495">
        <ele>22.25</ele>
        <time>2026-06-30T14:53:15Z</time>
      </trkpt>
      <trkpt lat="52.417651964351535" lon="-9.722179966047406">
        <ele>20.32</ele>
        <time>2026-06-30T14:53:23Z</time>
      </trkpt>
      <trkpt lat="52.41850096732378" lon="-9.720089016482234">
        <ele>23.210000000000001</ele>
        <time>2026-06-30T14:53:33Z</time>
      </trkpt>
      <trkpt lat="52.419277969747782" lon="-9.718279028311372">
        <ele>26.09</ele>
        <time>2026-06-30T14:53:41Z</time>
      </trkpt>
      <trkpt lat="52.419852968305349" lon="-9.716212972998619">
        <ele>27.530000000000001</ele>
        <time>2026-06-30T14:53:50Z</time>
      </trkpt>
      <trkpt lat="52.419923041015863" lon="-9.715991020202637">
        <ele>27.530000000000001</ele>
        <time>2026-06-30T14:53:51Z</time>
      </trkpt>
      <trkpt lat="52.420808002352715" lon="-9.71387199126184">
        <ele>28.5</ele>
        <time>2026-06-30T14:54:01Z</time>
      </trkpt>
      <trkpt lat="52.421671003103256" lon="-9.71187399700284">
        <ele>29.940000000000001</ele>
        <time>2026-06-30T14:54:10Z</time>
      </trkpt>
      <trkpt lat="52.422908004373312" lon="-9.708692980930209">
        <ele>36.189999999999998</ele>
        <time>2026-06-30T14:54:23Z</time>
      </trkpt>
      <trkpt lat="52.423645025119185" lon="-9.706633966416121">
        <ele>38.590000000000003</ele>
        <time>2026-06-30T14:54:31Z</time>
      </trkpt>
      <trkpt lat="52.423730017617345" lon="-9.706434980034828">
        <ele>38.590000000000003</ele>
        <time>2026-06-30T14:54:32Z</time>
      </trkpt>
      <trkpt lat="52.423836970701814" lon="-9.706279998645186">
        <ele>39.07</ele>
        <time>2026-06-30T14:54:33Z</time>
      </trkpt>
      <trkpt lat="52.425190983340144" lon="-9.7046750318259">
        <ele>48.200000000000003</ele>
        <time>2026-06-30T14:54:43Z</time>
      </trkpt>
      <trkpt lat="52.426451034843922" lon="-9.703032011166215">
        <ele>58.299999999999997</ele>
        <time>2026-06-30T14:54:53Z</time>
      </trkpt>
      <trkpt lat="52.426542984321713" lon="-9.702836964279413">
        <ele>58.780000000000001</ele>
        <time>2026-06-30T14:54:54Z</time>
      </trkpt>
      <trkpt lat="52.427114965394139" lon="-9.701712029054761">
        <ele>60.700000000000003</ele>
        <time>2026-06-30T14:55:00Z</time>
      </trkpt>
      <trkpt lat="52.427225019782782" lon="-9.70158101990819">
        <ele>60.700000000000003</ele>
        <time>2026-06-30T14:55:01Z</time>
      </trkpt>
      <trkpt lat="52.428267979994416" lon="-9.700266988947988">
        <ele>58.299999999999997</ele>
        <time>2026-06-30T14:55:10Z</time>
      </trkpt>
      <trkpt lat="52.428715992718935" lon="-9.699273984879255">
        <ele>54.93</ele>
        <time>2026-06-30T14:55:15Z</time>
      </trkpt>
      <trkpt lat="52.428815988823771" lon="-9.699105005711317">
        <ele>54.450000000000003</ele>
        <time>2026-06-30T14:55:16Z</time>
      </trkpt>
      <trkpt lat="52.428924031555653" lon="-9.698956981301308">
        <ele>53.969999999999999</ele>
        <time>2026-06-30T14:55:17Z</time>
      </trkpt>
      <trkpt lat="52.429868001490831" lon="-9.697519987821579">
        <ele>53.009999999999998</ele>
        <time>2026-06-30T14:55:26Z</time>
      </trkpt>
      <trkpt lat="52.429984007030725" lon="-9.697173982858658">
        <ele>53.490000000000002</ele>
        <time>2026-06-30T14:55:28Z</time>
      </trkpt>
      <trkpt lat="52.430038992315531" lon="-9.697008021175861">
        <ele>53.490000000000002</ele>
        <time>2026-06-30T14:55:29Z</time>
      </trkpt>
      <trkpt lat="52.430078973993659" lon="-9.69681297428906">
        <ele>53.969999999999999</ele>
        <time>2026-06-30T14:55:30Z</time>
      </trkpt>
      <trkpt lat="52.43031500838697" lon="-9.694981025531888">
        <ele>54.93</ele>
        <time>2026-06-30T14:55:38Z</time>
      </trkpt>
      <trkpt lat="52.430714992806315" lon="-9.692965010181069">
        <ele>54.450000000000003</ele>
        <time>2026-06-30T14:55:46Z</time>
      </trkpt>
      <trkpt lat="52.430786993354559" lon="-9.692746996879578">
        <ele>54.450000000000003</ele>
        <time>2026-06-30T14:55:47Z</time>
      </trkpt>
      <trkpt lat="52.430907022207975" lon="-9.692634008824825">
        <ele>54.450000000000003</ele>
        <time>2026-06-30T14:55:48Z</time>
      </trkpt>
      <trkpt lat="52.431006012484431" lon="-9.692551027983427">
        <ele>54.93</ele>
        <time>2026-06-30T14:55:49Z</time>
      </trkpt>
      <trkpt lat="52.431098967790604" lon="-9.692487996071577">
        <ele>55.409999999999997</ele>
        <time>2026-06-30T14:55:50Z</time>
      </trkpt>
      <trkpt lat="52.431215979158878" lon="-9.692456983029842">
        <ele>56.369999999999997</ele>
        <time>2026-06-30T14:55:51Z</time>
      </trkpt>
      <trkpt lat="52.432304034009576" lon="-9.692174009978771">
        <ele>58.780000000000001</ele>
        <time>2026-06-30T14:55:58Z</time>
      </trkpt>
      <trkpt lat="52.433162005618215" lon="-9.691753992810845">
        <ele>60.219999999999999</ele>
        <time>2026-06-30T14:56:03Z</time>
      </trkpt>
      <trkpt lat="52.433282034471631" lon="-9.691658020019531">
        <ele>60.219999999999999</ele>
        <time>2026-06-30T14:56:04Z</time>
      </trkpt>
      <trkpt lat="52.433416983112693" lon="-9.691435983404517">
        <ele>60.219999999999999</ele>
        <time>2026-06-30T14:56:05Z</time>
      </trkpt>
      <trkpt lat="52.434187028557062" lon="-9.690008964389563">
        <ele>60.700000000000003</ele>
        <time>2026-06-30T14:56:12Z</time>
      </trkpt>
      <trkpt lat="52.434242013841867" lon="-9.689778964966536">
        <ele>60.700000000000003</ele>
        <time>2026-06-30T14:56:13Z</time>
      </trkpt>
      <trkpt lat="52.434299010783434" lon="-9.689545026049018">
        <ele>60.700000000000003</ele>
        <time>2026-06-30T14:56:14Z</time>
      </trkpt>
      <trkpt lat="52.43433203548193" lon="-9.689288036897779">
        <ele>61.18</ele>
        <time>2026-06-30T14:56:15Z</time>
      </trkpt>
      <trkpt lat="52.434359025210142" lon="-9.689019983634353">
        <ele>60.700000000000003</ele>
        <time>2026-06-30T14:56:16Z</time>
      </trkpt>
      <trkpt lat="52.434431025758386" lon="-9.688190007582307">
        <ele>60.700000000000003</ele>
        <time>2026-06-30T14:56:19Z</time>
      </trkpt>
      <trkpt lat="52.434513000771403" lon="-9.68624297529459">
        <ele>59.740000000000002</ele>
        <time>2026-06-30T14:56:26Z</time>
      </trkpt>
      <trkpt lat="52.434534961357713" lon="-9.685991015285254">
        <ele>60.219999999999999</ele>
        <time>2026-06-30T14:56:27Z</time>
      </trkpt>
      <trkpt lat="52.434562034904957" lon="-9.685757998377085">
        <ele>60.219999999999999</ele>
        <time>2026-06-30T14:56:28Z</time>
      </trkpt>
      <trkpt lat="52.434600004926324" lon="-9.685530010610819">
        <ele>59.740000000000002</ele>
        <time>2026-06-30T14:56:29Z</time>
      </trkpt>
      <trkpt lat="52.434637974947691" lon="-9.685300011187792">
        <ele>59.740000000000002</ele>
        <time>2026-06-30T14:56:30Z</time>
      </trkpt>
      <trkpt lat="52.434705030173063" lon="-9.684626022353768">
        <ele>58.299999999999997</ele>
        <time>2026-06-30T14:56:33Z</time>
      </trkpt>
      <trkpt lat="52.434798991307616" lon="-9.682423006743193">
        <ele>50.609999999999999</ele>
        <time>2026-06-30T14:56:43Z</time>
      </trkpt>
      <trkpt lat="52.435297966003418" lon="-9.679815983399749">
        <ele>39.07</ele>
        <time>2026-06-30T14:56:54Z</time>
      </trkpt>
      <trkpt lat="52.435701973736286" lon="-9.67777599580586">
        <ele>29.940000000000001</ele>
        <time>2026-06-30T14:57:04Z</time>
      </trkpt>
      <trkpt lat="52.435718988999724" lon="-9.677615985274315">
        <ele>29.460000000000001</ele>
        <time>2026-06-30T14:57:05Z</time>
      </trkpt>
      <trkpt lat="52.435732986778021" lon="-9.677458992227912">
        <ele>28.98</ele>
        <time>2026-06-30T14:57:06Z</time>
      </trkpt>
      <trkpt lat="52.435745978727937" lon="-9.677319014444947">
        <ele>28.5</ele>
        <time>2026-06-30T14:57:07Z</time>
      </trkpt>
      <trkpt lat="52.435745978727937" lon="-9.677205020561814">
        <ele>27.530000000000001</ele>
        <time>2026-06-30T14:57:08Z</time>
      </trkpt>
      <trkpt lat="52.435742039233446" lon="-9.677098989486694">
        <ele>26.09</ele>
        <time>2026-06-30T14:57:09Z</time>
      </trkpt>
      <trkpt lat="52.43573198094964" lon="-9.676834959536791">
        <ele>23.690000000000001</ele>
        <time>2026-06-30T14:57:12Z</time>
      </trkpt>
      <trkpt lat="52.435728963464499" lon="-9.676765976473689">
        <ele>22.73</ele>
        <time>2026-06-30T14:57:13Z</time>
      </trkpt>
      <trkpt lat="52.435805993154645" lon="-9.676647037267685">
        <ele>22.25</ele>
        <time>2026-06-30T14:57:14Z</time>
      </trkpt>
      <trkpt lat="52.435862990096211" lon="-9.676590962335467">
        <ele>21.77</ele>
        <time>2026-06-30T14:57:15Z</time>
      </trkpt>
      <trkpt lat="52.435933984816074" lon="-9.676520973443985">
        <ele>21.289999999999999</ele>
        <time>2026-06-30T14:57:16Z</time>
      </trkpt>
      <trkpt lat="52.436017971485853" lon="-9.676438998430967">
        <ele>20.809999999999999</ele>
        <time>2026-06-30T14:57:17Z</time>
      </trkpt>
      <trkpt lat="52.437034025788307" lon="-9.67550097964704">
        <ele>23.690000000000001</ele>
        <time>2026-06-30T14:57:26Z</time>
      </trkpt>
      <trkpt lat="52.438389966264367" lon="-9.674626998603344">
        <ele>31.859999999999999</ele>
        <time>2026-06-30T14:57:36Z</time>
      </trkpt>
      <trkpt lat="52.439347011968493" lon="-9.674142021685839">
        <ele>37.149999999999999</ele>
        <time>2026-06-30T14:57:43Z</time>
      </trkpt>
      <trkpt lat="52.439489001408219" lon="-9.674069015309215">
        <ele>38.109999999999999</ele>
        <time>2026-06-30T14:57:44Z</time>
      </trkpt>
      <trkpt lat="52.440838990733027" lon="-9.673402989283204">
        <ele>44.840000000000003</ele>
        <time>2026-06-30T14:57:53Z</time>
      </trkpt>
      <trkpt lat="52.441014004871249" lon="-9.673360995948315">
        <ele>45.799999999999997</ele>
        <time>2026-06-30T14:57:54Z</time>
      </trkpt>
      <trkpt lat="52.442731037735939" lon="-9.672929998487234">
        <ele>54.450000000000003</ele>
        <time>2026-06-30T14:58:03Z</time>
      </trkpt>
      <trkpt lat="52.443933002650738" lon="-9.672438986599445">
        <ele>54.93</ele>
        <time>2026-06-30T14:58:10Z</time>
      </trkpt>
      <trkpt lat="52.444084966555238" lon="-9.672358017414808">
        <ele>54.450000000000003</ele>
        <time>2026-06-30T14:58:11Z</time>
      </trkpt>
      <trkpt lat="52.444222010672092" lon="-9.672220973297954">
        <ele>53.969999999999999</ele>
        <time>2026-06-30T14:58:12Z</time>
      </trkpt>
      <trkpt lat="52.444347990676761" lon="-9.672044031322002">
        <ele>53.490000000000002</ele>
        <time>2026-06-30T14:58:13Z</time>
      </trkpt>
      <trkpt lat="52.444459972903132" lon="-9.671840015798807">
        <ele>53.009999999999998</ele>
        <time>2026-06-30T14:58:14Z</time>
      </trkpt>
      <trkpt lat="52.444574972614646" lon="-9.671628037467599">
        <ele>52.049999999999997</ele>
        <time>2026-06-30T14:58:15Z</time>
      </trkpt>
      <trkpt lat="52.446125037968159" lon="-9.668694958090782">
        <ele>42.920000000000002</ele>
        <time>2026-06-30T14:58:28Z</time>
      </trkpt>
      <trkpt lat="52.447610981762409" lon="-9.665818959474564">
        <ele>40.990000000000002</ele>
        <time>2026-06-30T14:58:40Z</time>
      </trkpt>
      <trkpt lat="52.447722963988781" lon="-9.665650986135006">
        <ele>40.990000000000002</ele>
        <time>2026-06-30T14:58:41Z</time>
      </trkpt>
      <trkpt lat="52.447880962863564" lon="-9.665525006130338">
        <ele>40.990000000000002</ele>
        <time>2026-06-30T14:58:42Z</time>
      </trkpt>
      <trkpt lat="52.449379982426763" lon="-9.664427982643247">
        <ele>44.840000000000003</ele>
        <time>2026-06-30T14:58:51Z</time>
      </trkpt>
      <trkpt lat="52.450148016214371" lon="-9.663954991847277">
        <ele>44.359999999999999</ele>
        <time>2026-06-30T14:58:57Z</time>
      </trkpt>
      <trkpt lat="52.451245039701462" lon="-9.663308998569846">
        <ele>42.439999999999998</ele>
        <time>2026-06-30T14:59:08Z</time>
      </trkpt>
      <trkpt lat="52.451360961422324" lon="-9.663248984143138">
        <ele>42.439999999999998</ele>
        <time>2026-06-30T14:59:09Z</time>
      </trkpt>
      <trkpt lat="52.451473027467728" lon="-9.663260970264673">
        <ele>42.439999999999998</ele>
        <time>2026-06-30T14:59:10Z</time>
      </trkpt>
      <trkpt lat="52.452630987390876" lon="-9.663373958319426">
        <ele>40.030000000000001</ele>
        <time>2026-06-30T14:59:20Z</time>
      </trkpt>
      <trkpt lat="52.45388600975275" lon="-9.663099031895399">
        <ele>38.590000000000003</ele>
        <time>2026-06-30T14:59:31Z</time>
      </trkpt>
      <trkpt lat="52.455258965492249" lon="-9.662729976698756">
        <ele>38.590000000000003</ele>
        <time>2026-06-30T14:59:43Z</time>
      </trkpt>
      <trkpt lat="52.45659101754427" lon="-9.662358993664384">
        <ele>40.030000000000001</ele>
        <time>2026-06-30T14:59:55Z</time>
      </trkpt>
      <trkpt lat="52.457837993279099" lon="-9.661967977881432">
        <ele>45.799999999999997</ele>
        <time>2026-06-30T15:00:06Z</time>
      </trkpt>
      <trkpt lat="52.457958022132516" lon="-9.661895977333188">
        <ele>46.280000000000001</ele>
        <time>2026-06-30T15:00:07Z</time>
      </trkpt>
      <trkpt lat="52.458021976053715" lon="-9.661789024248719">
        <ele>46.759999999999998</ele>
        <time>2026-06-30T15:00:08Z</time>
      </trkpt>
      <trkpt lat="52.458081990480423" lon="-9.661643011495471">
        <ele>47.240000000000002</ele>
        <time>2026-06-30T15:00:09Z</time>
      </trkpt>
      <trkpt lat="52.458144016563892" lon="-9.6614929754287">
        <ele>47.240000000000002</ele>
        <time>2026-06-30T15:00:10Z</time>
      </trkpt>
      <trkpt lat="52.458986984565854" lon="-9.65944997034967">
        <ele>49.159999999999997</ele>
        <time>2026-06-30T15:00:23Z</time>
      </trkpt>
      <trkpt lat="52.459767004474998" lon="-9.657641993835568">
        <ele>46.280000000000001</ele>
        <time>2026-06-30T15:00:32Z</time>
      </trkpt>
      <trkpt lat="52.460895963013172" lon="-9.655095990747213">
        <ele>36.189999999999998</ele>
        <time>2026-06-30T15:00:42Z</time>
      </trkpt>
      <trkpt lat="52.46205098927021" lon="-9.652524003759027">
        <ele>28.02</ele>
        <time>2026-06-30T15:00:51Z</time>
      </trkpt>
      <trkpt lat="52.463698033243418" lon="-9.648787016049027">
        <ele>28.5</ele>
        <time>2026-06-30T15:01:04Z</time>
      </trkpt>
      <trkpt lat="52.465108959004283" lon="-9.645623015239835">
        <ele>26.57</ele>
        <time>2026-06-30T15:01:16Z</time>
      </trkpt>
      <trkpt lat="52.465843968093395" lon="-9.643431985750794">
        <ele>20.32</ele>
        <time>2026-06-30T15:01:23Z</time>
      </trkpt>
      <trkpt lat="52.466719960793853" lon="-9.640727983787656">
        <ele>8.789999999999999</ele>
        <time>2026-06-30T15:01:32Z</time>
      </trkpt>
      <trkpt lat="52.468275977298617" lon="-9.635948035866022">
        <ele>5.42</ele>
        <time>2026-06-30T15:01:48Z</time>
      </trkpt>
      <trkpt lat="52.468966981396079" lon="-9.633956998586655">
        <ele>9.27</ele>
        <time>2026-06-30T15:01:56Z</time>
      </trkpt>
      <trkpt lat="52.469989992678165" lon="-9.631448965519667">
        <ele>10.23</ele>
        <time>2026-06-30T15:02:06Z</time>
      </trkpt>
      <trkpt lat="52.470131982117891" lon="-9.631229024380446">
        <ele>9.75</ele>
        <time>2026-06-30T15:02:07Z</time>
      </trkpt>
      <trkpt lat="52.471819007769227" lon="-9.628852000460029">
        <ele>9.75</ele>
        <time>2026-06-30T15:02:19Z</time>
      </trkpt>
      <trkpt lat="52.473761010915041" lon="-9.626486040651798">
        <ele>12.15</ele>
        <time>2026-06-30T15:02:32Z</time>
      </trkpt>
      <trkpt lat="52.475849026814103" lon="-9.624617965891957">
        <ele>13.119999999999999</ele>
        <time>2026-06-30T15:02:45Z</time>
      </trkpt>
      <trkpt lat="52.477821037173271" lon="-9.622919037938118">
        <ele>13.119999999999999</ele>
        <time>2026-06-30T15:02:57Z</time>
      </trkpt>
      <trkpt lat="52.479159040376544" lon="-9.622219987213612">
        <ele>15.52</ele>
        <time>2026-06-30T15:03:05Z</time>
      </trkpt>
      <trkpt lat="52.480516992509365" lon="-9.622403969988227">
        <ele>14.08</ele>
        <time>2026-06-30T15:03:12Z</time>
      </trkpt>
      <trkpt lat="52.482167975977063" lon="-9.623443996533752">
        <ele>14.56</ele>
        <time>2026-06-30T15:03:21Z</time>
      </trkpt>
      <trkpt lat="52.484403010457754" lon="-9.624891970306635">
        <ele>13.119999999999999</ele>
        <time>2026-06-30T15:03:33Z</time>
      </trkpt>
      <trkpt lat="52.485168026760221" lon="-9.625463029369712">
        <ele>11.67</ele>
        <time>2026-06-30T15:03:38Z</time>
      </trkpt>
      <trkpt lat="52.48529601842165" lon="-9.625620022416115">
        <ele>11.19</ele>
        <time>2026-06-30T15:03:39Z</time>
      </trkpt>
      <trkpt lat="52.485411018133163" lon="-9.625811967998743">
        <ele>11.19</ele>
        <time>2026-06-30T15:03:40Z</time>
      </trkpt>
      <trkpt lat="52.485509002581239" lon="-9.626046996563673">
        <ele>11.67</ele>
        <time>2026-06-30T15:03:41Z</time>
      </trkpt>
      <trkpt lat="52.485599024221301" lon="-9.62629996240139">
        <ele>11.67</ele>
        <time>2026-06-30T15:03:42Z</time>
      </trkpt>
      <trkpt lat="52.485680999234319" lon="-9.626574972644448">
        <ele>12.15</ele>
        <time>2026-06-30T15:03:43Z</time>
      </trkpt>
      <trkpt lat="52.485740007832646" lon="-9.626872027292848">
        <ele>12.15</ele>
        <time>2026-06-30T15:03:44Z</time>
      </trkpt>
      <trkpt lat="52.485766997560859" lon="-9.627186013385654">
        <ele>11.67</ele>
        <time>2026-06-30T15:03:45Z</time>
      </trkpt>
      <trkpt lat="52.485766997560859" lon="-9.627503016963601">
        <ele>11.67</ele>
        <time>2026-06-30T15:03:46Z</time>
      </trkpt>
      <trkpt lat="52.485760962590575" lon="-9.627818008884788">
        <ele>11.67</ele>
        <time>2026-06-30T15:03:47Z</time>
      </trkpt>
      <trkpt lat="52.48572701588273" lon="-9.628136018291116">
        <ele>12.15</ele>
        <time>2026-06-30T15:03:48Z</time>
      </trkpt>
      <trkpt lat="52.485692985355854" lon="-9.628461990505457">
        <ele>11.67</ele>
        <time>2026-06-30T15:03:49Z</time>
      </trkpt>
      <trkpt lat="52.485329965129495" lon="-9.631739985197783">
        <ele>10.710000000000001</ele>
        <time>2026-06-30T15:03:59Z</time>
      </trkpt>
      <trkpt lat="52.485212031751871" lon="-9.634343991056085">
        <ele>12.15</ele>
        <time>2026-06-30T15:04:08Z</time>
      </trkpt>
      <trkpt lat="52.485544038936496" lon="-9.63646100834012">
        <ele>12.15</ele>
        <time>2026-06-30T15:04:15Z</time>
      </trkpt>
      <trkpt lat="52.486409973353148" lon="-9.641048004850745">
        <ele>13.119999999999999</ele>
        <time>2026-06-30T15:04:29Z</time>
      </trkpt>
      <trkpt lat="52.486936021596193" lon="-9.644189039245248">
        <ele>12.15</ele>
        <time>2026-06-30T15:04:39Z</time>
      </trkpt>
      <trkpt lat="52.487160991877317" lon="-9.645694009959698">
        <ele>12.630000000000001</ele>
        <time>2026-06-30T15:04:44Z</time>
      </trkpt>
      <trkpt lat="52.487257970497012" lon="-9.645933983847499">
        <ele>12.630000000000001</ele>
        <time>2026-06-30T15:04:45Z</time>
      </trkpt>
      <trkpt lat="52.487356960773468" lon="-9.646176975220442">
        <ele>12.630000000000001</ele>
        <time>2026-06-30T15:04:46Z</time>
      </trkpt>
      <trkpt lat="52.487456034868956" lon="-9.646404962986708">
        <ele>13.119999999999999</ele>
        <time>2026-06-30T15:04:47Z</time>
      </trkpt>
      <trkpt lat="52.487584026530385" lon="-9.646596992388368">
        <ele>13.119999999999999</ele>
        <time>2026-06-30T15:04:48Z</time>
      </trkpt>
      <trkpt lat="52.48772400431335" lon="-9.646757002919912">
        <ele>13.119999999999999</ele>
        <time>2026-06-30T15:04:49Z</time>
      </trkpt>
      <trkpt lat="52.487882003188133" lon="-9.646878037601709">
        <ele>13.119999999999999</ele>
        <time>2026-06-30T15:04:50Z</time>
      </trkpt>
      <trkpt lat="52.488019969314337" lon="-9.646982979029417">
        <ele>12.630000000000001</ele>
        <time>2026-06-30T15:04:51Z</time>
      </trkpt>
      <trkpt lat="52.488213004544377" lon="-9.647019021213055">
        <ele>12.630000000000001</ele>
        <time>2026-06-30T15:04:52Z</time>
      </trkpt>
      <trkpt lat="52.48839003033936" lon="-9.647052967920899">
        <ele>12.630000000000001</ele>
        <time>2026-06-30T15:04:53Z</time>
      </trkpt>
      <trkpt lat="52.488572001457214" lon="-9.647086998447776">
        <ele>12.630000000000001</ele>
        <time>2026-06-30T15:04:54Z</time>
      </trkpt>
      <trkpt lat="52.489705989137292" lon="-9.647222030907869">
        <ele>12.630000000000001</ele>
        <time>2026-06-30T15:05:00Z</time>
      </trkpt>
      <trkpt lat="52.489885026589036" lon="-9.647304005920887">
        <ele>13.119999999999999</ele>
        <time>2026-06-30T15:05:01Z</time>
      </trkpt>
      <trkpt lat="52.490054005756974" lon="-9.647429985925555">
        <ele>13.119999999999999</ele>
        <time>2026-06-30T15:05:02Z</time>
      </trkpt>
      <trkpt lat="52.490204041823745" lon="-9.647599970921874">
        <ele>13.119999999999999</ele>
        <time>2026-06-30T15:05:03Z</time>
      </trkpt>
      <trkpt lat="52.490359023213387" lon="-9.647776996716857">
        <ele>13.119999999999999</ele>
        <time>2026-06-30T15:05:04Z</time>
      </trkpt>
      <trkpt lat="52.490822961553931" lon="-9.648294998332858">
        <ele>13.119999999999999</ele>
        <time>2026-06-30T15:05:07Z</time>
      </trkpt>
      <trkpt lat="52.49099001288414" lon="-9.648443022742868">
        <ele>13.119999999999999</ele>
        <time>2026-06-30T15:05:08Z</time>
      </trkpt>
      <trkpt lat="52.491167960688472" lon="-9.648549975827336">
        <ele>13.119999999999999</ele>
        <time>2026-06-30T15:05:09Z</time>
      </trkpt>
      <trkpt lat="52.491351021453738" lon="-9.648658018559218">
        <ele>13.6</ele>
        <time>2026-06-30T15:05:10Z</time>
      </trkpt>
      <trkpt lat="52.491542967036366" lon="-9.648711998015642">
        <ele>13.119999999999999</ele>
        <time>2026-06-30T15:05:11Z</time>
      </trkpt>
      <trkpt lat="52.49361296184361" lon="-9.64928699657321">
        <ele>12.15</ele>
        <time>2026-06-30T15:05:22Z</time>
      </trkpt>
      <trkpt lat="52.495016008615494" lon="-9.650108003988862">
        <ele>10.710000000000001</ele>
        <time>2026-06-30T15:05:31Z</time>
      </trkpt>
      <trkpt lat="52.496932027861476" lon="-9.651566036045551">
        <ele>10.710000000000001</ele>
        <time>2026-06-30T15:05:44Z</time>
      </trkpt>
      <trkpt lat="52.498858021572232" lon="-9.653042005375028">
        <ele>14.08</ele>
        <time>2026-06-30T15:05:56Z</time>
      </trkpt>
      <trkpt lat="52.500831037759781" lon="-9.654547981917858">
        <ele>17.440000000000001</ele>
        <time>2026-06-30T15:06:09Z</time>
      </trkpt>
      <trkpt lat="52.503142012283206" lon="-9.656310025602579">
        <ele>19.359999999999999</ele>
        <time>2026-06-30T15:06:23Z</time>
      </trkpt>
      <trkpt lat="52.505002962425351" lon="-9.65775397606194">
        <ele>24.649999999999999</ele>
        <time>2026-06-30T15:06:36Z</time>
      </trkpt>
      <trkpt lat="52.506435010582209" lon="-9.658883018419147">
        <ele>26.09</ele>
        <time>2026-06-30T15:06:48Z</time>
      </trkpt>
      <trkpt lat="52.506517991423607" lon="-9.658930040895939">
        <ele>26.09</ele>
        <time>2026-06-30T15:06:49Z</time>
      </trkpt>
      <trkpt lat="52.506643971428275" lon="-9.65897798538208">
        <ele>26.09</ele>
        <time>2026-06-30T15:06:51Z</time>
      </trkpt>
      <trkpt lat="52.506819991394877" lon="-9.659016039222479">
        <ele>26.57</ele>
        <time>2026-06-30T15:06:59Z</time>
      </trkpt>
      <trkpt lat="52.506832983344793" lon="-9.659059038385749">
        <ele>26.57</ele>
        <time>2026-06-30T15:07:04Z</time>
      </trkpt>
      <trkpt lat="52.506859973073006" lon="-9.65914998203516">
        <ele>26.57</ele>
        <time>2026-06-30T15:07:05Z</time>
      </trkpt>
      <trkpt lat="52.506898026913404" lon="-9.6592359803617">
        <ele>26.57</ele>
        <time>2026-06-30T15:07:06Z</time>
      </trkpt>
      <trkpt lat="52.506946977227926" lon="-9.659346034750342">
        <ele>27.050000000000001</ele>
        <time>2026-06-30T15:07:07Z</time>
      </trkpt>
      <trkpt lat="52.50699601136148" lon="-9.659468997269869">
        <ele>27.050000000000001</ele>
        <time>2026-06-30T15:07:08Z</time>
      </trkpt>
      <trkpt lat="52.507525999099016" lon="-9.660802977159619">
        <ele>28.5</ele>
        <time>2026-06-30T15:07:16Z</time>
      </trkpt>
      <trkpt lat="52.508168974891305" lon="-9.662467036396265">
        <ele>30.899999999999999</ele>
        <time>2026-06-30T15:07:25Z</time>
      </trkpt>
      <trkpt lat="52.509100958704948" lon="-9.664877001196146">
        <ele>30.420000000000002</ele>
        <time>2026-06-30T15:07:40Z</time>
      </trkpt>
      <trkpt lat="52.509846026077867" lon="-9.666825039312244">
        <ele>30.899999999999999</ele>
        <time>2026-06-30T15:07:53Z</time>
      </trkpt>
      <trkpt lat="52.510534012690187" lon="-9.66858297586441">
        <ele>36.670000000000002</ele>
        <time>2026-06-30T15:08:07Z</time>
      </trkpt>
      <trkpt lat="52.510850010439754" lon="-9.669426027685404">
        <ele>37.630000000000003</ele>
        <time>2026-06-30T15:08:14Z</time>
      </trkpt>
      <trkpt lat="52.510875994339585" lon="-9.669629037380219">
        <ele>37.630000000000003</ele>
        <time>2026-06-30T15:08:15Z</time>
      </trkpt>
      <trkpt lat="52.510838024318218" lon="-9.669658038765192">
        <ele>37.630000000000003</ele>
        <time>2026-06-30T15:08:16Z</time>
      </trkpt>
      <trkpt lat="52.510792007669806" lon="-9.669691985473037">
        <ele>38.109999999999999</ele>
        <time>2026-06-30T15:08:17Z</time>
      </trkpt>
      <trkpt lat="52.510731993243098" lon="-9.669733978807926">
        <ele>38.109999999999999</ele>
        <time>2026-06-30T15:08:18Z</time>
      </trkpt>
      <trkpt lat="52.510663010179996" lon="-9.669764991849661">
        <ele>38.109999999999999</ele>
        <time>2026-06-30T15:08:19Z</time>
      </trkpt>
      <trkpt lat="52.510584974661469" lon="-9.669801034033299">
        <ele>38.109999999999999</ele>
        <time>2026-06-30T15:08:20Z</time>
      </trkpt>
      <trkpt lat="52.510479027405381" lon="-9.669830035418272">
        <ele>37.630000000000003</ele>
        <time>2026-06-30T15:08:21Z</time>
      </trkpt>
      <trkpt lat="52.509567998349667" lon="-9.669743031263351">
        <ele>34.259999999999998</ele>
        <time>2026-06-30T15:08:29Z</time>
      </trkpt>
      <trkpt lat="52.509247977286577" lon="-9.66971998102963">
        <ele>33.299999999999997</ele>
        <time>2026-06-30T15:08:32Z</time>
      </trkpt>
      <trkpt lat="52.509172959253192" lon="-9.669714029878378">
        <ele>32.82</ele>
        <time>2026-06-30T15:08:33Z</time>
      </trkpt>
      <trkpt lat="52.50905997119844" lon="-9.669807991012931">
        <ele>32.82</ele>
        <time>2026-06-30T15:08:34Z</time>
      </trkpt>
      <trkpt lat="52.509047985076904" lon="-9.669929025694728">
        <ele>32.340000000000003</ele>
        <time>2026-06-30T15:08:35Z</time>
      </trkpt>
      <trkpt lat="52.509033987298608" lon="-9.670066991820931">
        <ele>32.340000000000003</ele>
        <time>2026-06-30T15:08:36Z</time>
      </trkpt>
      <trkpt lat="52.509018983691931" lon="-9.67021401040256">
        <ele>31.859999999999999</ele>
        <time>2026-06-30T15:08:37Z</time>
      </trkpt>
      <trkpt lat="52.508927034214139" lon="-9.67227696441114">
        <ele>30.899999999999999</ele>
        <time>2026-06-30T15:08:48Z</time>
      </trkpt>
      <trkpt lat="52.508729975670576" lon="-9.675452029332519">
        <ele>30.899999999999999</ele>
        <time>2026-06-30T15:09:03Z</time>
      </trkpt>
      <trkpt lat="52.508755037561059" lon="-9.676047982648015">
        <ele>30.420000000000002</ele>
        <time>2026-06-30T15:09:06Z</time>
      </trkpt>
      <trkpt lat="52.508769035339355" lon="-9.676236994564533">
        <ele>30.420000000000002</ele>
        <time>2026-06-30T15:09:07Z</time>
      </trkpt>
      <trkpt lat="52.508913036435843" lon="-9.677225975319743">
        <ele>29.460000000000001</ele>
        <time>2026-06-30T15:09:14Z</time>
      </trkpt>
      <trkpt lat="52.508927034214139" lon="-9.677294958382845">
        <ele>28.98</ele>
        <time>2026-06-30T15:09:15Z</time>
      </trkpt>
      <trkpt lat="52.508902978152037" lon="-9.677383974194527">
        <ele>28.98</ele>
        <time>2026-06-30T15:09:16Z</time>
      </trkpt>
      <trkpt lat="52.508871965110302" lon="-9.677396966144443">
        <ele>28.98</ele>
        <time>2026-06-30T15:09:17Z</time>
      </trkpt>
      <trkpt lat="52.508828965947032" lon="-9.677415993064642">
        <ele>28.98</ele>
        <time>2026-06-30T15:09:18Z</time>
      </trkpt>
      <trkpt lat="52.508776998147368" lon="-9.677438037469983">
        <ele>28.5</ele>
        <time>2026-06-30T15:09:19Z</time>
      </trkpt>
      <trkpt lat="52.508279029279947" lon="-9.677654039114714">
        <ele>27.530000000000001</ele>
        <time>2026-06-30T15:09:25Z</time>
      </trkpt>
      <trkpt lat="52.508147014304996" lon="-9.67771103605628">
        <ele>26.57</ele>
        <time>2026-06-30T15:09:26Z</time>
      </trkpt>
      <trkpt lat="52.508044000715017" lon="-9.677656972780824">
        <ele>26.57</ele>
        <time>2026-06-30T15:09:27Z</time>
      </trkpt>
      <trkpt lat="52.507930006831884" lon="-9.677596958354116">
        <ele>26.09</ele>
        <time>2026-06-30T15:09:28Z</time>
      </trkpt>
      <trkpt lat="52.507818024605513" lon="-9.6775390394032">
        <ele>26.09</ele>
        <time>2026-06-30T15:09:29Z</time>
      </trkpt>
      <trkpt lat="52.507712999358773" lon="-9.677483970299363">
        <ele>26.09</ele>
        <time>2026-06-30T15:09:30Z</time>
      </trkpt>
      <trkpt lat="52.507609985768795" lon="-9.677387997508049">
        <ele>26.09</ele>
        <time>2026-06-30T15:09:31Z</time>
      </trkpt>
      <trkpt lat="52.506766011938453" lon="-9.676120989024639">
        <ele>26.09</ele>
        <time>2026-06-30T15:09:41Z</time>
      </trkpt>
      <trkpt lat="52.505611991509795" lon="-9.674653988331556">
        <ele>23.210000000000001</ele>
        <time>2026-06-30T15:09:52Z</time>
      </trkpt>
      <trkpt lat="52.504168041050434" lon="-9.673588983714581">
        <ele>22.25</ele>
        <time>2026-06-30T15:10:04Z</time>
      </trkpt>
      <trkpt lat="52.503927983343601" lon="-9.673481024801731">
        <ele>22.73</ele>
        <time>2026-06-30T15:10:06Z</time>
      </trkpt>
      <trkpt lat="52.503791023045778" lon="-9.673418998718262">
        <ele>22.25</ele>
        <time>2026-06-30T15:10:07Z</time>
      </trkpt>
      <trkpt lat="52.503120973706245" lon="-9.673255970701575">
        <ele>21.77</ele>
        <time>2026-06-30T15:10:13Z</time>
      </trkpt>
      <trkpt lat="52.503004968166351" lon="-9.673277009278536">
        <ele>21.77</ele>
        <time>2026-06-30T15:10:14Z</time>
      </trkpt>
      <trkpt lat="52.501748017966747" lon="-9.673631982877851">
        <ele>21.289999999999999</ele>
        <time>2026-06-30T15:10:24Z</time>
      </trkpt>
      <trkpt lat="52.500345977023244" lon="-9.674944002181292">
        <ele>17.440000000000001</ele>
        <time>2026-06-30T15:10:36Z</time>
      </trkpt>
      <trkpt lat="52.500027967616916" lon="-9.675171989947557">
        <ele>16.48</ele>
        <time>2026-06-30T15:10:39Z</time>
      </trkpt>
      <trkpt lat="52.499925037845969" lon="-9.675233010202646">
        <ele>16</ele>
        <time>2026-06-30T15:10:40Z</time>
      </trkpt>
      <trkpt lat="52.499811965972185" lon="-9.675209037959576">
        <ele>15.52</ele>
        <time>2026-06-30T15:10:41Z</time>
      </trkpt>
      <trkpt lat="52.499689003452659" lon="-9.675165032967925">
        <ele>15.039999999999999</ele>
        <time>2026-06-30T15:10:42Z</time>
      </trkpt>
      <trkpt lat="52.499564029276371" lon="-9.675107030197978">
        <ele>14.56</ele>
        <time>2026-06-30T15:10:43Z</time>
      </trkpt>
      <trkpt lat="52.499435031786561" lon="-9.675021031871438">
        <ele>14.56</ele>
        <time>2026-06-30T15:10:44Z</time>
      </trkpt>
      <trkpt lat="52.497931988909841" lon="-9.674294991418719">
        <ele>16.960000000000001</ele>
        <time>2026-06-30T15:10:54Z</time>
      </trkpt>
      <trkpt lat="52.496557021513581" lon="-9.67392903752625">
        <ele>16.960000000000001</ele>
        <time>2026-06-30T15:11:04Z</time>
      </trkpt>
      <trkpt lat="52.496410002931952" lon="-9.673913028091192">
        <ele>16.960000000000001</ele>
        <time>2026-06-30T15:11:05Z</time>
      </trkpt>
      <trkpt lat="52.49627597630024" lon="-9.673942029476166">
        <ele>16.960000000000001</ele>
        <time>2026-06-30T15:11:06Z</time>
      </trkpt>
      <trkpt lat="52.49487703666091" lon="-9.674245035275817">
        <ele>18.399999999999999</ele>
        <time>2026-06-30T15:11:16Z</time>
      </trkpt>
      <trkpt lat="52.494354005903006" lon="-9.674356011673808">
        <ele>18.399999999999999</ele>
        <time>2026-06-30T15:11:21Z</time>
      </trkpt>
      <trkpt lat="52.494285022839904" lon="-9.674364980310202">
        <ele>17.920000000000002</ele>
        <time>2026-06-30T15:11:22Z</time>
      </trkpt>
      <trkpt lat="52.494146972894669" lon="-9.674237994477153">
        <ele>17.440000000000001</ele>
        <time>2026-06-30T15:11:23Z</time>
      </trkpt>
      <trkpt lat="52.494154013693333" lon="-9.674148978665471">
        <ele>16.960000000000001</ele>
        <time>2026-06-30T15:11:24Z</time>
      </trkpt>
      <trkpt lat="52.494161976501346" lon="-9.674041019752622">
        <ele>16.48</ele>
        <time>2026-06-30T15:11:25Z</time>
      </trkpt>
      <trkpt lat="52.494172034785151" lon="-9.673915039747953">
        <ele>16.48</ele>
        <time>2026-06-30T15:11:26Z</time>
      </trkpt>
      <trkpt lat="52.494183015078306" lon="-9.673775983974338">
        <ele>16</ele>
        <time>2026-06-30T15:11:27Z</time>
      </trkpt>
      <trkpt lat="52.494310000911355" lon="-9.672127012163401">
        <ele>14.08</ele>
        <time>2026-06-30T15:11:36Z</time>
      </trkpt>
      <trkpt lat="52.494522985070944" lon="-9.669377999380231">
        <ele>15.039999999999999</ele>
        <time>2026-06-30T15:11:47Z</time>
      </trkpt>
      <trkpt lat="52.494800006970763" lon="-9.665807979181409">
        <ele>16.48</ele>
        <time>2026-06-30T15:12:00Z</time>
      </trkpt>
      <trkpt lat="52.495124973356724" lon="-9.661697996780276">
        <ele>16</ele>
        <time>2026-06-30T15:12:14Z</time>
      </trkpt>
      <trkpt lat="52.495471984148026" lon="-9.657334964722395">
        <ele>11.19</ele>
        <time>2026-06-30T15:12:29Z</time>
      </trkpt>
      <trkpt lat="52.495702989399433" lon="-9.654126036912203">
        <ele>5.91</ele>
        <time>2026-06-30T15:12:40Z</time>
      </trkpt>
      <trkpt lat="52.49595302157104" lon="-9.651438966393471">
        <ele>6.87</ele>
        <time>2026-06-30T15:12:51Z</time>
      </trkpt>
      <trkpt lat="52.495989985764027" lon="-9.651012998074293">
        <ele>7.35</ele>
        <time>2026-06-30T15:12:56Z</time>
      </trkpt>
      <trkpt lat="52.496092999354005" lon="-9.650934040546417">
        <ele>8.789999999999999</ele>
        <time>2026-06-30T15:13:02Z</time>
      </trkpt>
      <trkpt lat="52.49614697881043" lon="-9.650974022224546">
        <ele>8.789999999999999</ele>
        <time>2026-06-30T15:13:03Z</time>
      </trkpt>
      <trkpt lat="52.496216967701912" lon="-9.651025990024209">
        <ele>9.27</ele>
        <time>2026-06-30T15:13:04Z</time>
      </trkpt>
      <trkpt lat="52.497057002037764" lon="-9.651661003008485">
        <ele>10.710000000000001</ele>
        <time>2026-06-30T15:13:12Z</time>
      </trkpt>
      <trkpt lat="52.49848997220397" lon="-9.652760038152337">
        <ele>13.119999999999999</ele>
        <time>2026-06-30T15:13:21Z</time>
      </trkpt>
      <trkpt lat="52.501478958874941" lon="-9.655042011290789">
        <ele>18.879999999999999</ele>
        <time>2026-06-30T15:13:37Z</time>
      </trkpt>
      <trkpt lat="52.504734992980957" lon="-9.657549960538745">
        <ele>24.649999999999999</ele>
        <time>2026-06-30T15:13:54Z</time>
      </trkpt>
      <trkpt lat="52.506061010062695" lon="-9.658582024276257">
        <ele>28.02</ele>
        <time>2026-06-30T15:14:02Z</time>
      </trkpt>
      <trkpt lat="52.506602983921766" lon="-9.658961975947022">
        <ele>27.530000000000001</ele>
        <time>2026-06-30T15:14:07Z</time>
      </trkpt>
      <trkpt lat="52.506750002503395" lon="-9.658948983997107">
        <ele>26.09</ele>
        <time>2026-06-30T15:14:13Z</time>
      </trkpt>
      <trkpt lat="52.506832983344793" lon="-9.659059038385749">
        <ele>26.09</ele>
        <time>2026-06-30T15:14:16Z</time>
      </trkpt>
      <trkpt lat="52.506859973073006" lon="-9.65914998203516">
        <ele>26.09</ele>
        <time>2026-06-30T15:14:17Z</time>
      </trkpt>
      <trkpt lat="52.506896015256643" lon="-9.659230029210448">
        <ele>26.57</ele>
        <time>2026-06-30T15:14:18Z</time>
      </trkpt>
      <trkpt lat="52.50740697607398" lon="-9.660497037693858">
        <ele>27.050000000000001</ele>
        <time>2026-06-30T15:14:26Z</time>
      </trkpt>
      <trkpt lat="52.50826695933938" lon="-9.662725031375885">
        <ele>31.859999999999999</ele>
        <time>2026-06-30T15:14:37Z</time>
      </trkpt>
      <trkpt lat="52.509163990616798" lon="-9.665046986192465">
        <ele>33.299999999999997</ele>
        <time>2026-06-30T15:14:51Z</time>
      </trkpt>
      <trkpt lat="52.510101003572345" lon="-9.667469020932913">
        <ele>40.030000000000001</ele>
        <time>2026-06-30T15:15:06Z</time>
      </trkpt>
      <trkpt lat="52.510832995176315" lon="-9.669381016865373">
        <ele>41.469999999999999</ele>
        <time>2026-06-30T15:15:19Z</time>
      </trkpt>
      <trkpt lat="52.511052014306188" lon="-9.669947968795896">
        <ele>39.549999999999997</ele>
        <time>2026-06-30T15:15:26Z</time>
      </trkpt>
      <trkpt lat="52.511126026511192" lon="-9.670086018741131">
        <ele>39.07</ele>
        <time>2026-06-30T15:15:29Z</time>
      </trkpt>
      <trkpt lat="52.511173970997334" lon="-9.670066991820931">
        <ele>38.590000000000003</ele>
        <time>2026-06-30T15:15:30Z</time>
      </trkpt>
      <trkpt lat="52.511233985424042" lon="-9.670043019577861">
        <ele>38.590000000000003</ele>
        <time>2026-06-30T15:15:31Z</time>
      </trkpt>
      <trkpt lat="52.511323001235723" lon="-9.670006977394223">
        <ele>38.109999999999999</ele>
        <time>2026-06-30T15:15:32Z</time>
      </trkpt>
      <trkpt lat="52.511373041197658" lon="-9.670035978779197">
        <ele>37.630000000000003</ele>
        <time>2026-06-30T15:15:33Z</time>
      </trkpt>
      <trkpt lat="52.511456022039056" lon="-9.67008400708437">
        <ele>37.630000000000003</ele>
        <time>2026-06-30T15:15:34Z</time>
      </trkpt>
      <trkpt lat="52.511549983173609" lon="-9.670138992369175">
        <ele>37.630000000000003</ele>
        <time>2026-06-30T15:15:35Z</time>
      </trkpt>
      <trkpt lat="52.511647967621684" lon="-9.670195989310741">
        <ele>37.630000000000003</ele>
        <time>2026-06-30T15:15:36Z</time>
      </trkpt>
      <trkpt lat="52.51256100833416" lon="-9.670743998140097">
        <ele>37.149999999999999</ele>
        <time>2026-06-30T15:15:46Z</time>
      </trkpt>
      <trkpt lat="52.513680998235941" lon="-9.671421004459262">
        <ele>40.509999999999998</ele>
        <time>2026-06-30T15:15:58Z</time>
      </trkpt>
      <trkpt lat="52.514802999794483" lon="-9.672206975519657">
        <ele>41.950000000000003</ele>
        <time>2026-06-30T15:16:10Z</time>
      </trkpt>
      <trkpt lat="52.514870977029204" lon="-9.672269001603127">
        <ele>41.950000000000003</ele>
        <time>2026-06-30T15:16:11Z</time>
      </trkpt>
      <trkpt lat="52.514897966757417" lon="-9.672388024628162">
        <ele>42.439999999999998</ele>
        <time>2026-06-30T15:16:12Z</time>
      </trkpt>
      <trkpt lat="52.514894027262926" lon="-9.672517022117972">
        <ele>43.399999999999999</ele>
        <time>2026-06-30T15:16:13Z</time>
      </trkpt>
      <trkpt lat="52.514867037534714" lon="-9.672655994072557">
        <ele>43.399999999999999</ele>
        <time>2026-06-30T15:16:14Z</time>
      </trkpt>
      <trkpt lat="52.51483703032136" lon="-9.672812987118959">
        <ele>43.399999999999999</ele>
        <time>2026-06-30T15:16:15Z</time>
      </trkpt>
      <trkpt lat="52.514723958447576" lon="-9.673397960141301">
        <ele>40.990000000000002</ele>
        <time>2026-06-30T15:16:19Z</time>
      </trkpt>
      <trkpt lat="52.51470803283155" lon="-9.673484964296222">
        <ele>40.509999999999998</ele>
        <time>2026-06-30T15:16:20Z</time>
      </trkpt>
      <trkpt lat="52.514695040881634" lon="-9.673550007864833">
        <ele>40.030000000000001</ele>
        <time>2026-06-30T15:16:21Z</time>
      </trkpt>
      <trkpt lat="52.514777015894651" lon="-9.673674982041121">
        <ele>40.030000000000001</ele>
        <time>2026-06-30T15:16:22Z</time>
      </trkpt>
      <trkpt lat="52.514834012836218" lon="-9.67367397621274">
        <ele>39.549999999999997</ele>
        <time>2026-06-30T15:16:23Z</time>
      </trkpt>
      <trkpt lat="52.514907019212842" lon="-9.673672970384359">
        <ele>39.07</ele>
        <time>2026-06-30T15:16:24Z</time>
      </trkpt>
      <trkpt lat="52.514993017539382" lon="-9.673670958727598">
        <ele>39.07</ele>
        <time>2026-06-30T15:16:25Z</time>
      </trkpt>
      <trkpt lat="52.516113007441163" lon="-9.673645980656147">
        <ele>38.590000000000003</ele>
        <time>2026-06-30T15:16:35Z</time>
      </trkpt>
      <trkpt lat="52.517211036756635" lon="-9.673675987869501">
        <ele>44.359999999999999</ele>
        <time>2026-06-30T15:16:46Z</time>
      </trkpt>
      <trkpt lat="52.518376959487796" lon="-9.673719992861152">
        <ele>51.090000000000003</ele>
        <time>2026-06-30T15:16:57Z</time>
      </trkpt>
      <trkpt lat="52.519813030958176" lon="-9.673262005671859">
        <ele>56.859999999999999</ele>
        <time>2026-06-30T15:17:09Z</time>
      </trkpt>
      <trkpt lat="52.521339040249586" lon="-9.672593967989087">
        <ele>63.100000000000001</ele>
        <time>2026-06-30T15:17:21Z</time>
      </trkpt>
      <trkpt lat="52.523207031190395" lon="-9.671763991937041">
        <ele>72.719999999999999</ele>
        <time>2026-06-30T15:17:35Z</time>
      </trkpt>
      <trkpt lat="52.524564983323216" lon="-9.671076005324721">
        <ele>78.480000000000004</ele>
        <time>2026-06-30T15:17:45Z</time>
      </trkpt>
      <trkpt lat="52.524681994691491" lon="-9.670949019491673">
        <ele>78.969999999999999</ele>
        <time>2026-06-30T15:17:46Z</time>
      </trkpt>
      <trkpt lat="52.524804035201669" lon="-9.670811975374818">
        <ele>79.450000000000003</ele>
        <time>2026-06-30T15:17:47Z</time>
      </trkpt>
      <trkpt lat="52.524889027699828" lon="-9.670625980943441">
        <ele>79.930000000000007</ele>
        <time>2026-06-30T15:17:48Z</time>
      </trkpt>
      <trkpt lat="52.524975026026368" lon="-9.670437974855304">
        <ele>79.930000000000007</ele>
        <time>2026-06-30T15:17:49Z</time>
      </trkpt>
      <trkpt lat="52.525053983554244" lon="-9.670241000130773">
        <ele>80.409999999999997</ele>
        <time>2026-06-30T15:17:50Z</time>
      </trkpt>
      <trkpt lat="52.525116009637713" lon="-9.670023992657661">
        <ele>80.890000000000001</ele>
        <time>2026-06-30T15:17:51Z</time>
      </trkpt>
      <trkpt lat="52.525175018236041" lon="-9.669801034033299">
        <ele>81.370000000000005</ele>
        <time>2026-06-30T15:17:52Z</time>
      </trkpt>
      <trkpt lat="52.525223968550563" lon="-9.669563993811607">
        <ele>82.329999999999998</ele>
        <time>2026-06-30T15:17:53Z</time>
      </trkpt>
      <trkpt lat="52.52592503093183" lon="-9.666160019114614">
        <ele>87.140000000000001</ele>
        <time>2026-06-30T15:18:07Z</time>
      </trkpt>
      <trkpt lat="52.526412019506097" lon="-9.663780983537436">
        <ele>88.099999999999994</ele>
        <time>2026-06-30T15:18:17Z</time>
      </trkpt>
      <trkpt lat="52.526886016130447" lon="-9.661587020382285">
        <ele>89.060000000000002</ele>
        <time>2026-06-30T15:18:27Z</time>
      </trkpt>
      <trkpt lat="52.527480041608214" lon="-9.658598033711314">
        <ele>88.099999999999994</ele>
        <time>2026-06-30T15:18:37Z</time>
      </trkpt>
      <trkpt lat="52.528651999309659" lon="-9.652726007625461">
        <ele>92.900000000000006</ele>
        <time>2026-06-30T15:18:55Z</time>
      </trkpt>
      <trkpt lat="52.529515000060201" lon="-9.648451991379261">
        <ele>91.459999999999994</ele>
        <time>2026-06-30T15:19:08Z</time>
      </trkpt>
      <trkpt lat="52.530333995819092" lon="-9.64439095929265">
        <ele>90.019999999999996</ele>
        <time>2026-06-30T15:19:21Z</time>
      </trkpt>
      <trkpt lat="52.531135976314545" lon="-9.640335040166974">
        <ele>90.5</ele>
        <time>2026-06-30T15:19:34Z</time>
      </trkpt>
      <trkpt lat="52.531934017315507" lon="-9.63631197810173">
        <ele>93.870000000000005</ele>
        <time>2026-06-30T15:19:47Z</time>
      </trkpt>
      <trkpt lat="52.532939007505774" lon="-9.631236987188458">
        <ele>96.269999999999996</ele>
        <time>2026-06-30T15:20:03Z</time>
      </trkpt>
      <trkpt lat="52.533856993541121" lon="-9.628010960295796">
        <ele>103</ele>
        <time>2026-06-30T15:20:14Z</time>
      </trkpt>
      <trkpt lat="52.534736003726721" lon="-9.62640599347651">
        <ele>107.81</ele>
        <time>2026-06-30T15:20:21Z</time>
      </trkpt>
      <trkpt lat="52.536743972450495" lon="-9.623651029542089">
        <ele>110.69</ele>
        <time>2026-06-30T15:20:34Z</time>
      </trkpt>
      <trkpt lat="52.538070995360613" lon="-9.621701985597611">
        <ele>112.13</ele>
        <time>2026-06-30T15:20:44Z</time>
      </trkpt>
      <trkpt lat="52.538846991956234" lon="-9.619992999359965">
        <ele>112.13</ele>
        <time>2026-06-30T15:20:52Z</time>
      </trkpt>
      <trkpt lat="52.53952600993216" lon="-9.618001962080598">
        <ele>108.77</ele>
        <time>2026-06-30T15:20:59Z</time>
      </trkpt>
      <trkpt lat="52.540767034515738" lon="-9.613689975813031">
        <ele>105.40000000000001</ele>
        <time>2026-06-30T15:21:13Z</time>
      </trkpt>
      <trkpt lat="52.541875038295984" lon="-9.609964974224567">
        <ele>103.48</ele>
        <time>2026-06-30T15:21:26Z</time>
      </trkpt>
      <trkpt lat="52.542868964374065" lon="-9.607566995546222">
        <ele>109.73</ele>
        <time>2026-06-30T15:21:35Z</time>
      </trkpt>
      <trkpt lat="52.543930029496551" lon="-9.605067009106278">
        <ele>115.5</ele>
        <time>2026-06-30T15:21:44Z</time>
      </trkpt>
      <trkpt lat="52.545018000528216" lon="-9.602325037121773">
        <ele>115.01000000000001</ele>
        <time>2026-06-30T15:21:54Z</time>
      </trkpt>
      <trkpt lat="52.546335970982909" lon="-9.599103033542633">
        <ele>115.5</ele>
        <time>2026-06-30T15:22:07Z</time>
      </trkpt>
      <trkpt lat="52.54753902554512" lon="-9.596723997965455">
        <ele>104.92</ele>
        <time>2026-06-30T15:22:16Z</time>
      </trkpt>
      <trkpt lat="52.549084983766079" lon="-9.593668039888144">
        <ele>99.150000000000006</ele>
        <time>2026-06-30T15:22:27Z</time>
      </trkpt>
      <trkpt lat="52.550044963136315" lon="-9.591883029788733">
        <ele>95.310000000000002</ele>
        <time>2026-06-30T15:22:34Z</time>
      </trkpt>
      <trkpt lat="52.551455972716212" lon="-9.590263981372118">
        <ele>91.939999999999998</ele>
        <time>2026-06-30T15:22:43Z</time>
      </trkpt>
      <trkpt lat="52.552376976236701" lon="-9.589144997298718">
        <ele>90.5</ele>
        <time>2026-06-30T15:22:49Z</time>
      </trkpt>
      <trkpt lat="52.552506979554892" lon="-9.588933018967509">
        <ele>90.019999999999996</ele>
        <time>2026-06-30T15:22:50Z</time>
      </trkpt>
      <trkpt lat="52.552622985094786" lon="-9.588708970695734">
        <ele>89.060000000000002</ele>
        <time>2026-06-30T15:22:51Z</time>
      </trkpt>
      <trkpt lat="52.55269599147141" lon="-9.588433960452676">
        <ele>89.060000000000002</ele>
        <time>2026-06-30T15:22:52Z</time>
      </trkpt>
      <trkpt lat="52.552770003676414" lon="-9.588155010715127">
        <ele>88.579999999999998</ele>
        <time>2026-06-30T15:22:53Z</time>
      </trkpt>
      <trkpt lat="52.552830018103123" lon="-9.587864996865392">
        <ele>88.099999999999994</ele>
        <time>2026-06-30T15:22:54Z</time>
      </trkpt>
      <trkpt lat="52.552879974246025" lon="-9.587564002722502">
        <ele>87.620000000000005</ele>
        <time>2026-06-30T15:22:55Z</time>
      </trkpt>
      <trkpt lat="52.553451033309102" lon="-9.584138989448547">
        <ele>78.969999999999999</ele>
        <time>2026-06-30T15:23:06Z</time>
      </trkpt>
      <trkpt lat="52.553953025490046" lon="-9.580495040863752">
        <ele>67.909999999999997</ele>
        <time>2026-06-30T15:23:17Z</time>
      </trkpt>
      <trkpt lat="52.554292995482683" lon="-9.577992036938667">
        <ele>62.140000000000001</ele>
        <time>2026-06-30T15:23:25Z</time>
      </trkpt>
      <trkpt lat="52.554657021537423" lon="-9.574877992272377">
        <ele>56.859999999999999</ele>
        <time>2026-06-30T15:23:35Z</time>
      </trkpt>
      <trkpt lat="52.554663978517056" lon="-9.574570963159204">
        <ele>57.340000000000003</ele>
        <time>2026-06-30T15:23:36Z</time>
      </trkpt>
      <trkpt lat="52.554640006273985" lon="-9.574256977066398">
        <ele>57.340000000000003</ele>
        <time>2026-06-30T15:23:37Z</time>
      </trkpt>
      <trkpt lat="52.55458502098918" lon="-9.573950031772256">
        <ele>57.340000000000003</ele>
        <time>2026-06-30T15:23:38Z</time>
      </trkpt>
      <trkpt lat="52.554016979411244" lon="-9.570931037887931">
        <ele>55.890000000000001</ele>
        <time>2026-06-30T15:23:48Z</time>
      </trkpt>
      <trkpt lat="52.553291022777557" lon="-9.567259009927511">
        <ele>55.409999999999997</ele>
        <time>2026-06-30T15:24:00Z</time>
      </trkpt>
      <trkpt lat="52.552663972601295" lon="-9.564185030758381">
        <ele>49.159999999999997</ele>
        <time>2026-06-30T15:24:10Z</time>
      </trkpt>
      <trkpt lat="52.552388962358236" lon="-9.562815008684993">
        <ele>46.280000000000001</ele>
        <time>2026-06-30T15:24:15Z</time>
      </trkpt>
      <trkpt lat="52.552345963194966" lon="-9.562598001211882">
        <ele>46.280000000000001</ele>
        <time>2026-06-30T15:24:16Z</time>
      </trkpt>
      <trkpt lat="52.552026025950909" lon="-9.560955986380577">
        <ele>47.240000000000002</ele>
        <time>2026-06-30T15:24:25Z</time>
      </trkpt>
      <trkpt lat="52.551589999347925" lon="-9.558721035718918">
        <ele>50.130000000000003</ele>
        <time>2026-06-30T15:24:36Z</time>
      </trkpt>
      <trkpt lat="52.551075015217066" lon="-9.556109989061952">
        <ele>51.090000000000003</ele>
        <time>2026-06-30T15:24:48Z</time>
      </trkpt>
      <trkpt lat="52.550549972802401" lon="-9.553588964045048">
        <ele>55.890000000000001</ele>
        <time>2026-06-30T15:24:58Z</time>
      </trkpt>
      <trkpt lat="52.550399014726281" lon="-9.553022012114525">
        <ele>56.859999999999999</ele>
        <time>2026-06-30T15:25:00Z</time>
      </trkpt>
      <trkpt lat="52.549918983131647" lon="-9.551790961995721">
        <ele>57.340000000000003</ele>
        <time>2026-06-30T15:25:05Z</time>
      </trkpt>
      <trkpt lat="52.549850000068545" lon="-9.551592981442809">
        <ele>57.340000000000003</ele>
        <time>2026-06-30T15:25:06Z</time>
      </trkpt>
      <trkpt lat="52.549805995076895" lon="-9.551388965919614">
        <ele>57.340000000000003</ele>
        <time>2026-06-30T15:25:07Z</time>
      </trkpt>
      <trkpt lat="52.549760984256864" lon="-9.551181010901928">
        <ele>56.859999999999999</ele>
        <time>2026-06-30T15:25:08Z</time>
      </trkpt>
      <trkpt lat="52.549739023670554" lon="-9.550943970680237">
        <ele>56.859999999999999</ele>
        <time>2026-06-30T15:25:09Z</time>
      </trkpt>
      <trkpt lat="52.549753021448851" lon="-9.550711959600449">
        <ele>56.369999999999997</ele>
        <time>2026-06-30T15:25:10Z</time>
      </trkpt>
      <trkpt lat="52.549797026440501" lon="-9.550470979884267">
        <ele>55.409999999999997</ele>
        <time>2026-06-30T15:25:11Z</time>
      </trkpt>
      <trkpt lat="52.549842037260532" lon="-9.550227988511324">
        <ele>54.93</ele>
        <time>2026-06-30T15:25:12Z</time>
      </trkpt>
      <trkpt lat="52.549914037808776" lon="-9.549986002966762">
        <ele>54.450000000000003</ele>
        <time>2026-06-30T15:25:13Z</time>
      </trkpt>
      <trkpt lat="52.550004981458187" lon="-9.549752986058593">
        <ele>53.969999999999999</ele>
        <time>2026-06-30T15:25:14Z</time>
      </trkpt>
      <trkpt lat="52.550934031605721" lon="-9.547358024865389">
        <ele>48.200000000000003</ele>
        <time>2026-06-30T15:25:23Z</time>
      </trkpt>
      <trkpt lat="52.551402999088168" lon="-9.545540995895863">
        <ele>45.799999999999997</ele>
        <time>2026-06-30T15:25:29Z</time>
      </trkpt>
      <trkpt lat="52.551735006272793" lon="-9.542682012543082">
        <ele>49.649999999999999</ele>
        <time>2026-06-30T15:25:38Z</time>
      </trkpt>
      <trkpt lat="52.552110012620687" lon="-9.539476018399">
        <ele>53.009999999999998</ele>
        <time>2026-06-30T15:25:49Z</time>
      </trkpt>
      <trkpt lat="52.55248099565506" lon="-9.535989984869957">
        <ele>53.969999999999999</ele>
        <time>2026-06-30T15:26:00Z</time>
      </trkpt>
      <trkpt lat="52.552795987576246" lon="-9.532291973009706">
        <ele>52.530000000000001</ele>
        <time>2026-06-30T15:26:11Z</time>
      </trkpt>
      <trkpt lat="52.552901012822986" lon="-9.527925001457334">
        <ele>52.049999999999997</ele>
        <time>2026-06-30T15:26:24Z</time>
      </trkpt>
      <trkpt lat="52.553038978949189" lon="-9.524335032328963">
        <ele>50.130000000000003</ele>
        <time>2026-06-30T15:26:35Z</time>
      </trkpt>
      <trkpt lat="52.553156996145844" lon="-9.521950967609882">
        <ele>49.649999999999999</ele>
        <time>2026-06-30T15:26:43Z</time>
      </trkpt>
      <trkpt lat="52.553120031952858" lon="-9.521687021479011">
        <ele>49.159999999999997</ele>
        <time>2026-06-30T15:26:44Z</time>
      </trkpt>
      <trkpt lat="52.55308298394084" lon="-9.521417040377855">
        <ele>48.68</ele>
        <time>2026-06-30T15:26:45Z</time>
      </trkpt>
      <trkpt lat="52.552691968157887" lon="-9.519787011668086">
        <ele>47.240000000000002</ele>
        <time>2026-06-30T15:26:51Z</time>
      </trkpt>
      <trkpt lat="52.551594022661448" lon="-9.51753999106586">
        <ele>48.200000000000003</ele>
        <time>2026-06-30T15:27:00Z</time>
      </trkpt>
      <trkpt lat="52.54996701143682" lon="-9.514325028285384">
        <ele>48.200000000000003</ele>
        <time>2026-06-30T15:27:12Z</time>
      </trkpt>
      <trkpt lat="52.548631019890308" lon="-9.511684980243444">
        <ele>45.799999999999997</ele>
        <time>2026-06-30T15:27:23Z</time>
      </trkpt>
      <trkpt lat="52.54683100618422" lon="-9.508160976693034">
        <ele>43.880000000000003</ele>
        <time>2026-06-30T15:27:37Z</time>
      </trkpt>
      <trkpt lat="52.545871026813984" lon="-9.50617203488946">
        <ele>41.469999999999999</ele>
        <time>2026-06-30T15:27:45Z</time>
      </trkpt>
      <trkpt lat="52.545809000730515" lon="-9.50589400716126">
        <ele>41.469999999999999</ele>
        <time>2026-06-30T15:27:46Z</time>
      </trkpt>
      <trkpt lat="52.545762984082103" lon="-9.505606004968286">
        <ele>41.469999999999999</ele>
        <time>2026-06-30T15:27:47Z</time>
      </trkpt>
      <trkpt lat="52.545762984082103" lon="-9.505316996946931">
        <ele>41.469999999999999</ele>
        <time>2026-06-30T15:27:48Z</time>
      </trkpt>
      <trkpt lat="52.545781005173922" lon="-9.505031006410718">
        <ele>40.990000000000002</ele>
        <time>2026-06-30T15:27:49Z</time>
      </trkpt>
      <trkpt lat="52.545810006558895" lon="-9.504738980904222">
        <ele>40.990000000000002</ele>
        <time>2026-06-30T15:27:50Z</time>
      </trkpt>
      <trkpt lat="52.545869015157223" lon="-9.504445027559996">
        <ele>40.990000000000002</ele>
        <time>2026-06-30T15:27:51Z</time>
      </trkpt>
      <trkpt lat="52.545965993776917" lon="-9.504159959033132">
        <ele>40.509999999999998</ele>
        <time>2026-06-30T15:27:52Z</time>
      </trkpt>
      <trkpt lat="52.546083005145192" lon="-9.503885032609105">
        <ele>40.509999999999998</ele>
        <time>2026-06-30T15:27:53Z</time>
      </trkpt>
      <trkpt lat="52.546202028170228" lon="-9.503608010709286">
        <ele>40.030000000000001</ele>
        <time>2026-06-30T15:27:54Z</time>
      </trkpt>
      <trkpt lat="52.546536969020963" lon="-9.502822961658239">
        <ele>39.07</ele>
        <time>2026-06-30T15:27:57Z</time>
      </trkpt>
      <trkpt lat="52.546611987054348" lon="-9.502525990828872">
        <ele>38.590000000000003</ele>
        <time>2026-06-30T15:27:58Z</time>
      </trkpt>
      <trkpt lat="52.547233002260327" lon="-9.499638006091118">
        <ele>32.82</ele>
        <time>2026-06-30T15:28:07Z</time>
      </trkpt>
      <trkpt lat="52.547572972252965" lon="-9.496676009148359">
        <ele>25.129999999999999</ele>
        <time>2026-06-30T15:28:16Z</time>
      </trkpt>
      <trkpt lat="52.547663999721408" lon="-9.49577403254807">
        <ele>23.690000000000001</ele>
        <time>2026-06-30T15:28:19Z</time>
      </trkpt>
      <trkpt lat="52.547725019976497" lon="-9.495482007041574">
        <ele>23.210000000000001</ele>
        <time>2026-06-30T15:28:20Z</time>
      </trkpt>
      <trkpt lat="52.547799032181501" lon="-9.495197022333741">
        <ele>23.210000000000001</ele>
        <time>2026-06-30T15:28:21Z</time>
      </trkpt>
      <trkpt lat="52.547911014407873" lon="-9.49493600986898">
        <ele>22.73</ele>
        <time>2026-06-30T15:28:22Z</time>
      </trkpt>
      <trkpt lat="52.548036994412541" lon="-9.494691006839275">
        <ele>22.25</ele>
        <time>2026-06-30T15:28:23Z</time>
      </trkpt>
      <trkpt lat="52.548164986073971" lon="-9.49444298632443">
        <ele>22.25</ele>
        <time>2026-06-30T15:28:24Z</time>
      </trkpt>
      <trkpt lat="52.549613965675235" lon="-9.491664972156286">
        <ele>20.809999999999999</ele>
        <time>2026-06-30T15:28:35Z</time>
      </trkpt>
      <trkpt lat="52.550251996144652" lon="-9.49034096673131">
        <ele>23.210000000000001</ele>
        <time>2026-06-30T15:28:40Z</time>
      </trkpt>
      <trkpt lat="52.550304969772696" lon="-9.490050030872226">
        <ele>23.690000000000001</ele>
        <time>2026-06-30T15:28:41Z</time>
      </trkpt>
      <trkpt lat="52.55076396279037" lon="-9.487510984763503">
        <ele>23.690000000000001</ele>
        <time>2026-06-30T15:28:50Z</time>
      </trkpt>
      <trkpt lat="52.550841998308897" lon="-9.48681503534317">
        <ele>22.25</ele>
        <time>2026-06-30T15:28:53Z</time>
      </trkpt>
      <trkpt lat="52.550833029672503" lon="-9.48658000677824">
        <ele>22.25</ele>
        <time>2026-06-30T15:28:54Z</time>
      </trkpt>
      <trkpt lat="52.550811991095543" lon="-9.486341960728169">
        <ele>21.77</ele>
        <time>2026-06-30T15:28:55Z</time>
      </trkpt>
      <trkpt lat="52.550618033856153" lon="-9.484424013644457">
        <ele>16.48</ele>
        <time>2026-06-30T15:29:04Z</time>
      </trkpt>
      <trkpt lat="52.550575034692883" lon="-9.484251011162996">
        <ele>16</ele>
        <time>2026-06-30T15:29:05Z</time>
      </trkpt>
      <trkpt lat="52.550489958375692" lon="-9.483911963179708">
        <ele>15.52</ele>
        <time>2026-06-30T15:29:07Z</time>
      </trkpt>
      <trkpt lat="52.550426004454494" lon="-9.483767962083221">
        <ele>15.039999999999999</ele>
        <time>2026-06-30T15:29:08Z</time>
      </trkpt>
      <trkpt lat="52.550351992249489" lon="-9.483622033149004">
        <ele>15.039999999999999</ele>
        <time>2026-06-30T15:29:09Z</time>
      </trkpt>
      <trkpt lat="52.550172032788396" lon="-9.483346017077565">
        <ele>14.08</ele>
        <time>2026-06-30T15:29:11Z</time>
      </trkpt>
      <trkpt lat="52.550068013370037" lon="-9.483215007930994">
        <ele>13.6</ele>
        <time>2026-06-30T15:29:12Z</time>
      </trkpt>
      <trkpt lat="52.549943039193749" lon="-9.483122974634171">
        <ele>12.630000000000001</ele>
        <time>2026-06-30T15:29:13Z</time>
      </trkpt>
      <trkpt lat="52.549810018390417" lon="-9.483033958822489">
        <ele>12.15</ele>
        <time>2026-06-30T15:29:14Z</time>
      </trkpt>
      <trkpt lat="52.549673980101943" lon="-9.482961958274245">
        <ele>11.19</ele>
        <time>2026-06-30T15:29:15Z</time>
      </trkpt>
      <trkpt lat="52.549531990662217" lon="-9.482913007959724">
        <ele>10.710000000000001</ele>
        <time>2026-06-30T15:29:16Z</time>
      </trkpt>
      <trkpt lat="52.548663960769773" lon="-9.482558034360409">
        <ele>9.27</ele>
        <time>2026-06-30T15:29:22Z</time>
      </trkpt>
      <trkpt lat="52.548535969108343" lon="-9.482429958879948">
        <ele>8.789999999999999</ele>
        <time>2026-06-30T15:29:23Z</time>
      </trkpt>
      <trkpt lat="52.548409989103675" lon="-9.482303978875279">
        <ele>8.789999999999999</ele>
        <time>2026-06-30T15:29:24Z</time>
      </trkpt>
      <trkpt lat="52.548307981342077" lon="-9.482122007757425">
        <ele>8.789999999999999</ele>
        <time>2026-06-30T15:29:25Z</time>
      </trkpt>
      <trkpt lat="52.548208991065621" lon="-9.481940036639571">
        <ele>9.27</ele>
        <time>2026-06-30T15:29:26Z</time>
      </trkpt>
      <trkpt lat="52.548122992739081" lon="-9.481781031936407">
        <ele>9.27</ele>
        <time>2026-06-30T15:29:27Z</time>
      </trkpt>
      <trkpt lat="52.548057027161121" lon="-9.481546003371477">
        <ele>9.27</ele>
        <time>2026-06-30T15:29:28Z</time>
      </trkpt>
      <trkpt lat="52.547997012734413" lon="-9.481331007555127">
        <ele>9.27</ele>
        <time>2026-06-30T15:29:29Z</time>
      </trkpt>
      <trkpt lat="52.547936998307705" lon="-9.481117017567158">
        <ele>9.27</ele>
        <time>2026-06-30T15:29:30Z</time>
      </trkpt>
      <trkpt lat="52.547915037721395" lon="-9.480889029800892">
        <ele>9.27</ele>
        <time>2026-06-30T15:29:31Z</time>
      </trkpt>
      <trkpt lat="52.547913026064634" lon="-9.480660036206245">
        <ele>9.27</ele>
        <time>2026-06-30T15:29:32Z</time>
      </trkpt>
      <trkpt lat="52.547920988872647" lon="-9.480431964620948">
        <ele>9.27</ele>
        <time>2026-06-30T15:29:33Z</time>
      </trkpt>
      <trkpt lat="52.547930041328073" lon="-9.480192996561527">
        <ele>8.789999999999999</ele>
        <time>2026-06-30T15:29:34Z</time>
      </trkpt>
      <trkpt lat="52.547953007742763" lon="-9.478922970592976">
        <ele>7.83</ele>
        <time>2026-06-30T15:29:40Z</time>
      </trkpt>
      <trkpt lat="52.547906991094351" lon="-9.478761032223702">
        <ele>7.83</ele>
        <time>2026-06-30T15:29:41Z</time>
      </trkpt>
      <trkpt lat="52.547846976667643" lon="-9.478668998926878">
        <ele>7.83</ele>
        <time>2026-06-30T15:29:42Z</time>
      </trkpt>
      <trkpt lat="52.547769024968147" lon="-9.478624993935227">
        <ele>7.35</ele>
        <time>2026-06-30T15:29:43Z</time>
      </trkpt>
      <trkpt lat="52.54768998362124" lon="-9.478581994771957">
        <ele>7.83</ele>
        <time>2026-06-30T15:29:44Z</time>
      </trkpt>
      <trkpt lat="52.547614965587854" lon="-9.478540001437068">
        <ele>7.83</ele>
        <time>2026-06-30T15:29:45Z</time>
      </trkpt>
      <trkpt lat="52.546928990632296" lon="-9.478207994252443">
        <ele>9.75</ele>
        <time>2026-06-30T15:29:55Z</time>
      </trkpt>
      <trkpt lat="52.546500004827976" lon="-9.478083020076156">
        <ele>7.35</ele>
        <time>2026-06-30T15:30:00Z</time>
      </trkpt>
      <trkpt lat="52.54642398096621" lon="-9.478033985942602">
        <ele>7.35</ele>
        <time>2026-06-30T15:30:01Z</time>
      </trkpt>
      <trkpt lat="52.54637997597456" lon="-9.477924015372992">
        <ele>6.87</ele>
        <time>2026-06-30T15:30:02Z</time>
      </trkpt>
      <trkpt lat="52.546367989853024" lon="-9.477799041196704">
        <ele>6.87</ele>
        <time>2026-06-30T15:30:03Z</time>
      </trkpt>
      <trkpt lat="52.546362038701773" lon="-9.477665014564991">
        <ele>6.87</ele>
        <time>2026-06-30T15:30:04Z</time>
      </trkpt>
      <trkpt lat="52.546360027045012" lon="-9.477525036782026">
        <ele>6.87</ele>
        <time>2026-06-30T15:30:05Z</time>
      </trkpt>
      <trkpt lat="52.54635700955987" lon="-9.477381035685539">
        <ele>7.35</ele>
        <time>2026-06-30T15:30:06Z</time>
      </trkpt>
      <trkpt lat="52.546349968761206" lon="-9.476974010467529">
        <ele>7.35</ele>
        <time>2026-06-30T15:30:09Z</time>
      </trkpt>
      <trkpt lat="52.546342005953193" lon="-9.47650202549994">
        <ele>7.35</ele>
        <time>2026-06-30T15:30:12Z</time>
      </trkpt>
      <trkpt lat="52.546248966827989" lon="-9.475929038599134">
        <ele>4.46</ele>
        <time>2026-06-30T15:30:16Z</time>
      </trkpt>
      <trkpt lat="52.546224994584918" lon="-9.475783025845885">
        <ele>3.98</ele>
        <time>2026-06-30T15:30:17Z</time>
      </trkpt>
      <trkpt lat="52.546149976551533" lon="-9.475333001464605">
        <ele>2.54</ele>
        <time>2026-06-30T15:30:20Z</time>
      </trkpt>
      <trkpt lat="52.54612298682332" lon="-9.47517198510468">
        <ele>2.54</ele>
        <time>2026-06-30T15:30:21Z</time>
      </trkpt>
      <trkpt lat="52.545822998508811" lon="-9.473402984440327">
        <ele>3.5</ele>
        <time>2026-06-30T15:30:31Z</time>
      </trkpt>
      <trkpt lat="52.545416979119182" lon="-9.471071977168322">
        <ele>7.83</ele>
        <time>2026-06-30T15:30:43Z</time>
      </trkpt>
      <trkpt lat="52.544794036075473" lon="-9.46767101995647">
        <ele>19.359999999999999</ele>
        <time>2026-06-30T15:30:57Z</time>
      </trkpt>
      <trkpt lat="52.54468297585845" lon="-9.467232981696725">
        <ele>21.289999999999999</ele>
        <time>2026-06-30T15:30:59Z</time>
      </trkpt>
      <trkpt lat="52.544551966711879" lon="-9.466799972578883">
        <ele>22.73</ele>
        <time>2026-06-30T15:31:01Z</time>
      </trkpt>
      <trkpt lat="52.544072018936276" lon="-9.465226018801332">
        <ele>26.57</ele>
        <time>2026-06-30T15:31:08Z</time>
      </trkpt>
      <trkpt lat="52.5438860245049" lon="-9.464620007202029">
        <ele>27.530000000000001</ele>
        <time>2026-06-30T15:31:11Z</time>
      </trkpt>
      <trkpt lat="52.543831961229444" lon="-9.464398976415396">
        <ele>27.530000000000001</ele>
        <time>2026-06-30T15:31:12Z</time>
      </trkpt>
      <trkpt lat="52.543836990371346" lon="-9.464189009740949">
        <ele>27.530000000000001</ele>
        <time>2026-06-30T15:31:13Z</time>
      </trkpt>
      <trkpt lat="52.543842019513249" lon="-9.463974013924599">
        <ele>28.02</ele>
        <time>2026-06-30T15:31:14Z</time>
      </trkpt>
      <trkpt lat="52.543846964836121" lon="-9.463750971481204">
        <ele>28.5</ele>
        <time>2026-06-30T15:31:15Z</time>
      </trkpt>
      <trkpt lat="52.543852999806404" lon="-9.463512003421783">
        <ele>28.5</ele>
        <time>2026-06-30T15:31:16Z</time>
      </trkpt>
      <trkpt lat="52.544107977300882" lon="-9.461271017789841">
        <ele>31.379999999999999</ele>
        <time>2026-06-30T15:31:24Z</time>
      </trkpt>
      <trkpt lat="52.544640982523561" lon="-9.457544004544616">
        <ele>35.229999999999997</ele>
        <time>2026-06-30T15:31:35Z</time>
      </trkpt>
      <trkpt lat="52.54547699354589" lon="-9.454649984836578">
        <ele>40.990000000000002</ele>
        <time>2026-06-30T15:31:44Z</time>
      </trkpt>
      <trkpt lat="52.546204039826989" lon="-9.451520014554262">
        <ele>46.759999999999998</ele>
        <time>2026-06-30T15:31:54Z</time>
      </trkpt>
      <trkpt lat="52.546650040894747" lon="-9.447248009964824">
        <ele>51.090000000000003</ele>
        <time>2026-06-30T15:32:07Z</time>
      </trkpt>
      <trkpt lat="52.547257980331779" lon="-9.441285040229559">
        <ele>54.93</ele>
        <time>2026-06-30T15:32:26Z</time>
      </trkpt>
      <trkpt lat="52.547859968617558" lon="-9.435621974989772">
        <ele>61.659999999999997</ele>
        <time>2026-06-30T15:32:44Z</time>
      </trkpt>
      <trkpt lat="52.54850503988564" lon="-9.432297963649035">
        <ele>64.549999999999997</ele>
        <time>2026-06-30T15:32:55Z</time>
      </trkpt>
      <trkpt lat="52.549273995682597" lon="-9.428672036156058">
        <ele>66.469999999999999</ele>
        <time>2026-06-30T15:33:07Z</time>
      </trkpt>
      <trkpt lat="52.549819992855191" lon="-9.424612009897828">
        <ele>66.950000000000003</ele>
        <time>2026-06-30T15:33:20Z</time>
      </trkpt>
      <trkpt lat="52.550393985584378" lon="-9.420243026688695">
        <ele>65.989999999999995</ele>
        <time>2026-06-30T15:33:34Z</time>
      </trkpt>
      <trkpt lat="52.550535975024104" lon="-9.419650007039309">
        <ele>65.030000000000001</ele>
        <time>2026-06-30T15:33:36Z</time>
      </trkpt>
      <trkpt lat="52.550615016371012" lon="-9.419353036209941">
        <ele>64.549999999999997</ele>
        <time>2026-06-30T15:33:37Z</time>
      </trkpt>
      <trkpt lat="52.551547000184655" lon="-9.417282035574317">
        <ele>66.950000000000003</ele>
        <time>2026-06-30T15:33:45Z</time>
      </trkpt>
      <trkpt lat="52.552686017006636" lon="-9.416004968807101">
        <ele>70.790000000000006</ele>
        <time>2026-06-30T15:33:52Z</time>
      </trkpt>
      <trkpt lat="52.554154023528099" lon="-9.415254034101963">
        <ele>68.870000000000005</ele>
        <time>2026-06-30T15:34:00Z</time>
      </trkpt>
      <trkpt lat="52.554700020700693" lon="-9.414973994717002">
        <ele>66.469999999999999</ele>
        <time>2026-06-30T15:34:03Z</time>
      </trkpt>
      <trkpt lat="52.554882997646928" lon="-9.414880033582449">
        <ele>66.469999999999999</ele>
        <time>2026-06-30T15:34:04Z</time>
      </trkpt>
      <trkpt lat="52.556890966370702" lon="-9.413718972355127">
        <ele>64.069999999999993</ele>
        <time>2026-06-30T15:34:15Z</time>
      </trkpt>
      <trkpt lat="52.557951025664806" lon="-9.412341993302107">
        <ele>64.549999999999997</ele>
        <time>2026-06-30T15:34:22Z</time>
      </trkpt>
      <trkpt lat="52.558094020932913" lon="-9.412121968343854">
        <ele>65.030000000000001</ele>
        <time>2026-06-30T15:34:23Z</time>
      </trkpt>
      <trkpt lat="52.559105968102813" lon="-9.409719966351986">
        <ele>64.549999999999997</ele>
        <time>2026-06-30T15:34:32Z</time>
      </trkpt>
      <trkpt lat="52.559798983857036" lon="-9.407115038484335">
        <ele>60.700000000000003</ele>
        <time>2026-06-30T15:34:41Z</time>
      </trkpt>
      <trkpt lat="52.559847012162209" lon="-9.406803986057639">
        <ele>59.740000000000002</ele>
        <time>2026-06-30T15:34:42Z</time>
      </trkpt>
      <trkpt lat="52.55989596247673" lon="-9.406166961416602">
        <ele>58.299999999999997</ele>
        <time>2026-06-30T15:34:44Z</time>
      </trkpt>
      <trkpt lat="52.559953965246677" lon="-9.405874013900757">
        <ele>57.82</ele>
        <time>2026-06-30T15:34:45Z</time>
      </trkpt>
      <trkpt lat="52.56002102047205" lon="-9.405605038627982">
        <ele>56.859999999999999</ele>
        <time>2026-06-30T15:34:46Z</time>
      </trkpt>
      <trkpt lat="52.560128979384899" lon="-9.405363975092769">
        <ele>55.890000000000001</ele>
        <time>2026-06-30T15:34:47Z</time>
      </trkpt>
      <trkpt lat="52.560243979096413" lon="-9.405126012861729">
        <ele>55.409999999999997</ele>
        <time>2026-06-30T15:34:48Z</time>
      </trkpt>
      <trkpt lat="52.560361996293068" lon="-9.404883021488786">
        <ele>54.450000000000003</ele>
        <time>2026-06-30T15:34:49Z</time>
      </trkpt>
      <trkpt lat="52.560509014874697" lon="-9.404689986258745">
        <ele>53.490000000000002</ele>
        <time>2026-06-30T15:34:50Z</time>
      </trkpt>
      <trkpt lat="52.560661984607577" lon="-9.404524024575949">
        <ele>52.530000000000001</ele>
        <time>2026-06-30T15:34:51Z</time>
      </trkpt>
      <trkpt lat="52.56081897765398" lon="-9.404354961588979">
        <ele>51.57</ele>
        <time>2026-06-30T15:34:52Z</time>
      </trkpt>
      <trkpt lat="52.561121983453631" lon="-9.404026977717876">
        <ele>49.649999999999999</ele>
        <time>2026-06-30T15:34:54Z</time>
      </trkpt>
      <trkpt lat="52.561259027570486" lon="-9.403839977458119">
        <ele>48.68</ele>
        <time>2026-06-30T15:34:55Z</time>
      </trkpt>
      <trkpt lat="52.561391964554787" lon="-9.403639985248447">
        <ele>48.200000000000003</ele>
        <time>2026-06-30T15:34:56Z</time>
      </trkpt>
      <trkpt lat="52.561519034206867" lon="-9.403416020795703">
        <ele>47.240000000000002</ele>
        <time>2026-06-30T15:34:57Z</time>
      </trkpt>
      <trkpt lat="52.56163202226162" lon="-9.403169006109238">
        <ele>46.280000000000001</ele>
        <time>2026-06-30T15:34:58Z</time>
      </trkpt>
      <trkpt lat="52.562572974711657" lon="-9.40072501078248">
        <ele>35.710000000000001</ele>
        <time>2026-06-30T15:35:08Z</time>
      </trkpt>
      <trkpt lat="52.562639024108648" lon="-9.400472966954112">
        <ele>34.740000000000002</ele>
        <time>2026-06-30T15:35:09Z</time>
      </trkpt>
      <trkpt lat="52.563075972720981" lon="-9.397950014099479">
        <ele>28.5</ele>
        <time>2026-06-30T15:35:19Z</time>
      </trkpt>
      <trkpt lat="52.563705034554005" lon="-9.395623030140996">
        <ele>25.129999999999999</ele>
        <time>2026-06-30T15:35:28Z</time>
      </trkpt>
      <trkpt lat="52.56489903666079" lon="-9.392846021801233">
        <ele>23.690000000000001</ele>
        <time>2026-06-30T15:35:39Z</time>
      </trkpt>
      <trkpt lat="52.56573898717761" lon="-9.391439035534859">
        <ele>27.050000000000001</ele>
        <time>2026-06-30T15:35:46Z</time>
      </trkpt>
      <trkpt lat="52.565917018800974" lon="-9.391173999756575">
        <ele>28.98</ele>
        <time>2026-06-30T15:35:50Z</time>
      </trkpt>
      <trkpt lat="52.565941996872425" lon="-9.391136029735208">
        <ele>30.420000000000002</ele>
        <time>2026-06-30T15:36:02Z</time>
      </trkpt>
      <trkpt lat="52.565941996872425" lon="-9.391136029735208">
        <ele>30.420000000000002</ele>
        <time>2026-06-30T15:36:32Z</time>
      </trkpt>
      <trkpt lat="52.565958006307483" lon="-9.391112979501486">
        <ele>30.899999999999999</ele>
        <time>2026-06-30T15:37:02Z</time>
      </trkpt>
      <trkpt lat="52.565978961065412" lon="-9.391080960631371">
        <ele>30.420000000000002</ele>
        <time>2026-06-30T15:37:03Z</time>
      </trkpt>
      <trkpt lat="52.56601600907743" lon="-9.391026981174946">
        <ele>29.460000000000001</ele>
        <time>2026-06-30T15:37:04Z</time>
      </trkpt>
      <trkpt lat="52.566068982705474" lon="-9.39094802364707">
        <ele>29.460000000000001</ele>
        <time>2026-06-30T15:37:05Z</time>
      </trkpt>
      <trkpt lat="52.566132014617324" lon="-9.390853978693485">
        <ele>29.940000000000001</ele>
        <time>2026-06-30T15:37:06Z</time>
      </trkpt>
      <trkpt lat="52.566679017618299" lon="-9.389941021800041">
        <ele>29.940000000000001</ele>
        <time>2026-06-30T15:37:12Z</time>
      </trkpt>
      <trkpt lat="52.567828008905053" lon="-9.38798300921917">
        <ele>30.899999999999999</ele>
        <time>2026-06-30T15:37:22Z</time>
      </trkpt>
      <trkpt lat="52.569169029593468" lon="-9.386264970526099">
        <ele>29.460000000000001</ele>
        <time>2026-06-30T15:37:33Z</time>
      </trkpt>
      <trkpt lat="52.570235962048173" lon="-9.384850021451712">
        <ele>25.609999999999999</ele>
        <time>2026-06-30T15:37:42Z</time>
      </trkpt>
      <trkpt lat="52.571096029132605" lon="-9.383520986884832">
        <ele>23.210000000000001</ele>
        <time>2026-06-30T15:37:51Z</time>
      </trkpt>
      <trkpt lat="52.571437004953623" lon="-9.382983958348632">
        <ele>22.25</ele>
        <time>2026-06-30T15:37:55Z</time>
      </trkpt>
      <trkpt lat="52.571507999673486" lon="-9.382825959473848">
        <ele>22.25</ele>
        <time>2026-06-30T15:37:56Z</time>
      </trkpt>
      <trkpt lat="52.572050979360938" lon="-9.380884040147066">
        <ele>19.84</ele>
        <time>2026-06-30T15:38:07Z</time>
      </trkpt>
      <trkpt lat="52.572635030373931" lon="-9.378836005926132">
        <ele>18.399999999999999</ele>
        <time>2026-06-30T15:38:20Z</time>
      </trkpt>
      <trkpt lat="52.572961002588272" lon="-9.377711992710829">
        <ele>15.039999999999999</ele>
        <time>2026-06-30T15:38:28Z</time>
      </trkpt>
      <trkpt lat="52.572992015630007" lon="-9.377604033797979">
        <ele>14.56</ele>
        <time>2026-06-30T15:38:29Z</time>
      </trkpt>
      <trkpt lat="52.57297801785171" lon="-9.377479981631041">
        <ele>14.08</ele>
        <time>2026-06-30T15:38:30Z</time>
      </trkpt>
      <trkpt lat="52.572965025901794" lon="-9.377374034374952">
        <ele>13.6</ele>
        <time>2026-06-30T15:38:31Z</time>
      </trkpt>
      <trkpt lat="52.572953961789608" lon="-9.377276971936226">
        <ele>13.119999999999999</ele>
        <time>2026-06-30T15:38:32Z</time>
      </trkpt>
      <trkpt lat="52.572943987324834" lon="-9.377193991094828">
        <ele>13.119999999999999</ele>
        <time>2026-06-30T15:38:33Z</time>
      </trkpt>
      <trkpt lat="52.572851032018661" lon="-9.376622010022402">
        <ele>10.23</ele>
        <time>2026-06-30T15:38:43Z</time>
      </trkpt>
      <trkpt lat="52.572804009541869" lon="-9.376382036134601">
        <ele>9.75</ele>
        <time>2026-06-30T15:38:46Z</time>
      </trkpt>
      <trkpt lat="52.572790011763573" lon="-9.37629695981741">
        <ele>9.75</ele>
        <time>2026-06-30T15:38:47Z</time>
      </trkpt>
      <trkpt lat="52.572663025930524" lon="-9.375513000413775">
        <ele>11.67</ele>
        <time>2026-06-30T15:38:59Z</time>
      </trkpt>
      <trkpt lat="52.572521958500147" lon="-9.374652011319995">
        <ele>13.6</ele>
        <time>2026-06-30T15:39:09Z</time>
      </trkpt>
      <trkpt lat="52.572498992085457" lon="-9.37451396137476">
        <ele>14.56</ele>
        <time>2026-06-30T15:39:16Z</time>
      </trkpt>
      <trkpt lat="52.572480970993638" lon="-9.374521002173424">
        <ele>14.56</ele>
        <time>2026-06-30T15:39:17Z</time>
      </trkpt>
      <trkpt lat="52.572459010407329" lon="-9.374529970809817">
        <ele>15.039999999999999</ele>
        <time>2026-06-30T15:39:18Z</time>
      </trkpt>
      <trkpt lat="52.572435038164258" lon="-9.374541034922004">
        <ele>14.56</ele>
        <time>2026-06-30T15:39:19Z</time>
      </trkpt>
      <trkpt lat="52.572412993758917" lon="-9.374550003558397">
        <ele>14.56</ele>
        <time>2026-06-30T15:39:20Z</time>
      </trkpt>
      <trkpt lat="52.572392039000988" lon="-9.374558972194791">
        <ele>14.56</ele>
        <time>2026-06-30T15:39:21Z</time>
      </trkpt>
      <trkpt lat="52.572363959625363" lon="-9.374570036306977">
        <ele>14.56</ele>
        <time>2026-06-30T15:39:22Z</time>
      </trkpt>
      <trkpt lat="52.572325989603996" lon="-9.374585961923003">
        <ele>14.56</ele>
        <time>2026-06-30T15:39:23Z</time>
      </trkpt>
      <trkpt lat="52.571677984669805" lon="-9.374870024621487">
        <ele>15.52</ele>
        <time>2026-06-30T15:39:35Z</time>
      </trkpt>
      <trkpt lat="52.571261990815401" lon="-9.375055013224483">
        <ele>15.52</ele>
        <time>2026-06-30T15:39:43Z</time>
      </trkpt>
      <trkpt lat="52.571219997480512" lon="-9.375069011002779">
        <ele>15.52</ele>
        <time>2026-06-30T15:39:44Z</time>
      </trkpt>
      <trkpt lat="52.57117498666048" lon="-9.375084014609456">
        <ele>15.52</ele>
        <time>2026-06-30T15:39:45Z</time>
      </trkpt>
      <trkpt lat="52.571125030517578" lon="-9.375102035701275">
        <ele>15.52</ele>
        <time>2026-06-30T15:39:46Z</time>
      </trkpt>
      <trkpt lat="52.571069039404392" lon="-9.375120978802443">
        <ele>15.52</ele>
        <time>2026-06-30T15:39:47Z</time>
      </trkpt>
      <trkpt lat="52.570395972579718" lon="-9.37535097822547">
        <ele>14.08</ele>
        <time>2026-06-30T15:40:00Z</time>
      </trkpt>
      <trkpt lat="52.57029103115201" lon="-9.375333962962031">
        <ele>14.08</ele>
        <time>2026-06-30T15:40:02Z</time>
      </trkpt>
      <trkpt lat="52.57016496732831" lon="-9.375313008204103">
        <ele>13.119999999999999</ele>
        <time>2026-06-30T15:40:10Z</time>
      </trkpt>
      <trkpt lat="52.57016496732831" lon="-9.375313008204103">
        <ele>13.119999999999999</ele>
        <time>2026-06-30T15:40:49Z</time>
      </trkpt>
      <trkpt lat="52.57016496732831" lon="-9.375313008204103">
        <ele>13.119999999999999</ele>
        <time>2026-06-30T15:41:39Z</time>
      </trkpt>
      <trkpt lat="52.57016496732831" lon="-9.375313008204103">
        <ele>13.6</ele>
        <time>2026-06-30T15:42:23Z</time>
      </trkpt>
      <trkpt lat="52.57016496732831" lon="-9.375313008204103">
        <ele>13.6</ele>
        <time>2026-06-30T15:43:01Z</time>
      </trkpt>
      <trkpt lat="52.569985007867217" lon="-9.375284006819129">
        <ele>15.039999999999999</ele>
        <time>2026-06-30T15:43:29Z</time>
      </trkpt>
      <trkpt lat="52.569440016523004" lon="-9.375186022371054">
        <ele>14.56</ele>
        <time>2026-06-30T15:43:44Z</time>
      </trkpt>
      <trkpt lat="52.569277994334698" lon="-9.375149980187416">
        <ele>14.08</ele>
        <time>2026-06-30T15:43:54Z</time>
      </trkpt>
      <trkpt lat="52.56895998492837" lon="-9.375078985467553">
        <ele>14.08</ele>
        <time>2026-06-30T15:44:00Z</time>
      </trkpt>
      <trkpt lat="52.568698972463608" lon="-9.375020982697606">
        <ele>15.039999999999999</ele>
        <time>2026-06-30T15:44:07Z</time>
      </trkpt>
      <trkpt lat="52.568527981638908" lon="-9.374983012676239">
        <ele>14.56</ele>
        <time>2026-06-30T15:44:11Z</time>
      </trkpt>
      <trkpt lat="52.568484982475638" lon="-9.374973960220814">
        <ele>14.56</ele>
        <time>2026-06-30T15:44:12Z</time>
      </trkpt>
      <trkpt lat="52.568448018282652" lon="-9.374965997412801">
        <ele>14.08</ele>
        <time>2026-06-30T15:44:13Z</time>
      </trkpt>
      <trkpt lat="52.568417005240917" lon="-9.374959040433168">
        <ele>14.08</ele>
        <time>2026-06-30T15:44:14Z</time>
      </trkpt>
      <trkpt lat="52.568384986370802" lon="-9.374950993806124">
        <ele>13.6</ele>
        <time>2026-06-30T15:44:15Z</time>
      </trkpt>
      <trkpt lat="52.568352967500687" lon="-9.374944036826491">
        <ele>13.6</ele>
        <time>2026-06-30T15:44:16Z</time>
      </trkpt>
      <trkpt lat="52.568110981956124" lon="-9.374890979379416">
        <ele>13.119999999999999</ele>
        <time>2026-06-30T15:44:22Z</time>
      </trkpt>
      <trkpt lat="52.567655006423593" lon="-9.37483599409461">
        <ele>14.08</ele>
        <time>2026-06-30T15:44:32Z</time>
      </trkpt>
      <trkpt lat="52.56741302087903" lon="-9.37483599409461">
        <ele>15.039999999999999</ele>
        <time>2026-06-30T15:44:36Z</time>
      </trkpt>
      <trkpt lat="52.567228032276034" lon="-9.374915035441518">
        <ele>15.039999999999999</ele>
        <time>2026-06-30T15:44:39Z</time>
      </trkpt>
      <trkpt lat="52.566630989313126" lon="-9.375216029584408">
        <ele>14.08</ele>
        <time>2026-06-30T15:44:48Z</time>
      </trkpt>
      <trkpt lat="52.566510960459709" lon="-9.375284006819129">
        <ele>14.56</ele>
        <time>2026-06-30T15:44:50Z</time>
      </trkpt>
      <trkpt lat="52.565815011039376" lon="-9.375678040087223">
        <ele>14.56</ele>
        <time>2026-06-30T15:44:59Z</time>
      </trkpt>
      <trkpt lat="52.565142028033733" lon="-9.376041982322931">
        <ele>20.32</ele>
        <time>2026-06-30T15:45:08Z</time>
      </trkpt>
      <trkpt lat="52.56425597704947" lon="-9.376439033076167">
        <ele>23.210000000000001</ele>
        <time>2026-06-30T15:45:17Z</time>
      </trkpt>
      <trkpt lat="52.564167967066169" lon="-9.376434003934264">
        <ele>23.210000000000001</ele>
        <time>2026-06-30T15:45:18Z</time>
      </trkpt>
      <trkpt lat="52.564094038680196" lon="-9.376429980620742">
        <ele>23.690000000000001</ele>
        <time>2026-06-30T15:45:19Z</time>
      </trkpt>
      <trkpt lat="52.563852975144982" lon="-9.376415982842445">
        <ele>26.57</ele>
        <time>2026-06-30T15:45:26Z</time>
      </trkpt>
      <trkpt lat="52.563494984060526" lon="-9.376396033912897">
        <ele>29.460000000000001</ele>
        <time>2026-06-30T15:45:34Z</time>
      </trkpt>
      <trkpt lat="52.563378978520632" lon="-9.376388993114233">
        <ele>29.940000000000001</ele>
        <time>2026-06-30T15:45:36Z</time>
      </trkpt>
      <trkpt lat="52.563234977424145" lon="-9.37638103030622">
        <ele>30.420000000000002</ele>
        <time>2026-06-30T15:45:39Z</time>
      </trkpt>
      <trkpt lat="52.562616979703307" lon="-9.376422017812729">
        <ele>31.859999999999999</ele>
        <time>2026-06-30T15:45:48Z</time>
      </trkpt>
      <trkpt lat="52.561821034178138" lon="-9.376644976437092">
        <ele>32.340000000000003</ele>
        <time>2026-06-30T15:45:58Z</time>
      </trkpt>
      <trkpt lat="52.56133203394711" lon="-9.376782020553947">
        <ele>33.299999999999997</ele>
        <time>2026-06-30T15:46:04Z</time>
      </trkpt>
      <trkpt lat="52.561270007863641" lon="-9.376800041645765">
        <ele>33.299999999999997</ele>
        <time>2026-06-30T15:46:05Z</time>
      </trkpt>
      <trkpt lat="52.561233965680003" lon="-9.376810016110539">
        <ele>33.299999999999997</ele>
        <time>2026-06-30T15:46:06Z</time>
      </trkpt>
      <trkpt lat="52.561165988445282" lon="-9.376858966425061">
        <ele>33.299999999999997</ele>
        <time>2026-06-30T15:46:07Z</time>
      </trkpt>
      <trkpt lat="52.561109997332096" lon="-9.376899031922221">
        <ele>32.82</ele>
        <time>2026-06-30T15:46:08Z</time>
      </trkpt>
      <trkpt lat="52.56105400621891" lon="-9.376939013600349">
        <ele>33.299999999999997</ele>
        <time>2026-06-30T15:46:09Z</time>
      </trkpt>
      <trkpt lat="52.561001032590866" lon="-9.376977989450097">
        <ele>33.299999999999997</ele>
        <time>2026-06-30T15:46:10Z</time>
      </trkpt>
      <trkpt lat="52.560906987637281" lon="-9.377045966684818">
        <ele>33.299999999999997</ele>
        <time>2026-06-30T15:46:12Z</time>
      </trkpt>
      <trkpt lat="52.560846973210573" lon="-9.377088965848088">
        <ele>33.299999999999997</ele>
        <time>2026-06-30T15:46:13Z</time>
      </trkpt>
      <trkpt lat="52.560853008180857" lon="-9.377085026353598">
        <ele>33.780000000000001</ele>
        <time>2026-06-30T15:46:14Z</time>
      </trkpt>
      <trkpt lat="52.560846973210573" lon="-9.377088965848088">
        <ele>33.780000000000001</ele>
        <time>2026-06-30T15:46:15Z</time>
      </trkpt>
      <trkpt lat="52.56081503815949" lon="-9.377126013860107">
        <ele>34.259999999999998</ele>
        <time>2026-06-30T15:46:16Z</time>
      </trkpt>
      <trkpt lat="52.560792993754148" lon="-9.377151997759938">
        <ele>34.740000000000002</ele>
        <time>2026-06-30T15:46:17Z</time>
      </trkpt>
      <trkpt lat="52.560760974884033" lon="-9.377188961952925">
        <ele>34.740000000000002</ele>
        <time>2026-06-30T15:46:18Z</time>
      </trkpt>
      <trkpt lat="52.560528041794896" lon="-9.377461038529873">
        <ele>36.670000000000002</ele>
        <time>2026-06-30T15:46:23Z</time>
      </trkpt>
      <trkpt lat="52.559919012710452" lon="-9.378171991556883">
        <ele>41.469999999999999</ele>
        <time>2026-06-30T15:46:33Z</time>
      </trkpt>
      <trkpt lat="52.559817004948854" lon="-9.378290008753538">
        <ele>41.950000000000003</ele>
        <time>2026-06-30T15:46:35Z</time>
      </trkpt>
      <trkpt lat="52.559245023876429" lon="-9.378526965156198">
        <ele>42.920000000000002</ele>
        <time>2026-06-30T15:46:44Z</time>
      </trkpt>
      <trkpt lat="52.558508003130555" lon="-9.378655040636659">
        <ele>42.439999999999998</ele>
        <time>2026-06-30T15:46:52Z</time>
      </trkpt>
      <trkpt lat="52.557813981547952" lon="-9.378523025661707">
        <ele>40.030000000000001</ele>
        <time>2026-06-30T15:46:59Z</time>
      </trkpt>
      <trkpt lat="52.557047037407756" lon="-9.378363015130162">
        <ele>39.549999999999997</ele>
        <time>2026-06-30T15:47:07Z</time>
      </trkpt>
      <trkpt lat="52.557000014930964" lon="-9.378353962674737">
        <ele>39.549999999999997</ele>
        <time>2026-06-30T15:47:08Z</time>
      </trkpt>
      <trkpt lat="52.556855008006096" lon="-9.378323033452034">
        <ele>39.549999999999997</ele>
        <time>2026-06-30T15:47:11Z</time>
      </trkpt>
      <trkpt lat="52.55679901689291" lon="-9.378311969339848">
        <ele>40.030000000000001</ele>
        <time>2026-06-30T15:47:12Z</time>
      </trkpt>
      <trkpt lat="52.556733973324299" lon="-9.378297971561551">
        <ele>40.030000000000001</ele>
        <time>2026-06-30T15:47:13Z</time>
      </trkpt>
      <trkpt lat="52.556581003591418" lon="-9.378266036510468">
        <ele>39.549999999999997</ele>
        <time>2026-06-30T15:47:15Z</time>
      </trkpt>
      <trkpt lat="52.556499028578401" lon="-9.378249021247029">
        <ele>38.590000000000003</ele>
        <time>2026-06-30T15:47:16Z</time>
      </trkpt>
      <trkpt lat="52.556322002783418" lon="-9.378269976004958">
        <ele>37.630000000000003</ele>
        <time>2026-06-30T15:47:18Z</time>
      </trkpt>
      <trkpt lat="52.556227035820484" lon="-9.378282967954874">
        <ele>37.630000000000003</ele>
        <time>2026-06-30T15:47:19Z</time>
      </trkpt>
      <trkpt lat="52.556122010573745" lon="-9.378316998481751">
        <ele>37.630000000000003</ele>
        <time>2026-06-30T15:47:20Z</time>
      </trkpt>
      <trkpt lat="52.55600499920547" lon="-9.378382964059711">
        <ele>37.630000000000003</ele>
        <time>2026-06-30T15:47:21Z</time>
      </trkpt>
      <trkpt lat="52.555865021422505" lon="-9.378462005406618">
        <ele>37.630000000000003</ele>
        <time>2026-06-30T15:47:22Z</time>
      </trkpt>
      <trkpt lat="52.554422998800874" lon="-9.379276977851987">
        <ele>39.07</ele>
        <time>2026-06-30T15:47:31Z</time>
      </trkpt>
      <trkpt lat="52.552771009504795" lon="-9.380209967494011">
        <ele>48.200000000000003</ele>
        <time>2026-06-30T15:47:41Z</time>
      </trkpt>
      <trkpt lat="52.550701014697552" lon="-9.38121403567493">
        <ele>59.740000000000002</ele>
        <time>2026-06-30T15:47:53Z</time>
      </trkpt>
      <trkpt lat="52.548601012676954" lon="-9.382221037521958">
        <ele>66.950000000000003</ele>
        <time>2026-06-30T15:48:05Z</time>
      </trkpt>
      <trkpt lat="52.546325996518135" lon="-9.382925033569336">
        <ele>69.829999999999998</ele>
        <time>2026-06-30T15:48:17Z</time>
      </trkpt>
      <trkpt lat="52.544649029150605" lon="-9.382807016372681">
        <ele>70.310000000000002</ele>
        <time>2026-06-30T15:48:26Z</time>
      </trkpt>
      <trkpt lat="52.542735021561384" lon="-9.38267701305449">
        <ele>69.829999999999998</ele>
        <time>2026-06-30T15:48:36Z</time>
      </trkpt>
      <trkpt lat="52.540463022887707" lon="-9.383070962503552">
        <ele>63.100000000000001</ele>
        <time>2026-06-30T15:48:47Z</time>
      </trkpt>
      <trkpt lat="52.538147019222379" lon="-9.383739000186324">
        <ele>60.219999999999999</ele>
        <time>2026-06-30T15:48:58Z</time>
      </trkpt>
      <trkpt lat="52.534446995705366" lon="-9.384848009794951">
        <ele>60.219999999999999</ele>
        <time>2026-06-30T15:49:15Z</time>
      </trkpt>
      <trkpt lat="52.530911006033421" lon="-9.385871021077037">
        <ele>57.82</ele>
        <time>2026-06-30T15:49:30Z</time>
      </trkpt>
      <trkpt lat="52.527860999107361" lon="-9.386827982962132">
        <ele>58.299999999999997</ele>
        <time>2026-06-30T15:49:43Z</time>
      </trkpt>
      <trkpt lat="52.524741003289819" lon="-9.387856023386121">
        <ele>58.780000000000001</ele>
        <time>2026-06-30T15:49:57Z</time>
      </trkpt>
      <trkpt lat="52.521509025245905" lon="-9.389339033514261">
        <ele>55.890000000000001</ele>
        <time>2026-06-30T15:50:11Z</time>
      </trkpt>
      <trkpt lat="52.518322980031371" lon="-9.390885997563601">
        <ele>49.649999999999999</ele>
        <time>2026-06-30T15:50:25Z</time>
      </trkpt>
      <trkpt lat="52.516964022070169" lon="-9.391521010547876">
        <ele>47.719999999999999</ele>
        <time>2026-06-30T15:50:32Z</time>
      </trkpt>
      <trkpt lat="52.515322007238865" lon="-9.392308993265033">
        <ele>46.759999999999998</ele>
        <time>2026-06-30T15:50:42Z</time>
      </trkpt>
      <trkpt lat="52.514597978442907" lon="-9.392660027369857">
        <ele>46.759999999999998</ele>
        <time>2026-06-30T15:50:48Z</time>
      </trkpt>
      <trkpt lat="52.514541987329721" lon="-9.39268802292645">
        <ele>46.280000000000001</ele>
        <time>2026-06-30T15:50:49Z</time>
      </trkpt>
      <trkpt lat="52.51445297151804" lon="-9.392598001286387">
        <ele>45.799999999999997</ele>
        <time>2026-06-30T15:50:50Z</time>
      </trkpt>
      <trkpt lat="52.514415001496673" lon="-9.392505967989564">
        <ele>45.32</ele>
        <time>2026-06-30T15:50:51Z</time>
      </trkpt>
      <trkpt lat="52.5143669731915" lon="-9.39238996244967">
        <ele>45.32</ele>
        <time>2026-06-30T15:50:52Z</time>
      </trkpt>
      <trkpt lat="52.514309976249933" lon="-9.392249984666705">
        <ele>44.840000000000003</ele>
        <time>2026-06-30T15:50:53Z</time>
      </trkpt>
      <trkpt lat="52.513814019039273" lon="-9.391045002266765">
        <ele>43.880000000000003</ele>
        <time>2026-06-30T15:50:59Z</time>
      </trkpt>
      <trkpt lat="52.512784972786903" lon="-9.38854199834168">
        <ele>43.399999999999999</ele>
        <time>2026-06-30T15:51:09Z</time>
      </trkpt>
      <trkpt lat="52.511315038427711" lon="-9.384967032819986">
        <ele>47.240000000000002</ele>
        <time>2026-06-30T15:51:24Z</time>
      </trkpt>
      <trkpt lat="52.510362016037107" lon="-9.382650023326278">
        <ele>53.969999999999999</ele>
        <time>2026-06-30T15:51:33Z</time>
      </trkpt>
      <trkpt lat="52.509569004178047" lon="-9.38072101213038">
        <ele>60.700000000000003</ele>
        <time>2026-06-30T15:51:41Z</time>
      </trkpt>
      <trkpt lat="52.508293027058244" lon="-9.377621971070766">
        <ele>65.030000000000001</ele>
        <time>2026-06-30T15:51:54Z</time>
      </trkpt>
      <trkpt lat="52.50710497610271" lon="-9.374717976897955">
        <ele>65.510000000000005</ele>
        <time>2026-06-30T15:52:06Z</time>
      </trkpt>
      <trkpt lat="52.505953973159194" lon="-9.371985979378223">
        <ele>59.740000000000002</ele>
        <time>2026-06-30T15:52:17Z</time>
      </trkpt>
      <trkpt lat="52.505501015111804" lon="-9.370970008894801">
        <ele>59.740000000000002</ele>
        <time>2026-06-30T15:52:23Z</time>
      </trkpt>
      <trkpt lat="52.505389032885432" lon="-9.370600031688809">
        <ele>63.579999999999998</ele>
        <time>2026-06-30T15:52:29Z</time>
      </trkpt>
      <trkpt lat="52.505334969609976" lon="-9.370438009500504">
        <ele>65.989999999999995</ele>
        <time>2026-06-30T15:52:44Z</time>
      </trkpt>
      <trkpt lat="52.505289958789945" lon="-9.370441026985645">
        <ele>66.469999999999999</ele>
        <time>2026-06-30T15:52:45Z</time>
      </trkpt>
      <trkpt lat="52.505218964070082" lon="-9.370444966480136">
        <ele>66.950000000000003</ele>
        <time>2026-06-30T15:52:46Z</time>
      </trkpt>
      <trkpt lat="52.505132965743542" lon="-9.370449995622039">
        <ele>67.430000000000007</ele>
        <time>2026-06-30T15:52:47Z</time>
      </trkpt>
      <trkpt lat="52.505034981295466" lon="-9.370456030592322">
        <ele>67.430000000000007</ele>
        <time>2026-06-30T15:52:48Z</time>
      </trkpt>
      <trkpt lat="52.504073996096849" lon="-9.37051503919065">
        <ele>66.950000000000003</ele>
        <time>2026-06-30T15:52:56Z</time>
      </trkpt>
      <trkpt lat="52.503189034759998" lon="-9.370561977848411">
        <ele>66.950000000000003</ele>
        <time>2026-06-30T15:53:04Z</time>
      </trkpt>
      <trkpt lat="52.503092978149652" lon="-9.370566001161933">
        <ele>66.950000000000003</ele>
        <time>2026-06-30T15:53:05Z</time>
      </trkpt>
      <trkpt lat="52.501940969377756" lon="-9.370617968961597">
        <ele>63.579999999999998</ele>
        <time>2026-06-30T15:53:18Z</time>
      </trkpt>
      <trkpt lat="52.500740010291338" lon="-9.370600031688809">
        <ele>62.140000000000001</ele>
        <time>2026-06-30T15:53:30Z</time>
      </trkpt>
      <trkpt lat="52.499967031180859" lon="-9.370587961748242">
        <ele>62.619999999999997</ele>
        <time>2026-06-30T15:53:37Z</time>
      </trkpt>
      <trkpt lat="52.498633973300457" lon="-9.370602965354919">
        <ele>56.859999999999999</ele>
        <time>2026-06-30T15:53:47Z</time>
      </trkpt>
      <trkpt lat="52.4970499612391" lon="-9.370615035295487">
        <ele>56.369999999999997</ele>
        <time>2026-06-30T15:53:56Z</time>
      </trkpt>
      <trkpt lat="52.494693975895643" lon="-9.370630038902164">
        <ele>50.130000000000003</ele>
        <time>2026-06-30T15:54:09Z</time>
      </trkpt>
      <trkpt lat="52.492893040180206" lon="-9.370630038902164">
        <ele>47.719999999999999</ele>
        <time>2026-06-30T15:54:19Z</time>
      </trkpt>
      <trkpt lat="52.491169972345233" lon="-9.370639007538557">
        <ele>45.32</ele>
        <time>2026-06-30T15:54:29Z</time>
      </trkpt>
      <trkpt lat="52.488579964265227" lon="-9.370656022801995">
        <ele>44.840000000000003</ele>
        <time>2026-06-30T15:54:43Z</time>
      </trkpt>
      <trkpt lat="52.486573001369834" lon="-9.370669014751911">
        <ele>42.920000000000002</ele>
        <time>2026-06-30T15:54:54Z</time>
      </trkpt>
      <trkpt lat="52.483674036338925" lon="-9.370706984773278">
        <ele>40.990000000000002</ele>
        <time>2026-06-30T15:55:09Z</time>
      </trkpt>
      <trkpt lat="52.481190981343389" lon="-9.370696004480124">
        <ele>40.509999999999998</ele>
        <time>2026-06-30T15:55:22Z</time>
      </trkpt>
      <trkpt lat="52.479248978197575" lon="-9.370730035007">
        <ele>42.439999999999998</ele>
        <time>2026-06-30T15:55:33Z</time>
      </trkpt>
      <trkpt lat="52.477867975831032" lon="-9.370643030852079">
        <ele>43.399999999999999</ele>
        <time>2026-06-30T15:55:41Z</time>
      </trkpt>
      <trkpt lat="52.477107988670468" lon="-9.370727017521858">
        <ele>42.920000000000002</ele>
        <time>2026-06-30T15:55:46Z</time>
      </trkpt>
      <trkpt lat="52.477014027535915" lon="-9.370745038613677">
        <ele>42.920000000000002</ele>
        <time>2026-06-30T15:55:47Z</time>
      </trkpt>
      <trkpt lat="52.476926017552614" lon="-9.370762975886464">
        <ele>42.439999999999998</ele>
        <time>2026-06-30T15:55:48Z</time>
      </trkpt>
      <trkpt lat="52.476798025891185" lon="-9.370587039738894">
        <ele>42.439999999999998</ele>
        <time>2026-06-30T15:55:49Z</time>
      </trkpt>
      <trkpt lat="52.476738011464477" lon="-9.370455024763942">
        <ele>42.439999999999998</ele>
        <time>2026-06-30T15:55:50Z</time>
      </trkpt>
      <trkpt lat="52.476667016744614" lon="-9.370297025889158">
        <ele>41.950000000000003</ele>
        <time>2026-06-30T15:55:51Z</time>
      </trkpt>
      <trkpt lat="52.476598033681512" lon="-9.370111031457782">
        <ele>42.439999999999998</ele>
        <time>2026-06-30T15:55:52Z</time>
      </trkpt>
      <trkpt lat="52.476569032296538" lon="-9.369897963479161">
        <ele>42.439999999999998</ele>
        <time>2026-06-30T15:55:53Z</time>
      </trkpt>
      <trkpt lat="52.476540030911565" lon="-9.369685985147953">
        <ele>42.920000000000002</ele>
        <time>2026-06-30T15:55:54Z</time>
      </trkpt>
      <trkpt lat="52.476540030911565" lon="-9.369423966854811">
        <ele>43.399999999999999</ele>
        <time>2026-06-30T15:55:55Z</time>
      </trkpt>
      <trkpt lat="52.476540030911565" lon="-9.369165971875191">
        <ele>43.399999999999999</ele>
        <time>2026-06-30T15:55:56Z</time>
      </trkpt>
      <trkpt lat="52.476628040894866" lon="-9.366334984079003">
        <ele>46.280000000000001</ele>
        <time>2026-06-30T15:56:06Z</time>
      </trkpt>
      <trkpt lat="52.476541958749294" lon="-9.364047981798649">
        <ele>46.759999999999998</ele>
        <time>2026-06-30T15:56:14Z</time>
      </trkpt>
      <trkpt lat="52.476307014003396" lon="-9.361369963735342">
        <ele>50.609999999999999</ele>
        <time>2026-06-30T15:56:23Z</time>
      </trkpt>
      <trkpt lat="52.475774008780718" lon="-9.357301974669099">
        <ele>51.57</ele>
        <time>2026-06-30T15:56:37Z</time>
      </trkpt>
      <trkpt lat="52.475080993026495" lon="-9.353571021929383">
        <ele>51.090000000000003</ele>
        <time>2026-06-30T15:56:49Z</time>
      </trkpt>
      <trkpt lat="52.474154960364103" lon="-9.350768029689789">
        <ele>52.049999999999997</ele>
        <time>2026-06-30T15:56:59Z</time>
      </trkpt>
      <trkpt lat="52.473386004567146" lon="-9.347390960901976">
        <ele>53.009999999999998</ele>
        <time>2026-06-30T15:57:10Z</time>
      </trkpt>
      <trkpt lat="52.472747974097729" lon="-9.345511989668012">
        <ele>55.890000000000001</ele>
        <time>2026-06-30T15:57:17Z</time>
      </trkpt>
      <trkpt lat="52.471755975857377" lon="-9.343699989840388">
        <ele>53.009999999999998</ele>
        <time>2026-06-30T15:57:25Z</time>
      </trkpt>
      <trkpt lat="52.470808988437057" lon="-9.341354984790087">
        <ele>52.530000000000001</ele>
        <time>2026-06-30T15:57:34Z</time>
      </trkpt>
      <trkpt lat="52.470238013193011" lon="-9.338973015546799">
        <ele>53.009999999999998</ele>
        <time>2026-06-30T15:57:42Z</time>
      </trkpt>
      <trkpt lat="52.47017003595829" lon="-9.338349988684058">
        <ele>53.009999999999998</ele>
        <time>2026-06-30T15:57:44Z</time>
      </trkpt>
      <trkpt lat="52.470094012096524" lon="-9.337413981556892">
        <ele>53.009999999999998</ele>
        <time>2026-06-30T15:57:47Z</time>
      </trkpt>
      <trkpt lat="52.470124019309878" lon="-9.337118016555905">
        <ele>53.009999999999998</ele>
        <time>2026-06-30T15:57:48Z</time>
      </trkpt>
      <trkpt lat="52.470421995967627" lon="-9.334398005157709">
        <ele>54.450000000000003</ele>
        <time>2026-06-30T15:57:57Z</time>
      </trkpt>
      <trkpt lat="52.470856010913849" lon="-9.330770988017321">
        <ele>55.890000000000001</ele>
        <time>2026-06-30T15:58:09Z</time>
      </trkpt>
      <trkpt lat="52.470752997323871" lon="-9.328510975465179">
        <ele>56.369999999999997</ele>
        <time>2026-06-30T15:58:16Z</time>
      </trkpt>
      <trkpt lat="52.470184033736587" lon="-9.326408039778471">
        <ele>55.890000000000001</ele>
        <time>2026-06-30T15:58:23Z</time>
      </trkpt>
      <trkpt lat="52.469850014895201" lon="-9.325361978262663">
        <ele>54.450000000000003</ele>
        <time>2026-06-30T15:58:27Z</time>
      </trkpt>
      <trkpt lat="52.469771979376674" lon="-9.325116975232959">
        <ele>54.450000000000003</ele>
        <time>2026-06-30T15:58:28Z</time>
      </trkpt>
      <trkpt lat="52.469721017405391" lon="-9.324869038537145">
        <ele>54.450000000000003</ele>
        <time>2026-06-30T15:58:29Z</time>
      </trkpt>
      <trkpt lat="52.469688998535275" lon="-9.324596039950848">
        <ele>54.450000000000003</ele>
        <time>2026-06-30T15:58:30Z</time>
      </trkpt>
      <trkpt lat="52.46965697966516" lon="-9.324321029707789">
        <ele>54.450000000000003</ele>
        <time>2026-06-30T15:58:31Z</time>
      </trkpt>
      <trkpt lat="52.469624960795045" lon="-9.324046019464731">
        <ele>54.450000000000003</ele>
        <time>2026-06-30T15:58:32Z</time>
      </trkpt>
      <trkpt lat="52.469615992158651" lon="-9.323772015050054">
        <ele>54.450000000000003</ele>
        <time>2026-06-30T15:58:33Z</time>
      </trkpt>
      <trkpt lat="52.469628984108567" lon="-9.323487030342221">
        <ele>54.450000000000003</ele>
        <time>2026-06-30T15:58:34Z</time>
      </trkpt>
      <trkpt lat="52.469776002690196" lon="-9.320299979299307">
        <ele>58.780000000000001</ele>
        <time>2026-06-30T15:58:45Z</time>
      </trkpt>
      <trkpt lat="52.469951016828418" lon="-9.316499037668109">
        <ele>63.579999999999998</ele>
        <time>2026-06-30T15:58:58Z</time>
      </trkpt>
      <trkpt lat="52.47008697129786" lon="-9.313375018537045">
        <ele>65.510000000000005</ele>
        <time>2026-06-30T15:59:08Z</time>
      </trkpt>
      <trkpt lat="52.470243964344263" lon="-9.30934701114893">
        <ele>67.909999999999997</ele>
        <time>2026-06-30T15:59:21Z</time>
      </trkpt>
      <trkpt lat="52.470145979896188" lon="-9.306027023121715">
        <ele>69.829999999999998</ele>
        <time>2026-06-30T15:59:32Z</time>
      </trkpt>
      <trkpt lat="52.469567963853478" lon="-9.302994031459093">
        <ele>72.239999999999995</ele>
        <time>2026-06-30T15:59:42Z</time>
      </trkpt>
      <trkpt lat="52.468804959207773" lon="-9.300400000065565">
        <ele>74.640000000000001</ele>
        <time>2026-06-30T15:59:51Z</time>
      </trkpt>
      <trkpt lat="52.467778008431196" lon="-9.298612978309393">
        <ele>75.599999999999994</ele>
        <time>2026-06-30T15:59:59Z</time>
      </trkpt>
      <trkpt lat="52.466522986069322" lon="-9.296789998188615">
        <ele>78.969999999999999</ele>
        <time>2026-06-30T16:00:09Z</time>
      </trkpt>
      <trkpt lat="52.464985996484756" lon="-9.2950189858675">
        <ele>78.480000000000004</ele>
        <time>2026-06-30T16:00:20Z</time>
      </trkpt>
      <trkpt lat="52.463907999917865" lon="-9.29409203119576">
        <ele>80.409999999999997</ele>
        <time>2026-06-30T16:00:30Z</time>
      </trkpt>
      <trkpt lat="52.462730007246137" lon="-9.293056027963758">
        <ele>80.890000000000001</ele>
        <time>2026-06-30T16:00:42Z</time>
      </trkpt>
      <trkpt lat="52.461591996252537" lon="-9.291757000610232">
        <ele>80.409999999999997</ele>
        <time>2026-06-30T16:00:53Z</time>
      </trkpt>
      <trkpt lat="52.461154963821173" lon="-9.290899029001594">
        <ele>79.450000000000003</ele>
        <time>2026-06-30T16:01:00Z</time>
      </trkpt>
      <trkpt lat="52.461110036820173" lon="-9.290791992098093">
        <ele>78.969999999999999</ele>
        <time>2026-06-30T16:01:02Z</time>
      </trkpt>
      <trkpt lat="52.461099978536367" lon="-9.290711022913456">
        <ele>78.480000000000004</ele>
        <time>2026-06-30T16:01:03Z</time>
      </trkpt>
      <trkpt lat="52.461085980758071" lon="-9.290601974353194">
        <ele>78</ele>
        <time>2026-06-30T16:01:04Z</time>
      </trkpt>
      <trkpt lat="52.461069971323013" lon="-9.290477000176907">
        <ele>77.519999999999996</ele>
        <time>2026-06-30T16:01:05Z</time>
      </trkpt>
      <trkpt lat="52.461053961887956" lon="-9.290353031829">
        <ele>77.519999999999996</ele>
        <time>2026-06-30T16:01:06Z</time>
      </trkpt>
      <trkpt lat="52.461037030443549" lon="-9.29022797383368">
        <ele>77.519999999999996</ele>
        <time>2026-06-30T16:01:07Z</time>
      </trkpt>
      <trkpt lat="52.461021021008492" lon="-9.290102999657393">
        <ele>77.519999999999996</ele>
        <time>2026-06-30T16:01:08Z</time>
      </trkpt>
      <trkpt lat="52.460853969678283" lon="-9.288810007274151">
        <ele>76.079999999999998</ele>
        <time>2026-06-30T16:01:17Z</time>
      </trkpt>
      <trkpt lat="52.46078004129231" lon="-9.288280019536614">
        <ele>74.159999999999997</ele>
        <time>2026-06-30T16:01:23Z</time>
      </trkpt>
      <trkpt lat="52.460766965523362" lon="-9.288198966532946">
        <ele>73.680000000000007</ele>
        <time>2026-06-30T16:01:24Z</time>
      </trkpt>
      <trkpt lat="52.46069697663188" lon="-9.287146031856537">
        <ele>70.310000000000002</ele>
        <time>2026-06-30T16:01:32Z</time>
      </trkpt>
      <trkpt lat="52.460704017430544" lon="-9.286880996078253">
        <ele>70.790000000000006</ele>
        <time>2026-06-30T16:01:34Z</time>
      </trkpt>
      <trkpt lat="52.460784986615181" lon="-9.286239026114345">
        <ele>70.790000000000006</ele>
        <time>2026-06-30T16:01:40Z</time>
      </trkpt>
      <trkpt lat="52.460790015757084" lon="-9.286194015294313">
        <ele>70.790000000000006</ele>
        <time>2026-06-30T16:01:41Z</time>
      </trkpt>
      <trkpt lat="52.460802001878619" lon="-9.286081027239561">
        <ele>71.269999999999996</ele>
        <time>2026-06-30T16:01:48Z</time>
      </trkpt>
      <trkpt lat="52.460806025192142" lon="-9.286032998934388">
        <ele>70.790000000000006</ele>
        <time>2026-06-30T16:01:59Z</time>
      </trkpt>
      <trkpt lat="52.460810970515013" lon="-9.285984970629215">
        <ele>70.310000000000002</ele>
        <time>2026-06-30T16:02:00Z</time>
      </trkpt>
      <trkpt lat="52.460810970515013" lon="-9.285984970629215">
        <ele>70.310000000000002</ele>
        <time>2026-06-30T16:02:01Z</time>
      </trkpt>
      <trkpt lat="52.460810970515013" lon="-9.285984970629215">
        <ele>69.829999999999998</ele>
        <time>2026-06-30T16:02:02Z</time>
      </trkpt>
      <trkpt lat="52.460810970515013" lon="-9.285984970629215">
        <ele>69.349999999999994</ele>
        <time>2026-06-30T16:02:21Z</time>
      </trkpt>
      <trkpt lat="52.460810970515013" lon="-9.285984970629215">
        <ele>68.870000000000005</ele>
        <time>2026-06-30T16:03:09Z</time>
      </trkpt>
      <trkpt lat="52.460810970515013" lon="-9.285984970629215">
        <ele>68.390000000000001</ele>
        <time>2026-06-30T16:03:50Z</time>
      </trkpt>
      <trkpt lat="52.460810970515013" lon="-9.285984970629215">
        <ele>67.909999999999997</ele>
        <time>2026-06-30T16:04:40Z</time>
      </trkpt>
      <trkpt lat="52.460810970515013" lon="-9.285984970629215">
        <ele>68.390000000000001</ele>
        <time>2026-06-30T16:05:28Z</time>
      </trkpt>
      <trkpt lat="52.460850030183792" lon="-9.285549027845264">
        <ele>68.390000000000001</ele>
        <time>2026-06-30T16:05:58Z</time>
      </trkpt>
      <trkpt lat="52.460860004648566" lon="-9.285435033962131">
        <ele>68.870000000000005</ele>
        <time>2026-06-30T16:05:59Z</time>
      </trkpt>
      <trkpt lat="52.460961006581783" lon="-9.284031987190247">
        <ele>71.760000000000005</ele>
        <time>2026-06-30T16:06:08Z</time>
      </trkpt>
      <trkpt lat="52.460970981046557" lon="-9.283860996365547">
        <ele>72.719999999999999</ele>
        <time>2026-06-30T16:06:09Z</time>
      </trkpt>
      <trkpt lat="52.461035018786788" lon="-9.28298600949347">
        <ele>77.040000000000006</ele>
        <time>2026-06-30T16:06:14Z</time>
      </trkpt>
      <trkpt lat="52.461051028221846" lon="-9.282795991748571">
        <ele>77.519999999999996</ele>
        <time>2026-06-30T16:06:15Z</time>
      </trkpt>
      <trkpt lat="52.461202992126346" lon="-9.280435983091593">
        <ele>88.099999999999994</ele>
        <time>2026-06-30T16:06:26Z</time>
      </trkpt>
      <trkpt lat="52.461331989616156" lon="-9.278263980522752">
        <ele>98.670000000000002</ele>
        <time>2026-06-30T16:06:35Z</time>
      </trkpt>
      <trkpt lat="52.461345987394452" lon="-9.278033981099725">
        <ele>100.11</ele>
        <time>2026-06-30T16:06:36Z</time>
      </trkpt>
      <trkpt lat="52.461393009871244" lon="-9.277799036353827">
        <ele>101.08</ele>
        <time>2026-06-30T16:06:37Z</time>
      </trkpt>
      <trkpt lat="52.461916040629148" lon="-9.275467023253441">
        <ele>109.73</ele>
        <time>2026-06-30T16:06:46Z</time>
      </trkpt>
      <trkpt lat="52.462749034166336" lon="-9.271761970594525">
        <ele>116.45999999999999</ele>
        <time>2026-06-30T16:07:00Z</time>
      </trkpt>
      <trkpt lat="52.463456969708204" lon="-9.268654966726899">
        <ele>119.81999999999999</ele>
        <time>2026-06-30T16:07:10Z</time>
      </trkpt>
      <trkpt lat="52.464160965755582" lon="-9.265572018921375">
        <ele>127.51000000000001</ele>
        <time>2026-06-30T16:07:20Z</time>
      </trkpt>
      <trkpt lat="52.465190012007952" lon="-9.261120976880193">
        <ele>131.84</ele>
        <time>2026-06-30T16:07:35Z</time>
      </trkpt>
      <trkpt lat="52.465980006381869" lon="-9.257656987756491">
        <ele>132.31999999999999</ele>
        <time>2026-06-30T16:07:47Z</time>
      </trkpt>
      <trkpt lat="52.466621976345778" lon="-9.254202973097563">
        <ele>132.80000000000001</ele>
        <time>2026-06-30T16:07:58Z</time>
      </trkpt>
      <trkpt lat="52.467087004333735" lon="-9.250841997563839">
        <ele>124.15000000000001</ele>
        <time>2026-06-30T16:08:09Z</time>
      </trkpt>
      <trkpt lat="52.467564018443227" lon="-9.247459983453155">
        <ele>128.47</ele>
        <time>2026-06-30T16:08:20Z</time>
      </trkpt>
      <trkpt lat="52.468170030042529" lon="-9.243160989135504">
        <ele>143.37</ele>
        <time>2026-06-30T16:08:34Z</time>
      </trkpt>
      <trkpt lat="52.468669004738331" lon="-9.239622987806797">
        <ele>149.13999999999999</ele>
        <time>2026-06-30T16:08:45Z</time>
      </trkpt>
      <trkpt lat="52.469125986099243" lon="-9.237021999433637">
        <ele>152.03</ele>
        <time>2026-06-30T16:08:54Z</time>
      </trkpt>
      <trkpt lat="52.469926038756967" lon="-9.23326900228858">
        <ele>153.94999999999999</ele>
        <time>2026-06-30T16:09:06Z</time>
      </trkpt>
      <trkpt lat="52.470383020117879" lon="-9.231123989447951">
        <ele>155.38999999999999</ele>
        <time>2026-06-30T16:09:14Z</time>
      </trkpt>
      <trkpt lat="52.470889035612345" lon="-9.228750988841057">
        <ele>157.31</ele>
        <time>2026-06-30T16:09:22Z</time>
      </trkpt>
      <trkpt lat="52.471471996977925" lon="-9.226157963275909">
        <ele>154.43000000000001</ele>
        <time>2026-06-30T16:09:31Z</time>
      </trkpt>
      <trkpt lat="52.472348995506763" lon="-9.22237697057426">
        <ele>148.66</ele>
        <time>2026-06-30T16:09:44Z</time>
      </trkpt>
      <trkpt lat="52.473225994035602" lon="-9.218593966215849">
        <ele>144.81999999999999</ele>
        <time>2026-06-30T16:09:57Z</time>
      </trkpt>
      <trkpt lat="52.47410299256444" lon="-9.214729992672801">
        <ele>147.69999999999999</ele>
        <time>2026-06-30T16:10:10Z</time>
      </trkpt>
      <trkpt lat="52.475007986649871" lon="-9.210867024958134">
        <ele>155.38999999999999</ele>
        <time>2026-06-30T16:10:23Z</time>
      </trkpt>
      <trkpt lat="52.475847015157342" lon="-9.207239001989365">
        <ele>163.08000000000001</ele>
        <time>2026-06-30T16:10:36Z</time>
      </trkpt>
      <trkpt lat="52.476685959845781" lon="-9.203584995120764">
        <ele>172.69</ele>
        <time>2026-06-30T16:10:48Z</time>
      </trkpt>
      <trkpt lat="52.477796981111169" lon="-9.198749978095293">
        <ele>188.08000000000001</ele>
        <time>2026-06-30T16:11:03Z</time>
      </trkpt>
      <trkpt lat="52.478567026555538" lon="-9.195466032251716">
        <ele>194.80000000000001</ele>
        <time>2026-06-30T16:11:14Z</time>
      </trkpt>
      <trkpt lat="52.479299018159509" lon="-9.192822966724634">
        <ele>196.25</ele>
        <time>2026-06-30T16:11:23Z</time>
      </trkpt>
      <trkpt lat="52.479868987575173" lon="-9.191132001578808">
        <ele>195.28</ele>
        <time>2026-06-30T16:11:29Z</time>
      </trkpt>
      <trkpt lat="52.480006031692028" lon="-9.190905019640923">
        <ele>195.28</ele>
        <time>2026-06-30T16:11:30Z</time>
      </trkpt>
      <trkpt lat="52.481648968532681" lon="-9.188282992690802">
        <ele>199.61000000000001</ele>
        <time>2026-06-30T16:11:41Z</time>
      </trkpt>
      <trkpt lat="52.483097026124597" lon="-9.186450038105249">
        <ele>203.46000000000001</ele>
        <time>2026-06-30T16:11:50Z</time>
      </trkpt>
      <trkpt lat="52.485156962648034" lon="-9.184122970327735">
        <ele>211.63</ele>
        <time>2026-06-30T16:12:02Z</time>
      </trkpt>
      <trkpt lat="52.48697298578918" lon="-9.18207099661231">
        <ele>222.68000000000001</ele>
        <time>2026-06-30T16:12:13Z</time>
      </trkpt>
      <trkpt lat="52.488789008930326" lon="-9.179829005151987">
        <ele>230.37</ele>
        <time>2026-06-30T16:12:25Z</time>
      </trkpt>
      <trkpt lat="52.489582020789385" lon="-9.178358986973763">
        <ele>233.25999999999999</ele>
        <time>2026-06-30T16:12:31Z</time>
      </trkpt>
      <trkpt lat="52.489672964438796" lon="-9.178080037236214">
        <ele>233.25999999999999</ele>
        <time>2026-06-30T16:12:32Z</time>
      </trkpt>
      <trkpt lat="52.490253997966647" lon="-9.175705024972558">
        <ele>233.25999999999999</ele>
        <time>2026-06-30T16:12:41Z</time>
      </trkpt>
      <trkpt lat="52.490290040150285" lon="-9.175267992541194">
        <ele>233.25999999999999</ele>
        <time>2026-06-30T16:12:43Z</time>
      </trkpt>
      <trkpt lat="52.490273024886847" lon="-9.175090966746211">
        <ele>233.25999999999999</ele>
        <time>2026-06-30T16:12:44Z</time>
      </trkpt>
      <trkpt lat="52.490245029330254" lon="-9.174933973699808">
        <ele>233.25999999999999</ele>
        <time>2026-06-30T16:12:45Z</time>
      </trkpt>
      <trkpt lat="52.490204041823745" lon="-9.174813022837043">
        <ele>233.25999999999999</ele>
        <time>2026-06-30T16:12:46Z</time>
      </trkpt>
      <trkpt lat="52.490122988820076" lon="-9.174700034782291">
        <ele>233.25999999999999</ele>
        <time>2026-06-30T16:12:47Z</time>
      </trkpt>
      <trkpt lat="52.490017041563988" lon="-9.17461596429348">
        <ele>233.25999999999999</ele>
        <time>2026-06-30T16:12:48Z</time>
      </trkpt>
      <trkpt lat="52.489902041852474" lon="-9.174524014815688">
        <ele>233.25999999999999</ele>
        <time>2026-06-30T16:12:49Z</time>
      </trkpt>
      <trkpt lat="52.489410024136305" lon="-9.174134004861116">
        <ele>233.74000000000001</ele>
        <time>2026-06-30T16:12:53Z</time>
      </trkpt>
      <trkpt lat="52.489326037466526" lon="-9.174011964350939">
        <ele>233.74000000000001</ele>
        <time>2026-06-30T16:12:54Z</time>
      </trkpt>
      <trkpt lat="52.489280020818114" lon="-9.173858994618058">
        <ele>234.22</ele>
        <time>2026-06-30T16:12:55Z</time>
      </trkpt>
      <trkpt lat="52.48926904052496" lon="-9.173696972429752">
        <ele>234.22</ele>
        <time>2026-06-30T16:12:56Z</time>
      </trkpt>
      <trkpt lat="52.489273985847831" lon="-9.173508966341615">
        <ele>234.22</ele>
        <time>2026-06-30T16:12:57Z</time>
      </trkpt>
      <trkpt lat="52.489291001111269" lon="-9.173306962475181">
        <ele>234.22</ele>
        <time>2026-06-30T16:12:58Z</time>
      </trkpt>
      <trkpt lat="52.489446988329291" lon="-9.171451963484287">
        <ele>234.69999999999999</ele>
        <time>2026-06-30T16:13:05Z</time>
      </trkpt>
      <trkpt lat="52.489771032705903" lon="-9.168772017583251">
        <ele>229.88999999999999</ele>
        <time>2026-06-30T16:13:13Z</time>
      </trkpt>
      <trkpt lat="52.49058298766613" lon="-9.165012985467911">
        <ele>223.63999999999999</ele>
        <time>2026-06-30T16:13:24Z</time>
      </trkpt>
      <trkpt lat="52.491255970671773" lon="-9.162333039566875">
        <ele>219.80000000000001</ele>
        <time>2026-06-30T16:13:33Z</time>
      </trkpt>
      <trkpt lat="52.492155013605952" lon="-9.158504018560052">
        <ele>217.40000000000001</ele>
        <time>2026-06-30T16:13:45Z</time>
      </trkpt>
      <trkpt lat="52.492864960804582" lon="-9.155641011893749">
        <ele>216.43000000000001</ele>
        <time>2026-06-30T16:13:55Z</time>
      </trkpt>
      <trkpt lat="52.493500979617238" lon="-9.153145970776677">
        <ele>211.63</ele>
        <time>2026-06-30T16:14:06Z</time>
      </trkpt>
      <trkpt lat="52.494014035910368" lon="-9.150777999311686">
        <ele>207.30000000000001</ele>
        <time>2026-06-30T16:14:19Z</time>
      </trkpt>
      <trkpt lat="52.494497001171112" lon="-9.148802971467376">
        <ele>202.97999999999999</ele>
        <time>2026-06-30T16:14:30Z</time>
      </trkpt>
      <trkpt lat="52.494565984234214" lon="-9.148644972592592">
        <ele>202.49000000000001</ele>
        <time>2026-06-30T16:14:31Z</time>
      </trkpt>
      <trkpt lat="52.494672015309334" lon="-9.148479010909796">
        <ele>201.53</ele>
        <time>2026-06-30T16:14:32Z</time>
      </trkpt>
      <trkpt lat="52.49494300223887" lon="-9.148121019825339">
        <ele>200.56999999999999</ele>
        <time>2026-06-30T16:14:35Z</time>
      </trkpt>
      <trkpt lat="52.495036963373423" lon="-9.147996967658401">
        <ele>200.56999999999999</ele>
        <time>2026-06-30T16:14:36Z</time>
      </trkpt>
      <trkpt lat="52.495126985013485" lon="-9.147879034280777">
        <ele>200.56999999999999</ele>
        <time>2026-06-30T16:14:37Z</time>
      </trkpt>
      <trkpt lat="52.495179958641529" lon="-9.147701002657414">
        <ele>200.56999999999999</ele>
        <time>2026-06-30T16:14:38Z</time>
      </trkpt>
      <trkpt lat="52.49522102996707" lon="-9.147525988519192">
        <ele>201.05000000000001</ele>
        <time>2026-06-30T16:14:39Z</time>
      </trkpt>
      <trkpt lat="52.495262017473578" lon="-9.147349968552589">
        <ele>202.00999999999999</ele>
        <time>2026-06-30T16:14:40Z</time>
      </trkpt>
      <trkpt lat="52.495292024686933" lon="-9.147166991606355">
        <ele>202.49000000000001</ele>
        <time>2026-06-30T16:14:41Z</time>
      </trkpt>
      <trkpt lat="52.495283978059888" lon="-9.146975968033075">
        <ele>203.46000000000001</ele>
        <time>2026-06-30T16:14:42Z</time>
      </trkpt>
      <trkpt lat="52.495275009423494" lon="-9.146784022450447">
        <ele>203.94</ele>
        <time>2026-06-30T16:14:43Z</time>
      </trkpt>
      <trkpt lat="52.495266040787101" lon="-9.146589981392026">
        <ele>204.41999999999999</ele>
        <time>2026-06-30T16:14:44Z</time>
      </trkpt>
      <trkpt lat="52.495216000825167" lon="-9.145464040338993">
        <ele>205.38</ele>
        <time>2026-06-30T16:14:52Z</time>
      </trkpt>
      <trkpt lat="52.495211977511644" lon="-9.145389022305608">
        <ele>205.86000000000001</ele>
        <time>2026-06-30T16:14:53Z</time>
      </trkpt>
      <trkpt lat="52.495208960026503" lon="-9.145325990393758">
        <ele>205.86000000000001</ele>
        <time>2026-06-30T16:14:54Z</time>
      </trkpt>
      <trkpt lat="52.495199991390109" lon="-9.145119041204453">
        <ele>205.86000000000001</ele>
        <time>2026-06-30T16:15:03Z</time>
      </trkpt>
      <trkpt lat="52.495197979733348" lon="-9.145078975707293">
        <ele>205.86000000000001</ele>
        <time>2026-06-30T16:15:04Z</time>
      </trkpt>
      <trkpt lat="52.495197979733348" lon="-9.145078975707293">
        <ele>205.86000000000001</ele>
        <time>2026-06-30T16:15:18Z</time>
      </trkpt>
      <trkpt lat="52.495197979733348" lon="-9.145078975707293">
        <ele>205.38</ele>
        <time>2026-06-30T16:15:53Z</time>
      </trkpt>
      <trkpt lat="52.495358996093273" lon="-9.144946960732341">
        <ele>195.28</ele>
        <time>2026-06-30T16:18:25Z</time>
      </trkpt>
      <trkpt lat="52.495314991101623" lon="-9.14487898349762">
        <ele>193.36000000000001</ele>
        <time>2026-06-30T16:19:04Z</time>
      </trkpt>
      <trkpt lat="52.495352039113641" lon="-9.144909996539354">
        <ele>189.03999999999999</ele>
        <time>2026-06-30T16:19:34Z</time>
      </trkpt>
      <trkpt lat="52.49518096446991" lon="-9.144808994606137">
        <ele>195.28</ele>
        <time>2026-06-30T16:19:46Z</time>
      </trkpt>
      <trkpt lat="52.495167972519994" lon="-9.144758032634854">
        <ele>196.72999999999999</ele>
        <time>2026-06-30T16:19:47Z</time>
      </trkpt>
      <trkpt lat="52.495156992226839" lon="-9.144712015986443">
        <ele>197.69</ele>
        <time>2026-06-30T16:19:48Z</time>
      </trkpt>
      <trkpt lat="52.495146011933684" lon="-9.144672034308314">
        <ele>198.16999999999999</ele>
        <time>2026-06-30T16:19:49Z</time>
      </trkpt>
      <trkpt lat="52.49513603746891" lon="-9.144630040973425">
        <ele>198.65000000000001</ele>
        <time>2026-06-30T16:19:50Z</time>
      </trkpt>
      <trkpt lat="52.495064036920667" lon="-9.144348995760083">
        <ele>196.25</ele>
        <time>2026-06-30T16:19:56Z</time>
      </trkpt>
      <trkpt lat="52.495039980858564" lon="-9.144253022968769">
        <ele>195.77000000000001</ele>
        <time>2026-06-30T16:19:57Z</time>
      </trkpt>
      <trkpt lat="52.494979966431856" lon="-9.144016988575459">
        <ele>194.31999999999999</ele>
        <time>2026-06-30T16:19:59Z</time>
      </trkpt>
      <trkpt lat="52.494945013895631" lon="-9.143881034106016">
        <ele>193.84</ele>
        <time>2026-06-30T16:20:00Z</time>
      </trkpt>
      <trkpt lat="52.494810987263918" lon="-9.143158011138439">
        <ele>191.91999999999999</ele>
        <time>2026-06-30T16:20:04Z</time>
      </trkpt>
      <trkpt lat="52.494805036112666" lon="-9.14294402115047">
        <ele>191.91999999999999</ele>
        <time>2026-06-30T16:20:05Z</time>
      </trkpt>
      <trkpt lat="52.494811993092299" lon="-9.142705975100398">
        <ele>191.44</ele>
        <time>2026-06-30T16:20:06Z</time>
      </trkpt>
      <trkpt lat="52.494884999468923" lon="-9.140275977551937">
        <ele>185.19</ele>
        <time>2026-06-30T16:20:15Z</time>
      </trkpt>
      <trkpt lat="52.49496697448194" lon="-9.137033019214869">
        <ele>180.38</ele>
        <time>2026-06-30T16:20:26Z</time>
      </trkpt>
      <trkpt lat="52.495109969750047" lon="-9.133970020338893">
        <ele>186.63</ele>
        <time>2026-06-30T16:20:36Z</time>
      </trkpt>
      <trkpt lat="52.495121033862233" lon="-9.133711019530892">
        <ele>186.63</ele>
        <time>2026-06-30T16:20:37Z</time>
      </trkpt>
      <trkpt lat="52.49509597197175" lon="-9.133459981530905">
        <ele>186.15000000000001</ele>
        <time>2026-06-30T16:20:38Z</time>
      </trkpt>
      <trkpt lat="52.495064036920667" lon="-9.133193017914891">
        <ele>185.19</ele>
        <time>2026-06-30T16:20:39Z</time>
      </trkpt>
      <trkpt lat="52.494887011125684" lon="-9.130904003977776">
        <ele>188.08000000000001</ele>
        <time>2026-06-30T16:20:48Z</time>
      </trkpt>
      <trkpt lat="52.494887011125684" lon="-9.130436964333057">
        <ele>190</ele>
        <time>2026-06-30T16:20:50Z</time>
      </trkpt>
      <trkpt lat="52.494887011125684" lon="-9.130304027348757">
        <ele>190.96000000000001</ele>
        <time>2026-06-30T16:20:51Z</time>
      </trkpt>
      <trkpt lat="52.494853986427188" lon="-9.13012096658349">
        <ele>191.91999999999999</ele>
        <time>2026-06-30T16:20:52Z</time>
      </trkpt>
      <trkpt lat="52.494833031669259" lon="-9.130000015720725">
        <ele>192.40000000000001</ele>
        <time>2026-06-30T16:20:53Z</time>
      </trkpt>
      <trkpt lat="52.494791960343719" lon="-9.129922986030579">
        <ele>193.36000000000001</ele>
        <time>2026-06-30T16:20:54Z</time>
      </trkpt>
      <trkpt lat="52.494723983108997" lon="-9.129886021837592">
        <ele>193.84</ele>
        <time>2026-06-30T16:20:55Z</time>
      </trkpt>
      <trkpt lat="52.494645025581121" lon="-9.129844028502703">
        <ele>194.31999999999999</ele>
        <time>2026-06-30T16:20:56Z</time>
      </trkpt>
      <trkpt lat="52.494555003941059" lon="-9.12979600019753">
        <ele>194.31999999999999</ele>
        <time>2026-06-30T16:20:57Z</time>
      </trkpt>
      <trkpt lat="52.493885038420558" lon="-9.129272969439626">
        <ele>194.31999999999999</ele>
        <time>2026-06-30T16:21:03Z</time>
      </trkpt>
      <trkpt lat="52.493773978203535" lon="-9.129107007756829">
        <ele>194.31999999999999</ele>
        <time>2026-06-30T16:21:04Z</time>
      </trkpt>
      <trkpt lat="52.492927992716432" lon="-9.127143966034055">
        <ele>192.88</ele>
        <time>2026-06-30T16:21:13Z</time>
      </trkpt>
      <trkpt lat="52.492616018280387" lon="-9.124916978180409">
        <ele>191.91999999999999</ele>
        <time>2026-06-30T16:21:21Z</time>
      </trkpt>
      <trkpt lat="52.492867978289723" lon="-9.122931975871325">
        <ele>189.03999999999999</ele>
        <time>2026-06-30T16:21:28Z</time>
      </trkpt>
      <trkpt lat="52.493451023474336" lon="-9.119750037789345">
        <ele>180.87</ele>
        <time>2026-06-30T16:21:38Z</time>
      </trkpt>
      <trkpt lat="52.49397799372673" lon="-9.117084005847573">
        <ele>174.13999999999999</ele>
        <time>2026-06-30T16:21:46Z</time>
      </trkpt>
      <trkpt lat="52.494390970095992" lon="-9.113992005586624">
        <ele>168.84999999999999</ele>
        <time>2026-06-30T16:21:55Z</time>
      </trkpt>
      <trkpt lat="52.494988013058901" lon="-9.110871003940702">
        <ele>162.12</ele>
        <time>2026-06-30T16:22:05Z</time>
      </trkpt>
      <trkpt lat="52.495401995256543" lon="-9.109253967180848">
        <ele>157.31</ele>
        <time>2026-06-30T16:22:11Z</time>
      </trkpt>
      <trkpt lat="52.495438037440181" lon="-9.108989015221596">
        <ele>156.83000000000001</ele>
        <time>2026-06-30T16:22:12Z</time>
      </trkpt>
      <trkpt lat="52.495471984148026" lon="-9.108745018020272">
        <ele>156.34999999999999</ele>
        <time>2026-06-30T16:22:13Z</time>
      </trkpt>
      <trkpt lat="52.49547902494669" lon="-9.108509989455342">
        <ele>155.38999999999999</ele>
        <time>2026-06-30T16:22:14Z</time>
      </trkpt>
      <trkpt lat="52.495462009683251" lon="-9.108274038881064">
        <ele>154.91</ele>
        <time>2026-06-30T16:22:15Z</time>
      </trkpt>
      <trkpt lat="52.495444994419813" lon="-9.108029035851359">
        <ele>154.43000000000001</ele>
        <time>2026-06-30T16:22:16Z</time>
      </trkpt>
      <trkpt lat="52.495427979156375" lon="-9.107781015336514">
        <ele>153.94999999999999</ele>
        <time>2026-06-30T16:22:17Z</time>
      </trkpt>
      <trkpt lat="52.495391014963388" lon="-9.107535006478429">
        <ele>153.47</ele>
        <time>2026-06-30T16:22:18Z</time>
      </trkpt>
      <trkpt lat="52.495343992486596" lon="-9.107285980135202">
        <ele>152.99000000000001</ele>
        <time>2026-06-30T16:22:19Z</time>
      </trkpt>
      <trkpt lat="52.49518096446991" lon="-9.106305968016386">
        <ele>150.58000000000001</ele>
        <time>2026-06-30T16:22:23Z</time>
      </trkpt>
      <trkpt lat="52.495171995833516" lon="-9.106068005785346">
        <ele>150.09999999999999</ele>
        <time>2026-06-30T16:22:24Z</time>
      </trkpt>
      <trkpt lat="52.495177024975419" lon="-9.105823002755642">
        <ele>149.13999999999999</ele>
        <time>2026-06-30T16:22:25Z</time>
      </trkpt>
      <trkpt lat="52.495210971683264" lon="-9.105587974190712">
        <ele>148.66</ele>
        <time>2026-06-30T16:22:26Z</time>
      </trkpt>
      <trkpt lat="52.495251959189773" lon="-9.105349006131291">
        <ele>147.69999999999999</ele>
        <time>2026-06-30T16:22:27Z</time>
      </trkpt>
      <trkpt lat="52.495301999151707" lon="-9.105102997273207">
        <ele>147.22</ele>
        <time>2026-06-30T16:22:28Z</time>
      </trkpt>
      <trkpt lat="52.495677005499601" lon="-9.103281022980809">
        <ele>144.34</ele>
        <time>2026-06-30T16:22:35Z</time>
      </trkpt>
      <trkpt lat="52.495741965249181" lon="-9.103052029386163">
        <ele>144.34</ele>
        <time>2026-06-30T16:22:36Z</time>
      </trkpt>
      <trkpt lat="52.495818994939327" lon="-9.102849019691348">
        <ele>143.84999999999999</ele>
        <time>2026-06-30T16:22:37Z</time>
      </trkpt>
      <trkpt lat="52.495917985215783" lon="-9.102672999724746">
        <ele>143.84999999999999</ele>
        <time>2026-06-30T16:22:38Z</time>
      </trkpt>
      <trkpt lat="52.496023010462523" lon="-9.102499997243285">
        <ele>143.37</ele>
        <time>2026-06-30T16:22:39Z</time>
      </trkpt>
      <trkpt lat="52.496218979358673" lon="-9.10214401781559">
        <ele>142.88999999999999</ele>
        <time>2026-06-30T16:22:41Z</time>
      </trkpt>
      <trkpt lat="52.496286034584045" lon="-9.101934973150492">
        <ele>141.93000000000001</ele>
        <time>2026-06-30T16:22:42Z</time>
      </trkpt>
      <trkpt lat="52.496355017647147" lon="-9.101720983162522">
        <ele>141.44999999999999</ele>
        <time>2026-06-30T16:22:43Z</time>
      </trkpt>
      <trkpt lat="52.496412014588714" lon="-9.101485032588244">
        <ele>141.44999999999999</ele>
        <time>2026-06-30T16:22:44Z</time>
      </trkpt>
      <trkpt lat="52.496418971568346" lon="-9.101226031780243">
        <ele>140.97</ele>
        <time>2026-06-30T16:22:45Z</time>
      </trkpt>
      <trkpt lat="52.49642500653863" lon="-9.100965019315481">
        <ele>140.49000000000001</ele>
        <time>2026-06-30T16:22:46Z</time>
      </trkpt>
      <trkpt lat="52.496431041508913" lon="-9.100735019892454">
        <ele>139.53</ele>
        <time>2026-06-30T16:22:47Z</time>
      </trkpt>
      <trkpt lat="52.496365997940302" lon="-9.100492028519511">
        <ele>138.56999999999999</ele>
        <time>2026-06-30T16:22:48Z</time>
      </trkpt>
      <trkpt lat="52.496303971856833" lon="-9.100263034924865">
        <ele>137.61000000000001</ele>
        <time>2026-06-30T16:22:49Z</time>
      </trkpt>
      <trkpt lat="52.496221996843815" lon="-9.100051978603005">
        <ele>136.63999999999999</ele>
        <time>2026-06-30T16:22:50Z</time>
      </trkpt>
      <trkpt lat="52.49612401239574" lon="-9.099842011928558">
        <ele>135.68000000000001</ele>
        <time>2026-06-30T16:22:51Z</time>
      </trkpt>
      <trkpt lat="52.496020998805761" lon="-9.099622992798686">
        <ele>134.72</ele>
        <time>2026-06-30T16:22:52Z</time>
      </trkpt>
      <trkpt lat="52.495914967730641" lon="-9.099397016689181">
        <ele>133.28</ele>
        <time>2026-06-30T16:22:53Z</time>
      </trkpt>
      <trkpt lat="52.494977032765746" lon="-9.096878003329039">
        <ele>127.51000000000001</ele>
        <time>2026-06-30T16:23:02Z</time>
      </trkpt>
      <trkpt lat="52.494051000103354" lon="-9.094580020755529">
        <ele>120.78</ele>
        <time>2026-06-30T16:23:10Z</time>
      </trkpt>
      <trkpt lat="52.493957038968801" lon="-9.094333006069064">
        <ele>120.78</ele>
        <time>2026-06-30T16:23:11Z</time>
      </trkpt>
      <trkpt lat="52.493885038420558" lon="-9.094098983332515">
        <ele>120.3</ele>
        <time>2026-06-30T16:23:12Z</time>
      </trkpt>
      <trkpt lat="52.493813959881663" lon="-9.093868983909488">
        <ele>119.81999999999999</ele>
        <time>2026-06-30T16:23:13Z</time>
      </trkpt>
      <trkpt lat="52.493798034265637" lon="-9.093647031113505">
        <ele>119.34</ele>
        <time>2026-06-30T16:23:14Z</time>
      </trkpt>
      <trkpt lat="52.493780013173819" lon="-9.093401022255421">
        <ele>118.86</ele>
        <time>2026-06-30T16:23:15Z</time>
      </trkpt>
      <trkpt lat="52.493760986253619" lon="-9.09314202144742">
        <ele>118.38</ele>
        <time>2026-06-30T16:23:16Z</time>
      </trkpt>
      <trkpt lat="52.493664007633924" lon="-9.090786036103964">
        <ele>115.98</ele>
        <time>2026-06-30T16:23:25Z</time>
      </trkpt>
      <trkpt lat="52.493840027600527" lon="-9.088955009356141">
        <ele>113.56999999999999</ele>
        <time>2026-06-30T16:23:32Z</time>
      </trkpt>
      <trkpt lat="52.494060974568129" lon="-9.086205996572971">
        <ele>107.81</ele>
        <time>2026-06-30T16:23:41Z</time>
      </trkpt>
      <trkpt lat="52.494308995082974" lon="-9.082899000495672">
        <ele>106.84</ele>
        <time>2026-06-30T16:23:52Z</time>
      </trkpt>
      <trkpt lat="52.494412008672953" lon="-9.081082977354527">
        <ele>104.92</ele>
        <time>2026-06-30T16:23:59Z</time>
      </trkpt>
      <trkpt lat="52.494532959535718" lon="-9.078952968120575">
        <ele>103.95999999999999</ele>
        <time>2026-06-30T16:24:07Z</time>
      </trkpt>
      <trkpt lat="52.494666986167431" lon="-9.075597021728754">
        <ele>101.56</ele>
        <time>2026-06-30T16:24:18Z</time>
      </trkpt>
      <trkpt lat="52.494703028351068" lon="-9.072294970974326">
        <ele>99.150000000000006</ele>
        <time>2026-06-30T16:24:28Z</time>
      </trkpt>
      <trkpt lat="52.49423498287797" lon="-9.069603960961103">
        <ele>97.230000000000004</ele>
        <time>2026-06-30T16:24:36Z</time>
      </trkpt>
      <trkpt lat="52.494154013693333" lon="-9.068985963240266">
        <ele>97.709999999999994</ele>
        <time>2026-06-30T16:24:38Z</time>
      </trkpt>
      <trkpt lat="52.494129035621881" lon="-9.068709025159478">
        <ele>97.709999999999994</ele>
        <time>2026-06-30T16:24:39Z</time>
      </trkpt>
      <trkpt lat="52.494116965681314" lon="-9.068450024351478">
        <ele>97.709999999999994</ele>
        <time>2026-06-30T16:24:40Z</time>
      </trkpt>
      <trkpt lat="52.494104979559779" lon="-9.068207032978535">
        <ele>97.230000000000004</ele>
        <time>2026-06-30T16:24:41Z</time>
      </trkpt>
      <trkpt lat="52.494093999266624" lon="-9.067965969443321">
        <ele>97.230000000000004</ele>
        <time>2026-06-30T16:24:42Z</time>
      </trkpt>
      <trkpt lat="52.494082013145089" lon="-9.067719960585237">
        <ele>97.230000000000004</ele>
        <time>2026-06-30T16:24:43Z</time>
      </trkpt>
      <trkpt lat="52.494070027023554" lon="-9.067464983090758">
        <ele>97.230000000000004</ele>
        <time>2026-06-30T16:24:44Z</time>
      </trkpt>
      <trkpt lat="52.494052005931735" lon="-9.066938012838364">
        <ele>96.269999999999996</ele>
        <time>2026-06-30T16:24:46Z</time>
      </trkpt>
      <trkpt lat="52.494024010375142" lon="-9.065906032919884">
        <ele>93.390000000000001</ele>
        <time>2026-06-30T16:24:51Z</time>
      </trkpt>
      <trkpt lat="52.49397698789835" lon="-9.065763037651777">
        <ele>92.420000000000002</ele>
        <time>2026-06-30T16:24:52Z</time>
      </trkpt>
      <trkpt lat="52.493870034813881" lon="-9.065510993823409">
        <ele>90.980000000000004</ele>
        <time>2026-06-30T16:24:54Z</time>
      </trkpt>
      <trkpt lat="52.493837010115385" lon="-9.065365986898542">
        <ele>90.5</ele>
        <time>2026-06-30T16:24:55Z</time>
      </trkpt>
      <trkpt lat="52.493815971538424" lon="-9.065209999680519">
        <ele>89.060000000000002</ele>
        <time>2026-06-30T16:24:56Z</time>
      </trkpt>
      <trkpt lat="52.493824018165469" lon="-9.065053006634116">
        <ele>88.579999999999998</ele>
        <time>2026-06-30T16:24:57Z</time>
      </trkpt>
      <trkpt lat="52.493832986801863" lon="-9.064886961132288">
        <ele>87.620000000000005</ele>
        <time>2026-06-30T16:24:58Z</time>
      </trkpt>
      <trkpt lat="52.493867017328739" lon="-9.06471898779273">
        <ele>86.659999999999997</ele>
        <time>2026-06-30T16:24:59Z</time>
      </trkpt>
      <trkpt lat="52.493906999006867" lon="-9.064569035544992">
        <ele>85.689999999999998</ele>
        <time>2026-06-30T16:25:00Z</time>
      </trkpt>
      <trkpt lat="52.493946980684996" lon="-9.064420005306602">
        <ele>84.730000000000004</ele>
        <time>2026-06-30T16:25:01Z</time>
      </trkpt>
      <trkpt lat="52.49438501894474" lon="-9.062793999910355">
        <ele>78.480000000000004</ele>
        <time>2026-06-30T16:25:13Z</time>
      </trkpt>
      <trkpt lat="52.494619963690639" lon="-9.061909960582852">
        <ele>76.079999999999998</ele>
        <time>2026-06-30T16:25:22Z</time>
      </trkpt>
      <trkpt lat="52.494648965075612" lon="-9.061791021376848">
        <ele>76.079999999999998</ele>
        <time>2026-06-30T16:25:23Z</time>
      </trkpt>
      <trkpt lat="52.494982983916998" lon="-9.06044396571815">
        <ele>73.200000000000003</ele>
        <time>2026-06-30T16:25:34Z</time>
      </trkpt>
      <trkpt lat="52.495235027745366" lon="-9.059188021346927">
        <ele>72.719999999999999</ele>
        <time>2026-06-30T16:25:46Z</time>
      </trkpt>
      <trkpt lat="52.495467038825154" lon="-9.058135002851486">
        <ele>69.349999999999994</ele>
        <time>2026-06-30T16:25:57Z</time>
      </trkpt>
      <trkpt lat="52.495643980801105" lon="-9.057371998205781">
        <ele>67.430000000000007</ele>
        <time>2026-06-30T16:26:05Z</time>
      </trkpt>
      <trkpt lat="52.495613973587751" lon="-9.057335034012795">
        <ele>67.430000000000007</ele>
        <time>2026-06-30T16:26:06Z</time>
      </trkpt>
      <trkpt lat="52.495572986081243" lon="-9.05728398822248">
        <ele>67.430000000000007</ele>
        <time>2026-06-30T16:26:07Z</time>
      </trkpt>
      <trkpt lat="52.495525041595101" lon="-9.057223973795772">
        <ele>67.430000000000007</ele>
        <time>2026-06-30T16:26:08Z</time>
      </trkpt>
      <trkpt lat="52.495470978319645" lon="-9.05715499073267">
        <ele>67.430000000000007</ele>
        <time>2026-06-30T16:26:09Z</time>
      </trkpt>
      <trkpt lat="52.495410041883588" lon="-9.057078966870904">
        <ele>67.909999999999997</ele>
        <time>2026-06-30T16:26:10Z</time>
      </trkpt>
      <trkpt lat="52.495340975001454" lon="-9.057000009343028">
        <ele>67.909999999999997</ele>
        <time>2026-06-30T16:26:11Z</time>
      </trkpt>
      <trkpt lat="52.495185993611813" lon="-9.056823989376426">
        <ele>67.430000000000007</ele>
        <time>2026-06-30T16:26:13Z</time>
      </trkpt>
      <trkpt lat="52.494276976212859" lon="-9.056197023019195">
        <ele>64.549999999999997</ele>
        <time>2026-06-30T16:26:22Z</time>
      </trkpt>
      <trkpt lat="52.49386802315712" lon="-9.055963000282645">
        <ele>63.579999999999998</ele>
        <time>2026-06-30T16:26:26Z</time>
      </trkpt>
      <trkpt lat="52.493779007345438" lon="-9.055910026654601">
        <ele>63.100000000000001</ele>
        <time>2026-06-30T16:26:27Z</time>
      </trkpt>
      <trkpt lat="52.493425961583853" lon="-9.055700981989503">
        <ele>64.069999999999993</ele>
        <time>2026-06-30T16:26:32Z</time>
      </trkpt>
      <trkpt lat="52.493382962420583" lon="-9.055676003918052">
        <ele>64.069999999999993</ele>
        <time>2026-06-30T16:26:33Z</time>
      </trkpt>
      <trkpt lat="52.49335203319788" lon="-9.055656976997852">
        <ele>64.069999999999993</ele>
        <time>2026-06-30T16:26:34Z</time>
      </trkpt>
      <trkpt lat="52.4933320004493" lon="-9.055644990876317">
        <ele>64.069999999999993</ele>
        <time>2026-06-30T16:26:35Z</time>
      </trkpt>
      <trkpt lat="52.493316996842623" lon="-9.055636022239924">
        <ele>64.549999999999997</ele>
        <time>2026-06-30T16:26:36Z</time>
      </trkpt>
      <trkpt lat="52.493248013779521" lon="-9.055827967822552">
        <ele>65.030000000000001</ele>
        <time>2026-06-30T16:26:38Z</time>
      </trkpt>
      <trkpt lat="52.493230998516083" lon="-9.056257959455252">
        <ele>64.549999999999997</ele>
        <time>2026-06-30T16:26:48Z</time>
      </trkpt>
      <trkpt lat="52.493115998804569" lon="-9.056491982191801">
        <ele>63.579999999999998</ele>
        <time>2026-06-30T16:26:54Z</time>
      </trkpt>
      <trkpt lat="52.492975015193224" lon="-9.056611005216837">
        <ele>64.069999999999993</ele>
        <time>2026-06-30T16:26:58Z</time>
      </trkpt>
      <trkpt lat="52.49288197606802" lon="-9.056650986894965">
        <ele>64.549999999999997</ele>
        <time>2026-06-30T16:27:01Z</time>
      </trkpt>
      <trkpt lat="52.492834031581879" lon="-9.056560965254903">
        <ele>65.510000000000005</ele>
        <time>2026-06-30T16:27:06Z</time>
      </trkpt>
      <trkpt lat="52.492875019088387" lon="-9.056492988020182">
        <ele>65.510000000000005</ele>
        <time>2026-06-30T16:27:08Z</time>
      </trkpt>
      <trkpt lat="52.493112981319427" lon="-9.056367008015513">
        <ele>65.989999999999995</ele>
        <time>2026-06-30T16:27:14Z</time>
      </trkpt>
      <trkpt lat="52.493210965767503" lon="-9.056039024144411">
        <ele>66.950000000000003</ele>
        <time>2026-06-30T16:27:21Z</time>
      </trkpt>
      <trkpt lat="52.493070987984538" lon="-9.055794021114707">
        <ele>68.870000000000005</ele>
        <time>2026-06-30T16:27:28Z</time>
      </trkpt>
      <trkpt lat="52.492969986051321" lon="-9.055802989751101">
        <ele>68.390000000000001</ele>
        <time>2026-06-30T16:27:32Z</time>
      </trkpt>
      <trkpt lat="52.492767982184887" lon="-9.055998958647251">
        <ele>66.950000000000003</ele>
        <time>2026-06-30T16:27:45Z</time>
      </trkpt>
      <trkpt lat="52.49275297857821" lon="-9.056028965860605">
        <ele>66.950000000000003</ele>
        <time>2026-06-30T16:27:46Z</time>
      </trkpt>
      <trkpt lat="52.492735963314772" lon="-9.056067019701004">
        <ele>65.989999999999995</ele>
        <time>2026-06-30T16:28:01Z</time>
      </trkpt>
      <trkpt lat="52.492733029648662" lon="-9.056071965023875">
        <ele>65.989999999999995</ele>
        <time>2026-06-30T16:28:39Z</time>
      </trkpt>
      <trkpt lat="52.49273001216352" lon="-9.056073976680636">
        <ele>65.030000000000001</ele>
        <time>2026-06-30T16:29:54Z</time>
      </trkpt>
    </trkseg>
  </trk>

</gpx>